<?xml version="1.0" encoding="UTF-8" standalone="no" ?>
<gpx xmlns="http://www.topografix.com/GPX/1/1" xmlns:xsi="http://www.w3.org/2001/XMLSchema-instance" xsi:schemaLocation="http://www.topografix.com/GPX/1/1 http://www.topografix.com/GPX/1/1/gpx.xsd" version="1.1" creator="VisuGPX - https://www.visugpx.com">
  <metadata>
    <name>4 Pics Marato</name>
    <desc><![CDATA[Ferran-Bestraca- Montmajor i Montpetit]]></desc>
  </metadata>
  <trk>
    <name><![CDATA[4 Pics run]]></name>
    <trkseg>
      <trkpt lat="42.27111" lon="2.52849">
        <ele>411</ele>
        <time>2015-01-17T06:28:40Z</time>
      </trkpt>
      <trkpt lat="42.2711" lon="2.52847">
        <ele>411</ele>
        <time>2015-01-17T06:28:45Z</time>
      </trkpt>
      <trkpt lat="42.27107" lon="2.52841">
        <ele>411</ele>
        <time>2015-01-17T06:28:49Z</time>
      </trkpt>
      <trkpt lat="42.27104" lon="2.52836">
        <ele>411</ele>
        <time>2015-01-17T06:28:53Z</time>
      </trkpt>
      <trkpt lat="42.27102" lon="2.5283">
        <ele>411</ele>
        <time>2015-01-17T06:28:58Z</time>
      </trkpt>
      <trkpt lat="42.271" lon="2.52825">
        <ele>410</ele>
        <time>2015-01-17T06:29:02Z</time>
      </trkpt>
      <trkpt lat="42.27095" lon="2.5282">
        <ele>410</ele>
        <time>2015-01-17T06:29:07Z</time>
      </trkpt>
      <trkpt lat="42.27089" lon="2.52814">
        <ele>411</ele>
        <time>2015-01-17T06:29:13Z</time>
      </trkpt>
      <trkpt lat="42.27081" lon="2.52815">
        <ele>410</ele>
        <time>2015-01-17T06:29:33Z</time>
      </trkpt>
      <trkpt lat="42.27077" lon="2.52815">
        <ele>410</ele>
        <time>2015-01-17T06:29:36Z</time>
      </trkpt>
      <trkpt lat="42.27068" lon="2.52815">
        <ele>410</ele>
        <time>2015-01-17T06:29:41Z</time>
      </trkpt>
      <trkpt lat="42.27064" lon="2.52815">
        <ele>410</ele>
        <time>2015-01-17T06:29:44Z</time>
      </trkpt>
      <trkpt lat="42.27058" lon="2.52815">
        <ele>410</ele>
        <time>2015-01-17T06:29:48Z</time>
      </trkpt>
      <trkpt lat="42.27052" lon="2.52816">
        <ele>409</ele>
        <time>2015-01-17T06:29:52Z</time>
      </trkpt>
      <trkpt lat="42.27046" lon="2.52817">
        <ele>409</ele>
        <time>2015-01-17T06:29:56Z</time>
      </trkpt>
      <trkpt lat="42.27041" lon="2.52817">
        <ele>409</ele>
        <time>2015-01-17T06:29:59Z</time>
      </trkpt>
      <trkpt lat="42.27036" lon="2.52819">
        <ele>407</ele>
        <time>2015-01-17T06:30:02Z</time>
      </trkpt>
      <trkpt lat="42.27031" lon="2.5282">
        <ele>407</ele>
        <time>2015-01-17T06:30:04Z</time>
      </trkpt>
      <trkpt lat="42.27026" lon="2.52821">
        <ele>407</ele>
        <time>2015-01-17T06:30:06Z</time>
      </trkpt>
      <trkpt lat="42.27019" lon="2.52825">
        <ele>407</ele>
        <time>2015-01-17T06:30:09Z</time>
      </trkpt>
      <trkpt lat="42.27012" lon="2.52829">
        <ele>407</ele>
        <time>2015-01-17T06:30:13Z</time>
      </trkpt>
      <trkpt lat="42.27006" lon="2.52832">
        <ele>407</ele>
        <time>2015-01-17T06:30:15Z</time>
      </trkpt>
      <trkpt lat="42.26999" lon="2.52837">
        <ele>407</ele>
        <time>2015-01-17T06:30:19Z</time>
      </trkpt>
      <trkpt lat="42.26994" lon="2.52841">
        <ele>407</ele>
        <time>2015-01-17T06:30:22Z</time>
      </trkpt>
      <trkpt lat="42.26987" lon="2.52846">
        <ele>407</ele>
        <time>2015-01-17T06:30:26Z</time>
      </trkpt>
      <trkpt lat="42.26981" lon="2.52852">
        <ele>407</ele>
        <time>2015-01-17T06:30:30Z</time>
      </trkpt>
      <trkpt lat="42.26975" lon="2.52859">
        <ele>407</ele>
        <time>2015-01-17T06:30:34Z</time>
      </trkpt>
      <trkpt lat="42.26969" lon="2.52865">
        <ele>407</ele>
        <time>2015-01-17T06:30:37Z</time>
      </trkpt>
      <trkpt lat="42.26961" lon="2.52873">
        <ele>406</ele>
        <time>2015-01-17T06:30:41Z</time>
      </trkpt>
      <trkpt lat="42.26954" lon="2.52883">
        <ele>406</ele>
        <time>2015-01-17T06:30:45Z</time>
      </trkpt>
      <trkpt lat="42.26948" lon="2.52892">
        <ele>406</ele>
        <time>2015-01-17T06:30:49Z</time>
      </trkpt>
      <trkpt lat="42.2694" lon="2.529">
        <ele>403</ele>
        <time>2015-01-17T06:30:54Z</time>
      </trkpt>
      <trkpt lat="42.26934" lon="2.52909">
        <ele>402</ele>
        <time>2015-01-17T06:30:59Z</time>
      </trkpt>
      <trkpt lat="42.26928" lon="2.52915">
        <ele>401</ele>
        <time>2015-01-17T06:31:04Z</time>
      </trkpt>
      <trkpt lat="42.26922" lon="2.52921">
        <ele>401</ele>
        <time>2015-01-17T06:31:09Z</time>
      </trkpt>
      <trkpt lat="42.26916" lon="2.52928">
        <ele>401</ele>
        <time>2015-01-17T06:31:14Z</time>
      </trkpt>
      <trkpt lat="42.26911" lon="2.52934">
        <ele>401</ele>
        <time>2015-01-17T06:31:18Z</time>
      </trkpt>
      <trkpt lat="42.26905" lon="2.52943">
        <ele>401</ele>
        <time>2015-01-17T06:31:24Z</time>
      </trkpt>
      <trkpt lat="42.26902" lon="2.52951">
        <ele>401</ele>
        <time>2015-01-17T06:31:28Z</time>
      </trkpt>
      <trkpt lat="42.26902" lon="2.5296">
        <ele>401</ele>
        <time>2015-01-17T06:31:32Z</time>
      </trkpt>
      <trkpt lat="42.26904" lon="2.5297">
        <ele>401</ele>
        <time>2015-01-17T06:31:37Z</time>
      </trkpt>
      <trkpt lat="42.26907" lon="2.5298">
        <ele>402</ele>
        <time>2015-01-17T06:31:42Z</time>
      </trkpt>
      <trkpt lat="42.26912" lon="2.52988">
        <ele>402</ele>
        <time>2015-01-17T06:31:47Z</time>
      </trkpt>
      <trkpt lat="42.26916" lon="2.52997">
        <ele>403</ele>
        <time>2015-01-17T06:31:52Z</time>
      </trkpt>
      <trkpt lat="42.26922" lon="2.53006">
        <ele>403</ele>
        <time>2015-01-17T06:31:57Z</time>
      </trkpt>
      <trkpt lat="42.26927" lon="2.53015">
        <ele>403</ele>
        <time>2015-01-17T06:32:02Z</time>
      </trkpt>
      <trkpt lat="42.26933" lon="2.53022">
        <ele>403.9</ele>
        <time>2015-01-17T06:32:10Z</time>
      </trkpt>
      <trkpt lat="42.2694" lon="2.53022">
        <ele>404</ele>
        <time>2015-01-17T06:32:14Z</time>
      </trkpt>
      <trkpt lat="42.26948" lon="2.53022">
        <ele>404</ele>
        <time>2015-01-17T06:32:19Z</time>
      </trkpt>
      <trkpt lat="42.26957" lon="2.53024">
        <ele>402</ele>
        <time>2015-01-17T06:32:23Z</time>
      </trkpt>
      <trkpt lat="42.26965" lon="2.53027">
        <ele>402</ele>
        <time>2015-01-17T06:32:27Z</time>
      </trkpt>
      <trkpt lat="42.26973" lon="2.53034">
        <ele>399</ele>
        <time>2015-01-17T06:32:32Z</time>
      </trkpt>
      <trkpt lat="42.2698" lon="2.53042">
        <ele>398</ele>
        <time>2015-01-17T06:32:37Z</time>
      </trkpt>
      <trkpt lat="42.26985" lon="2.53049">
        <ele>397</ele>
        <time>2015-01-17T06:32:41Z</time>
      </trkpt>
      <trkpt lat="42.26991" lon="2.53057">
        <ele>397</ele>
        <time>2015-01-17T06:32:46Z</time>
      </trkpt>
      <trkpt lat="42.26997" lon="2.53065">
        <ele>397</ele>
        <time>2015-01-17T06:32:51Z</time>
      </trkpt>
      <trkpt lat="42.27003" lon="2.53073">
        <ele>397</ele>
        <time>2015-01-17T06:32:56Z</time>
      </trkpt>
      <trkpt lat="42.27009" lon="2.53081">
        <ele>397</ele>
        <time>2015-01-17T06:33:01Z</time>
      </trkpt>
      <trkpt lat="42.27014" lon="2.53089">
        <ele>397</ele>
        <time>2015-01-17T06:33:06Z</time>
      </trkpt>
      <trkpt lat="42.27022" lon="2.53099">
        <ele>398</ele>
        <time>2015-01-17T06:33:12Z</time>
      </trkpt>
      <trkpt lat="42.27028" lon="2.53106">
        <ele>398</ele>
        <time>2015-01-17T06:33:17Z</time>
      </trkpt>
      <trkpt lat="42.27034" lon="2.53114">
        <ele>398</ele>
        <time>2015-01-17T06:33:22Z</time>
      </trkpt>
      <trkpt lat="42.27039" lon="2.53123">
        <ele>398</ele>
        <time>2015-01-17T06:33:27Z</time>
      </trkpt>
      <trkpt lat="42.27044" lon="2.53133">
        <ele>397</ele>
        <time>2015-01-17T06:33:32Z</time>
      </trkpt>
      <trkpt lat="42.27048" lon="2.53144">
        <ele>397</ele>
        <time>2015-01-17T06:33:38Z</time>
      </trkpt>
      <trkpt lat="42.27052" lon="2.53154">
        <ele>397</ele>
        <time>2015-01-17T06:33:43Z</time>
      </trkpt>
      <trkpt lat="42.27058" lon="2.53161">
        <ele>397</ele>
        <time>2015-01-17T06:33:49Z</time>
      </trkpt>
      <trkpt lat="42.27066" lon="2.53168">
        <ele>396</ele>
        <time>2015-01-17T06:33:55Z</time>
      </trkpt>
      <trkpt lat="42.27072" lon="2.53175">
        <ele>395.1</ele>
        <time>2015-01-17T06:34:00Z</time>
      </trkpt>
      <trkpt lat="42.27079" lon="2.53184">
        <ele>395</ele>
        <time>2015-01-17T06:34:05Z</time>
      </trkpt>
      <trkpt lat="42.27085" lon="2.53194">
        <ele>396</ele>
        <time>2015-01-17T06:34:11Z</time>
      </trkpt>
      <trkpt lat="42.27091" lon="2.53205">
        <ele>396</ele>
        <time>2015-01-17T06:34:21Z</time>
      </trkpt>
      <trkpt lat="42.27096" lon="2.53215">
        <ele>396</ele>
        <time>2015-01-17T06:34:26Z</time>
      </trkpt>
      <trkpt lat="42.27101" lon="2.53226">
        <ele>395</ele>
        <time>2015-01-17T06:34:31Z</time>
      </trkpt>
      <trkpt lat="42.27105" lon="2.53238">
        <ele>395</ele>
        <time>2015-01-17T06:34:38Z</time>
      </trkpt>
      <trkpt lat="42.27109" lon="2.53246">
        <ele>395</ele>
        <time>2015-01-17T06:34:43Z</time>
      </trkpt>
      <trkpt lat="42.27113" lon="2.53254">
        <ele>395</ele>
        <time>2015-01-17T06:34:47Z</time>
      </trkpt>
      <trkpt lat="42.27116" lon="2.53262">
        <ele>394</ele>
        <time>2015-01-17T06:34:51Z</time>
      </trkpt>
      <trkpt lat="42.27119" lon="2.53269">
        <ele>394</ele>
        <time>2015-01-17T06:34:55Z</time>
      </trkpt>
      <trkpt lat="42.27121" lon="2.53276">
        <ele>394</ele>
        <time>2015-01-17T06:35:00Z</time>
      </trkpt>
      <trkpt lat="42.27124" lon="2.53283">
        <ele>394</ele>
        <time>2015-01-17T06:35:05Z</time>
      </trkpt>
      <trkpt lat="42.27126" lon="2.53291">
        <ele>394</ele>
        <time>2015-01-17T06:35:09Z</time>
      </trkpt>
      <trkpt lat="42.27128" lon="2.53298">
        <ele>394</ele>
        <time>2015-01-17T06:35:14Z</time>
      </trkpt>
      <trkpt lat="42.27132" lon="2.53307">
        <ele>394</ele>
        <time>2015-01-17T06:35:19Z</time>
      </trkpt>
      <trkpt lat="42.27135" lon="2.53316">
        <ele>394</ele>
        <time>2015-01-17T06:35:24Z</time>
      </trkpt>
      <trkpt lat="42.27136" lon="2.53324">
        <ele>394</ele>
        <time>2015-01-17T06:35:28Z</time>
      </trkpt>
      <trkpt lat="42.27138" lon="2.53332">
        <ele>394</ele>
        <time>2015-01-17T06:35:32Z</time>
      </trkpt>
      <trkpt lat="42.27139" lon="2.5334">
        <ele>394</ele>
        <time>2015-01-17T06:35:36Z</time>
      </trkpt>
      <trkpt lat="42.2714" lon="2.5335">
        <ele>394</ele>
        <time>2015-01-17T06:35:42Z</time>
      </trkpt>
      <trkpt lat="42.27142" lon="2.53362">
        <ele>394</ele>
        <time>2015-01-17T06:35:50Z</time>
      </trkpt>
      <trkpt lat="42.27141" lon="2.53373">
        <ele>394</ele>
        <time>2015-01-17T06:36:04Z</time>
      </trkpt>
      <trkpt lat="42.27142" lon="2.53385">
        <ele>394</ele>
        <time>2015-01-17T06:36:12Z</time>
      </trkpt>
      <trkpt lat="42.2714" lon="2.53396">
        <ele>394</ele>
        <time>2015-01-17T06:36:19Z</time>
      </trkpt>
      <trkpt lat="42.27145" lon="2.53407">
        <ele>394</ele>
        <time>2015-01-17T06:36:26Z</time>
      </trkpt>
      <trkpt lat="42.2715" lon="2.53416">
        <ele>394</ele>
        <time>2015-01-17T06:36:32Z</time>
      </trkpt>
      <trkpt lat="42.27156" lon="2.53427">
        <ele>394</ele>
        <time>2015-01-17T06:36:38Z</time>
      </trkpt>
      <trkpt lat="42.27161" lon="2.53436">
        <ele>394</ele>
        <time>2015-01-17T06:36:44Z</time>
      </trkpt>
      <trkpt lat="42.27166" lon="2.53443">
        <ele>394</ele>
        <time>2015-01-17T06:36:49Z</time>
      </trkpt>
      <trkpt lat="42.27171" lon="2.53452">
        <ele>394</ele>
        <time>2015-01-17T06:36:54Z</time>
      </trkpt>
      <trkpt lat="42.27175" lon="2.53458">
        <ele>396</ele>
        <time>2015-01-17T06:37:01Z</time>
      </trkpt>
      <trkpt lat="42.27177" lon="2.53465">
        <ele>396</ele>
        <time>2015-01-17T06:37:22Z</time>
      </trkpt>
      <trkpt lat="42.2718" lon="2.53472">
        <ele>396</ele>
        <time>2015-01-17T06:37:26Z</time>
      </trkpt>
      <trkpt lat="42.27183" lon="2.5348">
        <ele>397</ele>
        <time>2015-01-17T06:37:30Z</time>
      </trkpt>
      <trkpt lat="42.27184" lon="2.53488">
        <ele>397</ele>
        <time>2015-01-17T06:37:34Z</time>
      </trkpt>
      <trkpt lat="42.27184" lon="2.53497">
        <ele>397</ele>
        <time>2015-01-17T06:37:39Z</time>
      </trkpt>
      <trkpt lat="42.27185" lon="2.53505">
        <ele>398</ele>
        <time>2015-01-17T06:37:44Z</time>
      </trkpt>
      <trkpt lat="42.27185" lon="2.53514">
        <ele>398</ele>
        <time>2015-01-17T06:37:47Z</time>
      </trkpt>
      <trkpt lat="42.27186" lon="2.53523">
        <ele>399</ele>
        <time>2015-01-17T06:37:52Z</time>
      </trkpt>
      <trkpt lat="42.27186" lon="2.53531">
        <ele>399</ele>
        <time>2015-01-17T06:37:57Z</time>
      </trkpt>
      <trkpt lat="42.27187" lon="2.53538">
        <ele>399</ele>
        <time>2015-01-17T06:38:04Z</time>
      </trkpt>
      <trkpt lat="42.27189" lon="2.53546">
        <ele>400</ele>
        <time>2015-01-17T06:38:14Z</time>
      </trkpt>
      <trkpt lat="42.27191" lon="2.53552">
        <ele>400</ele>
        <time>2015-01-17T06:38:18Z</time>
      </trkpt>
      <trkpt lat="42.27192" lon="2.53559">
        <ele>401</ele>
        <time>2015-01-17T06:38:22Z</time>
      </trkpt>
      <trkpt lat="42.27194" lon="2.53567">
        <ele>401</ele>
        <time>2015-01-17T06:38:27Z</time>
      </trkpt>
      <trkpt lat="42.27196" lon="2.53574">
        <ele>401</ele>
        <time>2015-01-17T06:38:31Z</time>
      </trkpt>
      <trkpt lat="42.27197" lon="2.5358">
        <ele>401</ele>
        <time>2015-01-17T06:38:35Z</time>
      </trkpt>
      <trkpt lat="42.27199" lon="2.53587">
        <ele>401</ele>
        <time>2015-01-17T06:38:39Z</time>
      </trkpt>
      <trkpt lat="42.27202" lon="2.53594">
        <ele>400</ele>
        <time>2015-01-17T06:38:44Z</time>
      </trkpt>
      <trkpt lat="42.27203" lon="2.53601">
        <ele>400</ele>
        <time>2015-01-17T06:38:48Z</time>
      </trkpt>
      <trkpt lat="42.27205" lon="2.53609">
        <ele>400</ele>
        <time>2015-01-17T06:38:52Z</time>
      </trkpt>
      <trkpt lat="42.27207" lon="2.53616">
        <ele>400</ele>
        <time>2015-01-17T06:38:56Z</time>
      </trkpt>
      <trkpt lat="42.27208" lon="2.53623">
        <ele>400</ele>
        <time>2015-01-17T06:39:00Z</time>
      </trkpt>
      <trkpt lat="42.27209" lon="2.5363">
        <ele>400</ele>
        <time>2015-01-17T06:39:04Z</time>
      </trkpt>
      <trkpt lat="42.27208" lon="2.53638">
        <ele>400</ele>
        <time>2015-01-17T06:39:08Z</time>
      </trkpt>
      <trkpt lat="42.27209" lon="2.53648">
        <ele>401</ele>
        <time>2015-01-17T06:39:13Z</time>
      </trkpt>
      <trkpt lat="42.27208" lon="2.53655">
        <ele>401</ele>
        <time>2015-01-17T06:39:17Z</time>
      </trkpt>
      <trkpt lat="42.27209" lon="2.53663">
        <ele>401</ele>
        <time>2015-01-17T06:39:21Z</time>
      </trkpt>
      <trkpt lat="42.2721" lon="2.5367">
        <ele>401</ele>
        <time>2015-01-17T06:39:25Z</time>
      </trkpt>
      <trkpt lat="42.2721" lon="2.53678">
        <ele>401</ele>
        <time>2015-01-17T06:39:29Z</time>
      </trkpt>
      <trkpt lat="42.2721" lon="2.53687">
        <ele>401</ele>
        <time>2015-01-17T06:39:34Z</time>
      </trkpt>
      <trkpt lat="42.27209" lon="2.53696">
        <ele>401</ele>
        <time>2015-01-17T06:39:39Z</time>
      </trkpt>
      <trkpt lat="42.27209" lon="2.53706">
        <ele>401</ele>
        <time>2015-01-17T06:39:45Z</time>
      </trkpt>
      <trkpt lat="42.2721" lon="2.53715">
        <ele>401</ele>
        <time>2015-01-17T06:39:50Z</time>
      </trkpt>
      <trkpt lat="42.27211" lon="2.53724">
        <ele>401</ele>
        <time>2015-01-17T06:39:55Z</time>
      </trkpt>
      <trkpt lat="42.27214" lon="2.53733">
        <ele>400</ele>
        <time>2015-01-17T06:40:00Z</time>
      </trkpt>
      <trkpt lat="42.27217" lon="2.53741">
        <ele>400</ele>
        <time>2015-01-17T06:40:05Z</time>
      </trkpt>
      <trkpt lat="42.27219" lon="2.53752">
        <ele>400</ele>
        <time>2015-01-17T06:40:11Z</time>
      </trkpt>
      <trkpt lat="42.27221" lon="2.53762">
        <ele>400</ele>
        <time>2015-01-17T06:40:17Z</time>
      </trkpt>
      <trkpt lat="42.27221" lon="2.53773">
        <ele>400</ele>
        <time>2015-01-17T06:40:29Z</time>
      </trkpt>
      <trkpt lat="42.27222" lon="2.53783">
        <ele>400</ele>
        <time>2015-01-17T06:40:36Z</time>
      </trkpt>
      <trkpt lat="42.27226" lon="2.53793">
        <ele>399</ele>
        <time>2015-01-17T06:40:43Z</time>
      </trkpt>
      <trkpt lat="42.27228" lon="2.53803">
        <ele>399</ele>
        <time>2015-01-17T06:40:50Z</time>
      </trkpt>
      <trkpt lat="42.27232" lon="2.53812">
        <ele>399</ele>
        <time>2015-01-17T06:40:55Z</time>
      </trkpt>
      <trkpt lat="42.27236" lon="2.53821">
        <ele>398</ele>
        <time>2015-01-17T06:41:00Z</time>
      </trkpt>
      <trkpt lat="42.27242" lon="2.53832">
        <ele>398</ele>
        <time>2015-01-17T06:41:08Z</time>
      </trkpt>
      <trkpt lat="42.27245" lon="2.53843">
        <ele>398</ele>
        <time>2015-01-17T06:41:13Z</time>
      </trkpt>
      <trkpt lat="42.27248" lon="2.53853">
        <ele>398</ele>
        <time>2015-01-17T06:41:17Z</time>
      </trkpt>
      <trkpt lat="42.2725" lon="2.53861">
        <ele>398</ele>
        <time>2015-01-17T06:41:21Z</time>
      </trkpt>
      <trkpt lat="42.27255" lon="2.53871">
        <ele>398</ele>
        <time>2015-01-17T06:41:26Z</time>
      </trkpt>
      <trkpt lat="42.2726" lon="2.53881">
        <ele>398</ele>
        <time>2015-01-17T06:41:32Z</time>
      </trkpt>
      <trkpt lat="42.27264" lon="2.53889">
        <ele>398</ele>
        <time>2015-01-17T06:41:37Z</time>
      </trkpt>
      <trkpt lat="42.27269" lon="2.53896">
        <ele>397</ele>
        <time>2015-01-17T06:41:43Z</time>
      </trkpt>
      <trkpt lat="42.27273" lon="2.53903">
        <ele>397</ele>
        <time>2015-01-17T06:41:48Z</time>
      </trkpt>
      <trkpt lat="42.27279" lon="2.53912">
        <ele>396</ele>
        <time>2015-01-17T06:41:55Z</time>
      </trkpt>
      <trkpt lat="42.27284" lon="2.53921">
        <ele>394.1</ele>
        <time>2015-01-17T06:42:01Z</time>
      </trkpt>
      <trkpt lat="42.27289" lon="2.53931">
        <ele>394</ele>
        <time>2015-01-17T06:42:07Z</time>
      </trkpt>
      <trkpt lat="42.27293" lon="2.53941">
        <ele>394</ele>
        <time>2015-01-17T06:42:13Z</time>
      </trkpt>
      <trkpt lat="42.27298" lon="2.53952">
        <ele>394</ele>
        <time>2015-01-17T06:42:19Z</time>
      </trkpt>
      <trkpt lat="42.27301" lon="2.53958">
        <ele>395</ele>
        <time>2015-01-17T06:42:24Z</time>
      </trkpt>
      <trkpt lat="42.27305" lon="2.53969">
        <ele>395</ele>
        <time>2015-01-17T06:42:31Z</time>
      </trkpt>
      <trkpt lat="42.27309" lon="2.5398">
        <ele>395</ele>
        <time>2015-01-17T06:42:38Z</time>
      </trkpt>
      <trkpt lat="42.27311" lon="2.53989">
        <ele>395</ele>
        <time>2015-01-17T06:42:43Z</time>
      </trkpt>
      <trkpt lat="42.27314" lon="2.53997">
        <ele>395</ele>
        <time>2015-01-17T06:42:48Z</time>
      </trkpt>
      <trkpt lat="42.27317" lon="2.54005">
        <ele>395</ele>
        <time>2015-01-17T06:42:54Z</time>
      </trkpt>
      <trkpt lat="42.2732" lon="2.54013">
        <ele>395</ele>
        <time>2015-01-17T06:42:59Z</time>
      </trkpt>
      <trkpt lat="42.27327" lon="2.54021">
        <ele>393</ele>
        <time>2015-01-17T06:43:05Z</time>
      </trkpt>
      <trkpt lat="42.27331" lon="2.54032">
        <ele>393</ele>
        <time>2015-01-17T06:43:11Z</time>
      </trkpt>
      <trkpt lat="42.27335" lon="2.54043">
        <ele>393</ele>
        <time>2015-01-17T06:43:18Z</time>
      </trkpt>
      <trkpt lat="42.27339" lon="2.54056">
        <ele>393</ele>
        <time>2015-01-17T06:43:26Z</time>
      </trkpt>
      <trkpt lat="42.27342" lon="2.54069">
        <ele>393</ele>
        <time>2015-01-17T06:43:32Z</time>
      </trkpt>
      <trkpt lat="42.27345" lon="2.54082">
        <ele>393</ele>
        <time>2015-01-17T06:43:39Z</time>
      </trkpt>
      <trkpt lat="42.27351" lon="2.54094">
        <ele>392</ele>
        <time>2015-01-17T06:43:46Z</time>
      </trkpt>
      <trkpt lat="42.27354" lon="2.54107">
        <ele>393</ele>
        <time>2015-01-17T06:43:54Z</time>
      </trkpt>
      <trkpt lat="42.27358" lon="2.54118">
        <ele>394.9</ele>
        <time>2015-01-17T06:44:00Z</time>
      </trkpt>
      <trkpt lat="42.27362" lon="2.5413">
        <ele>395</ele>
        <time>2015-01-17T06:44:06Z</time>
      </trkpt>
      <trkpt lat="42.27364" lon="2.54141">
        <ele>395</ele>
        <time>2015-01-17T06:44:11Z</time>
      </trkpt>
      <trkpt lat="42.27364" lon="2.54153">
        <ele>395</ele>
        <time>2015-01-17T06:44:18Z</time>
      </trkpt>
      <trkpt lat="42.27364" lon="2.5416">
        <ele>395</ele>
        <time>2015-01-17T06:44:21Z</time>
      </trkpt>
      <trkpt lat="42.27368" lon="2.54171">
        <ele>395</ele>
        <time>2015-01-17T06:44:27Z</time>
      </trkpt>
      <trkpt lat="42.27371" lon="2.54182">
        <ele>394</ele>
        <time>2015-01-17T06:44:32Z</time>
      </trkpt>
      <trkpt lat="42.2737" lon="2.54194">
        <ele>394</ele>
        <time>2015-01-17T06:44:38Z</time>
      </trkpt>
      <trkpt lat="42.27369" lon="2.54206">
        <ele>394</ele>
        <time>2015-01-17T06:44:44Z</time>
      </trkpt>
      <trkpt lat="42.27366" lon="2.54218">
        <ele>396</ele>
        <time>2015-01-17T06:44:51Z</time>
      </trkpt>
      <trkpt lat="42.27364" lon="2.54229">
        <ele>396</ele>
        <time>2015-01-17T06:44:57Z</time>
      </trkpt>
      <trkpt lat="42.27365" lon="2.5424">
        <ele>398</ele>
        <time>2015-01-17T06:45:03Z</time>
      </trkpt>
      <trkpt lat="42.27364" lon="2.54252">
        <ele>400</ele>
        <time>2015-01-17T06:45:11Z</time>
      </trkpt>
      <trkpt lat="42.27364" lon="2.54264">
        <ele>400</ele>
        <time>2015-01-17T06:45:17Z</time>
      </trkpt>
      <trkpt lat="42.27364" lon="2.54275">
        <ele>401</ele>
        <time>2015-01-17T06:45:26Z</time>
      </trkpt>
      <trkpt lat="42.2736" lon="2.54284">
        <ele>401</ele>
        <time>2015-01-17T06:45:32Z</time>
      </trkpt>
      <trkpt lat="42.27357" lon="2.54295">
        <ele>401</ele>
        <time>2015-01-17T06:45:39Z</time>
      </trkpt>
      <trkpt lat="42.27354" lon="2.54304">
        <ele>403</ele>
        <time>2015-01-17T06:45:46Z</time>
      </trkpt>
      <trkpt lat="42.27351" lon="2.54312">
        <ele>404</ele>
        <time>2015-01-17T06:45:52Z</time>
      </trkpt>
      <trkpt lat="42.27348" lon="2.54322">
        <ele>404</ele>
        <time>2015-01-17T06:45:57Z</time>
      </trkpt>
      <trkpt lat="42.27345" lon="2.54331">
        <ele>403</ele>
        <time>2015-01-17T06:46:02Z</time>
      </trkpt>
      <trkpt lat="42.27341" lon="2.5434">
        <ele>403</ele>
        <time>2015-01-17T06:46:07Z</time>
      </trkpt>
      <trkpt lat="42.27345" lon="2.54332">
        <ele>404</ele>
        <time>2015-01-17T06:46:30Z</time>
      </trkpt>
      <trkpt lat="42.27348" lon="2.54325">
        <ele>404</ele>
        <time>2015-01-17T06:46:35Z</time>
      </trkpt>
      <trkpt lat="42.27351" lon="2.54314">
        <ele>403</ele>
        <time>2015-01-17T06:46:41Z</time>
      </trkpt>
      <trkpt lat="42.27354" lon="2.54306">
        <ele>403</ele>
        <time>2015-01-17T06:46:45Z</time>
      </trkpt>
      <trkpt lat="42.27358" lon="2.54295">
        <ele>403</ele>
        <time>2015-01-17T06:46:51Z</time>
      </trkpt>
      <trkpt lat="42.27361" lon="2.54287">
        <ele>403</ele>
        <time>2015-01-17T06:46:56Z</time>
      </trkpt>
      <trkpt lat="42.27365" lon="2.54277">
        <ele>402</ele>
        <time>2015-01-17T06:47:02Z</time>
      </trkpt>
      <trkpt lat="42.27365" lon="2.54265">
        <ele>402</ele>
        <time>2015-01-17T06:47:10Z</time>
      </trkpt>
      <trkpt lat="42.27366" lon="2.54254">
        <ele>402</ele>
        <time>2015-01-17T06:47:16Z</time>
      </trkpt>
      <trkpt lat="42.27368" lon="2.54244">
        <ele>399</ele>
        <time>2015-01-17T06:47:28Z</time>
      </trkpt>
      <trkpt lat="42.27374" lon="2.54236">
        <ele>398</ele>
        <time>2015-01-17T06:47:33Z</time>
      </trkpt>
      <trkpt lat="42.2738" lon="2.54228">
        <ele>398</ele>
        <time>2015-01-17T06:47:39Z</time>
      </trkpt>
      <trkpt lat="42.27386" lon="2.54221">
        <ele>395</ele>
        <time>2015-01-17T06:47:44Z</time>
      </trkpt>
      <trkpt lat="42.27393" lon="2.54215">
        <ele>394</ele>
        <time>2015-01-17T06:47:49Z</time>
      </trkpt>
      <trkpt lat="42.274" lon="2.54215">
        <ele>394</ele>
        <time>2015-01-17T06:47:55Z</time>
      </trkpt>
      <trkpt lat="42.27407" lon="2.54212">
        <ele>390.2</ele>
        <time>2015-01-17T06:48:00Z</time>
      </trkpt>
      <trkpt lat="42.27414" lon="2.54208">
        <ele>390</ele>
        <time>2015-01-17T06:48:04Z</time>
      </trkpt>
      <trkpt lat="42.27421" lon="2.54202">
        <ele>390</ele>
        <time>2015-01-17T06:48:08Z</time>
      </trkpt>
      <trkpt lat="42.27427" lon="2.54198">
        <ele>389</ele>
        <time>2015-01-17T06:48:12Z</time>
      </trkpt>
      <trkpt lat="42.27432" lon="2.54192">
        <ele>389</ele>
        <time>2015-01-17T06:48:16Z</time>
      </trkpt>
      <trkpt lat="42.27438" lon="2.54186">
        <ele>388</ele>
        <time>2015-01-17T06:48:22Z</time>
      </trkpt>
      <trkpt lat="42.27442" lon="2.54179">
        <ele>388</ele>
        <time>2015-01-17T06:48:25Z</time>
      </trkpt>
      <trkpt lat="42.27445" lon="2.54172">
        <ele>388</ele>
        <time>2015-01-17T06:48:29Z</time>
      </trkpt>
      <trkpt lat="42.27448" lon="2.54163">
        <ele>387</ele>
        <time>2015-01-17T06:48:36Z</time>
      </trkpt>
      <trkpt lat="42.27454" lon="2.5416">
        <ele>384</ele>
        <time>2015-01-17T06:48:42Z</time>
      </trkpt>
      <trkpt lat="42.27461" lon="2.54158">
        <ele>383</ele>
        <time>2015-01-17T06:48:53Z</time>
      </trkpt>
      <trkpt lat="42.27465" lon="2.54164">
        <ele>382</ele>
        <time>2015-01-17T06:49:02Z</time>
      </trkpt>
      <trkpt lat="42.27463" lon="2.5417">
        <ele>382</ele>
        <time>2015-01-17T06:49:10Z</time>
      </trkpt>
      <trkpt lat="42.27466" lon="2.54176">
        <ele>384</ele>
        <time>2015-01-17T06:49:21Z</time>
      </trkpt>
      <trkpt lat="42.27468" lon="2.54184">
        <ele>384</ele>
        <time>2015-01-17T06:49:36Z</time>
      </trkpt>
      <trkpt lat="42.27472" lon="2.5419">
        <ele>385</ele>
        <time>2015-01-17T06:49:41Z</time>
      </trkpt>
      <trkpt lat="42.27477" lon="2.54196">
        <ele>385</ele>
        <time>2015-01-17T06:49:46Z</time>
      </trkpt>
      <trkpt lat="42.27481" lon="2.54203">
        <ele>385</ele>
        <time>2015-01-17T06:49:51Z</time>
      </trkpt>
      <trkpt lat="42.27489" lon="2.54209">
        <ele>387</ele>
        <time>2015-01-17T06:50:08Z</time>
      </trkpt>
      <trkpt lat="42.27494" lon="2.54212">
        <ele>387</ele>
        <time>2015-01-17T06:50:12Z</time>
      </trkpt>
      <trkpt lat="42.27499" lon="2.54217">
        <ele>387</ele>
        <time>2015-01-17T06:50:16Z</time>
      </trkpt>
      <trkpt lat="42.27504" lon="2.54222">
        <ele>387</ele>
        <time>2015-01-17T06:50:21Z</time>
      </trkpt>
      <trkpt lat="42.27508" lon="2.54227">
        <ele>387</ele>
        <time>2015-01-17T06:50:25Z</time>
      </trkpt>
      <trkpt lat="42.27513" lon="2.54232">
        <ele>387</ele>
        <time>2015-01-17T06:50:29Z</time>
      </trkpt>
      <trkpt lat="42.27518" lon="2.54236">
        <ele>387</ele>
        <time>2015-01-17T06:50:34Z</time>
      </trkpt>
      <trkpt lat="42.27522" lon="2.54239">
        <ele>387</ele>
        <time>2015-01-17T06:50:39Z</time>
      </trkpt>
      <trkpt lat="42.27528" lon="2.54244">
        <ele>389</ele>
        <time>2015-01-17T06:50:45Z</time>
      </trkpt>
      <trkpt lat="42.27534" lon="2.54249">
        <ele>390</ele>
        <time>2015-01-17T06:50:50Z</time>
      </trkpt>
      <trkpt lat="42.27539" lon="2.54251">
        <ele>390</ele>
        <time>2015-01-17T06:50:55Z</time>
      </trkpt>
      <trkpt lat="42.27545" lon="2.54257">
        <ele>391</ele>
        <time>2015-01-17T06:51:02Z</time>
      </trkpt>
      <trkpt lat="42.27551" lon="2.54264">
        <ele>391</ele>
        <time>2015-01-17T06:51:08Z</time>
      </trkpt>
      <trkpt lat="42.27553" lon="2.5427">
        <ele>393</ele>
        <time>2015-01-17T06:51:15Z</time>
      </trkpt>
      <trkpt lat="42.27555" lon="2.54279">
        <ele>396</ele>
        <time>2015-01-17T06:51:27Z</time>
      </trkpt>
      <trkpt lat="42.27561" lon="2.54285">
        <ele>397</ele>
        <time>2015-01-17T06:51:32Z</time>
      </trkpt>
      <trkpt lat="42.27566" lon="2.54291">
        <ele>397</ele>
        <time>2015-01-17T06:51:37Z</time>
      </trkpt>
      <trkpt lat="42.27572" lon="2.54296">
        <ele>398</ele>
        <time>2015-01-17T06:51:43Z</time>
      </trkpt>
      <trkpt lat="42.27578" lon="2.54301">
        <ele>398</ele>
        <time>2015-01-17T06:51:48Z</time>
      </trkpt>
      <trkpt lat="42.27584" lon="2.54305">
        <ele>399</ele>
        <time>2015-01-17T06:51:53Z</time>
      </trkpt>
      <trkpt lat="42.2759" lon="2.54309">
        <ele>399</ele>
        <time>2015-01-17T06:51:59Z</time>
      </trkpt>
      <trkpt lat="42.27596" lon="2.54314">
        <ele>401</ele>
        <time>2015-01-17T06:52:03Z</time>
      </trkpt>
      <trkpt lat="42.27602" lon="2.54317">
        <ele>401</ele>
        <time>2015-01-17T06:52:08Z</time>
      </trkpt>
      <trkpt lat="42.27607" lon="2.54321">
        <ele>402</ele>
        <time>2015-01-17T06:52:14Z</time>
      </trkpt>
      <trkpt lat="42.27601" lon="2.54323">
        <ele>402</ele>
        <time>2015-01-17T06:52:19Z</time>
      </trkpt>
      <trkpt lat="42.27595" lon="2.54321">
        <ele>402</ele>
        <time>2015-01-17T06:52:23Z</time>
      </trkpt>
      <trkpt lat="42.27589" lon="2.54321">
        <ele>402</ele>
        <time>2015-01-17T06:52:28Z</time>
      </trkpt>
      <trkpt lat="42.27582" lon="2.54321">
        <ele>404</ele>
        <time>2015-01-17T06:52:33Z</time>
      </trkpt>
      <trkpt lat="42.27576" lon="2.54322">
        <ele>404</ele>
        <time>2015-01-17T06:52:38Z</time>
      </trkpt>
      <trkpt lat="42.27574" lon="2.54329">
        <ele>406</ele>
        <time>2015-01-17T06:52:44Z</time>
      </trkpt>
      <trkpt lat="42.27577" lon="2.54336">
        <ele>407.9</ele>
        <time>2015-01-17T06:52:50Z</time>
      </trkpt>
      <trkpt lat="42.27582" lon="2.54342">
        <ele>407</ele>
        <time>2015-01-17T06:52:58Z</time>
      </trkpt>
      <trkpt lat="42.27586" lon="2.5435">
        <ele>411</ele>
        <time>2015-01-17T06:53:12Z</time>
      </trkpt>
      <trkpt lat="42.27592" lon="2.54356">
        <ele>412.9</ele>
        <time>2015-01-17T06:53:20Z</time>
      </trkpt>
      <trkpt lat="42.27598" lon="2.54362">
        <ele>415.9</ele>
        <time>2015-01-17T06:53:31Z</time>
      </trkpt>
      <trkpt lat="42.27603" lon="2.54366">
        <ele>417</ele>
        <time>2015-01-17T06:53:37Z</time>
      </trkpt>
      <trkpt lat="42.27607" lon="2.54374">
        <ele>418</ele>
        <time>2015-01-17T06:53:49Z</time>
      </trkpt>
      <trkpt lat="42.27612" lon="2.5438">
        <ele>419</ele>
        <time>2015-01-17T06:53:56Z</time>
      </trkpt>
      <trkpt lat="42.27618" lon="2.54384">
        <ele>422</ele>
        <time>2015-01-17T06:54:04Z</time>
      </trkpt>
      <trkpt lat="42.27624" lon="2.54385">
        <ele>422</ele>
        <time>2015-01-17T06:54:09Z</time>
      </trkpt>
      <trkpt lat="42.27631" lon="2.54386">
        <ele>425</ele>
        <time>2015-01-17T06:54:15Z</time>
      </trkpt>
      <trkpt lat="42.27638" lon="2.54384">
        <ele>426</ele>
        <time>2015-01-17T06:54:21Z</time>
      </trkpt>
      <trkpt lat="42.27645" lon="2.54383">
        <ele>426</ele>
        <time>2015-01-17T06:54:27Z</time>
      </trkpt>
      <trkpt lat="42.27653" lon="2.54381">
        <ele>428</ele>
        <time>2015-01-17T06:54:34Z</time>
      </trkpt>
      <trkpt lat="42.27658" lon="2.54386">
        <ele>429</ele>
        <time>2015-01-17T06:54:42Z</time>
      </trkpt>
      <trkpt lat="42.27665" lon="2.5439">
        <ele>432</ele>
        <time>2015-01-17T06:54:51Z</time>
      </trkpt>
      <trkpt lat="42.27672" lon="2.54394">
        <ele>433</ele>
        <time>2015-01-17T06:54:59Z</time>
      </trkpt>
      <trkpt lat="42.27678" lon="2.54396">
        <ele>434</ele>
        <time>2015-01-17T06:55:05Z</time>
      </trkpt>
      <trkpt lat="42.27686" lon="2.54396">
        <ele>436</ele>
        <time>2015-01-17T06:55:11Z</time>
      </trkpt>
      <trkpt lat="42.27695" lon="2.54402">
        <ele>437</ele>
        <time>2015-01-17T06:55:24Z</time>
      </trkpt>
      <trkpt lat="42.27701" lon="2.54409">
        <ele>439</ele>
        <time>2015-01-17T06:55:33Z</time>
      </trkpt>
      <trkpt lat="42.27703" lon="2.54419">
        <ele>443</ele>
        <time>2015-01-17T06:55:42Z</time>
      </trkpt>
      <trkpt lat="42.27706" lon="2.54429">
        <ele>444</ele>
        <time>2015-01-17T06:55:51Z</time>
      </trkpt>
      <trkpt lat="42.2771" lon="2.54441">
        <ele>446.9</ele>
        <time>2015-01-17T06:56:00Z</time>
      </trkpt>
      <trkpt lat="42.27713" lon="2.54453">
        <ele>447</ele>
        <time>2015-01-17T06:56:08Z</time>
      </trkpt>
      <trkpt lat="42.27717" lon="2.54464">
        <ele>448</ele>
        <time>2015-01-17T06:56:16Z</time>
      </trkpt>
      <trkpt lat="42.2772" lon="2.54477">
        <ele>452</ele>
        <time>2015-01-17T06:56:25Z</time>
      </trkpt>
      <trkpt lat="42.27724" lon="2.54489">
        <ele>453</ele>
        <time>2015-01-17T06:56:33Z</time>
      </trkpt>
      <trkpt lat="42.27729" lon="2.54498">
        <ele>454</ele>
        <time>2015-01-17T06:56:41Z</time>
      </trkpt>
      <trkpt lat="42.27733" lon="2.54508">
        <ele>455</ele>
        <time>2015-01-17T06:56:56Z</time>
      </trkpt>
      <trkpt lat="42.27738" lon="2.54518">
        <ele>459</ele>
        <time>2015-01-17T06:57:06Z</time>
      </trkpt>
      <trkpt lat="42.2774" lon="2.54529">
        <ele>460</ele>
        <time>2015-01-17T06:57:18Z</time>
      </trkpt>
      <trkpt lat="42.27742" lon="2.54542">
        <ele>465</ele>
        <time>2015-01-17T06:57:31Z</time>
      </trkpt>
      <trkpt lat="42.27743" lon="2.54555">
        <ele>467</ele>
        <time>2015-01-17T06:57:48Z</time>
      </trkpt>
      <trkpt lat="42.27735" lon="2.54569">
        <ele>472</ele>
        <time>2015-01-17T06:58:06Z</time>
      </trkpt>
      <trkpt lat="42.27742" lon="2.54579">
        <ele>476</ele>
        <time>2015-01-17T06:58:21Z</time>
      </trkpt>
      <trkpt lat="42.27751" lon="2.54581">
        <ele>476</ele>
        <time>2015-01-17T06:58:33Z</time>
      </trkpt>
      <trkpt lat="42.27761" lon="2.54584">
        <ele>478</ele>
        <time>2015-01-17T06:58:45Z</time>
      </trkpt>
      <trkpt lat="42.27772" lon="2.54586">
        <ele>484</ele>
        <time>2015-01-17T06:59:01Z</time>
      </trkpt>
      <trkpt lat="42.2778" lon="2.54594">
        <ele>487</ele>
        <time>2015-01-17T06:59:19Z</time>
      </trkpt>
      <trkpt lat="42.27787" lon="2.54603">
        <ele>490</ele>
        <time>2015-01-17T06:59:32Z</time>
      </trkpt>
      <trkpt lat="42.27793" lon="2.54608">
        <ele>491.9</ele>
        <time>2015-01-17T06:59:40Z</time>
      </trkpt>
      <trkpt lat="42.27792" lon="2.54621">
        <ele>497</ele>
        <time>2015-01-17T07:00:03Z</time>
      </trkpt>
      <trkpt lat="42.27796" lon="2.54633">
        <ele>501</ele>
        <time>2015-01-17T07:00:29Z</time>
      </trkpt>
      <trkpt lat="42.27792" lon="2.54645">
        <ele>507</ele>
        <time>2015-01-17T07:00:51Z</time>
      </trkpt>
      <trkpt lat="42.27787" lon="2.54653">
        <ele>512</ele>
        <time>2015-01-17T07:01:11Z</time>
      </trkpt>
      <trkpt lat="42.27786" lon="2.54662">
        <ele>516</ele>
        <time>2015-01-17T07:01:34Z</time>
      </trkpt>
      <trkpt lat="42.27788" lon="2.54674">
        <ele>520</ele>
        <time>2015-01-17T07:01:47Z</time>
      </trkpt>
      <trkpt lat="42.27786" lon="2.54685">
        <ele>522</ele>
        <time>2015-01-17T07:02:09Z</time>
      </trkpt>
      <trkpt lat="42.27789" lon="2.54696">
        <ele>527</ele>
        <time>2015-01-17T07:02:22Z</time>
      </trkpt>
      <trkpt lat="42.2779" lon="2.54707">
        <ele>530</ele>
        <time>2015-01-17T07:02:39Z</time>
      </trkpt>
      <trkpt lat="42.27791" lon="2.54718">
        <ele>533</ele>
        <time>2015-01-17T07:02:53Z</time>
      </trkpt>
      <trkpt lat="42.27792" lon="2.5473">
        <ele>537</ele>
        <time>2015-01-17T07:03:02Z</time>
      </trkpt>
      <trkpt lat="42.27794" lon="2.54739">
        <ele>539</ele>
        <time>2015-01-17T07:03:14Z</time>
      </trkpt>
      <trkpt lat="42.2779" lon="2.54747">
        <ele>540.9</ele>
        <time>2015-01-17T07:03:30Z</time>
      </trkpt>
      <trkpt lat="42.27793" lon="2.54756">
        <ele>543.9</ele>
        <time>2015-01-17T07:03:40Z</time>
      </trkpt>
      <trkpt lat="42.27795" lon="2.54767">
        <ele>545</ele>
        <time>2015-01-17T07:03:54Z</time>
      </trkpt>
      <trkpt lat="42.27792" lon="2.54779">
        <ele>549</ele>
        <time>2015-01-17T07:04:09Z</time>
      </trkpt>
      <trkpt lat="42.27792" lon="2.54788">
        <ele>552</ele>
        <time>2015-01-17T07:04:21Z</time>
      </trkpt>
      <trkpt lat="42.27793" lon="2.54797">
        <ele>555</ele>
        <time>2015-01-17T07:04:31Z</time>
      </trkpt>
      <trkpt lat="42.27795" lon="2.54808">
        <ele>558</ele>
        <time>2015-01-17T07:04:41Z</time>
      </trkpt>
      <trkpt lat="42.27797" lon="2.5482">
        <ele>560</ele>
        <time>2015-01-17T07:04:53Z</time>
      </trkpt>
      <trkpt lat="42.27798" lon="2.5483">
        <ele>563</ele>
        <time>2015-01-17T07:05:01Z</time>
      </trkpt>
      <trkpt lat="42.27801" lon="2.54841">
        <ele>564</ele>
        <time>2015-01-17T07:05:09Z</time>
      </trkpt>
      <trkpt lat="42.27803" lon="2.54852">
        <ele>567</ele>
        <time>2015-01-17T07:05:19Z</time>
      </trkpt>
      <trkpt lat="42.27805" lon="2.54864">
        <ele>569</ele>
        <time>2015-01-17T07:05:29Z</time>
      </trkpt>
      <trkpt lat="42.27805" lon="2.54878">
        <ele>573</ele>
        <time>2015-01-17T07:05:40Z</time>
      </trkpt>
      <trkpt lat="42.27808" lon="2.54893">
        <ele>576</ele>
        <time>2015-01-17T07:05:51Z</time>
      </trkpt>
      <trkpt lat="42.27808" lon="2.54906">
        <ele>578</ele>
        <time>2015-01-17T07:06:00Z</time>
      </trkpt>
      <trkpt lat="42.27807" lon="2.54919">
        <ele>581</ele>
        <time>2015-01-17T07:06:11Z</time>
      </trkpt>
      <trkpt lat="42.27807" lon="2.54933">
        <ele>583</ele>
        <time>2015-01-17T07:06:21Z</time>
      </trkpt>
      <trkpt lat="42.27808" lon="2.54945">
        <ele>586.9</ele>
        <time>2015-01-17T07:06:30Z</time>
      </trkpt>
      <trkpt lat="42.27809" lon="2.54956">
        <ele>590</ele>
        <time>2015-01-17T07:06:44Z</time>
      </trkpt>
      <trkpt lat="42.27809" lon="2.54967">
        <ele>590</ele>
        <time>2015-01-17T07:06:55Z</time>
      </trkpt>
      <trkpt lat="42.2781" lon="2.54979">
        <ele>591</ele>
        <time>2015-01-17T07:07:05Z</time>
      </trkpt>
      <trkpt lat="42.27811" lon="2.5499">
        <ele>593</ele>
        <time>2015-01-17T07:07:13Z</time>
      </trkpt>
      <trkpt lat="42.27812" lon="2.55002">
        <ele>596</ele>
        <time>2015-01-17T07:07:22Z</time>
      </trkpt>
      <trkpt lat="42.27811" lon="2.55013">
        <ele>598</ele>
        <time>2015-01-17T07:07:30Z</time>
      </trkpt>
      <trkpt lat="42.2781" lon="2.55024">
        <ele>600</ele>
        <time>2015-01-17T07:07:39Z</time>
      </trkpt>
      <trkpt lat="42.27809" lon="2.55037">
        <ele>603</ele>
        <time>2015-01-17T07:07:49Z</time>
      </trkpt>
      <trkpt lat="42.27809" lon="2.55051">
        <ele>605</ele>
        <time>2015-01-17T07:07:59Z</time>
      </trkpt>
      <trkpt lat="42.2781" lon="2.55062">
        <ele>607</ele>
        <time>2015-01-17T07:08:08Z</time>
      </trkpt>
      <trkpt lat="42.2781" lon="2.55075">
        <ele>607</ele>
        <time>2015-01-17T07:08:17Z</time>
      </trkpt>
      <trkpt lat="42.2781" lon="2.55088">
        <ele>609</ele>
        <time>2015-01-17T07:08:27Z</time>
      </trkpt>
      <trkpt lat="42.27807" lon="2.55101">
        <ele>614</ele>
        <time>2015-01-17T07:08:39Z</time>
      </trkpt>
      <trkpt lat="42.27806" lon="2.55113">
        <ele>614</ele>
        <time>2015-01-17T07:08:47Z</time>
      </trkpt>
      <trkpt lat="42.27804" lon="2.55125">
        <ele>616</ele>
        <time>2015-01-17T07:08:58Z</time>
      </trkpt>
      <trkpt lat="42.27803" lon="2.55135">
        <ele>619</ele>
        <time>2015-01-17T07:09:05Z</time>
      </trkpt>
      <trkpt lat="42.27805" lon="2.55145">
        <ele>620</ele>
        <time>2015-01-17T07:09:15Z</time>
      </trkpt>
      <trkpt lat="42.27809" lon="2.55155">
        <ele>622</ele>
        <time>2015-01-17T07:09:23Z</time>
      </trkpt>
      <trkpt lat="42.27813" lon="2.55166">
        <ele>624</ele>
        <time>2015-01-17T07:09:32Z</time>
      </trkpt>
      <trkpt lat="42.27816" lon="2.55177">
        <ele>623</ele>
        <time>2015-01-17T07:09:42Z</time>
      </trkpt>
      <trkpt lat="42.2782" lon="2.55186">
        <ele>625</ele>
        <time>2015-01-17T07:09:52Z</time>
      </trkpt>
      <trkpt lat="42.27824" lon="2.55196">
        <ele>625</ele>
        <time>2015-01-17T07:09:59Z</time>
      </trkpt>
      <trkpt lat="42.27829" lon="2.55206">
        <ele>627</ele>
        <time>2015-01-17T07:10:07Z</time>
      </trkpt>
      <trkpt lat="42.27832" lon="2.55216">
        <ele>629</ele>
        <time>2015-01-17T07:10:15Z</time>
      </trkpt>
      <trkpt lat="42.27835" lon="2.55227">
        <ele>631</ele>
        <time>2015-01-17T07:10:22Z</time>
      </trkpt>
      <trkpt lat="42.27829" lon="2.55231">
        <ele>633</ele>
        <time>2015-01-17T07:10:29Z</time>
      </trkpt>
      <trkpt lat="42.27822" lon="2.55229">
        <ele>634</ele>
        <time>2015-01-17T07:10:35Z</time>
      </trkpt>
      <trkpt lat="42.27815" lon="2.55229">
        <ele>635</ele>
        <time>2015-01-17T07:10:40Z</time>
      </trkpt>
      <trkpt lat="42.27809" lon="2.5523">
        <ele>635</ele>
        <time>2015-01-17T07:10:45Z</time>
      </trkpt>
      <trkpt lat="42.27804" lon="2.5523">
        <ele>636</ele>
        <time>2015-01-17T07:10:55Z</time>
      </trkpt>
      <trkpt lat="42.27799" lon="2.55225">
        <ele>636</ele>
        <time>2015-01-17T07:14:15Z</time>
      </trkpt>
      <trkpt lat="42.27794" lon="2.55221">
        <ele>636</ele>
        <time>2015-01-17T07:14:19Z</time>
      </trkpt>
      <trkpt lat="42.27789" lon="2.55216">
        <ele>637</ele>
        <time>2015-01-17T07:14:24Z</time>
      </trkpt>
      <trkpt lat="42.27783" lon="2.55211">
        <ele>637</ele>
        <time>2015-01-17T07:14:29Z</time>
      </trkpt>
      <trkpt lat="42.27778" lon="2.55205">
        <ele>637</ele>
        <time>2015-01-17T07:14:34Z</time>
      </trkpt>
      <trkpt lat="42.27774" lon="2.552">
        <ele>637</ele>
        <time>2015-01-17T07:14:38Z</time>
      </trkpt>
      <trkpt lat="42.27769" lon="2.55192">
        <ele>639</ele>
        <time>2015-01-17T07:14:43Z</time>
      </trkpt>
      <trkpt lat="42.27764" lon="2.55185">
        <ele>639</ele>
        <time>2015-01-17T07:14:48Z</time>
      </trkpt>
      <trkpt lat="42.27759" lon="2.55179">
        <ele>639</ele>
        <time>2015-01-17T07:14:52Z</time>
      </trkpt>
      <trkpt lat="42.27755" lon="2.5517">
        <ele>639</ele>
        <time>2015-01-17T07:14:57Z</time>
      </trkpt>
      <trkpt lat="42.27751" lon="2.5516">
        <ele>639</ele>
        <time>2015-01-17T07:15:02Z</time>
      </trkpt>
      <trkpt lat="42.27748" lon="2.55151">
        <ele>639</ele>
        <time>2015-01-17T07:15:07Z</time>
      </trkpt>
      <trkpt lat="42.27744" lon="2.5514">
        <ele>640</ele>
        <time>2015-01-17T07:15:13Z</time>
      </trkpt>
      <trkpt lat="42.27741" lon="2.55129">
        <ele>640</ele>
        <time>2015-01-17T07:15:19Z</time>
      </trkpt>
      <trkpt lat="42.27739" lon="2.5512">
        <ele>641</ele>
        <time>2015-01-17T07:15:24Z</time>
      </trkpt>
      <trkpt lat="42.27738" lon="2.5511">
        <ele>641</ele>
        <time>2015-01-17T07:15:30Z</time>
      </trkpt>
      <trkpt lat="42.27737" lon="2.551">
        <ele>643</ele>
        <time>2015-01-17T07:15:34Z</time>
      </trkpt>
      <trkpt lat="42.27735" lon="2.55089">
        <ele>644</ele>
        <time>2015-01-17T07:15:40Z</time>
      </trkpt>
      <trkpt lat="42.2773" lon="2.55082">
        <ele>644</ele>
        <time>2015-01-17T07:15:45Z</time>
      </trkpt>
      <trkpt lat="42.27725" lon="2.55089">
        <ele>645</ele>
        <time>2015-01-17T07:15:51Z</time>
      </trkpt>
      <trkpt lat="42.27722" lon="2.55098">
        <ele>645</ele>
        <time>2015-01-17T07:15:56Z</time>
      </trkpt>
      <trkpt lat="42.27719" lon="2.55107">
        <ele>645</ele>
        <time>2015-01-17T07:16:01Z</time>
      </trkpt>
      <trkpt lat="42.27716" lon="2.55115">
        <ele>645</ele>
        <time>2015-01-17T07:16:06Z</time>
      </trkpt>
      <trkpt lat="42.27712" lon="2.55123">
        <ele>646</ele>
        <time>2015-01-17T07:16:11Z</time>
      </trkpt>
      <trkpt lat="42.27711" lon="2.55131">
        <ele>646</ele>
        <time>2015-01-17T07:16:17Z</time>
      </trkpt>
      <trkpt lat="42.2771" lon="2.5514">
        <ele>646</ele>
        <time>2015-01-17T07:16:22Z</time>
      </trkpt>
      <trkpt lat="42.27711" lon="2.5515">
        <ele>646</ele>
        <time>2015-01-17T07:16:27Z</time>
      </trkpt>
      <trkpt lat="42.27709" lon="2.55159">
        <ele>647</ele>
        <time>2015-01-17T07:16:32Z</time>
      </trkpt>
      <trkpt lat="42.27705" lon="2.55166">
        <ele>647</ele>
        <time>2015-01-17T07:16:37Z</time>
      </trkpt>
      <trkpt lat="42.27702" lon="2.55174">
        <ele>649</ele>
        <time>2015-01-17T07:16:42Z</time>
      </trkpt>
      <trkpt lat="42.277" lon="2.55183">
        <ele>649</ele>
        <time>2015-01-17T07:16:47Z</time>
      </trkpt>
      <trkpt lat="42.27697" lon="2.55191">
        <ele>650</ele>
        <time>2015-01-17T07:16:53Z</time>
      </trkpt>
      <trkpt lat="42.27696" lon="2.552">
        <ele>650</ele>
        <time>2015-01-17T07:16:59Z</time>
      </trkpt>
      <trkpt lat="42.27695" lon="2.55207">
        <ele>652</ele>
        <time>2015-01-17T07:17:02Z</time>
      </trkpt>
      <trkpt lat="42.27693" lon="2.55215">
        <ele>652</ele>
        <time>2015-01-17T07:17:06Z</time>
      </trkpt>
      <trkpt lat="42.27691" lon="2.55222">
        <ele>652.8</ele>
        <time>2015-01-17T07:17:10Z</time>
      </trkpt>
      <trkpt lat="42.27689" lon="2.55229">
        <ele>653</ele>
        <time>2015-01-17T07:17:14Z</time>
      </trkpt>
      <trkpt lat="42.27687" lon="2.55236">
        <ele>653</ele>
        <time>2015-01-17T07:17:18Z</time>
      </trkpt>
      <trkpt lat="42.27685" lon="2.55243">
        <ele>655</ele>
        <time>2015-01-17T07:17:22Z</time>
      </trkpt>
      <trkpt lat="42.27684" lon="2.5525">
        <ele>655</ele>
        <time>2015-01-17T07:17:26Z</time>
      </trkpt>
      <trkpt lat="42.27682" lon="2.5526">
        <ele>655</ele>
        <time>2015-01-17T07:17:31Z</time>
      </trkpt>
      <trkpt lat="42.2768" lon="2.55268">
        <ele>655</ele>
        <time>2015-01-17T07:17:35Z</time>
      </trkpt>
      <trkpt lat="42.27679" lon="2.55276">
        <ele>655</ele>
        <time>2015-01-17T07:17:39Z</time>
      </trkpt>
      <trkpt lat="42.27677" lon="2.55285">
        <ele>657</ele>
        <time>2015-01-17T07:17:44Z</time>
      </trkpt>
      <trkpt lat="42.27678" lon="2.55294">
        <ele>657</ele>
        <time>2015-01-17T07:17:48Z</time>
      </trkpt>
      <trkpt lat="42.27679" lon="2.55302">
        <ele>659</ele>
        <time>2015-01-17T07:17:52Z</time>
      </trkpt>
      <trkpt lat="42.27681" lon="2.5531">
        <ele>659</ele>
        <time>2015-01-17T07:17:57Z</time>
      </trkpt>
      <trkpt lat="42.27684" lon="2.55318">
        <ele>660</ele>
        <time>2015-01-17T07:18:01Z</time>
      </trkpt>
      <trkpt lat="42.27686" lon="2.55326">
        <ele>660</ele>
        <time>2015-01-17T07:18:05Z</time>
      </trkpt>
      <trkpt lat="42.27689" lon="2.55335">
        <ele>660</ele>
        <time>2015-01-17T07:18:10Z</time>
      </trkpt>
      <trkpt lat="42.27693" lon="2.55342">
        <ele>662</ele>
        <time>2015-01-17T07:18:14Z</time>
      </trkpt>
      <trkpt lat="42.27697" lon="2.5535">
        <ele>662</ele>
        <time>2015-01-17T07:18:19Z</time>
      </trkpt>
      <trkpt lat="42.27699" lon="2.55359">
        <ele>663</ele>
        <time>2015-01-17T07:18:24Z</time>
      </trkpt>
      <trkpt lat="42.27699" lon="2.5537">
        <ele>663</ele>
        <time>2015-01-17T07:18:30Z</time>
      </trkpt>
      <trkpt lat="42.27699" lon="2.55379">
        <ele>663</ele>
        <time>2015-01-17T07:18:35Z</time>
      </trkpt>
      <trkpt lat="42.27703" lon="2.5539">
        <ele>665</ele>
        <time>2015-01-17T07:18:41Z</time>
      </trkpt>
      <trkpt lat="42.27706" lon="2.554">
        <ele>665</ele>
        <time>2015-01-17T07:18:47Z</time>
      </trkpt>
      <trkpt lat="42.2771" lon="2.55409">
        <ele>666</ele>
        <time>2015-01-17T07:18:52Z</time>
      </trkpt>
      <trkpt lat="42.27713" lon="2.55417">
        <ele>666</ele>
        <time>2015-01-17T07:18:57Z</time>
      </trkpt>
      <trkpt lat="42.27717" lon="2.55425">
        <ele>668</ele>
        <time>2015-01-17T07:19:02Z</time>
      </trkpt>
      <trkpt lat="42.2772" lon="2.55434">
        <ele>668</ele>
        <time>2015-01-17T07:19:07Z</time>
      </trkpt>
      <trkpt lat="42.27724" lon="2.55445">
        <ele>670</ele>
        <time>2015-01-17T07:19:13Z</time>
      </trkpt>
      <trkpt lat="42.27724" lon="2.55456">
        <ele>670</ele>
        <time>2015-01-17T07:19:18Z</time>
      </trkpt>
      <trkpt lat="42.27723" lon="2.55465">
        <ele>671</ele>
        <time>2015-01-17T07:19:23Z</time>
      </trkpt>
      <trkpt lat="42.27721" lon="2.55475">
        <ele>671</ele>
        <time>2015-01-17T07:19:28Z</time>
      </trkpt>
      <trkpt lat="42.27719" lon="2.55482">
        <ele>672</ele>
        <time>2015-01-17T07:19:32Z</time>
      </trkpt>
      <trkpt lat="42.27718" lon="2.5549">
        <ele>672</ele>
        <time>2015-01-17T07:19:37Z</time>
      </trkpt>
      <trkpt lat="42.27721" lon="2.55498">
        <ele>674</ele>
        <time>2015-01-17T07:19:42Z</time>
      </trkpt>
      <trkpt lat="42.27723" lon="2.55506">
        <ele>675.9</ele>
        <time>2015-01-17T07:19:50Z</time>
      </trkpt>
      <trkpt lat="42.27729" lon="2.55508">
        <ele>676</ele>
        <time>2015-01-17T07:19:56Z</time>
      </trkpt>
      <trkpt lat="42.27735" lon="2.55509">
        <ele>677</ele>
        <time>2015-01-17T07:20:04Z</time>
      </trkpt>
      <trkpt lat="42.2774" lon="2.55511">
        <ele>677</ele>
        <time>2015-01-17T07:20:08Z</time>
      </trkpt>
      <trkpt lat="42.27745" lon="2.55514">
        <ele>678</ele>
        <time>2015-01-17T07:20:12Z</time>
      </trkpt>
      <trkpt lat="42.27749" lon="2.5552">
        <ele>678</ele>
        <time>2015-01-17T07:20:16Z</time>
      </trkpt>
      <trkpt lat="42.27752" lon="2.55529">
        <ele>678</ele>
        <time>2015-01-17T07:20:22Z</time>
      </trkpt>
      <trkpt lat="42.27755" lon="2.55538">
        <ele>678</ele>
        <time>2015-01-17T07:20:28Z</time>
      </trkpt>
      <trkpt lat="42.27759" lon="2.55548">
        <ele>679</ele>
        <time>2015-01-17T07:20:33Z</time>
      </trkpt>
      <trkpt lat="42.27762" lon="2.55556">
        <ele>679</ele>
        <time>2015-01-17T07:20:37Z</time>
      </trkpt>
      <trkpt lat="42.27764" lon="2.55562">
        <ele>679</ele>
        <time>2015-01-17T07:20:40Z</time>
      </trkpt>
      <trkpt lat="42.27769" lon="2.55571">
        <ele>679</ele>
        <time>2015-01-17T07:20:45Z</time>
      </trkpt>
      <trkpt lat="42.27774" lon="2.55577">
        <ele>679</ele>
        <time>2015-01-17T07:20:49Z</time>
      </trkpt>
      <trkpt lat="42.2778" lon="2.55584">
        <ele>678</ele>
        <time>2015-01-17T07:20:53Z</time>
      </trkpt>
      <trkpt lat="42.27787" lon="2.55593">
        <ele>678</ele>
        <time>2015-01-17T07:20:57Z</time>
      </trkpt>
      <trkpt lat="42.27792" lon="2.55603">
        <ele>676</ele>
        <time>2015-01-17T07:21:01Z</time>
      </trkpt>
      <trkpt lat="42.27798" lon="2.55612">
        <ele>676</ele>
        <time>2015-01-17T07:21:05Z</time>
      </trkpt>
      <trkpt lat="42.27807" lon="2.5562">
        <ele>676</ele>
        <time>2015-01-17T07:21:10Z</time>
      </trkpt>
      <trkpt lat="42.27815" lon="2.55624">
        <ele>676</ele>
        <time>2015-01-17T07:21:15Z</time>
      </trkpt>
      <trkpt lat="42.27824" lon="2.55629">
        <ele>676</ele>
        <time>2015-01-17T07:21:18Z</time>
      </trkpt>
      <trkpt lat="42.27833" lon="2.55634">
        <ele>675</ele>
        <time>2015-01-17T07:21:22Z</time>
      </trkpt>
      <trkpt lat="42.27842" lon="2.55637">
        <ele>675</ele>
        <time>2015-01-17T07:21:27Z</time>
      </trkpt>
      <trkpt lat="42.27852" lon="2.55638">
        <ele>675</ele>
        <time>2015-01-17T07:21:31Z</time>
      </trkpt>
      <trkpt lat="42.27858" lon="2.55644">
        <ele>675</ele>
        <time>2015-01-17T07:21:34Z</time>
      </trkpt>
      <trkpt lat="42.27863" lon="2.5565">
        <ele>675</ele>
        <time>2015-01-17T07:21:37Z</time>
      </trkpt>
      <trkpt lat="42.27871" lon="2.55659">
        <ele>675</ele>
        <time>2015-01-17T07:21:42Z</time>
      </trkpt>
      <trkpt lat="42.27875" lon="2.55671">
        <ele>675</ele>
        <time>2015-01-17T07:21:47Z</time>
      </trkpt>
      <trkpt lat="42.27879" lon="2.55683">
        <ele>676</ele>
        <time>2015-01-17T07:21:53Z</time>
      </trkpt>
      <trkpt lat="42.27881" lon="2.55697">
        <ele>677</ele>
        <time>2015-01-17T07:22:01Z</time>
      </trkpt>
      <trkpt lat="42.27884" lon="2.55711">
        <ele>677</ele>
        <time>2015-01-17T07:22:09Z</time>
      </trkpt>
      <trkpt lat="42.27887" lon="2.55723">
        <ele>679</ele>
        <time>2015-01-17T07:22:17Z</time>
      </trkpt>
      <trkpt lat="42.27888" lon="2.55735">
        <ele>680</ele>
        <time>2015-01-17T07:22:30Z</time>
      </trkpt>
      <trkpt lat="42.27891" lon="2.55747">
        <ele>680</ele>
        <time>2015-01-17T07:22:36Z</time>
      </trkpt>
      <trkpt lat="42.27897" lon="2.55759">
        <ele>680</ele>
        <time>2015-01-17T07:22:45Z</time>
      </trkpt>
      <trkpt lat="42.27903" lon="2.55767">
        <ele>678.1</ele>
        <time>2015-01-17T07:22:50Z</time>
      </trkpt>
      <trkpt lat="42.27913" lon="2.55767">
        <ele>677</ele>
        <time>2015-01-17T07:22:58Z</time>
      </trkpt>
      <trkpt lat="42.27922" lon="2.5577">
        <ele>674</ele>
        <time>2015-01-17T07:23:08Z</time>
      </trkpt>
      <trkpt lat="42.2793" lon="2.55774">
        <ele>670.1</ele>
        <time>2015-01-17T07:23:20Z</time>
      </trkpt>
      <trkpt lat="42.27933" lon="2.55788">
        <ele>667</ele>
        <time>2015-01-17T07:23:32Z</time>
      </trkpt>
      <trkpt lat="42.27932" lon="2.558">
        <ele>664</ele>
        <time>2015-01-17T07:23:43Z</time>
      </trkpt>
      <trkpt lat="42.27938" lon="2.5581">
        <ele>659</ele>
        <time>2015-01-17T07:23:53Z</time>
      </trkpt>
      <trkpt lat="42.27932" lon="2.5582">
        <ele>655</ele>
        <time>2015-01-17T07:24:01Z</time>
      </trkpt>
      <trkpt lat="42.27932" lon="2.55828">
        <ele>652.1</ele>
        <time>2015-01-17T07:24:40Z</time>
      </trkpt>
      <trkpt lat="42.27927" lon="2.55834">
        <ele>653</ele>
        <time>2015-01-17T07:24:46Z</time>
      </trkpt>
      <trkpt lat="42.27922" lon="2.55842">
        <ele>650</ele>
        <time>2015-01-17T07:24:52Z</time>
      </trkpt>
      <trkpt lat="42.27915" lon="2.55845">
        <ele>648</ele>
        <time>2015-01-17T07:24:57Z</time>
      </trkpt>
      <trkpt lat="42.27908" lon="2.55849">
        <ele>644</ele>
        <time>2015-01-17T07:25:03Z</time>
      </trkpt>
      <trkpt lat="42.27901" lon="2.55849">
        <ele>641</ele>
        <time>2015-01-17T07:25:10Z</time>
      </trkpt>
      <trkpt lat="42.27908" lon="2.55855">
        <ele>639</ele>
        <time>2015-01-17T07:25:20Z</time>
      </trkpt>
      <trkpt lat="42.27911" lon="2.55866">
        <ele>637</ele>
        <time>2015-01-17T07:25:37Z</time>
      </trkpt>
      <trkpt lat="42.27906" lon="2.55873">
        <ele>633</ele>
        <time>2015-01-17T07:25:45Z</time>
      </trkpt>
      <trkpt lat="42.27913" lon="2.55883">
        <ele>627.1</ele>
        <time>2015-01-17T07:26:05Z</time>
      </trkpt>
      <trkpt lat="42.27919" lon="2.55893">
        <ele>623.1</ele>
        <time>2015-01-17T07:26:15Z</time>
      </trkpt>
      <trkpt lat="42.27925" lon="2.55903">
        <ele>619</ele>
        <time>2015-01-17T07:26:34Z</time>
      </trkpt>
      <trkpt lat="42.27935" lon="2.55904">
        <ele>616</ele>
        <time>2015-01-17T07:26:44Z</time>
      </trkpt>
      <trkpt lat="42.27945" lon="2.55908">
        <ele>612.1</ele>
        <time>2015-01-17T07:26:55Z</time>
      </trkpt>
      <trkpt lat="42.27941" lon="2.55918">
        <ele>610</ele>
        <time>2015-01-17T07:27:09Z</time>
      </trkpt>
      <trkpt lat="42.27935" lon="2.55925">
        <ele>607</ele>
        <time>2015-01-17T07:27:26Z</time>
      </trkpt>
      <trkpt lat="42.27934" lon="2.55938">
        <ele>603</ele>
        <time>2015-01-17T07:27:46Z</time>
      </trkpt>
      <trkpt lat="42.27934" lon="2.55951">
        <ele>598</ele>
        <time>2015-01-17T07:27:56Z</time>
      </trkpt>
      <trkpt lat="42.27938" lon="2.55962">
        <ele>594</ele>
        <time>2015-01-17T07:28:06Z</time>
      </trkpt>
      <trkpt lat="42.27941" lon="2.55974">
        <ele>591</ele>
        <time>2015-01-17T07:28:16Z</time>
      </trkpt>
      <trkpt lat="42.27947" lon="2.55984">
        <ele>589</ele>
        <time>2015-01-17T07:28:25Z</time>
      </trkpt>
      <trkpt lat="42.27958" lon="2.55984">
        <ele>586</ele>
        <time>2015-01-17T07:28:36Z</time>
      </trkpt>
      <trkpt lat="42.27967" lon="2.5598">
        <ele>585</ele>
        <time>2015-01-17T07:28:45Z</time>
      </trkpt>
      <trkpt lat="42.27978" lon="2.55976">
        <ele>584</ele>
        <time>2015-01-17T07:28:55Z</time>
      </trkpt>
      <trkpt lat="42.27988" lon="2.55971">
        <ele>583</ele>
        <time>2015-01-17T07:29:02Z</time>
      </trkpt>
      <trkpt lat="42.27998" lon="2.55965">
        <ele>582</ele>
        <time>2015-01-17T07:29:10Z</time>
      </trkpt>
      <trkpt lat="42.28007" lon="2.5596">
        <ele>582</ele>
        <time>2015-01-17T07:29:19Z</time>
      </trkpt>
      <trkpt lat="42.28015" lon="2.55964">
        <ele>581</ele>
        <time>2015-01-17T07:29:25Z</time>
      </trkpt>
      <trkpt lat="42.28024" lon="2.55964">
        <ele>579</ele>
        <time>2015-01-17T07:29:33Z</time>
      </trkpt>
      <trkpt lat="42.28033" lon="2.55968">
        <ele>576</ele>
        <time>2015-01-17T07:29:41Z</time>
      </trkpt>
      <trkpt lat="42.28042" lon="2.55965">
        <ele>573.1</ele>
        <time>2015-01-17T07:29:50Z</time>
      </trkpt>
      <trkpt lat="42.28051" lon="2.55961">
        <ele>572</ele>
        <time>2015-01-17T07:29:59Z</time>
      </trkpt>
      <trkpt lat="42.2806" lon="2.55953">
        <ele>569</ele>
        <time>2015-01-17T07:30:07Z</time>
      </trkpt>
      <trkpt lat="42.2807" lon="2.55948">
        <ele>567</ele>
        <time>2015-01-17T07:30:18Z</time>
      </trkpt>
      <trkpt lat="42.28079" lon="2.55949">
        <ele>566</ele>
        <time>2015-01-17T07:30:28Z</time>
      </trkpt>
      <trkpt lat="42.28089" lon="2.55951">
        <ele>560.1</ele>
        <time>2015-01-17T07:30:40Z</time>
      </trkpt>
      <trkpt lat="42.28098" lon="2.55958">
        <ele>557</ele>
        <time>2015-01-17T07:30:51Z</time>
      </trkpt>
      <trkpt lat="42.28106" lon="2.55968">
        <ele>555</ele>
        <time>2015-01-17T07:30:58Z</time>
      </trkpt>
      <trkpt lat="42.28113" lon="2.55978">
        <ele>553</ele>
        <time>2015-01-17T07:31:08Z</time>
      </trkpt>
      <trkpt lat="42.28122" lon="2.55986">
        <ele>550</ele>
        <time>2015-01-17T07:31:21Z</time>
      </trkpt>
      <trkpt lat="42.28127" lon="2.55997">
        <ele>550</ele>
        <time>2015-01-17T07:31:28Z</time>
      </trkpt>
      <trkpt lat="42.28136" lon="2.55999">
        <ele>548</ele>
        <time>2015-01-17T07:31:39Z</time>
      </trkpt>
      <trkpt lat="42.28133" lon="2.56009">
        <ele>545</ele>
        <time>2015-01-17T07:31:49Z</time>
      </trkpt>
      <trkpt lat="42.28137" lon="2.5602">
        <ele>541</ele>
        <time>2015-01-17T07:32:04Z</time>
      </trkpt>
      <trkpt lat="42.28147" lon="2.5602">
        <ele>538</ele>
        <time>2015-01-17T07:32:18Z</time>
      </trkpt>
      <trkpt lat="42.28156" lon="2.56021">
        <ele>535</ele>
        <time>2015-01-17T07:32:27Z</time>
      </trkpt>
      <trkpt lat="42.28163" lon="2.5602">
        <ele>533</ele>
        <time>2015-01-17T07:32:48Z</time>
      </trkpt>
      <trkpt lat="42.2817" lon="2.56019">
        <ele>532</ele>
        <time>2015-01-17T07:32:54Z</time>
      </trkpt>
      <trkpt lat="42.28179" lon="2.5602">
        <ele>528</ele>
        <time>2015-01-17T07:33:02Z</time>
      </trkpt>
      <trkpt lat="42.28185" lon="2.56027">
        <ele>526</ele>
        <time>2015-01-17T07:33:10Z</time>
      </trkpt>
      <trkpt lat="42.28193" lon="2.56029">
        <ele>524</ele>
        <time>2015-01-17T07:33:20Z</time>
      </trkpt>
      <trkpt lat="42.28199" lon="2.56036">
        <ele>522</ele>
        <time>2015-01-17T07:33:26Z</time>
      </trkpt>
      <trkpt lat="42.28206" lon="2.56039">
        <ele>520</ele>
        <time>2015-01-17T07:33:38Z</time>
      </trkpt>
      <trkpt lat="42.28214" lon="2.56035">
        <ele>516</ele>
        <time>2015-01-17T07:33:49Z</time>
      </trkpt>
      <trkpt lat="42.28219" lon="2.56028">
        <ele>513</ele>
        <time>2015-01-17T07:33:57Z</time>
      </trkpt>
      <trkpt lat="42.28226" lon="2.56025">
        <ele>512</ele>
        <time>2015-01-17T07:34:05Z</time>
      </trkpt>
      <trkpt lat="42.2823" lon="2.56034">
        <ele>509</ele>
        <time>2015-01-17T07:34:12Z</time>
      </trkpt>
      <trkpt lat="42.28236" lon="2.5604">
        <ele>507</ele>
        <time>2015-01-17T07:34:20Z</time>
      </trkpt>
      <trkpt lat="42.28239" lon="2.56051">
        <ele>507</ele>
        <time>2015-01-17T07:34:27Z</time>
      </trkpt>
      <trkpt lat="42.2824" lon="2.56062">
        <ele>506</ele>
        <time>2015-01-17T07:34:35Z</time>
      </trkpt>
      <trkpt lat="42.28246" lon="2.56064">
        <ele>502</ele>
        <time>2015-01-17T07:34:45Z</time>
      </trkpt>
      <trkpt lat="42.28253" lon="2.56066">
        <ele>501</ele>
        <time>2015-01-17T07:34:54Z</time>
      </trkpt>
      <trkpt lat="42.28259" lon="2.56071">
        <ele>499</ele>
        <time>2015-01-17T07:35:12Z</time>
      </trkpt>
      <trkpt lat="42.28256" lon="2.56078">
        <ele>499</ele>
        <time>2015-01-17T07:35:17Z</time>
      </trkpt>
      <trkpt lat="42.2825" lon="2.56084">
        <ele>497</ele>
        <time>2015-01-17T07:35:24Z</time>
      </trkpt>
      <trkpt lat="42.28245" lon="2.5609">
        <ele>495</ele>
        <time>2015-01-17T07:35:31Z</time>
      </trkpt>
      <trkpt lat="42.28241" lon="2.56095">
        <ele>494</ele>
        <time>2015-01-17T07:35:37Z</time>
      </trkpt>
      <trkpt lat="42.28235" lon="2.561">
        <ele>493</ele>
        <time>2015-01-17T07:35:42Z</time>
      </trkpt>
      <trkpt lat="42.28231" lon="2.56107">
        <ele>493</ele>
        <time>2015-01-17T07:35:47Z</time>
      </trkpt>
      <trkpt lat="42.28224" lon="2.56113">
        <ele>491</ele>
        <time>2015-01-17T07:35:54Z</time>
      </trkpt>
      <trkpt lat="42.28218" lon="2.56121">
        <ele>487</ele>
        <time>2015-01-17T07:36:01Z</time>
      </trkpt>
      <trkpt lat="42.28212" lon="2.5613">
        <ele>487</ele>
        <time>2015-01-17T07:36:08Z</time>
      </trkpt>
      <trkpt lat="42.28223" lon="2.56134">
        <ele>484.1</ele>
        <time>2015-01-17T07:36:20Z</time>
      </trkpt>
      <trkpt lat="42.28233" lon="2.56133">
        <ele>483</ele>
        <time>2015-01-17T07:36:29Z</time>
      </trkpt>
      <trkpt lat="42.28243" lon="2.56134">
        <ele>481</ele>
        <time>2015-01-17T07:36:39Z</time>
      </trkpt>
      <trkpt lat="42.28254" lon="2.56136">
        <ele>480</ele>
        <time>2015-01-17T07:36:46Z</time>
      </trkpt>
      <trkpt lat="42.28263" lon="2.56141">
        <ele>477</ele>
        <time>2015-01-17T07:36:54Z</time>
      </trkpt>
      <trkpt lat="42.28265" lon="2.56152">
        <ele>474</ele>
        <time>2015-01-17T07:37:06Z</time>
      </trkpt>
      <trkpt lat="42.28274" lon="2.56156">
        <ele>473</ele>
        <time>2015-01-17T07:37:17Z</time>
      </trkpt>
      <trkpt lat="42.28284" lon="2.56162">
        <ele>470</ele>
        <time>2015-01-17T07:37:25Z</time>
      </trkpt>
      <trkpt lat="42.28293" lon="2.56166">
        <ele>469</ele>
        <time>2015-01-17T07:37:33Z</time>
      </trkpt>
      <trkpt lat="42.28303" lon="2.56168">
        <ele>470</ele>
        <time>2015-01-17T07:37:40Z</time>
      </trkpt>
      <trkpt lat="42.28312" lon="2.56171">
        <ele>470</ele>
        <time>2015-01-17T07:37:56Z</time>
      </trkpt>
      <trkpt lat="42.28323" lon="2.56175">
        <ele>471</ele>
        <time>2015-01-17T07:38:11Z</time>
      </trkpt>
      <trkpt lat="42.28332" lon="2.5618">
        <ele>471</ele>
        <time>2015-01-17T07:38:20Z</time>
      </trkpt>
      <trkpt lat="42.28342" lon="2.56186">
        <ele>471</ele>
        <time>2015-01-17T07:38:28Z</time>
      </trkpt>
      <trkpt lat="42.28353" lon="2.56186">
        <ele>470</ele>
        <time>2015-01-17T07:38:36Z</time>
      </trkpt>
      <trkpt lat="42.28363" lon="2.56185">
        <ele>468</ele>
        <time>2015-01-17T07:38:44Z</time>
      </trkpt>
      <trkpt lat="42.28373" lon="2.56187">
        <ele>464</ele>
        <time>2015-01-17T07:38:54Z</time>
      </trkpt>
      <trkpt lat="42.28383" lon="2.56184">
        <ele>461</ele>
        <time>2015-01-17T07:39:06Z</time>
      </trkpt>
      <trkpt lat="42.28393" lon="2.56181">
        <ele>459</ele>
        <time>2015-01-17T07:39:19Z</time>
      </trkpt>
      <trkpt lat="42.28403" lon="2.56178">
        <ele>456</ele>
        <time>2015-01-17T07:39:29Z</time>
      </trkpt>
      <trkpt lat="42.2841" lon="2.56169">
        <ele>452</ele>
        <time>2015-01-17T07:39:40Z</time>
      </trkpt>
      <trkpt lat="42.28418" lon="2.56166">
        <ele>450</ele>
        <time>2015-01-17T07:39:54Z</time>
      </trkpt>
      <trkpt lat="42.28425" lon="2.56156">
        <ele>446</ele>
        <time>2015-01-17T07:40:02Z</time>
      </trkpt>
      <trkpt lat="42.28431" lon="2.56145">
        <ele>445</ele>
        <time>2015-01-17T07:40:11Z</time>
      </trkpt>
      <trkpt lat="42.28435" lon="2.56133">
        <ele>442</ele>
        <time>2015-01-17T07:40:21Z</time>
      </trkpt>
      <trkpt lat="42.28442" lon="2.56142">
        <ele>438</ele>
        <time>2015-01-17T07:40:39Z</time>
      </trkpt>
      <trkpt lat="42.28446" lon="2.56131">
        <ele>434.1</ele>
        <time>2015-01-17T07:40:50Z</time>
      </trkpt>
      <trkpt lat="42.2845" lon="2.56119">
        <ele>432</ele>
        <time>2015-01-17T07:41:04Z</time>
      </trkpt>
      <trkpt lat="42.28457" lon="2.56108">
        <ele>432</ele>
        <time>2015-01-17T07:41:17Z</time>
      </trkpt>
      <trkpt lat="42.28467" lon="2.56104">
        <ele>426</ele>
        <time>2015-01-17T07:41:29Z</time>
      </trkpt>
      <trkpt lat="42.28476" lon="2.56097">
        <ele>424</ele>
        <time>2015-01-17T07:41:37Z</time>
      </trkpt>
      <trkpt lat="42.28483" lon="2.56087">
        <ele>421</ele>
        <time>2015-01-17T07:41:47Z</time>
      </trkpt>
      <trkpt lat="42.2849" lon="2.56076">
        <ele>419</ele>
        <time>2015-01-17T07:41:55Z</time>
      </trkpt>
      <trkpt lat="42.28497" lon="2.56068">
        <ele>416</ele>
        <time>2015-01-17T07:42:09Z</time>
      </trkpt>
      <trkpt lat="42.28504" lon="2.56072">
        <ele>415</ele>
        <time>2015-01-17T07:42:16Z</time>
      </trkpt>
      <trkpt lat="42.28512" lon="2.56075">
        <ele>413</ele>
        <time>2015-01-17T07:42:24Z</time>
      </trkpt>
      <trkpt lat="42.28518" lon="2.56084">
        <ele>410</ele>
        <time>2015-01-17T07:42:33Z</time>
      </trkpt>
      <trkpt lat="42.28522" lon="2.56095">
        <ele>409</ele>
        <time>2015-01-17T07:42:43Z</time>
      </trkpt>
      <trkpt lat="42.28518" lon="2.56105">
        <ele>408</ele>
        <time>2015-01-17T07:42:50Z</time>
      </trkpt>
      <trkpt lat="42.28512" lon="2.56113">
        <ele>408</ele>
        <time>2015-01-17T07:42:58Z</time>
      </trkpt>
      <trkpt lat="42.28507" lon="2.56121">
        <ele>405</ele>
        <time>2015-01-17T07:43:08Z</time>
      </trkpt>
      <trkpt lat="42.28505" lon="2.56135">
        <ele>403</ele>
        <time>2015-01-17T07:43:18Z</time>
      </trkpt>
      <trkpt lat="42.28502" lon="2.56148">
        <ele>402</ele>
        <time>2015-01-17T07:43:27Z</time>
      </trkpt>
      <trkpt lat="42.28504" lon="2.56161">
        <ele>397</ele>
        <time>2015-01-17T07:43:36Z</time>
      </trkpt>
      <trkpt lat="42.28504" lon="2.56175">
        <ele>395</ele>
        <time>2015-01-17T07:43:48Z</time>
      </trkpt>
      <trkpt lat="42.28506" lon="2.56188">
        <ele>394</ele>
        <time>2015-01-17T07:43:58Z</time>
      </trkpt>
      <trkpt lat="42.28503" lon="2.56203">
        <ele>392</ele>
        <time>2015-01-17T07:44:06Z</time>
      </trkpt>
      <trkpt lat="42.28511" lon="2.56194">
        <ele>386</ele>
        <time>2015-01-17T07:44:32Z</time>
      </trkpt>
      <trkpt lat="42.28519" lon="2.56184">
        <ele>384</ele>
        <time>2015-01-17T07:44:42Z</time>
      </trkpt>
      <trkpt lat="42.28525" lon="2.56172">
        <ele>380</ele>
        <time>2015-01-17T07:44:53Z</time>
      </trkpt>
      <trkpt lat="42.28538" lon="2.56172">
        <ele>376</ele>
        <time>2015-01-17T07:45:12Z</time>
      </trkpt>
      <trkpt lat="42.28549" lon="2.56175">
        <ele>373</ele>
        <time>2015-01-17T07:45:22Z</time>
      </trkpt>
      <trkpt lat="42.28558" lon="2.56176">
        <ele>371</ele>
        <time>2015-01-17T07:45:33Z</time>
      </trkpt>
      <trkpt lat="42.28564" lon="2.56184">
        <ele>368.1</ele>
        <time>2015-01-17T07:45:40Z</time>
      </trkpt>
      <trkpt lat="42.28568" lon="2.56194">
        <ele>366</ele>
        <time>2015-01-17T07:45:49Z</time>
      </trkpt>
      <trkpt lat="42.28574" lon="2.56197">
        <ele>364</ele>
        <time>2015-01-17T07:45:56Z</time>
      </trkpt>
      <trkpt lat="42.2858" lon="2.56202">
        <ele>361</ele>
        <time>2015-01-17T07:46:02Z</time>
      </trkpt>
      <trkpt lat="42.28586" lon="2.56208">
        <ele>361</ele>
        <time>2015-01-17T07:46:09Z</time>
      </trkpt>
      <trkpt lat="42.28596" lon="2.56214">
        <ele>360</ele>
        <time>2015-01-17T07:46:18Z</time>
      </trkpt>
      <trkpt lat="42.28601" lon="2.56219">
        <ele>357</ele>
        <time>2015-01-17T07:46:23Z</time>
      </trkpt>
      <trkpt lat="42.28605" lon="2.56224">
        <ele>355</ele>
        <time>2015-01-17T07:46:27Z</time>
      </trkpt>
      <trkpt lat="42.28612" lon="2.56232">
        <ele>355</ele>
        <time>2015-01-17T07:46:35Z</time>
      </trkpt>
      <trkpt lat="42.28619" lon="2.56241">
        <ele>351</ele>
        <time>2015-01-17T07:46:46Z</time>
      </trkpt>
      <trkpt lat="42.28622" lon="2.56247">
        <ele>350</ele>
        <time>2015-01-17T07:46:54Z</time>
      </trkpt>
      <trkpt lat="42.28628" lon="2.56256">
        <ele>349</ele>
        <time>2015-01-17T07:47:01Z</time>
      </trkpt>
      <trkpt lat="42.28636" lon="2.56261">
        <ele>349</ele>
        <time>2015-01-17T07:47:05Z</time>
      </trkpt>
      <trkpt lat="42.28645" lon="2.56264">
        <ele>349</ele>
        <time>2015-01-17T07:47:09Z</time>
      </trkpt>
      <trkpt lat="42.28654" lon="2.56266">
        <ele>348</ele>
        <time>2015-01-17T07:47:13Z</time>
      </trkpt>
      <trkpt lat="42.28664" lon="2.56268">
        <ele>348</ele>
        <time>2015-01-17T07:47:17Z</time>
      </trkpt>
      <trkpt lat="42.28675" lon="2.56273">
        <ele>345</ele>
        <time>2015-01-17T07:47:22Z</time>
      </trkpt>
      <trkpt lat="42.28685" lon="2.56274">
        <ele>345</ele>
        <time>2015-01-17T07:47:26Z</time>
      </trkpt>
      <trkpt lat="42.28696" lon="2.56274">
        <ele>345</ele>
        <time>2015-01-17T07:47:31Z</time>
      </trkpt>
      <trkpt lat="42.28705" lon="2.56274">
        <ele>345</ele>
        <time>2015-01-17T07:47:34Z</time>
      </trkpt>
      <trkpt lat="42.28713" lon="2.56269">
        <ele>345</ele>
        <time>2015-01-17T07:47:39Z</time>
      </trkpt>
      <trkpt lat="42.28723" lon="2.56263">
        <ele>345</ele>
        <time>2015-01-17T07:47:48Z</time>
      </trkpt>
      <trkpt lat="42.28728" lon="2.56249">
        <ele>346</ele>
        <time>2015-01-17T07:47:56Z</time>
      </trkpt>
      <trkpt lat="42.28732" lon="2.56236">
        <ele>346</ele>
        <time>2015-01-17T07:48:02Z</time>
      </trkpt>
      <trkpt lat="42.28736" lon="2.56223">
        <ele>346</ele>
        <time>2015-01-17T07:48:08Z</time>
      </trkpt>
      <trkpt lat="42.28737" lon="2.56208">
        <ele>345</ele>
        <time>2015-01-17T07:48:14Z</time>
      </trkpt>
      <trkpt lat="42.28734" lon="2.56193">
        <ele>345</ele>
        <time>2015-01-17T07:48:18Z</time>
      </trkpt>
      <trkpt lat="42.2873" lon="2.5618">
        <ele>343</ele>
        <time>2015-01-17T07:48:23Z</time>
      </trkpt>
      <trkpt lat="42.28739" lon="2.56174">
        <ele>341</ele>
        <time>2015-01-17T07:48:31Z</time>
      </trkpt>
      <trkpt lat="42.2875" lon="2.56177">
        <ele>338</ele>
        <time>2015-01-17T07:48:38Z</time>
      </trkpt>
      <trkpt lat="42.28761" lon="2.5618">
        <ele>336</ele>
        <time>2015-01-17T07:48:44Z</time>
      </trkpt>
      <trkpt lat="42.2877" lon="2.5619">
        <ele>335</ele>
        <time>2015-01-17T07:48:48Z</time>
      </trkpt>
      <trkpt lat="42.28781" lon="2.56189">
        <ele>334</ele>
        <time>2015-01-17T07:48:54Z</time>
      </trkpt>
      <trkpt lat="42.28783" lon="2.56175">
        <ele>330</ele>
        <time>2015-01-17T07:49:02Z</time>
      </trkpt>
      <trkpt lat="42.28776" lon="2.56166">
        <ele>329</ele>
        <time>2015-01-17T07:49:09Z</time>
      </trkpt>
      <trkpt lat="42.28773" lon="2.56154">
        <ele>329</ele>
        <time>2015-01-17T07:49:17Z</time>
      </trkpt>
      <trkpt lat="42.28777" lon="2.56145">
        <ele>324</ele>
        <time>2015-01-17T07:49:28Z</time>
      </trkpt>
      <trkpt lat="42.28783" lon="2.56147">
        <ele>322</ele>
        <time>2015-01-17T07:49:35Z</time>
      </trkpt>
      <trkpt lat="42.28782" lon="2.56139">
        <ele>321</ele>
        <time>2015-01-17T07:49:42Z</time>
      </trkpt>
      <trkpt lat="42.28783" lon="2.5613">
        <ele>322</ele>
        <time>2015-01-17T07:49:50Z</time>
      </trkpt>
      <trkpt lat="42.28786" lon="2.56122">
        <ele>322</ele>
        <time>2015-01-17T07:49:58Z</time>
      </trkpt>
      <trkpt lat="42.28792" lon="2.56109">
        <ele>321</ele>
        <time>2015-01-17T07:50:08Z</time>
      </trkpt>
      <trkpt lat="42.28801" lon="2.56113">
        <ele>323</ele>
        <time>2015-01-17T07:50:37Z</time>
      </trkpt>
      <trkpt lat="42.28811" lon="2.56119">
        <ele>325</ele>
        <time>2015-01-17T07:50:47Z</time>
      </trkpt>
      <trkpt lat="42.2882" lon="2.56123">
        <ele>327</ele>
        <time>2015-01-17T07:50:57Z</time>
      </trkpt>
      <trkpt lat="42.28829" lon="2.5613">
        <ele>329</ele>
        <time>2015-01-17T07:51:06Z</time>
      </trkpt>
      <trkpt lat="42.28838" lon="2.56137">
        <ele>331</ele>
        <time>2015-01-17T07:51:14Z</time>
      </trkpt>
      <trkpt lat="42.28845" lon="2.56146">
        <ele>333</ele>
        <time>2015-01-17T07:51:23Z</time>
      </trkpt>
      <trkpt lat="42.28852" lon="2.56157">
        <ele>335</ele>
        <time>2015-01-17T07:51:32Z</time>
      </trkpt>
      <trkpt lat="42.28859" lon="2.56168">
        <ele>337</ele>
        <time>2015-01-17T07:51:42Z</time>
      </trkpt>
      <trkpt lat="42.28862" lon="2.56182">
        <ele>339</ele>
        <time>2015-01-17T07:51:53Z</time>
      </trkpt>
      <trkpt lat="42.28862" lon="2.56197">
        <ele>340</ele>
        <time>2015-01-17T07:52:04Z</time>
      </trkpt>
      <trkpt lat="42.28857" lon="2.56211">
        <ele>341</ele>
        <time>2015-01-17T07:52:13Z</time>
      </trkpt>
      <trkpt lat="42.28853" lon="2.56223">
        <ele>343</ele>
        <time>2015-01-17T07:52:22Z</time>
      </trkpt>
      <trkpt lat="42.28854" lon="2.56237">
        <ele>345</ele>
        <time>2015-01-17T07:52:31Z</time>
      </trkpt>
      <trkpt lat="42.28858" lon="2.56251">
        <ele>346</ele>
        <time>2015-01-17T07:52:42Z</time>
      </trkpt>
      <trkpt lat="42.28859" lon="2.56265">
        <ele>348</ele>
        <time>2015-01-17T07:52:52Z</time>
      </trkpt>
      <trkpt lat="42.28857" lon="2.56279">
        <ele>350</ele>
        <time>2015-01-17T07:53:02Z</time>
      </trkpt>
      <trkpt lat="42.28855" lon="2.56293">
        <ele>351</ele>
        <time>2015-01-17T07:53:14Z</time>
      </trkpt>
      <trkpt lat="42.28855" lon="2.56306">
        <ele>353</ele>
        <time>2015-01-17T07:53:24Z</time>
      </trkpt>
      <trkpt lat="42.28854" lon="2.56321">
        <ele>354</ele>
        <time>2015-01-17T07:53:33Z</time>
      </trkpt>
      <trkpt lat="42.2885" lon="2.56334">
        <ele>356</ele>
        <time>2015-01-17T07:53:41Z</time>
      </trkpt>
      <trkpt lat="42.28851" lon="2.56348">
        <ele>357</ele>
        <time>2015-01-17T07:53:50Z</time>
      </trkpt>
      <trkpt lat="42.28847" lon="2.56361">
        <ele>357</ele>
        <time>2015-01-17T07:53:59Z</time>
      </trkpt>
      <trkpt lat="42.28845" lon="2.56374">
        <ele>359</ele>
        <time>2015-01-17T07:54:07Z</time>
      </trkpt>
      <trkpt lat="42.28845" lon="2.56387">
        <ele>361</ele>
        <time>2015-01-17T07:54:17Z</time>
      </trkpt>
      <trkpt lat="42.28846" lon="2.56401">
        <ele>362</ele>
        <time>2015-01-17T07:54:25Z</time>
      </trkpt>
      <trkpt lat="42.28843" lon="2.56414">
        <ele>364</ele>
        <time>2015-01-17T07:54:33Z</time>
      </trkpt>
      <trkpt lat="42.28843" lon="2.56427">
        <ele>365</ele>
        <time>2015-01-17T07:54:41Z</time>
      </trkpt>
      <trkpt lat="42.28843" lon="2.56441">
        <ele>365</ele>
        <time>2015-01-17T07:54:48Z</time>
      </trkpt>
      <trkpt lat="42.28844" lon="2.56454">
        <ele>366</ele>
        <time>2015-01-17T07:54:55Z</time>
      </trkpt>
      <trkpt lat="42.28845" lon="2.56467">
        <ele>367</ele>
        <time>2015-01-17T07:55:03Z</time>
      </trkpt>
      <trkpt lat="42.28846" lon="2.5648">
        <ele>368.9</ele>
        <time>2015-01-17T07:55:10Z</time>
      </trkpt>
      <trkpt lat="42.28848" lon="2.56492">
        <ele>369</ele>
        <time>2015-01-17T07:55:19Z</time>
      </trkpt>
      <trkpt lat="42.28853" lon="2.56503">
        <ele>371</ele>
        <time>2015-01-17T07:55:29Z</time>
      </trkpt>
      <trkpt lat="42.28855" lon="2.56514">
        <ele>375</ele>
        <time>2015-01-17T07:55:38Z</time>
      </trkpt>
      <trkpt lat="42.28854" lon="2.56524">
        <ele>375</ele>
        <time>2015-01-17T07:55:46Z</time>
      </trkpt>
      <trkpt lat="42.28861" lon="2.56525">
        <ele>377</ele>
        <time>2015-01-17T07:55:55Z</time>
      </trkpt>
      <trkpt lat="42.28862" lon="2.56535">
        <ele>379</ele>
        <time>2015-01-17T07:56:06Z</time>
      </trkpt>
      <trkpt lat="42.28865" lon="2.56546">
        <ele>380</ele>
        <time>2015-01-17T07:56:16Z</time>
      </trkpt>
      <trkpt lat="42.28868" lon="2.56553">
        <ele>384</ele>
        <time>2015-01-17T07:56:28Z</time>
      </trkpt>
      <trkpt lat="42.2887" lon="2.56563">
        <ele>384</ele>
        <time>2015-01-17T07:56:36Z</time>
      </trkpt>
      <trkpt lat="42.28874" lon="2.56575">
        <ele>386</ele>
        <time>2015-01-17T07:56:46Z</time>
      </trkpt>
      <trkpt lat="42.28876" lon="2.56587">
        <ele>390</ele>
        <time>2015-01-17T07:56:57Z</time>
      </trkpt>
      <trkpt lat="42.28881" lon="2.56599">
        <ele>392</ele>
        <time>2015-01-17T07:57:08Z</time>
      </trkpt>
      <trkpt lat="42.28882" lon="2.56612">
        <ele>393</ele>
        <time>2015-01-17T07:57:19Z</time>
      </trkpt>
      <trkpt lat="42.28885" lon="2.56625">
        <ele>395</ele>
        <time>2015-01-17T07:57:29Z</time>
      </trkpt>
      <trkpt lat="42.28889" lon="2.56637">
        <ele>399.9</ele>
        <time>2015-01-17T07:57:40Z</time>
      </trkpt>
      <trkpt lat="42.28893" lon="2.56648">
        <ele>402</ele>
        <time>2015-01-17T07:57:51Z</time>
      </trkpt>
      <trkpt lat="42.28894" lon="2.56663">
        <ele>403</ele>
        <time>2015-01-17T07:58:01Z</time>
      </trkpt>
      <trkpt lat="42.28898" lon="2.56676">
        <ele>404</ele>
        <time>2015-01-17T07:58:12Z</time>
      </trkpt>
      <trkpt lat="42.28902" lon="2.56688">
        <ele>404</ele>
        <time>2015-01-17T07:58:21Z</time>
      </trkpt>
      <trkpt lat="42.28906" lon="2.567">
        <ele>404</ele>
        <time>2015-01-17T07:58:29Z</time>
      </trkpt>
      <trkpt lat="42.2891" lon="2.56713">
        <ele>405.9</ele>
        <time>2015-01-17T07:58:40Z</time>
      </trkpt>
      <trkpt lat="42.28914" lon="2.56725">
        <ele>406</ele>
        <time>2015-01-17T07:58:53Z</time>
      </trkpt>
      <trkpt lat="42.28914" lon="2.56739">
        <ele>406</ele>
        <time>2015-01-17T07:59:04Z</time>
      </trkpt>
      <trkpt lat="42.28905" lon="2.56745">
        <ele>410</ele>
        <time>2015-01-17T07:59:17Z</time>
      </trkpt>
      <trkpt lat="42.28898" lon="2.56755">
        <ele>411</ele>
        <time>2015-01-17T07:59:29Z</time>
      </trkpt>
      <trkpt lat="42.28909" lon="2.56756">
        <ele>415</ele>
        <time>2015-01-17T07:59:42Z</time>
      </trkpt>
      <trkpt lat="42.28914" lon="2.5676">
        <ele>419</ele>
        <time>2015-01-17T08:00:51Z</time>
      </trkpt>
      <trkpt lat="42.28906" lon="2.56768">
        <ele>420</ele>
        <time>2015-01-17T08:01:41Z</time>
      </trkpt>
      <trkpt lat="42.28902" lon="2.5678">
        <ele>424</ele>
        <time>2015-01-17T08:01:55Z</time>
      </trkpt>
      <trkpt lat="42.28898" lon="2.56793">
        <ele>424</ele>
        <time>2015-01-17T08:02:05Z</time>
      </trkpt>
      <trkpt lat="42.28896" lon="2.56805">
        <ele>426</ele>
        <time>2015-01-17T08:02:15Z</time>
      </trkpt>
      <trkpt lat="42.28905" lon="2.56809">
        <ele>434</ele>
        <time>2015-01-17T08:02:43Z</time>
      </trkpt>
      <trkpt lat="42.28903" lon="2.56823">
        <ele>438</ele>
        <time>2015-01-17T08:03:04Z</time>
      </trkpt>
      <trkpt lat="42.28899" lon="2.56839">
        <ele>441</ele>
        <time>2015-01-17T08:03:20Z</time>
      </trkpt>
      <trkpt lat="42.28904" lon="2.56849">
        <ele>448</ele>
        <time>2015-01-17T08:03:49Z</time>
      </trkpt>
      <trkpt lat="42.28901" lon="2.56862">
        <ele>450</ele>
        <time>2015-01-17T08:03:59Z</time>
      </trkpt>
      <trkpt lat="42.28902" lon="2.56877">
        <ele>455</ele>
        <time>2015-01-17T08:04:18Z</time>
      </trkpt>
      <trkpt lat="42.28896" lon="2.5689">
        <ele>460</ele>
        <time>2015-01-17T08:04:38Z</time>
      </trkpt>
      <trkpt lat="42.28893" lon="2.56903">
        <ele>463</ele>
        <time>2015-01-17T08:04:49Z</time>
      </trkpt>
      <trkpt lat="42.2889" lon="2.56916">
        <ele>466</ele>
        <time>2015-01-17T08:05:04Z</time>
      </trkpt>
      <trkpt lat="42.28879" lon="2.56918">
        <ele>468</ele>
        <time>2015-01-17T08:05:17Z</time>
      </trkpt>
      <trkpt lat="42.28869" lon="2.56915">
        <ele>469</ele>
        <time>2015-01-17T08:05:26Z</time>
      </trkpt>
      <trkpt lat="42.2886" lon="2.5691">
        <ele>470</ele>
        <time>2015-01-17T08:05:34Z</time>
      </trkpt>
      <trkpt lat="42.28855" lon="2.56922">
        <ele>479</ele>
        <time>2015-01-17T08:06:13Z</time>
      </trkpt>
      <trkpt lat="42.28846" lon="2.56915">
        <ele>481</ele>
        <time>2015-01-17T08:06:26Z</time>
      </trkpt>
      <trkpt lat="42.28839" lon="2.56904">
        <ele>484</ele>
        <time>2015-01-17T08:06:35Z</time>
      </trkpt>
      <trkpt lat="42.28836" lon="2.56917">
        <ele>490</ele>
        <time>2015-01-17T08:07:05Z</time>
      </trkpt>
      <trkpt lat="42.2883" lon="2.56928">
        <ele>496</ele>
        <time>2015-01-17T08:07:30Z</time>
      </trkpt>
      <trkpt lat="42.28829" lon="2.56942">
        <ele>498</ele>
        <time>2015-01-17T08:07:45Z</time>
      </trkpt>
      <trkpt lat="42.28835" lon="2.56955">
        <ele>502</ele>
        <time>2015-01-17T08:07:57Z</time>
      </trkpt>
      <trkpt lat="42.28841" lon="2.56965">
        <ele>504</ele>
        <time>2015-01-17T08:08:07Z</time>
      </trkpt>
      <trkpt lat="42.28835" lon="2.56975">
        <ele>509</ele>
        <time>2015-01-17T08:08:27Z</time>
      </trkpt>
      <trkpt lat="42.28826" lon="2.5697">
        <ele>511</ele>
        <time>2015-01-17T08:08:41Z</time>
      </trkpt>
      <trkpt lat="42.28818" lon="2.5696">
        <ele>517</ele>
        <time>2015-01-17T08:08:56Z</time>
      </trkpt>
      <trkpt lat="42.28818" lon="2.56974">
        <ele>521</ele>
        <time>2015-01-17T08:09:26Z</time>
      </trkpt>
      <trkpt lat="42.28824" lon="2.56987">
        <ele>523</ele>
        <time>2015-01-17T08:09:34Z</time>
      </trkpt>
      <trkpt lat="42.28827" lon="2.56999">
        <ele>523</ele>
        <time>2015-01-17T08:09:44Z</time>
      </trkpt>
      <trkpt lat="42.28834" lon="2.5701">
        <ele>525</ele>
        <time>2015-01-17T08:09:54Z</time>
      </trkpt>
      <trkpt lat="42.28837" lon="2.57023">
        <ele>527</ele>
        <time>2015-01-17T08:10:06Z</time>
      </trkpt>
      <trkpt lat="42.28843" lon="2.57036">
        <ele>528</ele>
        <time>2015-01-17T08:10:19Z</time>
      </trkpt>
      <trkpt lat="42.2885" lon="2.57046">
        <ele>534</ele>
        <time>2015-01-17T08:10:32Z</time>
      </trkpt>
      <trkpt lat="42.28855" lon="2.57059">
        <ele>536</ele>
        <time>2015-01-17T08:10:44Z</time>
      </trkpt>
      <trkpt lat="42.2886" lon="2.57074">
        <ele>540</ele>
        <time>2015-01-17T08:11:11Z</time>
      </trkpt>
      <trkpt lat="42.2885" lon="2.57068">
        <ele>541</ele>
        <time>2015-01-17T08:14:12Z</time>
      </trkpt>
      <trkpt lat="42.28844" lon="2.57057">
        <ele>541</ele>
        <time>2015-01-17T08:14:24Z</time>
      </trkpt>
      <trkpt lat="42.28836" lon="2.57047">
        <ele>541</ele>
        <time>2015-01-17T08:14:34Z</time>
      </trkpt>
      <trkpt lat="42.28825" lon="2.57043">
        <ele>542</ele>
        <time>2015-01-17T08:14:43Z</time>
      </trkpt>
      <trkpt lat="42.28816" lon="2.57036">
        <ele>544</ele>
        <time>2015-01-17T08:14:55Z</time>
      </trkpt>
      <trkpt lat="42.2881" lon="2.57025">
        <ele>547</ele>
        <time>2015-01-17T08:15:03Z</time>
      </trkpt>
      <trkpt lat="42.28801" lon="2.57019">
        <ele>551</ele>
        <time>2015-01-17T08:15:24Z</time>
      </trkpt>
      <trkpt lat="42.28791" lon="2.5702">
        <ele>551.1</ele>
        <time>2015-01-17T08:15:30Z</time>
      </trkpt>
      <trkpt lat="42.2879" lon="2.57032">
        <ele>557</ele>
        <time>2015-01-17T08:15:58Z</time>
      </trkpt>
      <trkpt lat="42.28787" lon="2.57043">
        <ele>560</ele>
        <time>2015-01-17T08:16:12Z</time>
      </trkpt>
      <trkpt lat="42.28788" lon="2.57056">
        <ele>566</ele>
        <time>2015-01-17T08:16:29Z</time>
      </trkpt>
      <trkpt lat="42.28794" lon="2.57068">
        <ele>571</ele>
        <time>2015-01-17T08:16:48Z</time>
      </trkpt>
      <trkpt lat="42.28796" lon="2.57079">
        <ele>576.1</ele>
        <time>2015-01-17T08:17:05Z</time>
      </trkpt>
      <trkpt lat="42.28798" lon="2.57093">
        <ele>579</ele>
        <time>2015-01-17T08:17:27Z</time>
      </trkpt>
      <trkpt lat="42.28799" lon="2.57106">
        <ele>589</ele>
        <time>2015-01-17T08:17:52Z</time>
      </trkpt>
      <trkpt lat="42.28803" lon="2.57119">
        <ele>592.1</ele>
        <time>2015-01-17T08:18:10Z</time>
      </trkpt>
      <trkpt lat="42.28809" lon="2.57129">
        <ele>595.1</ele>
        <time>2015-01-17T08:18:30Z</time>
      </trkpt>
      <trkpt lat="42.28815" lon="2.57139">
        <ele>601</ele>
        <time>2015-01-17T08:18:50Z</time>
      </trkpt>
      <trkpt lat="42.28819" lon="2.57149">
        <ele>605</ele>
        <time>2015-01-17T08:19:03Z</time>
      </trkpt>
      <trkpt lat="42.28826" lon="2.5716">
        <ele>608</ele>
        <time>2015-01-17T08:19:19Z</time>
      </trkpt>
      <trkpt lat="42.28835" lon="2.57167">
        <ele>610</ele>
        <time>2015-01-17T08:19:31Z</time>
      </trkpt>
      <trkpt lat="42.28843" lon="2.57176">
        <ele>610</ele>
        <time>2015-01-17T08:19:39Z</time>
      </trkpt>
      <trkpt lat="42.28852" lon="2.57186">
        <ele>610</ele>
        <time>2015-01-17T08:19:48Z</time>
      </trkpt>
      <trkpt lat="42.28857" lon="2.57197">
        <ele>612</ele>
        <time>2015-01-17T08:20:16Z</time>
      </trkpt>
      <trkpt lat="42.28863" lon="2.57209">
        <ele>611</ele>
        <time>2015-01-17T08:20:25Z</time>
      </trkpt>
      <trkpt lat="42.28874" lon="2.57209">
        <ele>612</ele>
        <time>2015-01-17T08:20:36Z</time>
      </trkpt>
      <trkpt lat="42.28882" lon="2.57203">
        <ele>614</ele>
        <time>2015-01-17T08:20:43Z</time>
      </trkpt>
      <trkpt lat="42.28891" lon="2.57201">
        <ele>614</ele>
        <time>2015-01-17T08:20:50Z</time>
      </trkpt>
      <trkpt lat="42.289" lon="2.57209">
        <ele>616</ele>
        <time>2015-01-17T08:21:07Z</time>
      </trkpt>
      <trkpt lat="42.28904" lon="2.57221">
        <ele>622</ele>
        <time>2015-01-17T08:21:26Z</time>
      </trkpt>
      <trkpt lat="42.28911" lon="2.57229">
        <ele>622</ele>
        <time>2015-01-17T08:21:33Z</time>
      </trkpt>
      <trkpt lat="42.28917" lon="2.57236">
        <ele>624</ele>
        <time>2015-01-17T08:21:46Z</time>
      </trkpt>
      <trkpt lat="42.28924" lon="2.57246">
        <ele>627.1</ele>
        <time>2015-01-17T08:21:55Z</time>
      </trkpt>
      <trkpt lat="42.28931" lon="2.57253">
        <ele>628</ele>
        <time>2015-01-17T08:22:01Z</time>
      </trkpt>
      <trkpt lat="42.28939" lon="2.57259">
        <ele>628</ele>
        <time>2015-01-17T08:22:07Z</time>
      </trkpt>
      <trkpt lat="42.28946" lon="2.57267">
        <ele>628</ele>
        <time>2015-01-17T08:22:15Z</time>
      </trkpt>
      <trkpt lat="42.28947" lon="2.57279">
        <ele>635</ele>
        <time>2015-01-17T08:22:38Z</time>
      </trkpt>
      <trkpt lat="42.28954" lon="2.57285">
        <ele>638</ele>
        <time>2015-01-17T08:22:46Z</time>
      </trkpt>
      <trkpt lat="42.2896" lon="2.57294">
        <ele>638</ele>
        <time>2015-01-17T08:22:53Z</time>
      </trkpt>
      <trkpt lat="42.28966" lon="2.57302">
        <ele>638</ele>
        <time>2015-01-17T08:22:59Z</time>
      </trkpt>
      <trkpt lat="42.28974" lon="2.57312">
        <ele>638</ele>
        <time>2015-01-17T08:23:09Z</time>
      </trkpt>
      <trkpt lat="42.28981" lon="2.57321">
        <ele>639</ele>
        <time>2015-01-17T08:23:17Z</time>
      </trkpt>
      <trkpt lat="42.28986" lon="2.57334">
        <ele>642</ele>
        <time>2015-01-17T08:23:31Z</time>
      </trkpt>
      <trkpt lat="42.28992" lon="2.57347">
        <ele>645</ele>
        <time>2015-01-17T08:23:44Z</time>
      </trkpt>
      <trkpt lat="42.28993" lon="2.57361">
        <ele>647</ele>
        <time>2015-01-17T08:23:57Z</time>
      </trkpt>
      <trkpt lat="42.28996" lon="2.57374">
        <ele>649.1</ele>
        <time>2015-01-17T08:24:10Z</time>
      </trkpt>
      <trkpt lat="42.28998" lon="2.57389">
        <ele>655</ele>
        <time>2015-01-17T08:24:28Z</time>
      </trkpt>
      <trkpt lat="42.28999" lon="2.57403">
        <ele>657</ele>
        <time>2015-01-17T08:24:44Z</time>
      </trkpt>
      <trkpt lat="42.29004" lon="2.57416">
        <ele>662</ele>
        <time>2015-01-17T08:25:03Z</time>
      </trkpt>
      <trkpt lat="42.29009" lon="2.57428">
        <ele>663</ele>
        <time>2015-01-17T08:25:15Z</time>
      </trkpt>
      <trkpt lat="42.29012" lon="2.57441">
        <ele>665</ele>
        <time>2015-01-17T08:25:27Z</time>
      </trkpt>
      <trkpt lat="42.29019" lon="2.57452">
        <ele>666.2</ele>
        <time>2015-01-17T08:25:40Z</time>
      </trkpt>
      <trkpt lat="42.29023" lon="2.57464">
        <ele>673</ele>
        <time>2015-01-17T08:25:53Z</time>
      </trkpt>
      <trkpt lat="42.29029" lon="2.57476">
        <ele>674</ele>
        <time>2015-01-17T08:26:05Z</time>
      </trkpt>
      <trkpt lat="42.29033" lon="2.57489">
        <ele>674</ele>
        <time>2015-01-17T08:26:17Z</time>
      </trkpt>
      <trkpt lat="42.29037" lon="2.57502">
        <ele>676</ele>
        <time>2015-01-17T08:26:28Z</time>
      </trkpt>
      <trkpt lat="42.29044" lon="2.57515">
        <ele>680</ele>
        <time>2015-01-17T08:26:42Z</time>
      </trkpt>
      <trkpt lat="42.2905" lon="2.57525">
        <ele>682</ele>
        <time>2015-01-17T08:26:51Z</time>
      </trkpt>
      <trkpt lat="42.29054" lon="2.57538">
        <ele>683</ele>
        <time>2015-01-17T08:27:04Z</time>
      </trkpt>
      <trkpt lat="42.29059" lon="2.57551">
        <ele>685</ele>
        <time>2015-01-17T08:27:17Z</time>
      </trkpt>
      <trkpt lat="42.29061" lon="2.57564">
        <ele>687</ele>
        <time>2015-01-17T08:27:28Z</time>
      </trkpt>
      <trkpt lat="42.29069" lon="2.57572">
        <ele>689</ele>
        <time>2015-01-17T08:27:39Z</time>
      </trkpt>
      <trkpt lat="42.29076" lon="2.57583">
        <ele>689</ele>
        <time>2015-01-17T08:27:49Z</time>
      </trkpt>
      <trkpt lat="42.29082" lon="2.57593">
        <ele>691</ele>
        <time>2015-01-17T08:28:02Z</time>
      </trkpt>
      <trkpt lat="42.29088" lon="2.57604">
        <ele>693</ele>
        <time>2015-01-17T08:28:17Z</time>
      </trkpt>
      <trkpt lat="42.2909" lon="2.57616">
        <ele>700</ele>
        <time>2015-01-17T08:28:36Z</time>
      </trkpt>
      <trkpt lat="42.2909" lon="2.5763">
        <ele>704</ele>
        <time>2015-01-17T08:28:51Z</time>
      </trkpt>
      <trkpt lat="42.29092" lon="2.57644">
        <ele>708</ele>
        <time>2015-01-17T08:29:13Z</time>
      </trkpt>
      <trkpt lat="42.29099" lon="2.57654">
        <ele>713</ele>
        <time>2015-01-17T08:29:29Z</time>
      </trkpt>
      <trkpt lat="42.29108" lon="2.57661">
        <ele>715</ele>
        <time>2015-01-17T08:29:41Z</time>
      </trkpt>
      <trkpt lat="42.2911" lon="2.57675">
        <ele>718</ele>
        <time>2015-01-17T08:29:57Z</time>
      </trkpt>
      <trkpt lat="42.29117" lon="2.57683">
        <ele>721</ele>
        <time>2015-01-17T08:30:10Z</time>
      </trkpt>
      <trkpt lat="42.29125" lon="2.57692">
        <ele>723</ele>
        <time>2015-01-17T08:30:26Z</time>
      </trkpt>
      <trkpt lat="42.29132" lon="2.57702">
        <ele>728</ele>
        <time>2015-01-17T08:30:42Z</time>
      </trkpt>
      <trkpt lat="42.29136" lon="2.57714">
        <ele>731</ele>
        <time>2015-01-17T08:30:56Z</time>
      </trkpt>
      <trkpt lat="42.29138" lon="2.57727">
        <ele>736.1</ele>
        <time>2015-01-17T08:31:15Z</time>
      </trkpt>
      <trkpt lat="42.29143" lon="2.57739">
        <ele>740</ele>
        <time>2015-01-17T08:31:31Z</time>
      </trkpt>
      <trkpt lat="42.29137" lon="2.5775">
        <ele>742</ele>
        <time>2015-01-17T08:31:42Z</time>
      </trkpt>
      <trkpt lat="42.29132" lon="2.57762">
        <ele>744</ele>
        <time>2015-01-17T08:31:52Z</time>
      </trkpt>
      <trkpt lat="42.29134" lon="2.57775">
        <ele>744</ele>
        <time>2015-01-17T08:32:07Z</time>
      </trkpt>
      <trkpt lat="42.29142" lon="2.57773">
        <ele>747</ele>
        <time>2015-01-17T08:33:07Z</time>
      </trkpt>
      <trkpt lat="42.29151" lon="2.57772">
        <ele>748</ele>
        <time>2015-01-17T08:33:15Z</time>
      </trkpt>
      <trkpt lat="42.29161" lon="2.57769">
        <ele>749</ele>
        <time>2015-01-17T08:33:23Z</time>
      </trkpt>
      <trkpt lat="42.2917" lon="2.57766">
        <ele>750</ele>
        <time>2015-01-17T08:34:08Z</time>
      </trkpt>
      <trkpt lat="42.29178" lon="2.57761">
        <ele>750</ele>
        <time>2015-01-17T08:34:18Z</time>
      </trkpt>
      <trkpt lat="42.29185" lon="2.57754">
        <ele>752</ele>
        <time>2015-01-17T08:34:26Z</time>
      </trkpt>
      <trkpt lat="42.29192" lon="2.57746">
        <ele>753</ele>
        <time>2015-01-17T08:34:35Z</time>
      </trkpt>
      <trkpt lat="42.29201" lon="2.57743">
        <ele>758</ele>
        <time>2015-01-17T08:34:47Z</time>
      </trkpt>
      <trkpt lat="42.2921" lon="2.57739">
        <ele>762</ele>
        <time>2015-01-17T08:35:01Z</time>
      </trkpt>
      <trkpt lat="42.2922" lon="2.57737">
        <ele>767</ele>
        <time>2015-01-17T08:35:26Z</time>
      </trkpt>
      <trkpt lat="42.29222" lon="2.57723">
        <ele>768</ele>
        <time>2015-01-17T08:35:35Z</time>
      </trkpt>
      <trkpt lat="42.29223" lon="2.57713">
        <ele>771</ele>
        <time>2015-01-17T08:36:08Z</time>
      </trkpt>
      <trkpt lat="42.29222" lon="2.577">
        <ele>772</ele>
        <time>2015-01-17T08:36:28Z</time>
      </trkpt>
      <trkpt lat="42.29223" lon="2.57688">
        <ele>774</ele>
        <time>2015-01-17T08:36:38Z</time>
      </trkpt>
      <trkpt lat="42.29224" lon="2.57676">
        <ele>778</ele>
        <time>2015-01-17T08:36:48Z</time>
      </trkpt>
      <trkpt lat="42.29226" lon="2.57663">
        <ele>782</ele>
        <time>2015-01-17T08:37:01Z</time>
      </trkpt>
      <trkpt lat="42.29226" lon="2.57649">
        <ele>782.2</ele>
        <time>2015-01-17T08:37:10Z</time>
      </trkpt>
      <trkpt lat="42.29224" lon="2.57633">
        <ele>785</ele>
        <time>2015-01-17T08:37:22Z</time>
      </trkpt>
      <trkpt lat="42.29224" lon="2.5762">
        <ele>785</ele>
        <time>2015-01-17T08:37:32Z</time>
      </trkpt>
      <trkpt lat="42.29226" lon="2.57607">
        <ele>787</ele>
        <time>2015-01-17T08:37:42Z</time>
      </trkpt>
      <trkpt lat="42.29235" lon="2.57602">
        <ele>787</ele>
        <time>2015-01-17T08:37:53Z</time>
      </trkpt>
      <trkpt lat="42.29236" lon="2.57615">
        <ele>789</ele>
        <time>2015-01-17T08:38:08Z</time>
      </trkpt>
      <trkpt lat="42.2924" lon="2.57629">
        <ele>793</ele>
        <time>2015-01-17T08:38:24Z</time>
      </trkpt>
      <trkpt lat="42.2924" lon="2.57641">
        <ele>796</ele>
        <time>2015-01-17T08:38:37Z</time>
      </trkpt>
      <trkpt lat="42.29244" lon="2.57655">
        <ele>796.2</ele>
        <time>2015-01-17T08:38:50Z</time>
      </trkpt>
      <trkpt lat="42.29251" lon="2.57665">
        <ele>802</ele>
        <time>2015-01-17T08:39:08Z</time>
      </trkpt>
      <trkpt lat="42.29256" lon="2.57678">
        <ele>806</ele>
        <time>2015-01-17T08:39:26Z</time>
      </trkpt>
      <trkpt lat="42.29266" lon="2.57687">
        <ele>810</ele>
        <time>2015-01-17T08:39:47Z</time>
      </trkpt>
      <trkpt lat="42.29269" lon="2.57701">
        <ele>815</ele>
        <time>2015-01-17T08:40:02Z</time>
      </trkpt>
      <trkpt lat="42.29271" lon="2.57715">
        <ele>817</ele>
        <time>2015-01-17T08:40:17Z</time>
      </trkpt>
      <trkpt lat="42.29272" lon="2.57728">
        <ele>819</ele>
        <time>2015-01-17T08:40:27Z</time>
      </trkpt>
      <trkpt lat="42.29274" lon="2.57739">
        <ele>820</ele>
        <time>2015-01-17T08:40:36Z</time>
      </trkpt>
      <trkpt lat="42.29275" lon="2.57749">
        <ele>822</ele>
        <time>2015-01-17T08:40:43Z</time>
      </trkpt>
      <trkpt lat="42.29281" lon="2.57754">
        <ele>824</ele>
        <time>2015-01-17T08:40:52Z</time>
      </trkpt>
      <trkpt lat="42.29287" lon="2.57759">
        <ele>827</ele>
        <time>2015-01-17T08:41:02Z</time>
      </trkpt>
      <trkpt lat="42.2929" lon="2.57751">
        <ele>828</ele>
        <time>2015-01-17T08:41:12Z</time>
      </trkpt>
      <trkpt lat="42.29298" lon="2.57752">
        <ele>830.3</ele>
        <time>2015-01-17T08:41:30Z</time>
      </trkpt>
      <trkpt lat="42.29302" lon="2.57761">
        <ele>832.3</ele>
        <time>2015-01-17T08:41:40Z</time>
      </trkpt>
      <trkpt lat="42.29309" lon="2.57775">
        <ele>835</ele>
        <time>2015-01-17T08:41:58Z</time>
      </trkpt>
      <trkpt lat="42.29316" lon="2.57783">
        <ele>837.3</ele>
        <time>2015-01-17T08:42:10Z</time>
      </trkpt>
      <trkpt lat="42.29324" lon="2.57788">
        <ele>841</ele>
        <time>2015-01-17T08:42:23Z</time>
      </trkpt>
      <trkpt lat="42.29332" lon="2.57798">
        <ele>844</ele>
        <time>2015-01-17T08:42:41Z</time>
      </trkpt>
      <trkpt lat="42.29342" lon="2.57803">
        <ele>848</ele>
        <time>2015-01-17T08:42:56Z</time>
      </trkpt>
      <trkpt lat="42.2935" lon="2.57811">
        <ele>849.2</ele>
        <time>2015-01-17T08:43:10Z</time>
      </trkpt>
      <trkpt lat="42.29357" lon="2.57817">
        <ele>852</ele>
        <time>2015-01-17T08:43:23Z</time>
      </trkpt>
      <trkpt lat="42.29363" lon="2.57824">
        <ele>855.2</ele>
        <time>2015-01-17T08:43:35Z</time>
      </trkpt>
      <trkpt lat="42.29372" lon="2.57834">
        <ele>859</ele>
        <time>2015-01-17T08:43:54Z</time>
      </trkpt>
      <trkpt lat="42.29381" lon="2.57837">
        <ele>862</ele>
        <time>2015-01-17T08:44:16Z</time>
      </trkpt>
      <trkpt lat="42.29391" lon="2.57844">
        <ele>866</ele>
        <time>2015-01-17T08:44:38Z</time>
      </trkpt>
      <trkpt lat="42.29401" lon="2.5784">
        <ele>870</ele>
        <time>2015-01-17T08:44:57Z</time>
      </trkpt>
      <trkpt lat="42.29411" lon="2.5784">
        <ele>875</ele>
        <time>2015-01-17T08:45:12Z</time>
      </trkpt>
      <trkpt lat="42.29421" lon="2.5784">
        <ele>876</ele>
        <time>2015-01-17T08:45:22Z</time>
      </trkpt>
      <trkpt lat="42.29425" lon="2.57832">
        <ele>877</ele>
        <time>2015-01-17T08:45:32Z</time>
      </trkpt>
      <trkpt lat="42.29429" lon="2.57821">
        <ele>877</ele>
        <time>2015-01-17T08:45:40Z</time>
      </trkpt>
      <trkpt lat="42.2943" lon="2.57811">
        <ele>877</ele>
        <time>2015-01-17T08:45:48Z</time>
      </trkpt>
      <trkpt lat="42.29426" lon="2.57804">
        <ele>879</ele>
        <time>2015-01-17T08:45:57Z</time>
      </trkpt>
      <trkpt lat="42.29421" lon="2.57793">
        <ele>879</ele>
        <time>2015-01-17T08:46:06Z</time>
      </trkpt>
      <trkpt lat="42.29421" lon="2.57782">
        <ele>880</ele>
        <time>2015-01-17T08:46:19Z</time>
      </trkpt>
      <trkpt lat="42.29423" lon="2.57771">
        <ele>882.2</ele>
        <time>2015-01-17T08:46:30Z</time>
      </trkpt>
      <trkpt lat="42.29428" lon="2.57764">
        <ele>883</ele>
        <time>2015-01-17T08:46:38Z</time>
      </trkpt>
      <trkpt lat="42.29432" lon="2.57756">
        <ele>884</ele>
        <time>2015-01-17T08:46:47Z</time>
      </trkpt>
      <trkpt lat="42.29435" lon="2.57746">
        <ele>886</ele>
        <time>2015-01-17T08:46:56Z</time>
      </trkpt>
      <trkpt lat="42.29435" lon="2.57736">
        <ele>886</ele>
        <time>2015-01-17T08:47:07Z</time>
      </trkpt>
      <trkpt lat="42.29438" lon="2.57726">
        <ele>887</ele>
        <time>2015-01-17T08:47:15Z</time>
      </trkpt>
      <trkpt lat="42.29439" lon="2.57718">
        <ele>889</ele>
        <time>2015-01-17T08:47:23Z</time>
      </trkpt>
      <trkpt lat="42.29438" lon="2.57709">
        <ele>891</ele>
        <time>2015-01-17T08:47:33Z</time>
      </trkpt>
      <trkpt lat="42.29433" lon="2.57702">
        <ele>893</ele>
        <time>2015-01-17T08:47:44Z</time>
      </trkpt>
      <trkpt lat="42.29435" lon="2.57687">
        <ele>895</ele>
        <time>2015-01-17T08:47:59Z</time>
      </trkpt>
      <trkpt lat="42.29435" lon="2.57678">
        <ele>896</ele>
        <time>2015-01-17T08:48:08Z</time>
      </trkpt>
      <trkpt lat="42.29438" lon="2.57668">
        <ele>898</ele>
        <time>2015-01-17T08:48:19Z</time>
      </trkpt>
      <trkpt lat="42.29443" lon="2.5766">
        <ele>900</ele>
        <time>2015-01-17T08:48:29Z</time>
      </trkpt>
      <trkpt lat="42.29444" lon="2.57649">
        <ele>901.3</ele>
        <time>2015-01-17T08:48:40Z</time>
      </trkpt>
      <trkpt lat="42.29441" lon="2.57638">
        <ele>904</ele>
        <time>2015-01-17T08:48:55Z</time>
      </trkpt>
      <trkpt lat="42.29441" lon="2.57629">
        <ele>908</ele>
        <time>2015-01-17T08:49:08Z</time>
      </trkpt>
      <trkpt lat="42.29448" lon="2.57625">
        <ele>909</ele>
        <time>2015-01-17T08:49:16Z</time>
      </trkpt>
      <trkpt lat="42.29453" lon="2.57618">
        <ele>909</ele>
        <time>2015-01-17T08:49:24Z</time>
      </trkpt>
      <trkpt lat="42.29457" lon="2.57608">
        <ele>911</ele>
        <time>2015-01-17T08:49:36Z</time>
      </trkpt>
      <trkpt lat="42.2946" lon="2.57599">
        <ele>913</ele>
        <time>2015-01-17T08:49:46Z</time>
      </trkpt>
      <trkpt lat="42.29463" lon="2.57589">
        <ele>914</ele>
        <time>2015-01-17T08:49:58Z</time>
      </trkpt>
      <trkpt lat="42.29467" lon="2.57579">
        <ele>916.2</ele>
        <time>2015-01-17T08:50:10Z</time>
      </trkpt>
      <trkpt lat="42.29474" lon="2.57565">
        <ele>921.2</ele>
        <time>2015-01-17T08:50:30Z</time>
      </trkpt>
      <trkpt lat="42.29481" lon="2.57557">
        <ele>923</ele>
        <time>2015-01-17T08:50:43Z</time>
      </trkpt>
      <trkpt lat="42.29489" lon="2.57551">
        <ele>923</ele>
        <time>2015-01-17T08:50:54Z</time>
      </trkpt>
      <trkpt lat="42.29496" lon="2.57543">
        <ele>923</ele>
        <time>2015-01-17T08:51:01Z</time>
      </trkpt>
      <trkpt lat="42.29504" lon="2.57532">
        <ele>925</ele>
        <time>2015-01-17T08:51:13Z</time>
      </trkpt>
      <trkpt lat="42.29514" lon="2.57518">
        <ele>929</ele>
        <time>2015-01-17T08:51:33Z</time>
      </trkpt>
      <trkpt lat="42.29522" lon="2.57509">
        <ele>931</ele>
        <time>2015-01-17T08:51:42Z</time>
      </trkpt>
      <trkpt lat="42.29525" lon="2.57492">
        <ele>934</ele>
        <time>2015-01-17T08:52:01Z</time>
      </trkpt>
      <trkpt lat="42.29525" lon="2.57479">
        <ele>938</ele>
        <time>2015-01-17T08:52:23Z</time>
      </trkpt>
      <trkpt lat="42.29528" lon="2.57466">
        <ele>941</ele>
        <time>2015-01-17T08:52:37Z</time>
      </trkpt>
      <trkpt lat="42.29529" lon="2.57455">
        <ele>945</ele>
        <time>2015-01-17T08:52:56Z</time>
      </trkpt>
      <trkpt lat="42.29521" lon="2.57452">
        <ele>947</ele>
        <time>2015-01-17T08:53:08Z</time>
      </trkpt>
      <trkpt lat="42.29515" lon="2.57443">
        <ele>950</ele>
        <time>2015-01-17T08:53:28Z</time>
      </trkpt>
      <trkpt lat="42.29511" lon="2.57434">
        <ele>958</ele>
        <time>2015-01-17T08:53:48Z</time>
      </trkpt>
      <trkpt lat="42.29512" lon="2.57424">
        <ele>958</ele>
        <time>2015-01-17T08:54:01Z</time>
      </trkpt>
      <trkpt lat="42.29507" lon="2.57416">
        <ele>960</ele>
        <time>2015-01-17T08:54:16Z</time>
      </trkpt>
      <trkpt lat="42.29504" lon="2.57408">
        <ele>965</ele>
        <time>2015-01-17T08:54:29Z</time>
      </trkpt>
      <trkpt lat="42.29505" lon="2.57401">
        <ele>966</ele>
        <time>2015-01-17T08:54:39Z</time>
      </trkpt>
      <trkpt lat="42.29502" lon="2.57392">
        <ele>968</ele>
        <time>2015-01-17T08:54:54Z</time>
      </trkpt>
      <trkpt lat="42.295" lon="2.57382">
        <ele>971</ele>
        <time>2015-01-17T08:55:05Z</time>
      </trkpt>
      <trkpt lat="42.29497" lon="2.57373">
        <ele>970</ele>
        <time>2015-01-17T08:55:12Z</time>
      </trkpt>
      <trkpt lat="42.29497" lon="2.57365">
        <ele>970</ele>
        <time>2015-01-17T08:55:19Z</time>
      </trkpt>
      <trkpt lat="42.29498" lon="2.57357">
        <ele>971</ele>
        <time>2015-01-17T08:55:26Z</time>
      </trkpt>
      <trkpt lat="42.29496" lon="2.57346">
        <ele>972</ele>
        <time>2015-01-17T08:55:37Z</time>
      </trkpt>
      <trkpt lat="42.29495" lon="2.57338">
        <ele>973</ele>
        <time>2015-01-17T08:55:47Z</time>
      </trkpt>
      <trkpt lat="42.29499" lon="2.57328">
        <ele>974</ele>
        <time>2015-01-17T08:56:00Z</time>
      </trkpt>
      <trkpt lat="42.29499" lon="2.57318">
        <ele>974.3</ele>
        <time>2015-01-17T08:56:10Z</time>
      </trkpt>
      <trkpt lat="42.29499" lon="2.57309">
        <ele>977</ele>
        <time>2015-01-17T08:56:23Z</time>
      </trkpt>
      <trkpt lat="42.295" lon="2.57301">
        <ele>978</ele>
        <time>2015-01-17T08:56:34Z</time>
      </trkpt>
      <trkpt lat="42.29505" lon="2.57296">
        <ele>978</ele>
        <time>2015-01-17T08:56:44Z</time>
      </trkpt>
      <trkpt lat="42.29506" lon="2.57287">
        <ele>978</ele>
        <time>2015-01-17T08:56:57Z</time>
      </trkpt>
      <trkpt lat="42.29503" lon="2.57276">
        <ele>981</ele>
        <time>2015-01-17T08:57:11Z</time>
      </trkpt>
      <trkpt lat="42.295" lon="2.57269">
        <ele>981</ele>
        <time>2015-01-17T08:58:42Z</time>
      </trkpt>
      <trkpt lat="42.29497" lon="2.57259">
        <ele>983</ele>
        <time>2015-01-17T08:58:55Z</time>
      </trkpt>
      <trkpt lat="42.29496" lon="2.57252">
        <ele>985</ele>
        <time>2015-01-17T08:59:16Z</time>
      </trkpt>
      <trkpt lat="42.29493" lon="2.57246">
        <ele>986</ele>
        <time>2015-01-17T09:01:18Z</time>
      </trkpt>
      <trkpt lat="42.29493" lon="2.57254">
        <ele>986</ele>
        <time>2015-01-17T09:03:06Z</time>
      </trkpt>
      <trkpt lat="42.29496" lon="2.57262">
        <ele>986</ele>
        <time>2015-01-17T09:03:14Z</time>
      </trkpt>
      <trkpt lat="42.295" lon="2.57269">
        <ele>984</ele>
        <time>2015-01-17T09:03:22Z</time>
      </trkpt>
      <trkpt lat="42.29503" lon="2.57276">
        <ele>984</ele>
        <time>2015-01-17T09:03:29Z</time>
      </trkpt>
      <trkpt lat="42.29505" lon="2.57282">
        <ele>981.8</ele>
        <time>2015-01-17T09:03:40Z</time>
      </trkpt>
      <trkpt lat="42.29508" lon="2.57287">
        <ele>981</ele>
        <time>2015-01-17T09:03:49Z</time>
      </trkpt>
      <trkpt lat="42.29509" lon="2.57293">
        <ele>979.7</ele>
        <time>2015-01-17T09:04:00Z</time>
      </trkpt>
      <trkpt lat="42.29509" lon="2.57302">
        <ele>977</ele>
        <time>2015-01-17T09:04:15Z</time>
      </trkpt>
      <trkpt lat="42.29515" lon="2.5731">
        <ele>973</ele>
        <time>2015-01-17T09:04:29Z</time>
      </trkpt>
      <trkpt lat="42.29521" lon="2.57319">
        <ele>971</ele>
        <time>2015-01-17T09:04:45Z</time>
      </trkpt>
      <trkpt lat="42.29526" lon="2.57324">
        <ele>969</ele>
        <time>2015-01-17T09:04:53Z</time>
      </trkpt>
      <trkpt lat="42.2953" lon="2.57332">
        <ele>967</ele>
        <time>2015-01-17T09:05:05Z</time>
      </trkpt>
      <trkpt lat="42.29539" lon="2.57331">
        <ele>957</ele>
        <time>2015-01-17T09:05:50Z</time>
      </trkpt>
      <trkpt lat="42.29548" lon="2.57322">
        <ele>951</ele>
        <time>2015-01-17T09:06:18Z</time>
      </trkpt>
      <trkpt lat="42.29555" lon="2.57327">
        <ele>948</ele>
        <time>2015-01-17T09:06:26Z</time>
      </trkpt>
      <trkpt lat="42.29562" lon="2.57324">
        <ele>940</ele>
        <time>2015-01-17T09:07:19Z</time>
      </trkpt>
      <trkpt lat="42.29567" lon="2.57331">
        <ele>934</ele>
        <time>2015-01-17T09:08:07Z</time>
      </trkpt>
      <trkpt lat="42.29571" lon="2.57341">
        <ele>933</ele>
        <time>2015-01-17T09:08:24Z</time>
      </trkpt>
      <trkpt lat="42.2958" lon="2.57342">
        <ele>921.7</ele>
        <time>2015-01-17T09:08:55Z</time>
      </trkpt>
      <trkpt lat="42.29589" lon="2.57343">
        <ele>915.8</ele>
        <time>2015-01-17T09:09:07Z</time>
      </trkpt>
      <trkpt lat="42.29598" lon="2.57351">
        <ele>913</ele>
        <time>2015-01-17T09:09:22Z</time>
      </trkpt>
      <trkpt lat="42.29605" lon="2.57359">
        <ele>908</ele>
        <time>2015-01-17T09:09:32Z</time>
      </trkpt>
      <trkpt lat="42.29611" lon="2.57366">
        <ele>903.7</ele>
        <time>2015-01-17T09:09:50Z</time>
      </trkpt>
      <trkpt lat="42.29618" lon="2.57376">
        <ele>898</ele>
        <time>2015-01-17T09:10:05Z</time>
      </trkpt>
      <trkpt lat="42.29625" lon="2.57385">
        <ele>897</ele>
        <time>2015-01-17T09:10:19Z</time>
      </trkpt>
      <trkpt lat="42.29633" lon="2.57392">
        <ele>890.7</ele>
        <time>2015-01-17T09:10:35Z</time>
      </trkpt>
      <trkpt lat="42.29644" lon="2.57396">
        <ele>884</ele>
        <time>2015-01-17T09:10:59Z</time>
      </trkpt>
      <trkpt lat="42.29651" lon="2.57406">
        <ele>879</ele>
        <time>2015-01-17T09:11:12Z</time>
      </trkpt>
      <trkpt lat="42.29659" lon="2.57397">
        <ele>873</ele>
        <time>2015-01-17T09:11:29Z</time>
      </trkpt>
      <trkpt lat="42.29664" lon="2.57385">
        <ele>865</ele>
        <time>2015-01-17T09:11:39Z</time>
      </trkpt>
      <trkpt lat="42.29671" lon="2.57374">
        <ele>859</ele>
        <time>2015-01-17T09:11:50Z</time>
      </trkpt>
      <trkpt lat="42.29672" lon="2.57361">
        <ele>852.9</ele>
        <time>2015-01-17T09:12:03Z</time>
      </trkpt>
      <trkpt lat="42.29677" lon="2.57348">
        <ele>847</ele>
        <time>2015-01-17T09:12:12Z</time>
      </trkpt>
      <trkpt lat="42.29685" lon="2.57339">
        <ele>841</ele>
        <time>2015-01-17T09:12:20Z</time>
      </trkpt>
      <trkpt lat="42.29694" lon="2.57332">
        <ele>835</ele>
        <time>2015-01-17T09:12:32Z</time>
      </trkpt>
      <trkpt lat="42.29704" lon="2.57326">
        <ele>832</ele>
        <time>2015-01-17T09:12:40Z</time>
      </trkpt>
      <trkpt lat="42.29714" lon="2.5732">
        <ele>830</ele>
        <time>2015-01-17T09:12:48Z</time>
      </trkpt>
      <trkpt lat="42.29724" lon="2.57313">
        <ele>828</ele>
        <time>2015-01-17T09:12:54Z</time>
      </trkpt>
      <trkpt lat="42.29732" lon="2.57304">
        <ele>820.9</ele>
        <time>2015-01-17T09:13:02Z</time>
      </trkpt>
      <trkpt lat="42.29742" lon="2.57298">
        <ele>818.9</ele>
        <time>2015-01-17T09:13:07Z</time>
      </trkpt>
      <trkpt lat="42.29752" lon="2.57293">
        <ele>816</ele>
        <time>2015-01-17T09:13:12Z</time>
      </trkpt>
      <trkpt lat="42.29763" lon="2.5729">
        <ele>815</ele>
        <time>2015-01-17T09:13:18Z</time>
      </trkpt>
      <trkpt lat="42.29773" lon="2.57282">
        <ele>812</ele>
        <time>2015-01-17T09:13:24Z</time>
      </trkpt>
      <trkpt lat="42.29782" lon="2.57272">
        <ele>811</ele>
        <time>2015-01-17T09:13:29Z</time>
      </trkpt>
      <trkpt lat="42.2979" lon="2.57262">
        <ele>808</ele>
        <time>2015-01-17T09:13:34Z</time>
      </trkpt>
      <trkpt lat="42.298" lon="2.57254">
        <ele>807</ele>
        <time>2015-01-17T09:13:39Z</time>
      </trkpt>
      <trkpt lat="42.29809" lon="2.57248">
        <ele>806</ele>
        <time>2015-01-17T09:13:45Z</time>
      </trkpt>
      <trkpt lat="42.29817" lon="2.57242">
        <ele>805.8</ele>
        <time>2015-01-17T09:13:50Z</time>
      </trkpt>
      <trkpt lat="42.29827" lon="2.57236">
        <ele>803</ele>
        <time>2015-01-17T09:13:54Z</time>
      </trkpt>
      <trkpt lat="42.29836" lon="2.57227">
        <ele>798</ele>
        <time>2015-01-17T09:14:01Z</time>
      </trkpt>
      <trkpt lat="42.29847" lon="2.57223">
        <ele>794</ele>
        <time>2015-01-17T09:14:08Z</time>
      </trkpt>
      <trkpt lat="42.29855" lon="2.57231">
        <ele>793</ele>
        <time>2015-01-17T09:14:13Z</time>
      </trkpt>
      <trkpt lat="42.29865" lon="2.57234">
        <ele>790</ele>
        <time>2015-01-17T09:14:21Z</time>
      </trkpt>
      <trkpt lat="42.29875" lon="2.57234">
        <ele>787</ele>
        <time>2015-01-17T09:14:28Z</time>
      </trkpt>
      <trkpt lat="42.29885" lon="2.57226">
        <ele>779.9</ele>
        <time>2015-01-17T09:14:39Z</time>
      </trkpt>
      <trkpt lat="42.29895" lon="2.57223">
        <ele>775</ele>
        <time>2015-01-17T09:14:51Z</time>
      </trkpt>
      <trkpt lat="42.29904" lon="2.57219">
        <ele>773</ele>
        <time>2015-01-17T09:14:59Z</time>
      </trkpt>
      <trkpt lat="42.29913" lon="2.57216">
        <ele>766</ele>
        <time>2015-01-17T09:15:09Z</time>
      </trkpt>
      <trkpt lat="42.29924" lon="2.57214">
        <ele>764</ele>
        <time>2015-01-17T09:15:18Z</time>
      </trkpt>
      <trkpt lat="42.29932" lon="2.57219">
        <ele>763</ele>
        <time>2015-01-17T09:15:23Z</time>
      </trkpt>
      <trkpt lat="42.2994" lon="2.57223">
        <ele>761</ele>
        <time>2015-01-17T09:15:28Z</time>
      </trkpt>
      <trkpt lat="42.29947" lon="2.57229">
        <ele>760</ele>
        <time>2015-01-17T09:15:33Z</time>
      </trkpt>
      <trkpt lat="42.29954" lon="2.57235">
        <ele>760</ele>
        <time>2015-01-17T09:15:38Z</time>
      </trkpt>
      <trkpt lat="42.2996" lon="2.5724">
        <ele>759</ele>
        <time>2015-01-17T09:15:43Z</time>
      </trkpt>
      <trkpt lat="42.29966" lon="2.57241">
        <ele>759</ele>
        <time>2015-01-17T09:15:47Z</time>
      </trkpt>
      <trkpt lat="42.29971" lon="2.57239">
        <ele>756</ele>
        <time>2015-01-17T09:15:51Z</time>
      </trkpt>
      <trkpt lat="42.29977" lon="2.57236">
        <ele>756</ele>
        <time>2015-01-17T09:15:56Z</time>
      </trkpt>
      <trkpt lat="42.29985" lon="2.57233">
        <ele>757</ele>
        <time>2015-01-17T09:16:18Z</time>
      </trkpt>
      <trkpt lat="42.29992" lon="2.57234">
        <ele>757</ele>
        <time>2015-01-17T09:16:26Z</time>
      </trkpt>
      <trkpt lat="42.3" lon="2.57233">
        <ele>758</ele>
        <time>2015-01-17T09:16:44Z</time>
      </trkpt>
      <trkpt lat="42.30006" lon="2.57232">
        <ele>758.1</ele>
        <time>2015-01-17T09:16:50Z</time>
      </trkpt>
      <trkpt lat="42.30013" lon="2.57229">
        <ele>759</ele>
        <time>2015-01-17T09:16:58Z</time>
      </trkpt>
      <trkpt lat="42.30018" lon="2.57237">
        <ele>761</ele>
        <time>2015-01-17T09:17:06Z</time>
      </trkpt>
      <trkpt lat="42.30021" lon="2.57248">
        <ele>763</ele>
        <time>2015-01-17T09:17:15Z</time>
      </trkpt>
      <trkpt lat="42.30017" lon="2.57242">
        <ele>763</ele>
        <time>2015-01-17T09:30:33Z</time>
      </trkpt>
      <trkpt lat="42.30017" lon="2.57234">
        <ele>764</ele>
        <time>2015-01-17T09:30:45Z</time>
      </trkpt>
      <trkpt lat="42.30013" lon="2.57231">
        <ele>764</ele>
        <time>2015-01-17T09:30:50Z</time>
      </trkpt>
      <trkpt lat="42.30007" lon="2.57231">
        <ele>764</ele>
        <time>2015-01-17T09:30:57Z</time>
      </trkpt>
      <trkpt lat="42.30001" lon="2.57236">
        <ele>762</ele>
        <time>2015-01-17T09:32:26Z</time>
      </trkpt>
      <trkpt lat="42.29994" lon="2.57237">
        <ele>761</ele>
        <time>2015-01-17T09:32:33Z</time>
      </trkpt>
      <trkpt lat="42.29987" lon="2.57236">
        <ele>761</ele>
        <time>2015-01-17T09:32:38Z</time>
      </trkpt>
      <trkpt lat="42.29981" lon="2.57236">
        <ele>758</ele>
        <time>2015-01-17T09:32:45Z</time>
      </trkpt>
      <trkpt lat="42.2998" lon="2.57232">
        <ele>757</ele>
        <time>2015-01-17T09:33:33Z</time>
      </trkpt>
      <trkpt lat="42.29977" lon="2.57224">
        <ele>757</ele>
        <time>2015-01-17T09:33:44Z</time>
      </trkpt>
      <trkpt lat="42.29973" lon="2.5722">
        <ele>757</ele>
        <time>2015-01-17T09:33:47Z</time>
      </trkpt>
      <trkpt lat="42.29967" lon="2.57216">
        <ele>756</ele>
        <time>2015-01-17T09:33:51Z</time>
      </trkpt>
      <trkpt lat="42.2996" lon="2.57209">
        <ele>756</ele>
        <time>2015-01-17T09:33:57Z</time>
      </trkpt>
      <trkpt lat="42.29955" lon="2.57197">
        <ele>753</ele>
        <time>2015-01-17T09:34:03Z</time>
      </trkpt>
      <trkpt lat="42.29948" lon="2.57188">
        <ele>752</ele>
        <time>2015-01-17T09:34:09Z</time>
      </trkpt>
      <trkpt lat="42.29947" lon="2.57176">
        <ele>747</ele>
        <time>2015-01-17T09:34:32Z</time>
      </trkpt>
      <trkpt lat="42.29939" lon="2.57166">
        <ele>745</ele>
        <time>2015-01-17T09:34:39Z</time>
      </trkpt>
      <trkpt lat="42.29929" lon="2.57163">
        <ele>741</ele>
        <time>2015-01-17T09:34:49Z</time>
      </trkpt>
      <trkpt lat="42.29926" lon="2.5715">
        <ele>741</ele>
        <time>2015-01-17T09:34:54Z</time>
      </trkpt>
      <trkpt lat="42.29924" lon="2.57137">
        <ele>739.7</ele>
        <time>2015-01-17T09:35:00Z</time>
      </trkpt>
      <trkpt lat="42.29919" lon="2.57125">
        <ele>735</ele>
        <time>2015-01-17T09:35:06Z</time>
      </trkpt>
      <trkpt lat="42.29913" lon="2.57113">
        <ele>733</ele>
        <time>2015-01-17T09:35:12Z</time>
      </trkpt>
      <trkpt lat="42.29904" lon="2.57104">
        <ele>729</ele>
        <time>2015-01-17T09:35:21Z</time>
      </trkpt>
      <trkpt lat="42.29898" lon="2.57093">
        <ele>728</ele>
        <time>2015-01-17T09:35:27Z</time>
      </trkpt>
      <trkpt lat="42.2989" lon="2.57087">
        <ele>728</ele>
        <time>2015-01-17T09:35:34Z</time>
      </trkpt>
      <trkpt lat="42.29882" lon="2.57078">
        <ele>724</ele>
        <time>2015-01-17T09:35:41Z</time>
      </trkpt>
      <trkpt lat="42.29877" lon="2.57066">
        <ele>721.8</ele>
        <time>2015-01-17T09:35:50Z</time>
      </trkpt>
      <trkpt lat="42.29871" lon="2.57055">
        <ele>720</ele>
        <time>2015-01-17T09:35:57Z</time>
      </trkpt>
      <trkpt lat="42.29865" lon="2.57045">
        <ele>718</ele>
        <time>2015-01-17T09:36:04Z</time>
      </trkpt>
      <trkpt lat="42.29857" lon="2.57039">
        <ele>717</ele>
        <time>2015-01-17T09:36:11Z</time>
      </trkpt>
      <trkpt lat="42.29852" lon="2.57032">
        <ele>717</ele>
        <time>2015-01-17T09:36:20Z</time>
      </trkpt>
      <trkpt lat="42.29846" lon="2.57035">
        <ele>718</ele>
        <time>2015-01-17T09:37:24Z</time>
      </trkpt>
      <trkpt lat="42.29839" lon="2.57039">
        <ele>715</ele>
        <time>2015-01-17T09:37:32Z</time>
      </trkpt>
      <trkpt lat="42.29832" lon="2.57043">
        <ele>712</ele>
        <time>2015-01-17T09:37:38Z</time>
      </trkpt>
      <trkpt lat="42.29822" lon="2.57046">
        <ele>707.9</ele>
        <time>2015-01-17T09:37:46Z</time>
      </trkpt>
      <trkpt lat="42.29812" lon="2.57049">
        <ele>706</ele>
        <time>2015-01-17T09:37:57Z</time>
      </trkpt>
      <trkpt lat="42.29812" lon="2.57037">
        <ele>703.9</ele>
        <time>2015-01-17T09:38:10Z</time>
      </trkpt>
      <trkpt lat="42.29811" lon="2.57024">
        <ele>700</ele>
        <time>2015-01-17T09:38:21Z</time>
      </trkpt>
      <trkpt lat="42.29814" lon="2.57011">
        <ele>697</ele>
        <time>2015-01-17T09:38:29Z</time>
      </trkpt>
      <trkpt lat="42.29811" lon="2.56997">
        <ele>692</ele>
        <time>2015-01-17T09:38:42Z</time>
      </trkpt>
      <trkpt lat="42.29813" lon="2.56985">
        <ele>686.9</ele>
        <time>2015-01-17T09:38:51Z</time>
      </trkpt>
      <trkpt lat="42.29822" lon="2.56978">
        <ele>686</ele>
        <time>2015-01-17T09:38:57Z</time>
      </trkpt>
      <trkpt lat="42.2983" lon="2.56969">
        <ele>687</ele>
        <time>2015-01-17T09:39:04Z</time>
      </trkpt>
      <trkpt lat="42.29821" lon="2.56964">
        <ele>685</ele>
        <time>2015-01-17T09:39:15Z</time>
      </trkpt>
      <trkpt lat="42.29811" lon="2.56965">
        <ele>680</ele>
        <time>2015-01-17T09:39:37Z</time>
      </trkpt>
      <trkpt lat="42.29804" lon="2.56959">
        <ele>678</ele>
        <time>2015-01-17T09:39:53Z</time>
      </trkpt>
      <trkpt lat="42.29801" lon="2.56946">
        <ele>676</ele>
        <time>2015-01-17T09:40:05Z</time>
      </trkpt>
      <trkpt lat="42.29801" lon="2.56932">
        <ele>674</ele>
        <time>2015-01-17T09:40:15Z</time>
      </trkpt>
      <trkpt lat="42.29795" lon="2.56921">
        <ele>671.8</ele>
        <time>2015-01-17T09:40:25Z</time>
      </trkpt>
      <trkpt lat="42.29788" lon="2.5691">
        <ele>668</ele>
        <time>2015-01-17T09:40:32Z</time>
      </trkpt>
      <trkpt lat="42.29785" lon="2.56897">
        <ele>665.9</ele>
        <time>2015-01-17T09:40:40Z</time>
      </trkpt>
      <trkpt lat="42.29785" lon="2.56884">
        <ele>664</ele>
        <time>2015-01-17T09:40:49Z</time>
      </trkpt>
      <trkpt lat="42.29779" lon="2.56874">
        <ele>663</ele>
        <time>2015-01-17T09:40:58Z</time>
      </trkpt>
      <trkpt lat="42.29771" lon="2.56865">
        <ele>658.9</ele>
        <time>2015-01-17T09:41:05Z</time>
      </trkpt>
      <trkpt lat="42.29762" lon="2.56859">
        <ele>656</ele>
        <time>2015-01-17T09:41:12Z</time>
      </trkpt>
      <trkpt lat="42.29758" lon="2.56847">
        <ele>653</ele>
        <time>2015-01-17T09:41:22Z</time>
      </trkpt>
      <trkpt lat="42.29752" lon="2.56835">
        <ele>651</ele>
        <time>2015-01-17T09:41:31Z</time>
      </trkpt>
      <trkpt lat="42.29746" lon="2.56822">
        <ele>651</ele>
        <time>2015-01-17T09:41:38Z</time>
      </trkpt>
      <trkpt lat="42.29743" lon="2.56809">
        <ele>647.7</ele>
        <time>2015-01-17T09:41:45Z</time>
      </trkpt>
      <trkpt lat="42.29746" lon="2.56796">
        <ele>645</ele>
        <time>2015-01-17T09:41:53Z</time>
      </trkpt>
      <trkpt lat="42.2975" lon="2.56786">
        <ele>642</ele>
        <time>2015-01-17T09:42:06Z</time>
      </trkpt>
      <trkpt lat="42.29747" lon="2.56774">
        <ele>641</ele>
        <time>2015-01-17T09:42:17Z</time>
      </trkpt>
      <trkpt lat="42.29741" lon="2.56763">
        <ele>637</ele>
        <time>2015-01-17T09:42:26Z</time>
      </trkpt>
      <trkpt lat="42.29733" lon="2.56753">
        <ele>635</ele>
        <time>2015-01-17T09:42:32Z</time>
      </trkpt>
      <trkpt lat="42.29726" lon="2.56743">
        <ele>633</ele>
        <time>2015-01-17T09:42:39Z</time>
      </trkpt>
      <trkpt lat="42.2972" lon="2.56733">
        <ele>629</ele>
        <time>2015-01-17T09:42:46Z</time>
      </trkpt>
      <trkpt lat="42.29713" lon="2.56724">
        <ele>628</ele>
        <time>2015-01-17T09:42:54Z</time>
      </trkpt>
      <trkpt lat="42.29705" lon="2.56719">
        <ele>623</ele>
        <time>2015-01-17T09:43:03Z</time>
      </trkpt>
      <trkpt lat="42.2971" lon="2.56708">
        <ele>621.5</ele>
        <time>2015-01-17T09:43:10Z</time>
      </trkpt>
      <trkpt lat="42.29716" lon="2.56697">
        <ele>618.7</ele>
        <time>2015-01-17T09:43:20Z</time>
      </trkpt>
      <trkpt lat="42.2971" lon="2.56693">
        <ele>614</ele>
        <time>2015-01-17T09:43:52Z</time>
      </trkpt>
      <trkpt lat="42.29701" lon="2.56688">
        <ele>611</ele>
        <time>2015-01-17T09:44:02Z</time>
      </trkpt>
      <trkpt lat="42.29692" lon="2.56679">
        <ele>607</ele>
        <time>2015-01-17T09:44:12Z</time>
      </trkpt>
      <trkpt lat="42.29691" lon="2.56665">
        <ele>605</ele>
        <time>2015-01-17T09:44:21Z</time>
      </trkpt>
      <trkpt lat="42.29687" lon="2.56652">
        <ele>604.8</ele>
        <time>2015-01-17T09:44:30Z</time>
      </trkpt>
      <trkpt lat="42.2969" lon="2.56638">
        <ele>596</ele>
        <time>2015-01-17T09:44:46Z</time>
      </trkpt>
      <trkpt lat="42.29686" lon="2.56627">
        <ele>593</ele>
        <time>2015-01-17T09:45:47Z</time>
      </trkpt>
      <trkpt lat="42.29682" lon="2.56613">
        <ele>592</ele>
        <time>2015-01-17T09:45:57Z</time>
      </trkpt>
      <trkpt lat="42.29679" lon="2.566">
        <ele>587</ele>
        <time>2015-01-17T09:46:06Z</time>
      </trkpt>
      <trkpt lat="42.29674" lon="2.56592">
        <ele>585</ele>
        <time>2015-01-17T09:46:14Z</time>
      </trkpt>
      <trkpt lat="42.29669" lon="2.5658">
        <ele>582.9</ele>
        <time>2015-01-17T09:46:25Z</time>
      </trkpt>
      <trkpt lat="42.29662" lon="2.56567">
        <ele>579</ele>
        <time>2015-01-17T09:46:33Z</time>
      </trkpt>
      <trkpt lat="42.29655" lon="2.56557">
        <ele>577.8</ele>
        <time>2015-01-17T09:46:40Z</time>
      </trkpt>
      <trkpt lat="42.29648" lon="2.5655">
        <ele>575</ele>
        <time>2015-01-17T09:46:46Z</time>
      </trkpt>
      <trkpt lat="42.2964" lon="2.56547">
        <ele>573</ele>
        <time>2015-01-17T09:46:51Z</time>
      </trkpt>
      <trkpt lat="42.29632" lon="2.56544">
        <ele>572.9</ele>
        <time>2015-01-17T09:46:55Z</time>
      </trkpt>
      <trkpt lat="42.29625" lon="2.5654">
        <ele>571.8</ele>
        <time>2015-01-17T09:47:00Z</time>
      </trkpt>
      <trkpt lat="42.29614" lon="2.56535">
        <ele>568</ele>
        <time>2015-01-17T09:47:08Z</time>
      </trkpt>
      <trkpt lat="42.29604" lon="2.56531">
        <ele>566</ele>
        <time>2015-01-17T09:47:16Z</time>
      </trkpt>
      <trkpt lat="42.29598" lon="2.56521">
        <ele>565</ele>
        <time>2015-01-17T09:47:25Z</time>
      </trkpt>
      <trkpt lat="42.29591" lon="2.5651">
        <ele>563</ele>
        <time>2015-01-17T09:47:36Z</time>
      </trkpt>
      <trkpt lat="42.29585" lon="2.56498">
        <ele>560</ele>
        <time>2015-01-17T09:47:48Z</time>
      </trkpt>
      <trkpt lat="42.29577" lon="2.56489">
        <ele>560</ele>
        <time>2015-01-17T09:47:57Z</time>
      </trkpt>
      <trkpt lat="42.2957" lon="2.56478">
        <ele>557</ele>
        <time>2015-01-17T09:48:06Z</time>
      </trkpt>
      <trkpt lat="42.29566" lon="2.56466">
        <ele>556</ele>
        <time>2015-01-17T09:48:16Z</time>
      </trkpt>
      <trkpt lat="42.29566" lon="2.56451">
        <ele>553.9</ele>
        <time>2015-01-17T09:48:25Z</time>
      </trkpt>
      <trkpt lat="42.2957" lon="2.56436">
        <ele>551</ele>
        <time>2015-01-17T09:48:32Z</time>
      </trkpt>
      <trkpt lat="42.29571" lon="2.56422">
        <ele>549</ele>
        <time>2015-01-17T09:48:43Z</time>
      </trkpt>
      <trkpt lat="42.29571" lon="2.56409">
        <ele>548</ele>
        <time>2015-01-17T09:48:53Z</time>
      </trkpt>
      <trkpt lat="42.29568" lon="2.56395">
        <ele>544</ele>
        <time>2015-01-17T09:49:04Z</time>
      </trkpt>
      <trkpt lat="42.29563" lon="2.56383">
        <ele>542</ele>
        <time>2015-01-17T09:49:16Z</time>
      </trkpt>
      <trkpt lat="42.29566" lon="2.56369">
        <ele>540</ele>
        <time>2015-01-17T09:49:34Z</time>
      </trkpt>
      <trkpt lat="42.29567" lon="2.56354">
        <ele>538</ele>
        <time>2015-01-17T09:49:42Z</time>
      </trkpt>
      <trkpt lat="42.29565" lon="2.56341">
        <ele>537.8</ele>
        <time>2015-01-17T09:49:50Z</time>
      </trkpt>
      <trkpt lat="42.29561" lon="2.56328">
        <ele>533</ele>
        <time>2015-01-17T09:49:57Z</time>
      </trkpt>
      <trkpt lat="42.29557" lon="2.56316">
        <ele>531</ele>
        <time>2015-01-17T09:50:04Z</time>
      </trkpt>
      <trkpt lat="42.2955" lon="2.56304">
        <ele>529</ele>
        <time>2015-01-17T09:50:12Z</time>
      </trkpt>
      <trkpt lat="42.29548" lon="2.56291">
        <ele>528</ele>
        <time>2015-01-17T09:50:21Z</time>
      </trkpt>
      <trkpt lat="42.29545" lon="2.56281">
        <ele>528</ele>
        <time>2015-01-17T09:50:29Z</time>
      </trkpt>
      <trkpt lat="42.29545" lon="2.56271">
        <ele>523</ele>
        <time>2015-01-17T09:50:38Z</time>
      </trkpt>
      <trkpt lat="42.29543" lon="2.56262">
        <ele>522</ele>
        <time>2015-01-17T09:51:11Z</time>
      </trkpt>
      <trkpt lat="42.29539" lon="2.56252">
        <ele>520</ele>
        <time>2015-01-17T09:52:22Z</time>
      </trkpt>
      <trkpt lat="42.29536" lon="2.5624">
        <ele>519.3</ele>
        <time>2015-01-17T09:52:31Z</time>
      </trkpt>
      <trkpt lat="42.29538" lon="2.56226">
        <ele>520</ele>
        <time>2015-01-17T09:52:39Z</time>
      </trkpt>
      <trkpt lat="42.29538" lon="2.56211">
        <ele>518</ele>
        <time>2015-01-17T09:52:46Z</time>
      </trkpt>
      <trkpt lat="42.29532" lon="2.56198">
        <ele>518</ele>
        <time>2015-01-17T09:52:53Z</time>
      </trkpt>
      <trkpt lat="42.29528" lon="2.56185">
        <ele>517.7</ele>
        <time>2015-01-17T09:53:00Z</time>
      </trkpt>
      <trkpt lat="42.29522" lon="2.56173">
        <ele>517</ele>
        <time>2015-01-17T09:53:05Z</time>
      </trkpt>
      <trkpt lat="42.29519" lon="2.56161">
        <ele>516</ele>
        <time>2015-01-17T09:53:12Z</time>
      </trkpt>
      <trkpt lat="42.29514" lon="2.56148">
        <ele>516</ele>
        <time>2015-01-17T09:53:18Z</time>
      </trkpt>
      <trkpt lat="42.29505" lon="2.56138">
        <ele>514</ele>
        <time>2015-01-17T09:53:25Z</time>
      </trkpt>
      <trkpt lat="42.29499" lon="2.56127">
        <ele>513</ele>
        <time>2015-01-17T09:53:36Z</time>
      </trkpt>
      <trkpt lat="42.29496" lon="2.56114">
        <ele>514</ele>
        <time>2015-01-17T09:53:46Z</time>
      </trkpt>
      <trkpt lat="42.29494" lon="2.56099">
        <ele>513</ele>
        <time>2015-01-17T09:53:57Z</time>
      </trkpt>
      <trkpt lat="42.29496" lon="2.56087">
        <ele>511</ele>
        <time>2015-01-17T09:54:05Z</time>
      </trkpt>
      <trkpt lat="42.29498" lon="2.56074">
        <ele>511</ele>
        <time>2015-01-17T09:54:12Z</time>
      </trkpt>
      <trkpt lat="42.29501" lon="2.56062">
        <ele>511</ele>
        <time>2015-01-17T09:54:19Z</time>
      </trkpt>
      <trkpt lat="42.29501" lon="2.56049">
        <ele>511</ele>
        <time>2015-01-17T09:54:26Z</time>
      </trkpt>
      <trkpt lat="42.29499" lon="2.56036">
        <ele>509</ele>
        <time>2015-01-17T09:54:33Z</time>
      </trkpt>
      <trkpt lat="42.29495" lon="2.56024">
        <ele>508.7</ele>
        <time>2015-01-17T09:54:40Z</time>
      </trkpt>
      <trkpt lat="42.29489" lon="2.56016">
        <ele>508</ele>
        <time>2015-01-17T09:54:46Z</time>
      </trkpt>
      <trkpt lat="42.29482" lon="2.56006">
        <ele>507</ele>
        <time>2015-01-17T09:54:55Z</time>
      </trkpt>
      <trkpt lat="42.29474" lon="2.56002">
        <ele>506</ele>
        <time>2015-01-17T09:55:01Z</time>
      </trkpt>
      <trkpt lat="42.29466" lon="2.55997">
        <ele>506</ele>
        <time>2015-01-17T09:55:07Z</time>
      </trkpt>
      <trkpt lat="42.29459" lon="2.5599">
        <ele>506</ele>
        <time>2015-01-17T09:55:15Z</time>
      </trkpt>
      <trkpt lat="42.29458" lon="2.55978">
        <ele>506</ele>
        <time>2015-01-17T09:55:21Z</time>
      </trkpt>
      <trkpt lat="42.29461" lon="2.55966">
        <ele>506</ele>
        <time>2015-01-17T09:55:29Z</time>
      </trkpt>
      <trkpt lat="42.29462" lon="2.55953">
        <ele>505</ele>
        <time>2015-01-17T09:55:42Z</time>
      </trkpt>
      <trkpt lat="42.29464" lon="2.5594">
        <ele>505</ele>
        <time>2015-01-17T09:55:50Z</time>
      </trkpt>
      <trkpt lat="42.29465" lon="2.55929">
        <ele>505</ele>
        <time>2015-01-17T09:55:57Z</time>
      </trkpt>
      <trkpt lat="42.29461" lon="2.55917">
        <ele>504</ele>
        <time>2015-01-17T09:56:04Z</time>
      </trkpt>
      <trkpt lat="42.29454" lon="2.55908">
        <ele>503</ele>
        <time>2015-01-17T09:56:11Z</time>
      </trkpt>
      <trkpt lat="42.29448" lon="2.55899">
        <ele>503</ele>
        <time>2015-01-17T09:56:18Z</time>
      </trkpt>
      <trkpt lat="42.29444" lon="2.55889">
        <ele>503</ele>
        <time>2015-01-17T09:56:25Z</time>
      </trkpt>
      <trkpt lat="42.29439" lon="2.55883">
        <ele>503</ele>
        <time>2015-01-17T09:56:34Z</time>
      </trkpt>
      <trkpt lat="42.29435" lon="2.55874">
        <ele>503</ele>
        <time>2015-01-17T09:56:41Z</time>
      </trkpt>
      <trkpt lat="42.2943" lon="2.55865">
        <ele>503</ele>
        <time>2015-01-17T09:56:49Z</time>
      </trkpt>
      <trkpt lat="42.29428" lon="2.55852">
        <ele>499</ele>
        <time>2015-01-17T09:56:58Z</time>
      </trkpt>
      <trkpt lat="42.29426" lon="2.55838">
        <ele>498</ele>
        <time>2015-01-17T09:57:09Z</time>
      </trkpt>
      <trkpt lat="42.29425" lon="2.55827">
        <ele>497</ele>
        <time>2015-01-17T09:57:15Z</time>
      </trkpt>
      <trkpt lat="42.29423" lon="2.55815">
        <ele>496</ele>
        <time>2015-01-17T09:57:23Z</time>
      </trkpt>
      <trkpt lat="42.29421" lon="2.55803">
        <ele>497</ele>
        <time>2015-01-17T09:57:29Z</time>
      </trkpt>
      <trkpt lat="42.2942" lon="2.55791">
        <ele>496</ele>
        <time>2015-01-17T09:57:35Z</time>
      </trkpt>
      <trkpt lat="42.2942" lon="2.55779">
        <ele>493</ele>
        <time>2015-01-17T09:57:42Z</time>
      </trkpt>
      <trkpt lat="42.29417" lon="2.55769">
        <ele>491</ele>
        <time>2015-01-17T09:57:51Z</time>
      </trkpt>
      <trkpt lat="42.29412" lon="2.55757">
        <ele>489.5</ele>
        <time>2015-01-17T09:58:00Z</time>
      </trkpt>
      <trkpt lat="42.2941" lon="2.55747">
        <ele>489</ele>
        <time>2015-01-17T09:58:08Z</time>
      </trkpt>
      <trkpt lat="42.29407" lon="2.55736">
        <ele>488</ele>
        <time>2015-01-17T09:58:15Z</time>
      </trkpt>
      <trkpt lat="42.29403" lon="2.55726">
        <ele>486</ele>
        <time>2015-01-17T09:58:26Z</time>
      </trkpt>
      <trkpt lat="42.29404" lon="2.55713">
        <ele>484</ele>
        <time>2015-01-17T09:58:34Z</time>
      </trkpt>
      <trkpt lat="42.294" lon="2.557">
        <ele>483</ele>
        <time>2015-01-17T09:58:42Z</time>
      </trkpt>
      <trkpt lat="42.29396" lon="2.55692">
        <ele>483</ele>
        <time>2015-01-17T09:58:51Z</time>
      </trkpt>
      <trkpt lat="42.29397" lon="2.55682">
        <ele>481</ele>
        <time>2015-01-17T09:59:03Z</time>
      </trkpt>
      <trkpt lat="42.29397" lon="2.55672">
        <ele>479.7</ele>
        <time>2015-01-17T09:59:10Z</time>
      </trkpt>
      <trkpt lat="42.29395" lon="2.55663">
        <ele>479</ele>
        <time>2015-01-17T09:59:18Z</time>
      </trkpt>
      <trkpt lat="42.29388" lon="2.55659">
        <ele>477</ele>
        <time>2015-01-17T09:59:24Z</time>
      </trkpt>
      <trkpt lat="42.29381" lon="2.55658">
        <ele>476</ele>
        <time>2015-01-17T09:59:31Z</time>
      </trkpt>
      <trkpt lat="42.29374" lon="2.55655">
        <ele>476</ele>
        <time>2015-01-17T09:59:37Z</time>
      </trkpt>
      <trkpt lat="42.29369" lon="2.55648">
        <ele>474</ele>
        <time>2015-01-17T09:59:44Z</time>
      </trkpt>
      <trkpt lat="42.29363" lon="2.55641">
        <ele>474</ele>
        <time>2015-01-17T09:59:53Z</time>
      </trkpt>
      <trkpt lat="42.29357" lon="2.55632">
        <ele>473</ele>
        <time>2015-01-17T10:00:01Z</time>
      </trkpt>
      <trkpt lat="42.29349" lon="2.55629">
        <ele>473</ele>
        <time>2015-01-17T10:00:07Z</time>
      </trkpt>
      <trkpt lat="42.29345" lon="2.55617">
        <ele>472</ele>
        <time>2015-01-17T10:00:15Z</time>
      </trkpt>
      <trkpt lat="42.29342" lon="2.55607">
        <ele>472</ele>
        <time>2015-01-17T10:00:23Z</time>
      </trkpt>
      <trkpt lat="42.29339" lon="2.55597">
        <ele>471</ele>
        <time>2015-01-17T10:00:31Z</time>
      </trkpt>
      <trkpt lat="42.29335" lon="2.55586">
        <ele>468</ele>
        <time>2015-01-17T10:00:43Z</time>
      </trkpt>
      <trkpt lat="42.29333" lon="2.55575">
        <ele>467</ele>
        <time>2015-01-17T10:00:53Z</time>
      </trkpt>
      <trkpt lat="42.29334" lon="2.55562">
        <ele>464</ele>
        <time>2015-01-17T10:01:04Z</time>
      </trkpt>
      <trkpt lat="42.29329" lon="2.55551">
        <ele>463</ele>
        <time>2015-01-17T10:01:13Z</time>
      </trkpt>
      <trkpt lat="42.29324" lon="2.55543">
        <ele>462.7</ele>
        <time>2015-01-17T10:01:20Z</time>
      </trkpt>
      <trkpt lat="42.29319" lon="2.55535">
        <ele>461.5</ele>
        <time>2015-01-17T10:01:30Z</time>
      </trkpt>
      <trkpt lat="42.29315" lon="2.55528">
        <ele>460</ele>
        <time>2015-01-17T10:01:37Z</time>
      </trkpt>
      <trkpt lat="42.29311" lon="2.5552">
        <ele>457</ele>
        <time>2015-01-17T10:01:46Z</time>
      </trkpt>
      <trkpt lat="42.29306" lon="2.55515">
        <ele>456</ele>
        <time>2015-01-17T10:01:53Z</time>
      </trkpt>
      <trkpt lat="42.293" lon="2.55507">
        <ele>453</ele>
        <time>2015-01-17T10:02:02Z</time>
      </trkpt>
      <trkpt lat="42.29293" lon="2.55501">
        <ele>452</ele>
        <time>2015-01-17T10:02:11Z</time>
      </trkpt>
      <trkpt lat="42.29286" lon="2.55492">
        <ele>451</ele>
        <time>2015-01-17T10:02:23Z</time>
      </trkpt>
      <trkpt lat="42.29279" lon="2.55485">
        <ele>449</ele>
        <time>2015-01-17T10:02:32Z</time>
      </trkpt>
      <trkpt lat="42.29272" lon="2.5548">
        <ele>447</ele>
        <time>2015-01-17T10:02:41Z</time>
      </trkpt>
      <trkpt lat="42.29265" lon="2.55476">
        <ele>447</ele>
        <time>2015-01-17T10:02:49Z</time>
      </trkpt>
      <trkpt lat="42.2926" lon="2.55469">
        <ele>446</ele>
        <time>2015-01-17T10:02:59Z</time>
      </trkpt>
      <trkpt lat="42.29254" lon="2.55464">
        <ele>442</ele>
        <time>2015-01-17T10:03:06Z</time>
      </trkpt>
      <trkpt lat="42.29247" lon="2.55459">
        <ele>442</ele>
        <time>2015-01-17T10:03:15Z</time>
      </trkpt>
      <trkpt lat="42.29239" lon="2.55453">
        <ele>441</ele>
        <time>2015-01-17T10:03:25Z</time>
      </trkpt>
      <trkpt lat="42.29231" lon="2.55449">
        <ele>439</ele>
        <time>2015-01-17T10:03:34Z</time>
      </trkpt>
      <trkpt lat="42.29224" lon="2.55445">
        <ele>438.7</ele>
        <time>2015-01-17T10:03:40Z</time>
      </trkpt>
      <trkpt lat="42.29216" lon="2.55443">
        <ele>438</ele>
        <time>2015-01-17T10:03:48Z</time>
      </trkpt>
      <trkpt lat="42.2921" lon="2.55437">
        <ele>437</ele>
        <time>2015-01-17T10:03:56Z</time>
      </trkpt>
      <trkpt lat="42.29203" lon="2.55432">
        <ele>434</ele>
        <time>2015-01-17T10:04:03Z</time>
      </trkpt>
      <trkpt lat="42.29194" lon="2.55426">
        <ele>432</ele>
        <time>2015-01-17T10:04:14Z</time>
      </trkpt>
      <trkpt lat="42.29185" lon="2.55423">
        <ele>432</ele>
        <time>2015-01-17T10:04:23Z</time>
      </trkpt>
      <trkpt lat="42.29187" lon="2.55412">
        <ele>429.2</ele>
        <time>2015-01-17T10:04:40Z</time>
      </trkpt>
      <trkpt lat="42.2918" lon="2.55405">
        <ele>424</ele>
        <time>2015-01-17T10:04:57Z</time>
      </trkpt>
      <trkpt lat="42.29173" lon="2.55402">
        <ele>422</ele>
        <time>2015-01-17T10:05:07Z</time>
      </trkpt>
      <trkpt lat="42.29166" lon="2.55399">
        <ele>421</ele>
        <time>2015-01-17T10:05:16Z</time>
      </trkpt>
      <trkpt lat="42.29159" lon="2.55392">
        <ele>420</ele>
        <time>2015-01-17T10:05:28Z</time>
      </trkpt>
      <trkpt lat="42.29151" lon="2.55389">
        <ele>416</ele>
        <time>2015-01-17T10:05:37Z</time>
      </trkpt>
      <trkpt lat="42.29143" lon="2.5538">
        <ele>414</ele>
        <time>2015-01-17T10:05:46Z</time>
      </trkpt>
      <trkpt lat="42.29133" lon="2.55379">
        <ele>413</ele>
        <time>2015-01-17T10:05:54Z</time>
      </trkpt>
      <trkpt lat="42.29136" lon="2.55369">
        <ele>411</ele>
        <time>2015-01-17T10:06:46Z</time>
      </trkpt>
      <trkpt lat="42.29144" lon="2.55364">
        <ele>408</ele>
        <time>2015-01-17T10:06:55Z</time>
      </trkpt>
      <trkpt lat="42.29154" lon="2.55362">
        <ele>407</ele>
        <time>2015-01-17T10:07:05Z</time>
      </trkpt>
      <trkpt lat="42.29164" lon="2.55363">
        <ele>406</ele>
        <time>2015-01-17T10:07:13Z</time>
      </trkpt>
      <trkpt lat="42.29172" lon="2.55362">
        <ele>405.7</ele>
        <time>2015-01-17T10:07:20Z</time>
      </trkpt>
      <trkpt lat="42.29182" lon="2.55359">
        <ele>405</ele>
        <time>2015-01-17T10:07:28Z</time>
      </trkpt>
      <trkpt lat="42.29189" lon="2.55354">
        <ele>405</ele>
        <time>2015-01-17T10:07:34Z</time>
      </trkpt>
      <trkpt lat="42.29197" lon="2.55349">
        <ele>402</ele>
        <time>2015-01-17T10:07:41Z</time>
      </trkpt>
      <trkpt lat="42.29204" lon="2.55342">
        <ele>401</ele>
        <time>2015-01-17T10:07:48Z</time>
      </trkpt>
      <trkpt lat="42.29211" lon="2.55334">
        <ele>399.7</ele>
        <time>2015-01-17T10:07:55Z</time>
      </trkpt>
      <trkpt lat="42.29218" lon="2.55328">
        <ele>396</ele>
        <time>2015-01-17T10:08:03Z</time>
      </trkpt>
      <trkpt lat="42.29225" lon="2.5532">
        <ele>395</ele>
        <time>2015-01-17T10:08:11Z</time>
      </trkpt>
      <trkpt lat="42.29233" lon="2.55315">
        <ele>395</ele>
        <time>2015-01-17T10:08:18Z</time>
      </trkpt>
      <trkpt lat="42.29241" lon="2.55307">
        <ele>394</ele>
        <time>2015-01-17T10:08:26Z</time>
      </trkpt>
      <trkpt lat="42.2925" lon="2.55302">
        <ele>392</ele>
        <time>2015-01-17T10:08:34Z</time>
      </trkpt>
      <trkpt lat="42.29259" lon="2.55297">
        <ele>389.3</ele>
        <time>2015-01-17T10:08:42Z</time>
      </trkpt>
      <trkpt lat="42.29267" lon="2.5529">
        <ele>389</ele>
        <time>2015-01-17T10:08:49Z</time>
      </trkpt>
      <trkpt lat="42.29274" lon="2.55282">
        <ele>389</ele>
        <time>2015-01-17T10:08:57Z</time>
      </trkpt>
      <trkpt lat="42.29276" lon="2.55272">
        <ele>390</ele>
        <time>2015-01-17T10:09:04Z</time>
      </trkpt>
      <trkpt lat="42.29279" lon="2.55262">
        <ele>389</ele>
        <time>2015-01-17T10:09:11Z</time>
      </trkpt>
      <trkpt lat="42.29284" lon="2.55253">
        <ele>389</ele>
        <time>2015-01-17T10:09:19Z</time>
      </trkpt>
      <trkpt lat="42.29292" lon="2.55247">
        <ele>387</ele>
        <time>2015-01-17T10:09:26Z</time>
      </trkpt>
      <trkpt lat="42.29299" lon="2.55244">
        <ele>387</ele>
        <time>2015-01-17T10:09:32Z</time>
      </trkpt>
      <trkpt lat="42.29307" lon="2.55241">
        <ele>387</ele>
        <time>2015-01-17T10:09:39Z</time>
      </trkpt>
      <trkpt lat="42.29313" lon="2.55237">
        <ele>385</ele>
        <time>2015-01-17T10:09:47Z</time>
      </trkpt>
      <trkpt lat="42.2932" lon="2.55235">
        <ele>384</ele>
        <time>2015-01-17T10:09:55Z</time>
      </trkpt>
      <trkpt lat="42.29327" lon="2.55233">
        <ele>383</ele>
        <time>2015-01-17T10:10:05Z</time>
      </trkpt>
      <trkpt lat="42.29334" lon="2.55231">
        <ele>383</ele>
        <time>2015-01-17T10:10:13Z</time>
      </trkpt>
      <trkpt lat="42.29341" lon="2.55227">
        <ele>381</ele>
        <time>2015-01-17T10:10:21Z</time>
      </trkpt>
      <trkpt lat="42.29349" lon="2.55226">
        <ele>380</ele>
        <time>2015-01-17T10:11:03Z</time>
      </trkpt>
      <trkpt lat="42.29349" lon="2.55215">
        <ele>382</ele>
        <time>2015-01-17T10:11:30Z</time>
      </trkpt>
      <trkpt lat="42.2934" lon="2.55218">
        <ele>382</ele>
        <time>2015-01-17T10:11:39Z</time>
      </trkpt>
      <trkpt lat="42.29332" lon="2.55218">
        <ele>383</ele>
        <time>2015-01-17T10:11:46Z</time>
      </trkpt>
      <trkpt lat="42.29325" lon="2.55214">
        <ele>384</ele>
        <time>2015-01-17T10:11:51Z</time>
      </trkpt>
      <trkpt lat="42.29321" lon="2.55207">
        <ele>384</ele>
        <time>2015-01-17T10:11:58Z</time>
      </trkpt>
      <trkpt lat="42.29316" lon="2.55211">
        <ele>383</ele>
        <time>2015-01-17T10:12:11Z</time>
      </trkpt>
      <trkpt lat="42.29308" lon="2.55214">
        <ele>381</ele>
        <time>2015-01-17T10:12:24Z</time>
      </trkpt>
      <trkpt lat="42.293" lon="2.55208">
        <ele>378</ele>
        <time>2015-01-17T10:12:37Z</time>
      </trkpt>
      <trkpt lat="42.29301" lon="2.55199">
        <ele>376</ele>
        <time>2015-01-17T10:12:44Z</time>
      </trkpt>
      <trkpt lat="42.29305" lon="2.5519">
        <ele>376</ele>
        <time>2015-01-17T10:13:17Z</time>
      </trkpt>
      <trkpt lat="42.29304" lon="2.55182">
        <ele>376</ele>
        <time>2015-01-17T10:13:24Z</time>
      </trkpt>
      <trkpt lat="42.29302" lon="2.55175">
        <ele>377</ele>
        <time>2015-01-17T10:13:34Z</time>
      </trkpt>
      <trkpt lat="42.29298" lon="2.55166">
        <ele>377</ele>
        <time>2015-01-17T10:13:47Z</time>
      </trkpt>
      <trkpt lat="42.29296" lon="2.55158">
        <ele>377</ele>
        <time>2015-01-17T10:13:57Z</time>
      </trkpt>
      <trkpt lat="42.2929" lon="2.55152">
        <ele>376</ele>
        <time>2015-01-17T10:14:06Z</time>
      </trkpt>
      <trkpt lat="42.29284" lon="2.55146">
        <ele>376</ele>
        <time>2015-01-17T10:14:14Z</time>
      </trkpt>
      <trkpt lat="42.29279" lon="2.5514">
        <ele>376.5</ele>
        <time>2015-01-17T10:14:20Z</time>
      </trkpt>
      <trkpt lat="42.29275" lon="2.55133">
        <ele>378</ele>
        <time>2015-01-17T10:14:25Z</time>
      </trkpt>
      <trkpt lat="42.29273" lon="2.55125">
        <ele>378</ele>
        <time>2015-01-17T10:14:29Z</time>
      </trkpt>
      <trkpt lat="42.29274" lon="2.55115">
        <ele>380</ele>
        <time>2015-01-17T10:14:36Z</time>
      </trkpt>
      <trkpt lat="42.29279" lon="2.55107">
        <ele>380</ele>
        <time>2015-01-17T10:14:43Z</time>
      </trkpt>
      <trkpt lat="42.29284" lon="2.55099">
        <ele>380</ele>
        <time>2015-01-17T10:14:50Z</time>
      </trkpt>
      <trkpt lat="42.2929" lon="2.55092">
        <ele>380</ele>
        <time>2015-01-17T10:14:57Z</time>
      </trkpt>
      <trkpt lat="42.29296" lon="2.55083">
        <ele>380</ele>
        <time>2015-01-17T10:15:04Z</time>
      </trkpt>
      <trkpt lat="42.29301" lon="2.55075">
        <ele>381</ele>
        <time>2015-01-17T10:15:11Z</time>
      </trkpt>
      <trkpt lat="42.29306" lon="2.55065">
        <ele>381.5</ele>
        <time>2015-01-17T10:15:20Z</time>
      </trkpt>
      <trkpt lat="42.29313" lon="2.55056">
        <ele>382.7</ele>
        <time>2015-01-17T10:15:29Z</time>
      </trkpt>
      <trkpt lat="42.29319" lon="2.55047">
        <ele>382</ele>
        <time>2015-01-17T10:15:37Z</time>
      </trkpt>
      <trkpt lat="42.29326" lon="2.55038">
        <ele>382</ele>
        <time>2015-01-17T10:15:44Z</time>
      </trkpt>
      <trkpt lat="42.29334" lon="2.5503">
        <ele>382</ele>
        <time>2015-01-17T10:15:51Z</time>
      </trkpt>
      <trkpt lat="42.29339" lon="2.5502">
        <ele>382</ele>
        <time>2015-01-17T10:15:58Z</time>
      </trkpt>
      <trkpt lat="42.29343" lon="2.55011">
        <ele>383</ele>
        <time>2015-01-17T10:16:04Z</time>
      </trkpt>
      <trkpt lat="42.29347" lon="2.55003">
        <ele>383</ele>
        <time>2015-01-17T10:16:10Z</time>
      </trkpt>
      <trkpt lat="42.29353" lon="2.54996">
        <ele>383</ele>
        <time>2015-01-17T10:16:16Z</time>
      </trkpt>
      <trkpt lat="42.29359" lon="2.54989">
        <ele>384</ele>
        <time>2015-01-17T10:16:21Z</time>
      </trkpt>
      <trkpt lat="42.29367" lon="2.54982">
        <ele>384</ele>
        <time>2015-01-17T10:16:28Z</time>
      </trkpt>
      <trkpt lat="42.29374" lon="2.54976">
        <ele>384</ele>
        <time>2015-01-17T10:16:35Z</time>
      </trkpt>
      <trkpt lat="42.29383" lon="2.54971">
        <ele>386</ele>
        <time>2015-01-17T10:16:41Z</time>
      </trkpt>
      <trkpt lat="42.29389" lon="2.54964">
        <ele>386</ele>
        <time>2015-01-17T10:16:47Z</time>
      </trkpt>
      <trkpt lat="42.29394" lon="2.54954">
        <ele>386.7</ele>
        <time>2015-01-17T10:16:53Z</time>
      </trkpt>
      <trkpt lat="42.29399" lon="2.54943">
        <ele>386.5</ele>
        <time>2015-01-17T10:17:00Z</time>
      </trkpt>
      <trkpt lat="42.29401" lon="2.54934">
        <ele>388</ele>
        <time>2015-01-17T10:17:05Z</time>
      </trkpt>
      <trkpt lat="42.29404" lon="2.54926">
        <ele>388.5</ele>
        <time>2015-01-17T10:17:10Z</time>
      </trkpt>
      <trkpt lat="42.29407" lon="2.54917">
        <ele>390</ele>
        <time>2015-01-17T10:17:15Z</time>
      </trkpt>
      <trkpt lat="42.29411" lon="2.54909">
        <ele>390</ele>
        <time>2015-01-17T10:17:20Z</time>
      </trkpt>
      <trkpt lat="42.29416" lon="2.54902">
        <ele>390</ele>
        <time>2015-01-17T10:17:25Z</time>
      </trkpt>
      <trkpt lat="42.29421" lon="2.54896">
        <ele>390</ele>
        <time>2015-01-17T10:17:30Z</time>
      </trkpt>
      <trkpt lat="42.29428" lon="2.54891">
        <ele>389</ele>
        <time>2015-01-17T10:17:36Z</time>
      </trkpt>
      <trkpt lat="42.29436" lon="2.54884">
        <ele>389</ele>
        <time>2015-01-17T10:17:43Z</time>
      </trkpt>
      <trkpt lat="42.29442" lon="2.54874">
        <ele>388.7</ele>
        <time>2015-01-17T10:17:50Z</time>
      </trkpt>
      <trkpt lat="42.29447" lon="2.54863">
        <ele>388</ele>
        <time>2015-01-17T10:17:57Z</time>
      </trkpt>
      <trkpt lat="42.29454" lon="2.54855">
        <ele>388</ele>
        <time>2015-01-17T10:18:03Z</time>
      </trkpt>
      <trkpt lat="42.29463" lon="2.54848">
        <ele>390</ele>
        <time>2015-01-17T10:18:11Z</time>
      </trkpt>
      <trkpt lat="42.29472" lon="2.5484">
        <ele>390</ele>
        <time>2015-01-17T10:18:17Z</time>
      </trkpt>
      <trkpt lat="42.29481" lon="2.54832">
        <ele>392</ele>
        <time>2015-01-17T10:18:23Z</time>
      </trkpt>
      <trkpt lat="42.29489" lon="2.54822">
        <ele>392</ele>
        <time>2015-01-17T10:18:29Z</time>
      </trkpt>
      <trkpt lat="42.29494" lon="2.54812">
        <ele>393</ele>
        <time>2015-01-17T10:18:39Z</time>
      </trkpt>
      <trkpt lat="42.295" lon="2.54802">
        <ele>393</ele>
        <time>2015-01-17T10:18:45Z</time>
      </trkpt>
      <trkpt lat="42.29508" lon="2.54792">
        <ele>392</ele>
        <time>2015-01-17T10:18:51Z</time>
      </trkpt>
      <trkpt lat="42.29518" lon="2.54783">
        <ele>392</ele>
        <time>2015-01-17T10:18:55Z</time>
      </trkpt>
      <trkpt lat="42.29527" lon="2.54772">
        <ele>392</ele>
        <time>2015-01-17T10:18:59Z</time>
      </trkpt>
      <trkpt lat="42.29537" lon="2.54762">
        <ele>384</ele>
        <time>2015-01-17T10:19:03Z</time>
      </trkpt>
      <trkpt lat="42.29546" lon="2.54751">
        <ele>384</ele>
        <time>2015-01-17T10:19:07Z</time>
      </trkpt>
      <trkpt lat="42.29556" lon="2.5474">
        <ele>383</ele>
        <time>2015-01-17T10:19:11Z</time>
      </trkpt>
      <trkpt lat="42.29562" lon="2.54728">
        <ele>383</ele>
        <time>2015-01-17T10:19:15Z</time>
      </trkpt>
      <trkpt lat="42.29568" lon="2.54717">
        <ele>383</ele>
        <time>2015-01-17T10:19:19Z</time>
      </trkpt>
      <trkpt lat="42.29574" lon="2.54705">
        <ele>382</ele>
        <time>2015-01-17T10:19:23Z</time>
      </trkpt>
      <trkpt lat="42.29582" lon="2.54696">
        <ele>382</ele>
        <time>2015-01-17T10:19:27Z</time>
      </trkpt>
      <trkpt lat="42.29592" lon="2.54687">
        <ele>381</ele>
        <time>2015-01-17T10:19:31Z</time>
      </trkpt>
      <trkpt lat="42.29599" lon="2.54674">
        <ele>381</ele>
        <time>2015-01-17T10:19:35Z</time>
      </trkpt>
      <trkpt lat="42.29608" lon="2.54662">
        <ele>381</ele>
        <time>2015-01-17T10:19:39Z</time>
      </trkpt>
      <trkpt lat="42.29616" lon="2.54649">
        <ele>381</ele>
        <time>2015-01-17T10:19:44Z</time>
      </trkpt>
      <trkpt lat="42.29622" lon="2.54638">
        <ele>381</ele>
        <time>2015-01-17T10:19:48Z</time>
      </trkpt>
      <trkpt lat="42.29629" lon="2.54626">
        <ele>381</ele>
        <time>2015-01-17T10:19:52Z</time>
      </trkpt>
      <trkpt lat="42.29634" lon="2.54615">
        <ele>381</ele>
        <time>2015-01-17T10:19:56Z</time>
      </trkpt>
      <trkpt lat="42.29639" lon="2.54602">
        <ele>381</ele>
        <time>2015-01-17T10:20:00Z</time>
      </trkpt>
      <trkpt lat="42.29645" lon="2.54591">
        <ele>381</ele>
        <time>2015-01-17T10:20:04Z</time>
      </trkpt>
      <trkpt lat="42.2965" lon="2.54579">
        <ele>381.3</ele>
        <time>2015-01-17T10:20:10Z</time>
      </trkpt>
      <trkpt lat="42.29655" lon="2.54568">
        <ele>382</ele>
        <time>2015-01-17T10:20:17Z</time>
      </trkpt>
      <trkpt lat="42.29662" lon="2.54555">
        <ele>383</ele>
        <time>2015-01-17T10:20:24Z</time>
      </trkpt>
      <trkpt lat="42.29666" lon="2.54541">
        <ele>385</ele>
        <time>2015-01-17T10:20:31Z</time>
      </trkpt>
      <trkpt lat="42.29671" lon="2.54528">
        <ele>385</ele>
        <time>2015-01-17T10:20:38Z</time>
      </trkpt>
      <trkpt lat="42.29676" lon="2.54513">
        <ele>386</ele>
        <time>2015-01-17T10:20:44Z</time>
      </trkpt>
      <trkpt lat="42.29681" lon="2.545">
        <ele>387</ele>
        <time>2015-01-17T10:20:51Z</time>
      </trkpt>
      <trkpt lat="42.29689" lon="2.54493">
        <ele>387</ele>
        <time>2015-01-17T10:20:57Z</time>
      </trkpt>
      <trkpt lat="42.297" lon="2.54491">
        <ele>388</ele>
        <time>2015-01-17T10:21:03Z</time>
      </trkpt>
      <trkpt lat="42.29706" lon="2.54491">
        <ele>388</ele>
        <time>2015-01-17T10:21:11Z</time>
      </trkpt>
      <trkpt lat="42.29712" lon="2.54485">
        <ele>388</ele>
        <time>2015-01-17T10:21:31Z</time>
      </trkpt>
      <trkpt lat="42.29719" lon="2.5448">
        <ele>388</ele>
        <time>2015-01-17T10:21:36Z</time>
      </trkpt>
      <trkpt lat="42.29725" lon="2.54473">
        <ele>389</ele>
        <time>2015-01-17T10:21:41Z</time>
      </trkpt>
      <trkpt lat="42.29729" lon="2.54463">
        <ele>389</ele>
        <time>2015-01-17T10:21:47Z</time>
      </trkpt>
      <trkpt lat="42.29732" lon="2.54452">
        <ele>389</ele>
        <time>2015-01-17T10:21:53Z</time>
      </trkpt>
      <trkpt lat="42.29733" lon="2.5444">
        <ele>389</ele>
        <time>2015-01-17T10:21:59Z</time>
      </trkpt>
      <trkpt lat="42.29733" lon="2.5443">
        <ele>390</ele>
        <time>2015-01-17T10:22:04Z</time>
      </trkpt>
      <trkpt lat="42.29731" lon="2.54419">
        <ele>390</ele>
        <time>2015-01-17T10:22:09Z</time>
      </trkpt>
      <trkpt lat="42.29727" lon="2.54409">
        <ele>390</ele>
        <time>2015-01-17T10:22:15Z</time>
      </trkpt>
      <trkpt lat="42.29725" lon="2.54398">
        <ele>390</ele>
        <time>2015-01-17T10:22:21Z</time>
      </trkpt>
      <trkpt lat="42.29727" lon="2.54386">
        <ele>390</ele>
        <time>2015-01-17T10:22:26Z</time>
      </trkpt>
      <trkpt lat="42.29726" lon="2.54374">
        <ele>390</ele>
        <time>2015-01-17T10:22:32Z</time>
      </trkpt>
      <trkpt lat="42.29723" lon="2.54361">
        <ele>390</ele>
        <time>2015-01-17T10:22:39Z</time>
      </trkpt>
      <trkpt lat="42.2972" lon="2.54349">
        <ele>390</ele>
        <time>2015-01-17T10:22:45Z</time>
      </trkpt>
      <trkpt lat="42.29718" lon="2.54336">
        <ele>388</ele>
        <time>2015-01-17T10:22:52Z</time>
      </trkpt>
      <trkpt lat="42.29715" lon="2.54321">
        <ele>388</ele>
        <time>2015-01-17T10:22:59Z</time>
      </trkpt>
      <trkpt lat="42.29713" lon="2.54309">
        <ele>388</ele>
        <time>2015-01-17T10:23:05Z</time>
      </trkpt>
      <trkpt lat="42.29711" lon="2.54298">
        <ele>388.5</ele>
        <time>2015-01-17T10:23:10Z</time>
      </trkpt>
      <trkpt lat="42.29708" lon="2.54288">
        <ele>390</ele>
        <time>2015-01-17T10:23:15Z</time>
      </trkpt>
      <trkpt lat="42.29704" lon="2.54275">
        <ele>391</ele>
        <time>2015-01-17T10:23:22Z</time>
      </trkpt>
      <trkpt lat="42.297" lon="2.54266">
        <ele>391</ele>
        <time>2015-01-17T10:23:27Z</time>
      </trkpt>
      <trkpt lat="42.297" lon="2.54254">
        <ele>391</ele>
        <time>2015-01-17T10:23:32Z</time>
      </trkpt>
      <trkpt lat="42.297" lon="2.54244">
        <ele>391</ele>
        <time>2015-01-17T10:23:37Z</time>
      </trkpt>
      <trkpt lat="42.29699" lon="2.54235">
        <ele>391</ele>
        <time>2015-01-17T10:23:41Z</time>
      </trkpt>
      <trkpt lat="42.29699" lon="2.54226">
        <ele>391</ele>
        <time>2015-01-17T10:23:45Z</time>
      </trkpt>
      <trkpt lat="42.29698" lon="2.54215">
        <ele>391</ele>
        <time>2015-01-17T10:23:50Z</time>
      </trkpt>
      <trkpt lat="42.29695" lon="2.54206">
        <ele>391</ele>
        <time>2015-01-17T10:23:55Z</time>
      </trkpt>
      <trkpt lat="42.29692" lon="2.54196">
        <ele>392</ele>
        <time>2015-01-17T10:24:01Z</time>
      </trkpt>
      <trkpt lat="42.29688" lon="2.54186">
        <ele>392</ele>
        <time>2015-01-17T10:24:07Z</time>
      </trkpt>
      <trkpt lat="42.29683" lon="2.54179">
        <ele>393</ele>
        <time>2015-01-17T10:24:12Z</time>
      </trkpt>
      <trkpt lat="42.29678" lon="2.54173">
        <ele>393</ele>
        <time>2015-01-17T10:24:17Z</time>
      </trkpt>
      <trkpt lat="42.29673" lon="2.54162">
        <ele>395</ele>
        <time>2015-01-17T10:24:23Z</time>
      </trkpt>
      <trkpt lat="42.29669" lon="2.5415">
        <ele>395</ele>
        <time>2015-01-17T10:24:29Z</time>
      </trkpt>
      <trkpt lat="42.29664" lon="2.54139">
        <ele>397</ele>
        <time>2015-01-17T10:24:34Z</time>
      </trkpt>
      <trkpt lat="42.29659" lon="2.54129">
        <ele>397</ele>
        <time>2015-01-17T10:24:39Z</time>
      </trkpt>
      <trkpt lat="42.29651" lon="2.5412">
        <ele>397</ele>
        <time>2015-01-17T10:24:46Z</time>
      </trkpt>
      <trkpt lat="42.29643" lon="2.54111">
        <ele>397</ele>
        <time>2015-01-17T10:24:53Z</time>
      </trkpt>
      <trkpt lat="42.29642" lon="2.54097">
        <ele>397</ele>
        <time>2015-01-17T10:24:58Z</time>
      </trkpt>
      <trkpt lat="42.29645" lon="2.54085">
        <ele>398</ele>
        <time>2015-01-17T10:25:04Z</time>
      </trkpt>
      <trkpt lat="42.29645" lon="2.54072">
        <ele>398.3</ele>
        <time>2015-01-17T10:25:10Z</time>
      </trkpt>
      <trkpt lat="42.29642" lon="2.54059">
        <ele>399</ele>
        <time>2015-01-17T10:25:17Z</time>
      </trkpt>
      <trkpt lat="42.29639" lon="2.54047">
        <ele>399</ele>
        <time>2015-01-17T10:25:24Z</time>
      </trkpt>
      <trkpt lat="42.29636" lon="2.54033">
        <ele>400</ele>
        <time>2015-01-17T10:25:31Z</time>
      </trkpt>
      <trkpt lat="42.29633" lon="2.54022">
        <ele>400</ele>
        <time>2015-01-17T10:25:36Z</time>
      </trkpt>
      <trkpt lat="42.29631" lon="2.54011">
        <ele>400</ele>
        <time>2015-01-17T10:25:42Z</time>
      </trkpt>
      <trkpt lat="42.29629" lon="2.53998">
        <ele>400</ele>
        <time>2015-01-17T10:25:48Z</time>
      </trkpt>
      <trkpt lat="42.29628" lon="2.53986">
        <ele>399</ele>
        <time>2015-01-17T10:25:55Z</time>
      </trkpt>
      <trkpt lat="42.2963" lon="2.53972">
        <ele>400</ele>
        <time>2015-01-17T10:26:03Z</time>
      </trkpt>
      <trkpt lat="42.29624" lon="2.53961">
        <ele>400.3</ele>
        <time>2015-01-17T10:26:10Z</time>
      </trkpt>
      <trkpt lat="42.2962" lon="2.53948">
        <ele>401</ele>
        <time>2015-01-17T10:26:27Z</time>
      </trkpt>
      <trkpt lat="42.29612" lon="2.53938">
        <ele>402</ele>
        <time>2015-01-17T10:26:36Z</time>
      </trkpt>
      <trkpt lat="42.29609" lon="2.53926">
        <ele>403</ele>
        <time>2015-01-17T10:26:43Z</time>
      </trkpt>
      <trkpt lat="42.29606" lon="2.53914">
        <ele>404</ele>
        <time>2015-01-17T10:26:51Z</time>
      </trkpt>
      <trkpt lat="42.29603" lon="2.53904">
        <ele>404</ele>
        <time>2015-01-17T10:26:59Z</time>
      </trkpt>
      <trkpt lat="42.29601" lon="2.53891">
        <ele>408.7</ele>
        <time>2015-01-17T10:27:08Z</time>
      </trkpt>
      <trkpt lat="42.29598" lon="2.53879">
        <ele>409</ele>
        <time>2015-01-17T10:27:16Z</time>
      </trkpt>
      <trkpt lat="42.29596" lon="2.53869">
        <ele>411</ele>
        <time>2015-01-17T10:27:58Z</time>
      </trkpt>
      <trkpt lat="42.29595" lon="2.53856">
        <ele>413</ele>
        <time>2015-01-17T10:28:08Z</time>
      </trkpt>
      <trkpt lat="42.29595" lon="2.53842">
        <ele>416</ele>
        <time>2015-01-17T10:28:18Z</time>
      </trkpt>
      <trkpt lat="42.29594" lon="2.53829">
        <ele>417</ele>
        <time>2015-01-17T10:28:27Z</time>
      </trkpt>
      <trkpt lat="42.29595" lon="2.53815">
        <ele>418</ele>
        <time>2015-01-17T10:28:35Z</time>
      </trkpt>
      <trkpt lat="42.29595" lon="2.538">
        <ele>419</ele>
        <time>2015-01-17T10:28:43Z</time>
      </trkpt>
      <trkpt lat="42.29591" lon="2.53786">
        <ele>419.3</ele>
        <time>2015-01-17T10:28:50Z</time>
      </trkpt>
      <trkpt lat="42.29589" lon="2.53774">
        <ele>420</ele>
        <time>2015-01-17T10:28:57Z</time>
      </trkpt>
      <trkpt lat="42.29585" lon="2.53763">
        <ele>422</ele>
        <time>2015-01-17T10:29:05Z</time>
      </trkpt>
      <trkpt lat="42.29585" lon="2.53749">
        <ele>423</ele>
        <time>2015-01-17T10:29:13Z</time>
      </trkpt>
      <trkpt lat="42.29587" lon="2.53738">
        <ele>423</ele>
        <time>2015-01-17T10:29:19Z</time>
      </trkpt>
      <trkpt lat="42.2959" lon="2.53724">
        <ele>425</ele>
        <time>2015-01-17T10:29:28Z</time>
      </trkpt>
      <trkpt lat="42.29596" lon="2.53711">
        <ele>426</ele>
        <time>2015-01-17T10:29:36Z</time>
      </trkpt>
      <trkpt lat="42.29598" lon="2.53698">
        <ele>426</ele>
        <time>2015-01-17T10:29:44Z</time>
      </trkpt>
      <trkpt lat="42.29599" lon="2.53683">
        <ele>428</ele>
        <time>2015-01-17T10:29:52Z</time>
      </trkpt>
      <trkpt lat="42.296" lon="2.53669">
        <ele>428</ele>
        <time>2015-01-17T10:29:59Z</time>
      </trkpt>
      <trkpt lat="42.296" lon="2.53655">
        <ele>429</ele>
        <time>2015-01-17T10:30:07Z</time>
      </trkpt>
      <trkpt lat="42.296" lon="2.53641">
        <ele>431</ele>
        <time>2015-01-17T10:30:15Z</time>
      </trkpt>
      <trkpt lat="42.296" lon="2.53628">
        <ele>431</ele>
        <time>2015-01-17T10:30:22Z</time>
      </trkpt>
      <trkpt lat="42.29601" lon="2.53614">
        <ele>431.5</ele>
        <time>2015-01-17T10:30:30Z</time>
      </trkpt>
      <trkpt lat="42.29604" lon="2.53601">
        <ele>433</ele>
        <time>2015-01-17T10:30:38Z</time>
      </trkpt>
      <trkpt lat="42.29607" lon="2.53587">
        <ele>433</ele>
        <time>2015-01-17T10:30:46Z</time>
      </trkpt>
      <trkpt lat="42.29611" lon="2.53575">
        <ele>435</ele>
        <time>2015-01-17T10:30:53Z</time>
      </trkpt>
      <trkpt lat="42.29615" lon="2.53562">
        <ele>435.5</ele>
        <time>2015-01-17T10:31:00Z</time>
      </trkpt>
      <trkpt lat="42.29616" lon="2.5355">
        <ele>437</ele>
        <time>2015-01-17T10:31:07Z</time>
      </trkpt>
      <trkpt lat="42.29614" lon="2.53536">
        <ele>438</ele>
        <time>2015-01-17T10:31:14Z</time>
      </trkpt>
      <trkpt lat="42.29616" lon="2.53522">
        <ele>438</ele>
        <time>2015-01-17T10:31:22Z</time>
      </trkpt>
      <trkpt lat="42.29622" lon="2.5351">
        <ele>438</ele>
        <time>2015-01-17T10:31:28Z</time>
      </trkpt>
      <trkpt lat="42.29625" lon="2.53497">
        <ele>438</ele>
        <time>2015-01-17T10:31:35Z</time>
      </trkpt>
      <trkpt lat="42.29629" lon="2.53484">
        <ele>440</ele>
        <time>2015-01-17T10:31:42Z</time>
      </trkpt>
      <trkpt lat="42.29631" lon="2.53473">
        <ele>440</ele>
        <time>2015-01-17T10:31:48Z</time>
      </trkpt>
      <trkpt lat="42.29634" lon="2.53459">
        <ele>440</ele>
        <time>2015-01-17T10:31:56Z</time>
      </trkpt>
      <trkpt lat="42.29633" lon="2.53445">
        <ele>442</ele>
        <time>2015-01-17T10:32:03Z</time>
      </trkpt>
      <trkpt lat="42.29631" lon="2.53435">
        <ele>442</ele>
        <time>2015-01-17T10:32:09Z</time>
      </trkpt>
      <trkpt lat="42.29629" lon="2.53422">
        <ele>443</ele>
        <time>2015-01-17T10:32:16Z</time>
      </trkpt>
      <trkpt lat="42.29633" lon="2.5341">
        <ele>444</ele>
        <time>2015-01-17T10:32:25Z</time>
      </trkpt>
      <trkpt lat="42.2964" lon="2.534">
        <ele>444</ele>
        <time>2015-01-17T10:32:32Z</time>
      </trkpt>
      <trkpt lat="42.29646" lon="2.5339">
        <ele>444</ele>
        <time>2015-01-17T10:32:38Z</time>
      </trkpt>
      <trkpt lat="42.29648" lon="2.53379">
        <ele>444</ele>
        <time>2015-01-17T10:32:48Z</time>
      </trkpt>
      <trkpt lat="42.29649" lon="2.53366">
        <ele>445</ele>
        <time>2015-01-17T10:32:56Z</time>
      </trkpt>
      <trkpt lat="42.29655" lon="2.53352">
        <ele>444</ele>
        <time>2015-01-17T10:33:04Z</time>
      </trkpt>
      <trkpt lat="42.29658" lon="2.53339">
        <ele>446</ele>
        <time>2015-01-17T10:33:11Z</time>
      </trkpt>
      <trkpt lat="42.29663" lon="2.53326">
        <ele>446</ele>
        <time>2015-01-17T10:33:19Z</time>
      </trkpt>
      <trkpt lat="42.29666" lon="2.53312">
        <ele>446</ele>
        <time>2015-01-17T10:33:28Z</time>
      </trkpt>
      <trkpt lat="42.29669" lon="2.533">
        <ele>447</ele>
        <time>2015-01-17T10:33:36Z</time>
      </trkpt>
      <trkpt lat="42.29673" lon="2.53285">
        <ele>448</ele>
        <time>2015-01-17T10:33:43Z</time>
      </trkpt>
      <trkpt lat="42.29677" lon="2.53272">
        <ele>448</ele>
        <time>2015-01-17T10:33:50Z</time>
      </trkpt>
      <trkpt lat="42.2968" lon="2.53258">
        <ele>449</ele>
        <time>2015-01-17T10:33:57Z</time>
      </trkpt>
      <trkpt lat="42.29684" lon="2.53245">
        <ele>449</ele>
        <time>2015-01-17T10:34:04Z</time>
      </trkpt>
      <trkpt lat="42.29691" lon="2.53233">
        <ele>451</ele>
        <time>2015-01-17T10:34:11Z</time>
      </trkpt>
      <trkpt lat="42.29694" lon="2.53219">
        <ele>451</ele>
        <time>2015-01-17T10:34:19Z</time>
      </trkpt>
      <trkpt lat="42.2969" lon="2.53208">
        <ele>452</ele>
        <time>2015-01-17T10:34:26Z</time>
      </trkpt>
      <trkpt lat="42.29695" lon="2.53195">
        <ele>451</ele>
        <time>2015-01-17T10:34:35Z</time>
      </trkpt>
      <trkpt lat="42.29704" lon="2.53187">
        <ele>452</ele>
        <time>2015-01-17T10:34:42Z</time>
      </trkpt>
      <trkpt lat="42.29709" lon="2.53175">
        <ele>452</ele>
        <time>2015-01-17T10:34:49Z</time>
      </trkpt>
      <trkpt lat="42.29713" lon="2.53164">
        <ele>454</ele>
        <time>2015-01-17T10:34:56Z</time>
      </trkpt>
      <trkpt lat="42.29717" lon="2.53153">
        <ele>456</ele>
        <time>2015-01-17T10:35:03Z</time>
      </trkpt>
      <trkpt lat="42.29723" lon="2.53141">
        <ele>458</ele>
        <time>2015-01-17T10:35:12Z</time>
      </trkpt>
      <trkpt lat="42.29727" lon="2.5313">
        <ele>458</ele>
        <time>2015-01-17T10:35:19Z</time>
      </trkpt>
      <trkpt lat="42.29731" lon="2.53118">
        <ele>459</ele>
        <time>2015-01-17T10:35:27Z</time>
      </trkpt>
      <trkpt lat="42.29736" lon="2.53106">
        <ele>460</ele>
        <time>2015-01-17T10:35:37Z</time>
      </trkpt>
      <trkpt lat="42.29739" lon="2.53093">
        <ele>465</ele>
        <time>2015-01-17T10:35:46Z</time>
      </trkpt>
      <trkpt lat="42.29745" lon="2.53082">
        <ele>465.5</ele>
        <time>2015-01-17T10:35:55Z</time>
      </trkpt>
      <trkpt lat="42.29746" lon="2.53067">
        <ele>467</ele>
        <time>2015-01-17T10:36:04Z</time>
      </trkpt>
      <trkpt lat="42.29747" lon="2.53054">
        <ele>469</ele>
        <time>2015-01-17T10:36:14Z</time>
      </trkpt>
      <trkpt lat="42.29755" lon="2.53047">
        <ele>469</ele>
        <time>2015-01-17T10:36:23Z</time>
      </trkpt>
      <trkpt lat="42.29764" lon="2.53045">
        <ele>471</ele>
        <time>2015-01-17T10:36:31Z</time>
      </trkpt>
      <trkpt lat="42.29775" lon="2.5304">
        <ele>471.5</ele>
        <time>2015-01-17T10:36:40Z</time>
      </trkpt>
      <trkpt lat="42.29783" lon="2.53032">
        <ele>473</ele>
        <time>2015-01-17T10:36:46Z</time>
      </trkpt>
      <trkpt lat="42.29788" lon="2.53023">
        <ele>475</ele>
        <time>2015-01-17T10:36:52Z</time>
      </trkpt>
      <trkpt lat="42.29787" lon="2.53014">
        <ele>477</ele>
        <time>2015-01-17T10:36:58Z</time>
      </trkpt>
      <trkpt lat="42.29782" lon="2.53009">
        <ele>478</ele>
        <time>2015-01-17T10:37:03Z</time>
      </trkpt>
      <trkpt lat="42.29776" lon="2.53002">
        <ele>478</ele>
        <time>2015-01-17T10:37:11Z</time>
      </trkpt>
      <trkpt lat="42.29769" lon="2.52994">
        <ele>478</ele>
        <time>2015-01-17T10:37:18Z</time>
      </trkpt>
      <trkpt lat="42.29761" lon="2.52987">
        <ele>478</ele>
        <time>2015-01-17T10:37:26Z</time>
      </trkpt>
      <trkpt lat="42.29754" lon="2.52977">
        <ele>480</ele>
        <time>2015-01-17T10:37:34Z</time>
      </trkpt>
      <trkpt lat="42.29755" lon="2.52964">
        <ele>482</ele>
        <time>2015-01-17T10:37:42Z</time>
      </trkpt>
      <trkpt lat="42.2976" lon="2.52953">
        <ele>482.5</ele>
        <time>2015-01-17T10:37:50Z</time>
      </trkpt>
      <trkpt lat="42.29764" lon="2.52941">
        <ele>484</ele>
        <time>2015-01-17T10:37:59Z</time>
      </trkpt>
      <trkpt lat="42.29766" lon="2.52928">
        <ele>488</ele>
        <time>2015-01-17T10:38:07Z</time>
      </trkpt>
      <trkpt lat="42.29768" lon="2.52916">
        <ele>489</ele>
        <time>2015-01-17T10:38:14Z</time>
      </trkpt>
      <trkpt lat="42.29769" lon="2.52904">
        <ele>491</ele>
        <time>2015-01-17T10:38:21Z</time>
      </trkpt>
      <trkpt lat="42.29772" lon="2.52892">
        <ele>491</ele>
        <time>2015-01-17T10:38:27Z</time>
      </trkpt>
      <trkpt lat="42.29776" lon="2.52883">
        <ele>492</ele>
        <time>2015-01-17T10:38:32Z</time>
      </trkpt>
      <trkpt lat="42.29781" lon="2.52873">
        <ele>492</ele>
        <time>2015-01-17T10:38:37Z</time>
      </trkpt>
      <trkpt lat="42.29784" lon="2.52864">
        <ele>493</ele>
        <time>2015-01-17T10:38:43Z</time>
      </trkpt>
      <trkpt lat="42.29787" lon="2.52854">
        <ele>493</ele>
        <time>2015-01-17T10:38:49Z</time>
      </trkpt>
      <trkpt lat="42.29794" lon="2.52846">
        <ele>493</ele>
        <time>2015-01-17T10:38:55Z</time>
      </trkpt>
      <trkpt lat="42.29801" lon="2.5284">
        <ele>496</ele>
        <time>2015-01-17T10:39:01Z</time>
      </trkpt>
      <trkpt lat="42.29806" lon="2.52834">
        <ele>498</ele>
        <time>2015-01-17T10:39:07Z</time>
      </trkpt>
      <trkpt lat="42.2981" lon="2.52826">
        <ele>498</ele>
        <time>2015-01-17T10:39:14Z</time>
      </trkpt>
      <trkpt lat="42.29817" lon="2.52818">
        <ele>500</ele>
        <time>2015-01-17T10:39:21Z</time>
      </trkpt>
      <trkpt lat="42.29817" lon="2.52809">
        <ele>500</ele>
        <time>2015-01-17T10:39:27Z</time>
      </trkpt>
      <trkpt lat="42.29813" lon="2.52802">
        <ele>502</ele>
        <time>2015-01-17T10:39:32Z</time>
      </trkpt>
      <trkpt lat="42.2981" lon="2.52797">
        <ele>501.7</ele>
        <time>2015-01-17T10:39:36Z</time>
      </trkpt>
      <trkpt lat="42.29806" lon="2.52792">
        <ele>502.1</ele>
        <time>2015-01-17T10:39:40Z</time>
      </trkpt>
      <trkpt lat="42.29803" lon="2.52787">
        <ele>505</ele>
        <time>2015-01-17T10:39:44Z</time>
      </trkpt>
      <trkpt lat="42.29798" lon="2.52781">
        <ele>506.3</ele>
        <time>2015-01-17T10:39:50Z</time>
      </trkpt>
      <trkpt lat="42.29795" lon="2.52777">
        <ele>507</ele>
        <time>2015-01-17T10:39:53Z</time>
      </trkpt>
      <trkpt lat="42.29791" lon="2.52772">
        <ele>508</ele>
        <time>2015-01-17T10:39:57Z</time>
      </trkpt>
      <trkpt lat="42.29788" lon="2.52763">
        <ele>510</ele>
        <time>2015-01-17T10:40:03Z</time>
      </trkpt>
      <trkpt lat="42.29787" lon="2.52757">
        <ele>510</ele>
        <time>2015-01-17T10:40:07Z</time>
      </trkpt>
      <trkpt lat="42.29786" lon="2.52751">
        <ele>510</ele>
        <time>2015-01-17T10:40:11Z</time>
      </trkpt>
      <trkpt lat="42.29784" lon="2.52746">
        <ele>510</ele>
        <time>2015-01-17T10:40:15Z</time>
      </trkpt>
      <trkpt lat="42.29782" lon="2.5274">
        <ele>513</ele>
        <time>2015-01-17T10:40:22Z</time>
      </trkpt>
      <trkpt lat="42.29776" lon="2.52745">
        <ele>513</ele>
        <time>2015-01-17T10:41:02Z</time>
      </trkpt>
      <trkpt lat="42.29772" lon="2.5275">
        <ele>513</ele>
        <time>2015-01-17T10:41:07Z</time>
      </trkpt>
      <trkpt lat="42.29767" lon="2.52755">
        <ele>513</ele>
        <time>2015-01-17T10:41:12Z</time>
      </trkpt>
      <trkpt lat="42.29762" lon="2.52759">
        <ele>512</ele>
        <time>2015-01-17T10:41:19Z</time>
      </trkpt>
      <trkpt lat="42.29757" lon="2.52765">
        <ele>514</ele>
        <time>2015-01-17T10:41:30Z</time>
      </trkpt>
      <trkpt lat="42.2975" lon="2.52768">
        <ele>514</ele>
        <time>2015-01-17T10:41:36Z</time>
      </trkpt>
      <trkpt lat="42.29745" lon="2.52768">
        <ele>514.5</ele>
        <time>2015-01-17T10:41:40Z</time>
      </trkpt>
      <trkpt lat="42.29742" lon="2.52761">
        <ele>516</ele>
        <time>2015-01-17T10:41:44Z</time>
      </trkpt>
      <trkpt lat="42.29743" lon="2.52751">
        <ele>516.5</ele>
        <time>2015-01-17T10:41:50Z</time>
      </trkpt>
      <trkpt lat="42.29742" lon="2.5274">
        <ele>519</ele>
        <time>2015-01-17T10:41:57Z</time>
      </trkpt>
      <trkpt lat="42.2974" lon="2.52732">
        <ele>520</ele>
        <time>2015-01-17T10:42:03Z</time>
      </trkpt>
      <trkpt lat="42.29739" lon="2.52723">
        <ele>520</ele>
        <time>2015-01-17T10:42:09Z</time>
      </trkpt>
      <trkpt lat="42.29739" lon="2.52715">
        <ele>521</ele>
        <time>2015-01-17T10:42:15Z</time>
      </trkpt>
      <trkpt lat="42.29738" lon="2.52706">
        <ele>521.5</ele>
        <time>2015-01-17T10:42:20Z</time>
      </trkpt>
      <trkpt lat="42.29736" lon="2.52696">
        <ele>523</ele>
        <time>2015-01-17T10:42:26Z</time>
      </trkpt>
      <trkpt lat="42.29734" lon="2.52686">
        <ele>525</ele>
        <time>2015-01-17T10:42:32Z</time>
      </trkpt>
      <trkpt lat="42.29733" lon="2.52674">
        <ele>526.5</ele>
        <time>2015-01-17T10:42:40Z</time>
      </trkpt>
      <trkpt lat="42.29732" lon="2.5266">
        <ele>527</ele>
        <time>2015-01-17T10:42:49Z</time>
      </trkpt>
      <trkpt lat="42.29733" lon="2.52647">
        <ele>528</ele>
        <time>2015-01-17T10:42:57Z</time>
      </trkpt>
      <trkpt lat="42.29736" lon="2.52636">
        <ele>530</ele>
        <time>2015-01-17T10:43:03Z</time>
      </trkpt>
      <trkpt lat="42.29738" lon="2.52625">
        <ele>530</ele>
        <time>2015-01-17T10:43:08Z</time>
      </trkpt>
      <trkpt lat="42.29739" lon="2.52612">
        <ele>530</ele>
        <time>2015-01-17T10:43:15Z</time>
      </trkpt>
      <trkpt lat="42.29743" lon="2.52601">
        <ele>531</ele>
        <time>2015-01-17T10:43:21Z</time>
      </trkpt>
      <trkpt lat="42.29746" lon="2.52589">
        <ele>531</ele>
        <time>2015-01-17T10:43:28Z</time>
      </trkpt>
      <trkpt lat="42.29749" lon="2.52578">
        <ele>533</ele>
        <time>2015-01-17T10:43:35Z</time>
      </trkpt>
      <trkpt lat="42.29752" lon="2.52566">
        <ele>535</ele>
        <time>2015-01-17T10:43:42Z</time>
      </trkpt>
      <trkpt lat="42.29755" lon="2.52556">
        <ele>535</ele>
        <time>2015-01-17T10:43:48Z</time>
      </trkpt>
      <trkpt lat="42.29758" lon="2.52543">
        <ele>536</ele>
        <time>2015-01-17T10:43:54Z</time>
      </trkpt>
      <trkpt lat="42.29761" lon="2.52532">
        <ele>536</ele>
        <time>2015-01-17T10:43:59Z</time>
      </trkpt>
      <trkpt lat="42.29765" lon="2.52521">
        <ele>537</ele>
        <time>2015-01-17T10:44:05Z</time>
      </trkpt>
      <trkpt lat="42.29767" lon="2.52509">
        <ele>537</ele>
        <time>2015-01-17T10:44:12Z</time>
      </trkpt>
      <trkpt lat="42.29769" lon="2.52496">
        <ele>537</ele>
        <time>2015-01-17T10:44:19Z</time>
      </trkpt>
      <trkpt lat="42.29769" lon="2.52483">
        <ele>539</ele>
        <time>2015-01-17T10:44:26Z</time>
      </trkpt>
      <trkpt lat="42.29768" lon="2.52473">
        <ele>541</ele>
        <time>2015-01-17T10:44:32Z</time>
      </trkpt>
      <trkpt lat="42.29767" lon="2.52462">
        <ele>541.6</ele>
        <time>2015-01-17T10:44:40Z</time>
      </trkpt>
      <trkpt lat="42.29767" lon="2.52451">
        <ele>545</ele>
        <time>2015-01-17T10:44:47Z</time>
      </trkpt>
      <trkpt lat="42.29768" lon="2.52439">
        <ele>546.3</ele>
        <time>2015-01-17T10:44:55Z</time>
      </trkpt>
      <trkpt lat="42.29766" lon="2.5243">
        <ele>548</ele>
        <time>2015-01-17T10:45:03Z</time>
      </trkpt>
      <trkpt lat="42.29759" lon="2.52434">
        <ele>550</ele>
        <time>2015-01-17T10:45:11Z</time>
      </trkpt>
      <trkpt lat="42.29751" lon="2.52441">
        <ele>550</ele>
        <time>2015-01-17T10:45:18Z</time>
      </trkpt>
      <trkpt lat="42.29746" lon="2.52448">
        <ele>552</ele>
        <time>2015-01-17T10:45:24Z</time>
      </trkpt>
      <trkpt lat="42.2974" lon="2.52454">
        <ele>552</ele>
        <time>2015-01-17T10:45:30Z</time>
      </trkpt>
      <trkpt lat="42.29733" lon="2.5246">
        <ele>553</ele>
        <time>2015-01-17T10:45:36Z</time>
      </trkpt>
      <trkpt lat="42.29727" lon="2.52466">
        <ele>556</ele>
        <time>2015-01-17T10:45:43Z</time>
      </trkpt>
      <trkpt lat="42.29721" lon="2.52474">
        <ele>557</ele>
        <time>2015-01-17T10:45:51Z</time>
      </trkpt>
      <trkpt lat="42.29715" lon="2.5248">
        <ele>557</ele>
        <time>2015-01-17T10:45:58Z</time>
      </trkpt>
      <trkpt lat="42.29707" lon="2.52483">
        <ele>559</ele>
        <time>2015-01-17T10:46:07Z</time>
      </trkpt>
      <trkpt lat="42.29701" lon="2.5249">
        <ele>562.3</ele>
        <time>2015-01-17T10:46:15Z</time>
      </trkpt>
      <trkpt lat="42.29694" lon="2.52494">
        <ele>565</ele>
        <time>2015-01-17T10:46:22Z</time>
      </trkpt>
      <trkpt lat="42.29689" lon="2.52485">
        <ele>566.3</ele>
        <time>2015-01-17T10:46:30Z</time>
      </trkpt>
      <trkpt lat="42.29689" lon="2.52475">
        <ele>567</ele>
        <time>2015-01-17T10:46:37Z</time>
      </trkpt>
      <trkpt lat="42.2969" lon="2.52461">
        <ele>567</ele>
        <time>2015-01-17T10:46:46Z</time>
      </trkpt>
      <trkpt lat="42.29693" lon="2.52448">
        <ele>569</ele>
        <time>2015-01-17T10:46:54Z</time>
      </trkpt>
      <trkpt lat="42.29693" lon="2.52436">
        <ele>570.1</ele>
        <time>2015-01-17T10:47:00Z</time>
      </trkpt>
      <trkpt lat="42.29695" lon="2.52423">
        <ele>573</ele>
        <time>2015-01-17T10:47:07Z</time>
      </trkpt>
      <trkpt lat="42.29694" lon="2.52413">
        <ele>573</ele>
        <time>2015-01-17T10:47:14Z</time>
      </trkpt>
      <trkpt lat="42.29687" lon="2.52421">
        <ele>575</ele>
        <time>2015-01-17T10:47:24Z</time>
      </trkpt>
      <trkpt lat="42.29683" lon="2.52432">
        <ele>577</ele>
        <time>2015-01-17T10:47:32Z</time>
      </trkpt>
      <trkpt lat="42.29678" lon="2.52443">
        <ele>577</ele>
        <time>2015-01-17T10:47:39Z</time>
      </trkpt>
      <trkpt lat="42.29674" lon="2.52454">
        <ele>579</ele>
        <time>2015-01-17T10:47:45Z</time>
      </trkpt>
      <trkpt lat="42.29666" lon="2.52457">
        <ele>578</ele>
        <time>2015-01-17T10:47:52Z</time>
      </trkpt>
      <trkpt lat="42.29667" lon="2.52445">
        <ele>578.8</ele>
        <time>2015-01-17T10:48:00Z</time>
      </trkpt>
      <trkpt lat="42.2967" lon="2.52433">
        <ele>582</ele>
        <time>2015-01-17T10:48:08Z</time>
      </trkpt>
      <trkpt lat="42.29673" lon="2.52421">
        <ele>582</ele>
        <time>2015-01-17T10:48:14Z</time>
      </trkpt>
      <trkpt lat="42.29672" lon="2.52409">
        <ele>583</ele>
        <time>2015-01-17T10:48:21Z</time>
      </trkpt>
      <trkpt lat="42.29665" lon="2.52415">
        <ele>583.5</ele>
        <time>2015-01-17T10:48:30Z</time>
      </trkpt>
      <trkpt lat="42.2966" lon="2.52422">
        <ele>587</ele>
        <time>2015-01-17T10:48:36Z</time>
      </trkpt>
      <trkpt lat="42.29654" lon="2.5243">
        <ele>587</ele>
        <time>2015-01-17T10:48:43Z</time>
      </trkpt>
      <trkpt lat="42.29648" lon="2.52437">
        <ele>590</ele>
        <time>2015-01-17T10:48:51Z</time>
      </trkpt>
      <trkpt lat="42.29644" lon="2.52426">
        <ele>592</ele>
        <time>2015-01-17T10:49:02Z</time>
      </trkpt>
      <trkpt lat="42.29647" lon="2.52413">
        <ele>593.3</ele>
        <time>2015-01-17T10:49:10Z</time>
      </trkpt>
      <trkpt lat="42.29649" lon="2.52401">
        <ele>594</ele>
        <time>2015-01-17T10:49:17Z</time>
      </trkpt>
      <trkpt lat="42.29652" lon="2.52389">
        <ele>595</ele>
        <time>2015-01-17T10:49:24Z</time>
      </trkpt>
      <trkpt lat="42.29653" lon="2.52379">
        <ele>595.3</ele>
        <time>2015-01-17T10:49:30Z</time>
      </trkpt>
      <trkpt lat="42.29652" lon="2.52369">
        <ele>596</ele>
        <time>2015-01-17T10:49:36Z</time>
      </trkpt>
      <trkpt lat="42.29651" lon="2.52357">
        <ele>597</ele>
        <time>2015-01-17T10:49:45Z</time>
      </trkpt>
      <trkpt lat="42.2965" lon="2.52344">
        <ele>601</ele>
        <time>2015-01-17T10:49:53Z</time>
      </trkpt>
      <trkpt lat="42.2965" lon="2.52333">
        <ele>604</ele>
        <time>2015-01-17T10:50:01Z</time>
      </trkpt>
      <trkpt lat="42.29652" lon="2.52318">
        <ele>606</ele>
        <time>2015-01-17T10:50:10Z</time>
      </trkpt>
      <trkpt lat="42.29655" lon="2.52307">
        <ele>606</ele>
        <time>2015-01-17T10:50:17Z</time>
      </trkpt>
      <trkpt lat="42.2966" lon="2.52297">
        <ele>608</ele>
        <time>2015-01-17T10:50:24Z</time>
      </trkpt>
      <trkpt lat="42.29664" lon="2.52286">
        <ele>611</ele>
        <time>2015-01-17T10:50:31Z</time>
      </trkpt>
      <trkpt lat="42.2967" lon="2.52275">
        <ele>611.3</ele>
        <time>2015-01-17T10:50:40Z</time>
      </trkpt>
      <trkpt lat="42.29677" lon="2.52263">
        <ele>612</ele>
        <time>2015-01-17T10:50:48Z</time>
      </trkpt>
      <trkpt lat="42.29682" lon="2.52252">
        <ele>614</ele>
        <time>2015-01-17T10:50:55Z</time>
      </trkpt>
      <trkpt lat="42.29686" lon="2.52242">
        <ele>615</ele>
        <time>2015-01-17T10:51:01Z</time>
      </trkpt>
      <trkpt lat="42.2969" lon="2.5223">
        <ele>615</ele>
        <time>2015-01-17T10:51:08Z</time>
      </trkpt>
      <trkpt lat="42.29694" lon="2.5222">
        <ele>617</ele>
        <time>2015-01-17T10:51:15Z</time>
      </trkpt>
      <trkpt lat="42.29698" lon="2.52209">
        <ele>619</ele>
        <time>2015-01-17T10:51:23Z</time>
      </trkpt>
      <trkpt lat="42.29703" lon="2.52197">
        <ele>620</ele>
        <time>2015-01-17T10:51:31Z</time>
      </trkpt>
      <trkpt lat="42.29708" lon="2.52185">
        <ele>620</ele>
        <time>2015-01-17T10:51:39Z</time>
      </trkpt>
      <trkpt lat="42.29713" lon="2.52175">
        <ele>622</ele>
        <time>2015-01-17T10:51:46Z</time>
      </trkpt>
      <trkpt lat="42.29719" lon="2.52162">
        <ele>624</ele>
        <time>2015-01-17T10:51:55Z</time>
      </trkpt>
      <trkpt lat="42.29723" lon="2.5215">
        <ele>626</ele>
        <time>2015-01-17T10:52:03Z</time>
      </trkpt>
      <trkpt lat="42.29726" lon="2.52138">
        <ele>628</ele>
        <time>2015-01-17T10:52:12Z</time>
      </trkpt>
      <trkpt lat="42.2973" lon="2.52124">
        <ele>629.3</ele>
        <time>2015-01-17T10:52:20Z</time>
      </trkpt>
      <trkpt lat="42.29734" lon="2.52112">
        <ele>630</ele>
        <time>2015-01-17T10:52:29Z</time>
      </trkpt>
      <trkpt lat="42.29739" lon="2.521">
        <ele>632</ele>
        <time>2015-01-17T10:52:38Z</time>
      </trkpt>
      <trkpt lat="42.29744" lon="2.52087">
        <ele>637</ele>
        <time>2015-01-17T10:52:46Z</time>
      </trkpt>
      <trkpt lat="42.29749" lon="2.52074">
        <ele>637</ele>
        <time>2015-01-17T10:52:55Z</time>
      </trkpt>
      <trkpt lat="42.29759" lon="2.52068">
        <ele>640</ele>
        <time>2015-01-17T10:53:03Z</time>
      </trkpt>
      <trkpt lat="42.29769" lon="2.5206">
        <ele>643</ele>
        <time>2015-01-17T10:53:11Z</time>
      </trkpt>
      <trkpt lat="42.29777" lon="2.52051">
        <ele>643</ele>
        <time>2015-01-17T10:53:20Z</time>
      </trkpt>
      <trkpt lat="42.29781" lon="2.5204">
        <ele>643</ele>
        <time>2015-01-17T10:53:27Z</time>
      </trkpt>
      <trkpt lat="42.29786" lon="2.52026">
        <ele>644</ele>
        <time>2015-01-17T10:53:35Z</time>
      </trkpt>
      <trkpt lat="42.2979" lon="2.52013">
        <ele>644</ele>
        <time>2015-01-17T10:53:42Z</time>
      </trkpt>
      <trkpt lat="42.29792" lon="2.52">
        <ele>644</ele>
        <time>2015-01-17T10:53:49Z</time>
      </trkpt>
      <trkpt lat="42.29792" lon="2.51986">
        <ele>646</ele>
        <time>2015-01-17T10:53:57Z</time>
      </trkpt>
      <trkpt lat="42.29795" lon="2.51973">
        <ele>647</ele>
        <time>2015-01-17T10:54:05Z</time>
      </trkpt>
      <trkpt lat="42.29801" lon="2.51964">
        <ele>649</ele>
        <time>2015-01-17T10:54:11Z</time>
      </trkpt>
      <trkpt lat="42.29806" lon="2.51953">
        <ele>649</ele>
        <time>2015-01-17T10:54:17Z</time>
      </trkpt>
      <trkpt lat="42.29812" lon="2.51942">
        <ele>650</ele>
        <time>2015-01-17T10:54:24Z</time>
      </trkpt>
      <trkpt lat="42.29819" lon="2.51933">
        <ele>651</ele>
        <time>2015-01-17T10:54:31Z</time>
      </trkpt>
      <trkpt lat="42.29824" lon="2.51921">
        <ele>651</ele>
        <time>2015-01-17T10:54:38Z</time>
      </trkpt>
      <trkpt lat="42.29829" lon="2.51909">
        <ele>651</ele>
        <time>2015-01-17T10:54:44Z</time>
      </trkpt>
      <trkpt lat="42.29834" lon="2.51896">
        <ele>651</ele>
        <time>2015-01-17T10:54:52Z</time>
      </trkpt>
      <trkpt lat="42.29838" lon="2.51883">
        <ele>651</ele>
        <time>2015-01-17T10:54:59Z</time>
      </trkpt>
      <trkpt lat="42.29843" lon="2.5187">
        <ele>652</ele>
        <time>2015-01-17T10:55:06Z</time>
      </trkpt>
      <trkpt lat="42.29847" lon="2.51856">
        <ele>652</ele>
        <time>2015-01-17T10:55:14Z</time>
      </trkpt>
      <trkpt lat="42.29854" lon="2.51845">
        <ele>652</ele>
        <time>2015-01-17T10:55:21Z</time>
      </trkpt>
      <trkpt lat="42.29858" lon="2.51832">
        <ele>652</ele>
        <time>2015-01-17T10:55:29Z</time>
      </trkpt>
      <trkpt lat="42.29864" lon="2.51822">
        <ele>653</ele>
        <time>2015-01-17T10:55:37Z</time>
      </trkpt>
      <trkpt lat="42.2987" lon="2.51811">
        <ele>655</ele>
        <time>2015-01-17T10:55:45Z</time>
      </trkpt>
      <trkpt lat="42.29877" lon="2.51801">
        <ele>657</ele>
        <time>2015-01-17T10:55:53Z</time>
      </trkpt>
      <trkpt lat="42.2988" lon="2.51788">
        <ele>659</ele>
        <time>2015-01-17T10:56:02Z</time>
      </trkpt>
      <trkpt lat="42.29888" lon="2.51779">
        <ele>661</ele>
        <time>2015-01-17T10:56:11Z</time>
      </trkpt>
      <trkpt lat="42.29895" lon="2.5177">
        <ele>661</ele>
        <time>2015-01-17T10:56:17Z</time>
      </trkpt>
      <trkpt lat="42.29902" lon="2.51759">
        <ele>661</ele>
        <time>2015-01-17T10:56:24Z</time>
      </trkpt>
      <trkpt lat="42.29905" lon="2.51746">
        <ele>661</ele>
        <time>2015-01-17T10:56:31Z</time>
      </trkpt>
      <trkpt lat="42.2991" lon="2.51733">
        <ele>661</ele>
        <time>2015-01-17T10:56:39Z</time>
      </trkpt>
      <trkpt lat="42.2992" lon="2.5173">
        <ele>661</ele>
        <time>2015-01-17T10:56:47Z</time>
      </trkpt>
      <trkpt lat="42.29929" lon="2.51738">
        <ele>660</ele>
        <time>2015-01-17T10:56:55Z</time>
      </trkpt>
      <trkpt lat="42.29939" lon="2.51742">
        <ele>658</ele>
        <time>2015-01-17T10:57:03Z</time>
      </trkpt>
      <trkpt lat="42.2995" lon="2.51743">
        <ele>658</ele>
        <time>2015-01-17T10:57:10Z</time>
      </trkpt>
      <trkpt lat="42.29959" lon="2.51746">
        <ele>658</ele>
        <time>2015-01-17T10:57:16Z</time>
      </trkpt>
      <trkpt lat="42.29969" lon="2.51748">
        <ele>658</ele>
        <time>2015-01-17T10:57:22Z</time>
      </trkpt>
      <trkpt lat="42.29979" lon="2.51752">
        <ele>658</ele>
        <time>2015-01-17T10:57:28Z</time>
      </trkpt>
      <trkpt lat="42.29989" lon="2.51758">
        <ele>658</ele>
        <time>2015-01-17T10:57:36Z</time>
      </trkpt>
      <trkpt lat="42.29998" lon="2.51766">
        <ele>659</ele>
        <time>2015-01-17T10:57:43Z</time>
      </trkpt>
      <trkpt lat="42.30007" lon="2.51774">
        <ele>660</ele>
        <time>2015-01-17T10:57:51Z</time>
      </trkpt>
      <trkpt lat="42.30014" lon="2.51784">
        <ele>660</ele>
        <time>2015-01-17T10:57:58Z</time>
      </trkpt>
      <trkpt lat="42.30022" lon="2.51795">
        <ele>661</ele>
        <time>2015-01-17T10:58:06Z</time>
      </trkpt>
      <trkpt lat="42.3003" lon="2.51804">
        <ele>661</ele>
        <time>2015-01-17T10:58:12Z</time>
      </trkpt>
      <trkpt lat="42.30038" lon="2.51813">
        <ele>661</ele>
        <time>2015-01-17T10:58:19Z</time>
      </trkpt>
      <trkpt lat="42.30046" lon="2.51818">
        <ele>665</ele>
        <time>2015-01-17T10:58:31Z</time>
      </trkpt>
      <trkpt lat="42.30041" lon="2.51808">
        <ele>666</ele>
        <time>2015-01-17T11:02:01Z</time>
      </trkpt>
      <trkpt lat="42.30035" lon="2.518">
        <ele>666</ele>
        <time>2015-01-17T11:02:09Z</time>
      </trkpt>
      <trkpt lat="42.30031" lon="2.51789">
        <ele>668</ele>
        <time>2015-01-17T11:02:16Z</time>
      </trkpt>
      <trkpt lat="42.30026" lon="2.51778">
        <ele>669</ele>
        <time>2015-01-17T11:02:22Z</time>
      </trkpt>
      <trkpt lat="42.30021" lon="2.51769">
        <ele>669.4</ele>
        <time>2015-01-17T11:02:30Z</time>
      </trkpt>
      <trkpt lat="42.30016" lon="2.51759">
        <ele>670</ele>
        <time>2015-01-17T11:02:37Z</time>
      </trkpt>
      <trkpt lat="42.30011" lon="2.51749">
        <ele>672</ele>
        <time>2015-01-17T11:02:43Z</time>
      </trkpt>
      <trkpt lat="42.30005" lon="2.51741">
        <ele>672</ele>
        <time>2015-01-17T11:02:48Z</time>
      </trkpt>
      <trkpt lat="42.29999" lon="2.51734">
        <ele>672</ele>
        <time>2015-01-17T11:02:53Z</time>
      </trkpt>
      <trkpt lat="42.29995" lon="2.51726">
        <ele>672</ele>
        <time>2015-01-17T11:02:58Z</time>
      </trkpt>
      <trkpt lat="42.2999" lon="2.51719">
        <ele>672</ele>
        <time>2015-01-17T11:03:03Z</time>
      </trkpt>
      <trkpt lat="42.29982" lon="2.51715">
        <ele>672</ele>
        <time>2015-01-17T11:03:09Z</time>
      </trkpt>
      <trkpt lat="42.29972" lon="2.51712">
        <ele>671</ele>
        <time>2015-01-17T11:03:16Z</time>
      </trkpt>
      <trkpt lat="42.29963" lon="2.5171">
        <ele>670</ele>
        <time>2015-01-17T11:03:22Z</time>
      </trkpt>
      <trkpt lat="42.29954" lon="2.51706">
        <ele>670</ele>
        <time>2015-01-17T11:03:27Z</time>
      </trkpt>
      <trkpt lat="42.29945" lon="2.51706">
        <ele>670</ele>
        <time>2015-01-17T11:03:33Z</time>
      </trkpt>
      <trkpt lat="42.29936" lon="2.51705">
        <ele>670</ele>
        <time>2015-01-17T11:03:39Z</time>
      </trkpt>
      <trkpt lat="42.29927" lon="2.51704">
        <ele>671</ele>
        <time>2015-01-17T11:03:45Z</time>
      </trkpt>
      <trkpt lat="42.29919" lon="2.51696">
        <ele>672</ele>
        <time>2015-01-17T11:03:55Z</time>
      </trkpt>
      <trkpt lat="42.29922" lon="2.51686">
        <ele>674</ele>
        <time>2015-01-17T11:04:03Z</time>
      </trkpt>
      <trkpt lat="42.29931" lon="2.51682">
        <ele>677</ele>
        <time>2015-01-17T11:04:11Z</time>
      </trkpt>
      <trkpt lat="42.2994" lon="2.51681">
        <ele>677</ele>
        <time>2015-01-17T11:04:18Z</time>
      </trkpt>
      <trkpt lat="42.29951" lon="2.51679">
        <ele>677</ele>
        <time>2015-01-17T11:04:26Z</time>
      </trkpt>
      <trkpt lat="42.2996" lon="2.51675">
        <ele>678</ele>
        <time>2015-01-17T11:04:36Z</time>
      </trkpt>
      <trkpt lat="42.2997" lon="2.51671">
        <ele>681.5</ele>
        <time>2015-01-17T11:04:45Z</time>
      </trkpt>
      <trkpt lat="42.29962" lon="2.51662">
        <ele>685</ele>
        <time>2015-01-17T11:05:02Z</time>
      </trkpt>
      <trkpt lat="42.29952" lon="2.51657">
        <ele>685.5</ele>
        <time>2015-01-17T11:05:10Z</time>
      </trkpt>
      <trkpt lat="42.29941" lon="2.51657">
        <ele>687</ele>
        <time>2015-01-17T11:05:17Z</time>
      </trkpt>
      <trkpt lat="42.29933" lon="2.51654">
        <ele>687</ele>
        <time>2015-01-17T11:05:23Z</time>
      </trkpt>
      <trkpt lat="42.29941" lon="2.51646">
        <ele>688</ele>
        <time>2015-01-17T11:05:33Z</time>
      </trkpt>
      <trkpt lat="42.29951" lon="2.51643">
        <ele>690</ele>
        <time>2015-01-17T11:05:42Z</time>
      </trkpt>
      <trkpt lat="42.29962" lon="2.51644">
        <ele>693</ele>
        <time>2015-01-17T11:05:51Z</time>
      </trkpt>
      <trkpt lat="42.29972" lon="2.51648">
        <ele>692</ele>
        <time>2015-01-17T11:05:58Z</time>
      </trkpt>
      <trkpt lat="42.29983" lon="2.51652">
        <ele>692</ele>
        <time>2015-01-17T11:06:07Z</time>
      </trkpt>
      <trkpt lat="42.29994" lon="2.51655">
        <ele>694</ele>
        <time>2015-01-17T11:06:15Z</time>
      </trkpt>
      <trkpt lat="42.30005" lon="2.51657">
        <ele>695</ele>
        <time>2015-01-17T11:06:24Z</time>
      </trkpt>
      <trkpt lat="42.30004" lon="2.51642">
        <ele>699</ele>
        <time>2015-01-17T11:06:41Z</time>
      </trkpt>
      <trkpt lat="42.29996" lon="2.51634">
        <ele>702</ele>
        <time>2015-01-17T11:06:51Z</time>
      </trkpt>
      <trkpt lat="42.29989" lon="2.51624">
        <ele>702.3</ele>
        <time>2015-01-17T11:07:00Z</time>
      </trkpt>
      <trkpt lat="42.29982" lon="2.51613">
        <ele>703.5</ele>
        <time>2015-01-17T11:07:10Z</time>
      </trkpt>
      <trkpt lat="42.29974" lon="2.51605">
        <ele>708</ele>
        <time>2015-01-17T11:07:23Z</time>
      </trkpt>
      <trkpt lat="42.29968" lon="2.51593">
        <ele>710</ele>
        <time>2015-01-17T11:07:32Z</time>
      </trkpt>
      <trkpt lat="42.2996" lon="2.51586">
        <ele>712</ele>
        <time>2015-01-17T11:07:42Z</time>
      </trkpt>
      <trkpt lat="42.29951" lon="2.51579">
        <ele>714</ele>
        <time>2015-01-17T11:07:51Z</time>
      </trkpt>
      <trkpt lat="42.29944" lon="2.51571">
        <ele>714.3</ele>
        <time>2015-01-17T11:08:00Z</time>
      </trkpt>
      <trkpt lat="42.29939" lon="2.51561">
        <ele>715.8</ele>
        <time>2015-01-17T11:08:10Z</time>
      </trkpt>
      <trkpt lat="42.29932" lon="2.51553">
        <ele>719.5</ele>
        <time>2015-01-17T11:08:20Z</time>
      </trkpt>
      <trkpt lat="42.29924" lon="2.51549">
        <ele>721</ele>
        <time>2015-01-17T11:08:27Z</time>
      </trkpt>
      <trkpt lat="42.29916" lon="2.51542">
        <ele>722</ele>
        <time>2015-01-17T11:08:37Z</time>
      </trkpt>
      <trkpt lat="42.29906" lon="2.51539">
        <ele>724</ele>
        <time>2015-01-17T11:08:45Z</time>
      </trkpt>
      <trkpt lat="42.29897" lon="2.51536">
        <ele>726</ele>
        <time>2015-01-17T11:08:53Z</time>
      </trkpt>
      <trkpt lat="42.29887" lon="2.51539">
        <ele>726.3</ele>
        <time>2015-01-17T11:09:00Z</time>
      </trkpt>
      <trkpt lat="42.2988" lon="2.51535">
        <ele>729</ele>
        <time>2015-01-17T11:09:11Z</time>
      </trkpt>
      <trkpt lat="42.29883" lon="2.51525">
        <ele>728</ele>
        <time>2015-01-17T11:10:04Z</time>
      </trkpt>
      <trkpt lat="42.2989" lon="2.51516">
        <ele>730</ele>
        <time>2015-01-17T11:10:19Z</time>
      </trkpt>
      <trkpt lat="42.29901" lon="2.51511">
        <ele>736</ele>
        <time>2015-01-17T11:10:31Z</time>
      </trkpt>
      <trkpt lat="42.29908" lon="2.51508">
        <ele>737</ele>
        <time>2015-01-17T11:10:38Z</time>
      </trkpt>
      <trkpt lat="42.29912" lon="2.51498">
        <ele>739</ele>
        <time>2015-01-17T11:10:47Z</time>
      </trkpt>
      <trkpt lat="42.29905" lon="2.51494">
        <ele>741</ele>
        <time>2015-01-17T11:10:55Z</time>
      </trkpt>
      <trkpt lat="42.29899" lon="2.51489">
        <ele>743</ele>
        <time>2015-01-17T11:11:04Z</time>
      </trkpt>
      <trkpt lat="42.29907" lon="2.51482">
        <ele>744</ele>
        <time>2015-01-17T11:11:17Z</time>
      </trkpt>
      <trkpt lat="42.29908" lon="2.51471">
        <ele>749.3</ele>
        <time>2015-01-17T11:11:30Z</time>
      </trkpt>
      <trkpt lat="42.29902" lon="2.51466">
        <ele>751</ele>
        <time>2015-01-17T11:11:38Z</time>
      </trkpt>
      <trkpt lat="42.29895" lon="2.51459">
        <ele>752</ele>
        <time>2015-01-17T11:11:48Z</time>
      </trkpt>
      <trkpt lat="42.29886" lon="2.51452">
        <ele>756</ele>
        <time>2015-01-17T11:12:02Z</time>
      </trkpt>
      <trkpt lat="42.29879" lon="2.51444">
        <ele>759</ele>
        <time>2015-01-17T11:12:14Z</time>
      </trkpt>
      <trkpt lat="42.29871" lon="2.51435">
        <ele>762</ele>
        <time>2015-01-17T11:12:27Z</time>
      </trkpt>
      <trkpt lat="42.29864" lon="2.51423">
        <ele>768</ele>
        <time>2015-01-17T11:12:43Z</time>
      </trkpt>
      <trkpt lat="42.29859" lon="2.51415">
        <ele>771</ele>
        <time>2015-01-17T11:12:55Z</time>
      </trkpt>
      <trkpt lat="42.29857" lon="2.51404">
        <ele>773</ele>
        <time>2015-01-17T11:13:08Z</time>
      </trkpt>
      <trkpt lat="42.29863" lon="2.51397">
        <ele>777</ele>
        <time>2015-01-17T11:13:21Z</time>
      </trkpt>
      <trkpt lat="42.29869" lon="2.51388">
        <ele>780</ele>
        <time>2015-01-17T11:13:31Z</time>
      </trkpt>
      <trkpt lat="42.29866" lon="2.51375">
        <ele>782</ele>
        <time>2015-01-17T11:13:41Z</time>
      </trkpt>
      <trkpt lat="42.29862" lon="2.51367">
        <ele>781</ele>
        <time>2015-01-17T11:13:48Z</time>
      </trkpt>
      <trkpt lat="42.29856" lon="2.51361">
        <ele>783</ele>
        <time>2015-01-17T11:13:55Z</time>
      </trkpt>
      <trkpt lat="42.29851" lon="2.51354">
        <ele>786</ele>
        <time>2015-01-17T11:14:02Z</time>
      </trkpt>
      <trkpt lat="42.29846" lon="2.51347">
        <ele>786</ele>
        <time>2015-01-17T11:14:07Z</time>
      </trkpt>
      <trkpt lat="42.29845" lon="2.51339">
        <ele>788</ele>
        <time>2015-01-17T11:14:12Z</time>
      </trkpt>
      <trkpt lat="42.29847" lon="2.5133">
        <ele>787</ele>
        <time>2015-01-17T11:14:17Z</time>
      </trkpt>
      <trkpt lat="42.29848" lon="2.5132">
        <ele>787</ele>
        <time>2015-01-17T11:14:23Z</time>
      </trkpt>
      <trkpt lat="42.29844" lon="2.5131">
        <ele>787</ele>
        <time>2015-01-17T11:14:29Z</time>
      </trkpt>
      <trkpt lat="42.2984" lon="2.51301">
        <ele>788</ele>
        <time>2015-01-17T11:14:34Z</time>
      </trkpt>
      <trkpt lat="42.29834" lon="2.51297">
        <ele>789</ele>
        <time>2015-01-17T11:14:54Z</time>
      </trkpt>
      <trkpt lat="42.29834" lon="2.51287">
        <ele>788</ele>
        <time>2015-01-17T11:15:02Z</time>
      </trkpt>
      <trkpt lat="42.29834" lon="2.51279">
        <ele>788</ele>
        <time>2015-01-17T11:15:07Z</time>
      </trkpt>
      <trkpt lat="42.29833" lon="2.51269">
        <ele>789</ele>
        <time>2015-01-17T11:15:12Z</time>
      </trkpt>
      <trkpt lat="42.29829" lon="2.5126">
        <ele>789</ele>
        <time>2015-01-17T11:15:17Z</time>
      </trkpt>
      <trkpt lat="42.29823" lon="2.51253">
        <ele>789</ele>
        <time>2015-01-17T11:15:22Z</time>
      </trkpt>
      <trkpt lat="42.29817" lon="2.51245">
        <ele>789</ele>
        <time>2015-01-17T11:15:28Z</time>
      </trkpt>
      <trkpt lat="42.29811" lon="2.51238">
        <ele>789</ele>
        <time>2015-01-17T11:15:35Z</time>
      </trkpt>
      <trkpt lat="42.29804" lon="2.51229">
        <ele>790</ele>
        <time>2015-01-17T11:15:44Z</time>
      </trkpt>
      <trkpt lat="42.29799" lon="2.51222">
        <ele>790.4</ele>
        <time>2015-01-17T11:15:50Z</time>
      </trkpt>
      <trkpt lat="42.2979" lon="2.51213">
        <ele>791</ele>
        <time>2015-01-17T11:15:58Z</time>
      </trkpt>
      <trkpt lat="42.29782" lon="2.51203">
        <ele>792</ele>
        <time>2015-01-17T11:16:07Z</time>
      </trkpt>
      <trkpt lat="42.29773" lon="2.51195">
        <ele>794</ele>
        <time>2015-01-17T11:16:14Z</time>
      </trkpt>
      <trkpt lat="42.29765" lon="2.51186">
        <ele>794</ele>
        <time>2015-01-17T11:16:22Z</time>
      </trkpt>
      <trkpt lat="42.29755" lon="2.51179">
        <ele>794</ele>
        <time>2015-01-17T11:16:30Z</time>
      </trkpt>
      <trkpt lat="42.29746" lon="2.51174">
        <ele>794</ele>
        <time>2015-01-17T11:16:38Z</time>
      </trkpt>
      <trkpt lat="42.29737" lon="2.51167">
        <ele>795</ele>
        <time>2015-01-17T11:16:47Z</time>
      </trkpt>
      <trkpt lat="42.29727" lon="2.51163">
        <ele>796</ele>
        <time>2015-01-17T11:16:57Z</time>
      </trkpt>
      <trkpt lat="42.29717" lon="2.51161">
        <ele>798</ele>
        <time>2015-01-17T11:17:07Z</time>
      </trkpt>
      <trkpt lat="42.29708" lon="2.51154">
        <ele>800</ele>
        <time>2015-01-17T11:17:18Z</time>
      </trkpt>
      <trkpt lat="42.29697" lon="2.51147">
        <ele>801</ele>
        <time>2015-01-17T11:17:28Z</time>
      </trkpt>
      <trkpt lat="42.29688" lon="2.5114">
        <ele>802</ele>
        <time>2015-01-17T11:17:38Z</time>
      </trkpt>
      <trkpt lat="42.29679" lon="2.51133">
        <ele>804</ele>
        <time>2015-01-17T11:17:49Z</time>
      </trkpt>
      <trkpt lat="42.29672" lon="2.51124">
        <ele>806.7</ele>
        <time>2015-01-17T11:18:00Z</time>
      </trkpt>
      <trkpt lat="42.29664" lon="2.51117">
        <ele>808</ele>
        <time>2015-01-17T11:18:09Z</time>
      </trkpt>
      <trkpt lat="42.29654" lon="2.51109">
        <ele>811</ele>
        <time>2015-01-17T11:18:21Z</time>
      </trkpt>
      <trkpt lat="42.29645" lon="2.51099">
        <ele>814</ele>
        <time>2015-01-17T11:18:34Z</time>
      </trkpt>
      <trkpt lat="42.29636" lon="2.51091">
        <ele>815</ele>
        <time>2015-01-17T11:18:44Z</time>
      </trkpt>
      <trkpt lat="42.29627" lon="2.51083">
        <ele>816</ele>
        <time>2015-01-17T11:18:55Z</time>
      </trkpt>
      <trkpt lat="42.29619" lon="2.51074">
        <ele>819</ele>
        <time>2015-01-17T11:19:04Z</time>
      </trkpt>
      <trkpt lat="42.29612" lon="2.51064">
        <ele>819</ele>
        <time>2015-01-17T11:19:11Z</time>
      </trkpt>
      <trkpt lat="42.29606" lon="2.51053">
        <ele>819</ele>
        <time>2015-01-17T11:19:18Z</time>
      </trkpt>
      <trkpt lat="42.29599" lon="2.51042">
        <ele>819</ele>
        <time>2015-01-17T11:19:26Z</time>
      </trkpt>
      <trkpt lat="42.29591" lon="2.51033">
        <ele>820</ele>
        <time>2015-01-17T11:19:36Z</time>
      </trkpt>
      <trkpt lat="42.29583" lon="2.51023">
        <ele>820</ele>
        <time>2015-01-17T11:19:46Z</time>
      </trkpt>
      <trkpt lat="42.29578" lon="2.51012">
        <ele>821</ele>
        <time>2015-01-17T11:19:54Z</time>
      </trkpt>
      <trkpt lat="42.2957" lon="2.51003">
        <ele>823</ele>
        <time>2015-01-17T11:20:04Z</time>
      </trkpt>
      <trkpt lat="42.29561" lon="2.50994">
        <ele>825</ele>
        <time>2015-01-17T11:20:13Z</time>
      </trkpt>
      <trkpt lat="42.29553" lon="2.50986">
        <ele>826</ele>
        <time>2015-01-17T11:20:21Z</time>
      </trkpt>
      <trkpt lat="42.29547" lon="2.50974">
        <ele>826</ele>
        <time>2015-01-17T11:20:29Z</time>
      </trkpt>
      <trkpt lat="42.29539" lon="2.50965">
        <ele>826</ele>
        <time>2015-01-17T11:20:39Z</time>
      </trkpt>
      <trkpt lat="42.2953" lon="2.50958">
        <ele>828</ele>
        <time>2015-01-17T11:20:49Z</time>
      </trkpt>
      <trkpt lat="42.29523" lon="2.50947">
        <ele>830</ele>
        <time>2015-01-17T11:20:59Z</time>
      </trkpt>
      <trkpt lat="42.29514" lon="2.5094">
        <ele>831</ele>
        <time>2015-01-17T11:21:09Z</time>
      </trkpt>
      <trkpt lat="42.29506" lon="2.50932">
        <ele>835</ele>
        <time>2015-01-17T11:21:21Z</time>
      </trkpt>
      <trkpt lat="42.29498" lon="2.50921">
        <ele>835.4</ele>
        <time>2015-01-17T11:21:30Z</time>
      </trkpt>
      <trkpt lat="42.29491" lon="2.50911">
        <ele>836</ele>
        <time>2015-01-17T11:21:39Z</time>
      </trkpt>
      <trkpt lat="42.29483" lon="2.50901">
        <ele>837</ele>
        <time>2015-01-17T11:21:47Z</time>
      </trkpt>
      <trkpt lat="42.29475" lon="2.50893">
        <ele>838</ele>
        <time>2015-01-17T11:21:56Z</time>
      </trkpt>
      <trkpt lat="42.29465" lon="2.50885">
        <ele>840</ele>
        <time>2015-01-17T11:22:09Z</time>
      </trkpt>
      <trkpt lat="42.29456" lon="2.50878">
        <ele>841.7</ele>
        <time>2015-01-17T11:22:20Z</time>
      </trkpt>
      <trkpt lat="42.29446" lon="2.50873">
        <ele>845</ele>
        <time>2015-01-17T11:22:31Z</time>
      </trkpt>
      <trkpt lat="42.29436" lon="2.50868">
        <ele>847</ele>
        <time>2015-01-17T11:22:42Z</time>
      </trkpt>
      <trkpt lat="42.29426" lon="2.50865">
        <ele>848</ele>
        <time>2015-01-17T11:22:54Z</time>
      </trkpt>
      <trkpt lat="42.29413" lon="2.50864">
        <ele>851</ele>
        <time>2015-01-17T11:23:07Z</time>
      </trkpt>
      <trkpt lat="42.29407" lon="2.50864">
        <ele>854</ele>
        <time>2015-01-17T11:23:24Z</time>
      </trkpt>
      <trkpt lat="42.29406" lon="2.50876">
        <ele>855</ele>
        <time>2015-01-17T11:23:37Z</time>
      </trkpt>
      <trkpt lat="42.29396" lon="2.50876">
        <ele>856</ele>
        <time>2015-01-17T11:23:48Z</time>
      </trkpt>
      <trkpt lat="42.29402" lon="2.50885">
        <ele>861</ele>
        <time>2015-01-17T11:24:04Z</time>
      </trkpt>
      <trkpt lat="42.294" lon="2.50898">
        <ele>865</ele>
        <time>2015-01-17T11:24:24Z</time>
      </trkpt>
      <trkpt lat="42.29391" lon="2.50905">
        <ele>869</ele>
        <time>2015-01-17T11:24:38Z</time>
      </trkpt>
      <trkpt lat="42.29387" lon="2.50919">
        <ele>871</ele>
        <time>2015-01-17T11:24:52Z</time>
      </trkpt>
      <trkpt lat="42.29382" lon="2.50929">
        <ele>875</ele>
        <time>2015-01-17T11:25:05Z</time>
      </trkpt>
      <trkpt lat="42.29391" lon="2.50938">
        <ele>876</ele>
        <time>2015-01-17T11:26:08Z</time>
      </trkpt>
      <trkpt lat="42.294" lon="2.50938">
        <ele>878</ele>
        <time>2015-01-17T11:26:17Z</time>
      </trkpt>
      <trkpt lat="42.29408" lon="2.50941">
        <ele>880</ele>
        <time>2015-01-17T11:26:25Z</time>
      </trkpt>
      <trkpt lat="42.29415" lon="2.50949">
        <ele>882</ele>
        <time>2015-01-17T11:26:36Z</time>
      </trkpt>
      <trkpt lat="42.29421" lon="2.50955">
        <ele>883</ele>
        <time>2015-01-17T11:26:46Z</time>
      </trkpt>
      <trkpt lat="42.29427" lon="2.5096">
        <ele>886</ele>
        <time>2015-01-17T11:26:53Z</time>
      </trkpt>
      <trkpt lat="42.29431" lon="2.50968">
        <ele>889</ele>
        <time>2015-01-17T11:27:02Z</time>
      </trkpt>
      <trkpt lat="42.29436" lon="2.50977">
        <ele>891</ele>
        <time>2015-01-17T11:27:11Z</time>
      </trkpt>
      <trkpt lat="42.29438" lon="2.50988">
        <ele>891</ele>
        <time>2015-01-17T11:27:27Z</time>
      </trkpt>
      <trkpt lat="42.29444" lon="2.50997">
        <ele>891</ele>
        <time>2015-01-17T11:27:34Z</time>
      </trkpt>
      <trkpt lat="42.29448" lon="2.51005">
        <ele>893</ele>
        <time>2015-01-17T11:27:51Z</time>
      </trkpt>
      <trkpt lat="42.29454" lon="2.51012">
        <ele>893</ele>
        <time>2015-01-17T11:28:15Z</time>
      </trkpt>
      <trkpt lat="42.29462" lon="2.51017">
        <ele>892</ele>
        <time>2015-01-17T11:28:21Z</time>
      </trkpt>
      <trkpt lat="42.29468" lon="2.51026">
        <ele>892</ele>
        <time>2015-01-17T11:28:28Z</time>
      </trkpt>
      <trkpt lat="42.29471" lon="2.51036">
        <ele>892</ele>
        <time>2015-01-17T11:28:35Z</time>
      </trkpt>
      <trkpt lat="42.29474" lon="2.51048">
        <ele>893</ele>
        <time>2015-01-17T11:28:43Z</time>
      </trkpt>
      <trkpt lat="42.29477" lon="2.5106">
        <ele>895</ele>
        <time>2015-01-17T11:28:52Z</time>
      </trkpt>
      <trkpt lat="42.2948" lon="2.51071">
        <ele>895</ele>
        <time>2015-01-17T11:28:59Z</time>
      </trkpt>
      <trkpt lat="42.29483" lon="2.5108">
        <ele>897</ele>
        <time>2015-01-17T11:29:07Z</time>
      </trkpt>
      <trkpt lat="42.29487" lon="2.51093">
        <ele>898</ele>
        <time>2015-01-17T11:29:16Z</time>
      </trkpt>
      <trkpt lat="42.29489" lon="2.51107">
        <ele>899</ele>
        <time>2015-01-17T11:29:28Z</time>
      </trkpt>
      <trkpt lat="42.29493" lon="2.51119">
        <ele>902</ele>
        <time>2015-01-17T11:29:44Z</time>
      </trkpt>
      <trkpt lat="42.29495" lon="2.51132">
        <ele>903</ele>
        <time>2015-01-17T11:29:55Z</time>
      </trkpt>
      <trkpt lat="42.29501" lon="2.51143">
        <ele>905</ele>
        <time>2015-01-17T11:30:04Z</time>
      </trkpt>
      <trkpt lat="42.29508" lon="2.51154">
        <ele>905</ele>
        <time>2015-01-17T11:30:15Z</time>
      </trkpt>
      <trkpt lat="42.29512" lon="2.51167">
        <ele>906</ele>
        <time>2015-01-17T11:30:24Z</time>
      </trkpt>
      <trkpt lat="42.29515" lon="2.5118">
        <ele>908</ele>
        <time>2015-01-17T11:30:36Z</time>
      </trkpt>
      <trkpt lat="42.29518" lon="2.51193">
        <ele>912</ele>
        <time>2015-01-17T11:30:48Z</time>
      </trkpt>
      <trkpt lat="42.29522" lon="2.51205">
        <ele>914</ele>
        <time>2015-01-17T11:30:59Z</time>
      </trkpt>
      <trkpt lat="42.29527" lon="2.5122">
        <ele>917</ele>
        <time>2015-01-17T11:31:14Z</time>
      </trkpt>
      <trkpt lat="42.29533" lon="2.51232">
        <ele>918</ele>
        <time>2015-01-17T11:31:24Z</time>
      </trkpt>
      <trkpt lat="42.29538" lon="2.51244">
        <ele>923</ele>
        <time>2015-01-17T11:31:37Z</time>
      </trkpt>
      <trkpt lat="42.29545" lon="2.51255">
        <ele>923</ele>
        <time>2015-01-17T11:31:47Z</time>
      </trkpt>
      <trkpt lat="42.29549" lon="2.51268">
        <ele>924</ele>
        <time>2015-01-17T11:31:59Z</time>
      </trkpt>
      <trkpt lat="42.29551" lon="2.51282">
        <ele>930</ele>
        <time>2015-01-17T11:32:13Z</time>
      </trkpt>
      <trkpt lat="42.29554" lon="2.51295">
        <ele>933</ele>
        <time>2015-01-17T11:32:28Z</time>
      </trkpt>
      <trkpt lat="42.29548" lon="2.51306">
        <ele>939</ele>
        <time>2015-01-17T11:32:51Z</time>
      </trkpt>
      <trkpt lat="42.29543" lon="2.51318">
        <ele>944</ele>
        <time>2015-01-17T11:33:13Z</time>
      </trkpt>
      <trkpt lat="42.29549" lon="2.51329">
        <ele>946</ele>
        <time>2015-01-17T11:33:25Z</time>
      </trkpt>
      <trkpt lat="42.29554" lon="2.51343">
        <ele>947</ele>
        <time>2015-01-17T11:33:37Z</time>
      </trkpt>
      <trkpt lat="42.29556" lon="2.51357">
        <ele>949.5</ele>
        <time>2015-01-17T11:33:50Z</time>
      </trkpt>
      <trkpt lat="42.29563" lon="2.51368">
        <ele>951.5</ele>
        <time>2015-01-17T11:34:00Z</time>
      </trkpt>
      <trkpt lat="42.29559" lon="2.51381">
        <ele>955</ele>
        <time>2015-01-17T11:34:17Z</time>
      </trkpt>
      <trkpt lat="42.29553" lon="2.51393">
        <ele>962</ele>
        <time>2015-01-17T11:34:36Z</time>
      </trkpt>
      <trkpt lat="42.29557" lon="2.51407">
        <ele>966</ele>
        <time>2015-01-17T11:34:51Z</time>
      </trkpt>
      <trkpt lat="42.29555" lon="2.51421">
        <ele>969</ele>
        <time>2015-01-17T11:35:05Z</time>
      </trkpt>
      <trkpt lat="42.29551" lon="2.51434">
        <ele>973</ele>
        <time>2015-01-17T11:35:24Z</time>
      </trkpt>
      <trkpt lat="42.29545" lon="2.51447">
        <ele>979</ele>
        <time>2015-01-17T11:35:43Z</time>
      </trkpt>
      <trkpt lat="42.29542" lon="2.51461">
        <ele>982</ele>
        <time>2015-01-17T11:35:58Z</time>
      </trkpt>
      <trkpt lat="42.29533" lon="2.51471">
        <ele>989</ele>
        <time>2015-01-17T11:36:17Z</time>
      </trkpt>
      <trkpt lat="42.29525" lon="2.5148">
        <ele>993</ele>
        <time>2015-01-17T11:36:39Z</time>
      </trkpt>
      <trkpt lat="42.29518" lon="2.51473">
        <ele>996</ele>
        <time>2015-01-17T11:37:08Z</time>
      </trkpt>
      <trkpt lat="42.29513" lon="2.51464">
        <ele>1002</ele>
        <time>2015-01-17T11:37:22Z</time>
      </trkpt>
      <trkpt lat="42.29508" lon="2.51455">
        <ele>1004</ele>
        <time>2015-01-17T11:37:35Z</time>
      </trkpt>
      <trkpt lat="42.29502" lon="2.51448">
        <ele>1006</ele>
        <time>2015-01-17T11:37:53Z</time>
      </trkpt>
      <trkpt lat="42.29498" lon="2.51457">
        <ele>1012.3</ele>
        <time>2015-01-17T11:38:20Z</time>
      </trkpt>
      <trkpt lat="42.29496" lon="2.51469">
        <ele>1016</ele>
        <time>2015-01-17T11:39:13Z</time>
      </trkpt>
      <trkpt lat="42.29491" lon="2.51482">
        <ele>1020</ele>
        <time>2015-01-17T11:39:32Z</time>
      </trkpt>
      <trkpt lat="42.29487" lon="2.51495">
        <ele>1021</ele>
        <time>2015-01-17T11:39:47Z</time>
      </trkpt>
      <trkpt lat="42.29478" lon="2.515">
        <ele>1027</ele>
        <time>2015-01-17T11:40:14Z</time>
      </trkpt>
      <trkpt lat="42.29468" lon="2.51498">
        <ele>1034</ele>
        <time>2015-01-17T11:41:04Z</time>
      </trkpt>
      <trkpt lat="42.29462" lon="2.51513">
        <ele>1040</ele>
        <time>2015-01-17T11:41:45Z</time>
      </trkpt>
      <trkpt lat="42.29453" lon="2.51517">
        <ele>1044</ele>
        <time>2015-01-17T11:42:08Z</time>
      </trkpt>
      <trkpt lat="42.29448" lon="2.51528">
        <ele>1048.3</ele>
        <time>2015-01-17T11:42:25Z</time>
      </trkpt>
      <trkpt lat="42.29443" lon="2.51535">
        <ele>1052</ele>
        <time>2015-01-17T11:42:43Z</time>
      </trkpt>
      <trkpt lat="42.29438" lon="2.51538">
        <ele>1055</ele>
        <time>2015-01-17T11:42:54Z</time>
      </trkpt>
      <trkpt lat="42.29433" lon="2.51546">
        <ele>1058</ele>
        <time>2015-01-17T11:43:38Z</time>
      </trkpt>
      <trkpt lat="42.29429" lon="2.51554">
        <ele>1057</ele>
        <time>2015-01-17T11:44:29Z</time>
      </trkpt>
      <trkpt lat="42.29433" lon="2.51553">
        <ele>1057</ele>
        <time>2015-01-17T11:45:58Z</time>
      </trkpt>
      <trkpt lat="42.29428" lon="2.51561">
        <ele>1056</ele>
        <time>2015-01-17T11:53:20Z</time>
      </trkpt>
      <trkpt lat="42.29419" lon="2.51567">
        <ele>1051</ele>
        <time>2015-01-17T11:53:41Z</time>
      </trkpt>
      <trkpt lat="42.29411" lon="2.51575">
        <ele>1048.7</ele>
        <time>2015-01-17T11:53:50Z</time>
      </trkpt>
      <trkpt lat="42.29405" lon="2.51584">
        <ele>1048</ele>
        <time>2015-01-17T11:53:59Z</time>
      </trkpt>
      <trkpt lat="42.294" lon="2.51592">
        <ele>1046</ele>
        <time>2015-01-17T11:54:08Z</time>
      </trkpt>
      <trkpt lat="42.29393" lon="2.51602">
        <ele>1042</ele>
        <time>2015-01-17T11:54:21Z</time>
      </trkpt>
      <trkpt lat="42.2939" lon="2.51614">
        <ele>1041</ele>
        <time>2015-01-17T11:54:35Z</time>
      </trkpt>
      <trkpt lat="42.29388" lon="2.51627">
        <ele>1037</ele>
        <time>2015-01-17T11:54:54Z</time>
      </trkpt>
      <trkpt lat="42.29384" lon="2.51637">
        <ele>1035</ele>
        <time>2015-01-17T11:55:04Z</time>
      </trkpt>
      <trkpt lat="42.29378" lon="2.51649">
        <ele>1035.5</ele>
        <time>2015-01-17T11:55:16Z</time>
      </trkpt>
      <trkpt lat="42.2938" lon="2.51659">
        <ele>1036</ele>
        <time>2015-01-17T11:55:29Z</time>
      </trkpt>
      <trkpt lat="42.29378" lon="2.51671">
        <ele>1037</ele>
        <time>2015-01-17T11:55:39Z</time>
      </trkpt>
      <trkpt lat="42.29375" lon="2.51682">
        <ele>1039</ele>
        <time>2015-01-17T11:55:46Z</time>
      </trkpt>
      <trkpt lat="42.2938" lon="2.51687">
        <ele>1034</ele>
        <time>2015-01-17T11:56:04Z</time>
      </trkpt>
      <trkpt lat="42.29378" lon="2.51697">
        <ele>1032</ele>
        <time>2015-01-17T11:56:16Z</time>
      </trkpt>
      <trkpt lat="42.29372" lon="2.51703">
        <ele>1028</ele>
        <time>2015-01-17T11:56:22Z</time>
      </trkpt>
      <trkpt lat="42.29366" lon="2.51706">
        <ele>1026</ele>
        <time>2015-01-17T11:56:29Z</time>
      </trkpt>
      <trkpt lat="42.29362" lon="2.51714">
        <ele>1021</ele>
        <time>2015-01-17T11:56:49Z</time>
      </trkpt>
      <trkpt lat="42.29361" lon="2.51723">
        <ele>1020</ele>
        <time>2015-01-17T11:57:11Z</time>
      </trkpt>
      <trkpt lat="42.29358" lon="2.51733">
        <ele>1019</ele>
        <time>2015-01-17T11:57:22Z</time>
      </trkpt>
      <trkpt lat="42.29353" lon="2.5174">
        <ele>1017</ele>
        <time>2015-01-17T11:57:34Z</time>
      </trkpt>
      <trkpt lat="42.29351" lon="2.51747">
        <ele>1014</ele>
        <time>2015-01-17T11:57:44Z</time>
      </trkpt>
      <trkpt lat="42.29347" lon="2.51756">
        <ele>1011</ele>
        <time>2015-01-17T11:57:54Z</time>
      </trkpt>
      <trkpt lat="42.29343" lon="2.51766">
        <ele>1010</ele>
        <time>2015-01-17T11:58:05Z</time>
      </trkpt>
      <trkpt lat="42.29339" lon="2.51772">
        <ele>1010</ele>
        <time>2015-01-17T11:58:17Z</time>
      </trkpt>
      <trkpt lat="42.29335" lon="2.51782">
        <ele>1006</ele>
        <time>2015-01-17T11:58:49Z</time>
      </trkpt>
      <trkpt lat="42.2933" lon="2.51792">
        <ele>1001.1</ele>
        <time>2015-01-17T11:59:00Z</time>
      </trkpt>
      <trkpt lat="42.29323" lon="2.51801">
        <ele>997</ele>
        <time>2015-01-17T11:59:09Z</time>
      </trkpt>
      <trkpt lat="42.29316" lon="2.51811">
        <ele>997</ele>
        <time>2015-01-17T11:59:18Z</time>
      </trkpt>
      <trkpt lat="42.29308" lon="2.51816">
        <ele>993</ele>
        <time>2015-01-17T11:59:29Z</time>
      </trkpt>
      <trkpt lat="42.29299" lon="2.5182">
        <ele>990</ele>
        <time>2015-01-17T11:59:37Z</time>
      </trkpt>
      <trkpt lat="42.29292" lon="2.51828">
        <ele>989</ele>
        <time>2015-01-17T11:59:44Z</time>
      </trkpt>
      <trkpt lat="42.29282" lon="2.51834">
        <ele>986.3</ele>
        <time>2015-01-17T11:59:50Z</time>
      </trkpt>
      <trkpt lat="42.29274" lon="2.51839">
        <ele>984.3</ele>
        <time>2015-01-17T11:59:55Z</time>
      </trkpt>
      <trkpt lat="42.29264" lon="2.51841">
        <ele>979</ele>
        <time>2015-01-17T12:00:01Z</time>
      </trkpt>
      <trkpt lat="42.29257" lon="2.51833">
        <ele>976.6</ele>
        <time>2015-01-17T12:00:07Z</time>
      </trkpt>
      <trkpt lat="42.29258" lon="2.5182">
        <ele>975</ele>
        <time>2015-01-17T12:00:13Z</time>
      </trkpt>
      <trkpt lat="42.29257" lon="2.51807">
        <ele>974.3</ele>
        <time>2015-01-17T12:00:20Z</time>
      </trkpt>
      <trkpt lat="42.29253" lon="2.51794">
        <ele>970</ele>
        <time>2015-01-17T12:00:27Z</time>
      </trkpt>
      <trkpt lat="42.29248" lon="2.51782">
        <ele>967.3</ele>
        <time>2015-01-17T12:00:35Z</time>
      </trkpt>
      <trkpt lat="42.2925" lon="2.51767">
        <ele>964</ele>
        <time>2015-01-17T12:00:41Z</time>
      </trkpt>
      <trkpt lat="42.29249" lon="2.51754">
        <ele>962</ele>
        <time>2015-01-17T12:00:46Z</time>
      </trkpt>
      <trkpt lat="42.2925" lon="2.51738">
        <ele>960</ele>
        <time>2015-01-17T12:00:53Z</time>
      </trkpt>
      <trkpt lat="42.29246" lon="2.51724">
        <ele>957</ele>
        <time>2015-01-17T12:00:59Z</time>
      </trkpt>
      <trkpt lat="42.29244" lon="2.51709">
        <ele>951.6</ele>
        <time>2015-01-17T12:01:05Z</time>
      </trkpt>
      <trkpt lat="42.29246" lon="2.51695">
        <ele>950.6</ele>
        <time>2015-01-17T12:01:10Z</time>
      </trkpt>
      <trkpt lat="42.2924" lon="2.51684">
        <ele>948</ele>
        <time>2015-01-17T12:01:21Z</time>
      </trkpt>
      <trkpt lat="42.2923" lon="2.51689">
        <ele>945</ele>
        <time>2015-01-17T12:01:29Z</time>
      </trkpt>
      <trkpt lat="42.29223" lon="2.517">
        <ele>939.6</ele>
        <time>2015-01-17T12:01:36Z</time>
      </trkpt>
      <trkpt lat="42.29216" lon="2.5171">
        <ele>938</ele>
        <time>2015-01-17T12:01:42Z</time>
      </trkpt>
      <trkpt lat="42.29208" lon="2.51719">
        <ele>936</ele>
        <time>2015-01-17T12:01:48Z</time>
      </trkpt>
      <trkpt lat="42.29199" lon="2.51729">
        <ele>932.3</ele>
        <time>2015-01-17T12:01:55Z</time>
      </trkpt>
      <trkpt lat="42.29191" lon="2.51739">
        <ele>929</ele>
        <time>2015-01-17T12:02:03Z</time>
      </trkpt>
      <trkpt lat="42.29181" lon="2.51745">
        <ele>927</ele>
        <time>2015-01-17T12:02:09Z</time>
      </trkpt>
      <trkpt lat="42.2917" lon="2.51751">
        <ele>922.9</ele>
        <time>2015-01-17T12:02:15Z</time>
      </trkpt>
      <trkpt lat="42.2916" lon="2.51756">
        <ele>920</ele>
        <time>2015-01-17T12:02:21Z</time>
      </trkpt>
      <trkpt lat="42.2915" lon="2.51761">
        <ele>917</ele>
        <time>2015-01-17T12:02:28Z</time>
      </trkpt>
      <trkpt lat="42.2914" lon="2.51763">
        <ele>914.3</ele>
        <time>2015-01-17T12:02:35Z</time>
      </trkpt>
      <trkpt lat="42.29132" lon="2.51756">
        <ele>910</ele>
        <time>2015-01-17T12:02:46Z</time>
      </trkpt>
      <trkpt lat="42.29126" lon="2.51747">
        <ele>905.9</ele>
        <time>2015-01-17T12:02:55Z</time>
      </trkpt>
      <trkpt lat="42.29116" lon="2.51739">
        <ele>900</ele>
        <time>2015-01-17T12:03:04Z</time>
      </trkpt>
      <trkpt lat="42.29112" lon="2.51728">
        <ele>897</ele>
        <time>2015-01-17T12:03:10Z</time>
      </trkpt>
      <trkpt lat="42.29117" lon="2.51728">
        <ele>898</ele>
        <time>2015-01-17T12:05:06Z</time>
      </trkpt>
      <trkpt lat="42.29111" lon="2.51724">
        <ele>897</ele>
        <time>2015-01-17T12:05:54Z</time>
      </trkpt>
      <trkpt lat="42.29106" lon="2.51716">
        <ele>895</ele>
        <time>2015-01-17T12:06:02Z</time>
      </trkpt>
      <trkpt lat="42.29101" lon="2.51708">
        <ele>894.3</ele>
        <time>2015-01-17T12:06:10Z</time>
      </trkpt>
      <trkpt lat="42.29096" lon="2.51701">
        <ele>893</ele>
        <time>2015-01-17T12:06:16Z</time>
      </trkpt>
      <trkpt lat="42.29092" lon="2.51693">
        <ele>890</ele>
        <time>2015-01-17T12:06:21Z</time>
      </trkpt>
      <trkpt lat="42.29091" lon="2.51683">
        <ele>889</ele>
        <time>2015-01-17T12:06:27Z</time>
      </trkpt>
      <trkpt lat="42.29084" lon="2.51682">
        <ele>890</ele>
        <time>2015-01-17T12:06:39Z</time>
      </trkpt>
      <trkpt lat="42.29079" lon="2.51676">
        <ele>885.8</ele>
        <time>2015-01-17T12:06:45Z</time>
      </trkpt>
      <trkpt lat="42.29073" lon="2.51682">
        <ele>883</ele>
        <time>2015-01-17T12:06:51Z</time>
      </trkpt>
      <trkpt lat="42.29066" lon="2.51687">
        <ele>881</ele>
        <time>2015-01-17T12:06:57Z</time>
      </trkpt>
      <trkpt lat="42.29058" lon="2.51683">
        <ele>877.4</ele>
        <time>2015-01-17T12:07:02Z</time>
      </trkpt>
      <trkpt lat="42.29053" lon="2.51692">
        <ele>876.4</ele>
        <time>2015-01-17T12:07:08Z</time>
      </trkpt>
      <trkpt lat="42.29052" lon="2.51702">
        <ele>875</ele>
        <time>2015-01-17T12:07:12Z</time>
      </trkpt>
      <trkpt lat="42.29053" lon="2.51713">
        <ele>875</ele>
        <time>2015-01-17T12:07:16Z</time>
      </trkpt>
      <trkpt lat="42.29054" lon="2.51722">
        <ele>875</ele>
        <time>2015-01-17T12:07:19Z</time>
      </trkpt>
      <trkpt lat="42.29055" lon="2.51735">
        <ele>873</ele>
        <time>2015-01-17T12:07:23Z</time>
      </trkpt>
      <trkpt lat="42.29054" lon="2.51747">
        <ele>873</ele>
        <time>2015-01-17T12:07:27Z</time>
      </trkpt>
      <trkpt lat="42.29055" lon="2.5176">
        <ele>871</ele>
        <time>2015-01-17T12:07:31Z</time>
      </trkpt>
      <trkpt lat="42.29055" lon="2.5177">
        <ele>871</ele>
        <time>2015-01-17T12:07:34Z</time>
      </trkpt>
      <trkpt lat="42.29054" lon="2.5178">
        <ele>870</ele>
        <time>2015-01-17T12:07:37Z</time>
      </trkpt>
      <trkpt lat="42.29055" lon="2.51794">
        <ele>867</ele>
        <time>2015-01-17T12:07:41Z</time>
      </trkpt>
      <trkpt lat="42.29053" lon="2.51809">
        <ele>864</ele>
        <time>2015-01-17T12:07:46Z</time>
      </trkpt>
      <trkpt lat="42.29045" lon="2.51821">
        <ele>863</ele>
        <time>2015-01-17T12:07:51Z</time>
      </trkpt>
      <trkpt lat="42.29041" lon="2.51832">
        <ele>862.3</ele>
        <time>2015-01-17T12:07:55Z</time>
      </trkpt>
      <trkpt lat="42.29031" lon="2.51841">
        <ele>861</ele>
        <time>2015-01-17T12:07:59Z</time>
      </trkpt>
      <trkpt lat="42.29022" lon="2.51833">
        <ele>855</ele>
        <time>2015-01-17T12:08:04Z</time>
      </trkpt>
      <trkpt lat="42.29016" lon="2.51819">
        <ele>852</ele>
        <time>2015-01-17T12:08:10Z</time>
      </trkpt>
      <trkpt lat="42.29012" lon="2.51807">
        <ele>852</ele>
        <time>2015-01-17T12:08:14Z</time>
      </trkpt>
      <trkpt lat="42.29007" lon="2.51795">
        <ele>850</ele>
        <time>2015-01-17T12:08:18Z</time>
      </trkpt>
      <trkpt lat="42.29003" lon="2.51783">
        <ele>845.6</ele>
        <time>2015-01-17T12:08:22Z</time>
      </trkpt>
      <trkpt lat="42.28997" lon="2.51773">
        <ele>843</ele>
        <time>2015-01-17T12:08:26Z</time>
      </trkpt>
      <trkpt lat="42.28994" lon="2.51764">
        <ele>842</ele>
        <time>2015-01-17T12:08:29Z</time>
      </trkpt>
      <trkpt lat="42.2899" lon="2.51756">
        <ele>842</ele>
        <time>2015-01-17T12:08:32Z</time>
      </trkpt>
      <trkpt lat="42.28986" lon="2.51747">
        <ele>841.3</ele>
        <time>2015-01-17T12:08:35Z</time>
      </trkpt>
      <trkpt lat="42.28981" lon="2.51739">
        <ele>840</ele>
        <time>2015-01-17T12:08:38Z</time>
      </trkpt>
      <trkpt lat="42.28976" lon="2.51731">
        <ele>838</ele>
        <time>2015-01-17T12:08:41Z</time>
      </trkpt>
      <trkpt lat="42.28974" lon="2.5172">
        <ele>837</ele>
        <time>2015-01-17T12:08:46Z</time>
      </trkpt>
      <trkpt lat="42.28973" lon="2.51708">
        <ele>837</ele>
        <time>2015-01-17T12:08:52Z</time>
      </trkpt>
      <trkpt lat="42.2897" lon="2.51698">
        <ele>837</ele>
        <time>2015-01-17T12:08:56Z</time>
      </trkpt>
      <trkpt lat="42.28966" lon="2.5169">
        <ele>837</ele>
        <time>2015-01-17T12:08:59Z</time>
      </trkpt>
      <trkpt lat="42.28963" lon="2.51681">
        <ele>834</ele>
        <time>2015-01-17T12:09:02Z</time>
      </trkpt>
      <trkpt lat="42.2896" lon="2.51673">
        <ele>833.3</ele>
        <time>2015-01-17T12:09:05Z</time>
      </trkpt>
      <trkpt lat="42.28958" lon="2.51664">
        <ele>832</ele>
        <time>2015-01-17T12:09:08Z</time>
      </trkpt>
      <trkpt lat="42.28955" lon="2.51655">
        <ele>830</ele>
        <time>2015-01-17T12:09:11Z</time>
      </trkpt>
      <trkpt lat="42.28951" lon="2.51647">
        <ele>830</ele>
        <time>2015-01-17T12:09:14Z</time>
      </trkpt>
      <trkpt lat="42.28949" lon="2.51641">
        <ele>829</ele>
        <time>2015-01-17T12:09:16Z</time>
      </trkpt>
      <trkpt lat="42.28947" lon="2.51632">
        <ele>829</ele>
        <time>2015-01-17T12:09:19Z</time>
      </trkpt>
      <trkpt lat="42.28946" lon="2.51622">
        <ele>828</ele>
        <time>2015-01-17T12:09:22Z</time>
      </trkpt>
      <trkpt lat="42.28945" lon="2.51612">
        <ele>828</ele>
        <time>2015-01-17T12:09:25Z</time>
      </trkpt>
      <trkpt lat="42.28944" lon="2.51603">
        <ele>828</ele>
        <time>2015-01-17T12:09:28Z</time>
      </trkpt>
      <trkpt lat="42.28942" lon="2.51591">
        <ele>826</ele>
        <time>2015-01-17T12:09:32Z</time>
      </trkpt>
      <trkpt lat="42.28941" lon="2.51581">
        <ele>824.6</ele>
        <time>2015-01-17T12:09:35Z</time>
      </trkpt>
      <trkpt lat="42.28941" lon="2.51571">
        <ele>822</ele>
        <time>2015-01-17T12:09:38Z</time>
      </trkpt>
      <trkpt lat="42.28943" lon="2.51561">
        <ele>819</ele>
        <time>2015-01-17T12:09:41Z</time>
      </trkpt>
      <trkpt lat="42.28941" lon="2.51551">
        <ele>817.6</ele>
        <time>2015-01-17T12:09:44Z</time>
      </trkpt>
      <trkpt lat="42.28933" lon="2.51559">
        <ele>814</ele>
        <time>2015-01-17T12:09:51Z</time>
      </trkpt>
      <trkpt lat="42.28928" lon="2.51567">
        <ele>814</ele>
        <time>2015-01-17T12:09:54Z</time>
      </trkpt>
      <trkpt lat="42.28925" lon="2.51576">
        <ele>814</ele>
        <time>2015-01-17T12:09:57Z</time>
      </trkpt>
      <trkpt lat="42.28921" lon="2.51586">
        <ele>812</ele>
        <time>2015-01-17T12:10:01Z</time>
      </trkpt>
      <trkpt lat="42.28916" lon="2.51594">
        <ele>812</ele>
        <time>2015-01-17T12:10:04Z</time>
      </trkpt>
      <trkpt lat="42.2891" lon="2.51605">
        <ele>812</ele>
        <time>2015-01-17T12:10:08Z</time>
      </trkpt>
      <trkpt lat="42.28904" lon="2.51617">
        <ele>810.4</ele>
        <time>2015-01-17T12:10:13Z</time>
      </trkpt>
      <trkpt lat="42.28897" lon="2.51629">
        <ele>811</ele>
        <time>2015-01-17T12:10:17Z</time>
      </trkpt>
      <trkpt lat="42.28893" lon="2.51641">
        <ele>807</ele>
        <time>2015-01-17T12:10:21Z</time>
      </trkpt>
      <trkpt lat="42.2889" lon="2.51653">
        <ele>806.6</ele>
        <time>2015-01-17T12:10:25Z</time>
      </trkpt>
      <trkpt lat="42.28887" lon="2.51662">
        <ele>806</ele>
        <time>2015-01-17T12:10:28Z</time>
      </trkpt>
      <trkpt lat="42.28881" lon="2.51673">
        <ele>806</ele>
        <time>2015-01-17T12:10:32Z</time>
      </trkpt>
      <trkpt lat="42.28873" lon="2.51682">
        <ele>806</ele>
        <time>2015-01-17T12:10:36Z</time>
      </trkpt>
      <trkpt lat="42.28864" lon="2.5169">
        <ele>806</ele>
        <time>2015-01-17T12:10:40Z</time>
      </trkpt>
      <trkpt lat="42.28854" lon="2.51698">
        <ele>806</ele>
        <time>2015-01-17T12:10:44Z</time>
      </trkpt>
      <trkpt lat="42.28847" lon="2.51703">
        <ele>806</ele>
        <time>2015-01-17T12:10:47Z</time>
      </trkpt>
      <trkpt lat="42.28839" lon="2.51707">
        <ele>805</ele>
        <time>2015-01-17T12:10:51Z</time>
      </trkpt>
      <trkpt lat="42.28832" lon="2.5171">
        <ele>805</ele>
        <time>2015-01-17T12:10:57Z</time>
      </trkpt>
      <trkpt lat="42.28827" lon="2.51719">
        <ele>806</ele>
        <time>2015-01-17T12:11:04Z</time>
      </trkpt>
      <trkpt lat="42.28823" lon="2.51725">
        <ele>806.7</ele>
        <time>2015-01-17T12:12:10Z</time>
      </trkpt>
      <trkpt lat="42.28816" lon="2.51719">
        <ele>809</ele>
        <time>2015-01-17T12:12:23Z</time>
      </trkpt>
      <trkpt lat="42.28818" lon="2.5171">
        <ele>809</ele>
        <time>2015-01-17T12:12:30Z</time>
      </trkpt>
      <trkpt lat="42.2882" lon="2.51699">
        <ele>809</ele>
        <time>2015-01-17T12:12:37Z</time>
      </trkpt>
      <trkpt lat="42.28821" lon="2.51686">
        <ele>811</ele>
        <time>2015-01-17T12:12:47Z</time>
      </trkpt>
      <trkpt lat="42.28825" lon="2.51673">
        <ele>811</ele>
        <time>2015-01-17T12:12:55Z</time>
      </trkpt>
      <trkpt lat="42.28828" lon="2.51663">
        <ele>811</ele>
        <time>2015-01-17T12:13:01Z</time>
      </trkpt>
      <trkpt lat="42.2883" lon="2.51651">
        <ele>811</ele>
        <time>2015-01-17T12:13:08Z</time>
      </trkpt>
      <trkpt lat="42.28829" lon="2.51636">
        <ele>811</ele>
        <time>2015-01-17T12:13:17Z</time>
      </trkpt>
      <trkpt lat="42.28827" lon="2.51623">
        <ele>810</ele>
        <time>2015-01-17T12:13:24Z</time>
      </trkpt>
      <trkpt lat="42.28827" lon="2.51608">
        <ele>811</ele>
        <time>2015-01-17T12:13:31Z</time>
      </trkpt>
      <trkpt lat="42.28825" lon="2.51594">
        <ele>811</ele>
        <time>2015-01-17T12:13:39Z</time>
      </trkpt>
      <trkpt lat="42.28822" lon="2.51581">
        <ele>812</ele>
        <time>2015-01-17T12:13:47Z</time>
      </trkpt>
      <trkpt lat="42.28821" lon="2.51568">
        <ele>814</ele>
        <time>2015-01-17T12:13:56Z</time>
      </trkpt>
      <trkpt lat="42.28816" lon="2.51555">
        <ele>815</ele>
        <time>2015-01-17T12:14:05Z</time>
      </trkpt>
      <trkpt lat="42.28814" lon="2.51541">
        <ele>817</ele>
        <time>2015-01-17T12:14:14Z</time>
      </trkpt>
      <trkpt lat="42.28813" lon="2.51527">
        <ele>820</ele>
        <time>2015-01-17T12:14:24Z</time>
      </trkpt>
      <trkpt lat="42.28815" lon="2.51514">
        <ele>820</ele>
        <time>2015-01-17T12:14:33Z</time>
      </trkpt>
      <trkpt lat="42.28812" lon="2.515">
        <ele>821</ele>
        <time>2015-01-17T12:14:42Z</time>
      </trkpt>
      <trkpt lat="42.28812" lon="2.51485">
        <ele>821.4</ele>
        <time>2015-01-17T12:14:50Z</time>
      </trkpt>
      <trkpt lat="42.28809" lon="2.51471">
        <ele>822</ele>
        <time>2015-01-17T12:14:58Z</time>
      </trkpt>
      <trkpt lat="42.28808" lon="2.51458">
        <ele>823</ele>
        <time>2015-01-17T12:15:06Z</time>
      </trkpt>
      <trkpt lat="42.28807" lon="2.51446">
        <ele>824</ele>
        <time>2015-01-17T12:15:13Z</time>
      </trkpt>
      <trkpt lat="42.28809" lon="2.51435">
        <ele>824</ele>
        <time>2015-01-17T12:15:19Z</time>
      </trkpt>
      <trkpt lat="42.28809" lon="2.51424">
        <ele>825</ele>
        <time>2015-01-17T12:15:25Z</time>
      </trkpt>
      <trkpt lat="42.28809" lon="2.51408">
        <ele>826</ele>
        <time>2015-01-17T12:15:33Z</time>
      </trkpt>
      <trkpt lat="42.28808" lon="2.51393">
        <ele>826</ele>
        <time>2015-01-17T12:15:41Z</time>
      </trkpt>
      <trkpt lat="42.2881" lon="2.51379">
        <ele>826</ele>
        <time>2015-01-17T12:15:48Z</time>
      </trkpt>
      <trkpt lat="42.28812" lon="2.51367">
        <ele>828</ele>
        <time>2015-01-17T12:15:54Z</time>
      </trkpt>
      <trkpt lat="42.28817" lon="2.51353">
        <ele>826</ele>
        <time>2015-01-17T12:16:01Z</time>
      </trkpt>
      <trkpt lat="42.28821" lon="2.5134">
        <ele>826</ele>
        <time>2015-01-17T12:16:08Z</time>
      </trkpt>
      <trkpt lat="42.28821" lon="2.51325">
        <ele>826</ele>
        <time>2015-01-17T12:16:16Z</time>
      </trkpt>
      <trkpt lat="42.28824" lon="2.5131">
        <ele>827</ele>
        <time>2015-01-17T12:16:23Z</time>
      </trkpt>
      <trkpt lat="42.28827" lon="2.51296">
        <ele>827</ele>
        <time>2015-01-17T12:16:30Z</time>
      </trkpt>
      <trkpt lat="42.28832" lon="2.51282">
        <ele>827</ele>
        <time>2015-01-17T12:16:37Z</time>
      </trkpt>
      <trkpt lat="42.28835" lon="2.51269">
        <ele>827</ele>
        <time>2015-01-17T12:16:44Z</time>
      </trkpt>
      <trkpt lat="42.28837" lon="2.51255">
        <ele>828</ele>
        <time>2015-01-17T12:16:52Z</time>
      </trkpt>
      <trkpt lat="42.2884" lon="2.51241">
        <ele>828.4</ele>
        <time>2015-01-17T12:17:00Z</time>
      </trkpt>
      <trkpt lat="42.2884" lon="2.51228">
        <ele>829</ele>
        <time>2015-01-17T12:17:07Z</time>
      </trkpt>
      <trkpt lat="42.28835" lon="2.51239">
        <ele>830</ele>
        <time>2015-01-17T12:17:18Z</time>
      </trkpt>
      <trkpt lat="42.28829" lon="2.51251">
        <ele>832</ele>
        <time>2015-01-17T12:17:26Z</time>
      </trkpt>
      <trkpt lat="42.28824" lon="2.51262">
        <ele>835</ele>
        <time>2015-01-17T12:17:34Z</time>
      </trkpt>
      <trkpt lat="42.28818" lon="2.51274">
        <ele>835</ele>
        <time>2015-01-17T12:17:41Z</time>
      </trkpt>
      <trkpt lat="42.28814" lon="2.51284">
        <ele>835</ele>
        <time>2015-01-17T12:17:46Z</time>
      </trkpt>
      <trkpt lat="42.2881" lon="2.51297">
        <ele>835.6</ele>
        <time>2015-01-17T12:17:54Z</time>
      </trkpt>
      <trkpt lat="42.28803" lon="2.51308">
        <ele>836</ele>
        <time>2015-01-17T12:18:01Z</time>
      </trkpt>
      <trkpt lat="42.28797" lon="2.51316">
        <ele>836</ele>
        <time>2015-01-17T12:18:06Z</time>
      </trkpt>
      <trkpt lat="42.2879" lon="2.5132">
        <ele>837</ele>
        <time>2015-01-17T12:18:11Z</time>
      </trkpt>
      <trkpt lat="42.28782" lon="2.51326">
        <ele>837</ele>
        <time>2015-01-17T12:18:17Z</time>
      </trkpt>
      <trkpt lat="42.28774" lon="2.51332">
        <ele>838</ele>
        <time>2015-01-17T12:18:23Z</time>
      </trkpt>
      <trkpt lat="42.28765" lon="2.51336">
        <ele>838</ele>
        <time>2015-01-17T12:18:29Z</time>
      </trkpt>
      <trkpt lat="42.28756" lon="2.51337">
        <ele>840</ele>
        <time>2015-01-17T12:18:34Z</time>
      </trkpt>
      <trkpt lat="42.28749" lon="2.51336">
        <ele>840</ele>
        <time>2015-01-17T12:18:39Z</time>
      </trkpt>
      <trkpt lat="42.28741" lon="2.51335">
        <ele>840</ele>
        <time>2015-01-17T12:18:43Z</time>
      </trkpt>
      <trkpt lat="42.28734" lon="2.51331">
        <ele>839</ele>
        <time>2015-01-17T12:18:47Z</time>
      </trkpt>
      <trkpt lat="42.28734" lon="2.5132">
        <ele>839</ele>
        <time>2015-01-17T12:18:54Z</time>
      </trkpt>
      <trkpt lat="42.28737" lon="2.51311">
        <ele>838</ele>
        <time>2015-01-17T12:18:59Z</time>
      </trkpt>
      <trkpt lat="42.2874" lon="2.513">
        <ele>838</ele>
        <time>2015-01-17T12:19:03Z</time>
      </trkpt>
      <trkpt lat="42.28741" lon="2.51291">
        <ele>838</ele>
        <time>2015-01-17T12:19:06Z</time>
      </trkpt>
      <trkpt lat="42.28746" lon="2.5128">
        <ele>838</ele>
        <time>2015-01-17T12:19:10Z</time>
      </trkpt>
      <trkpt lat="42.2875" lon="2.51269">
        <ele>838</ele>
        <time>2015-01-17T12:19:14Z</time>
      </trkpt>
      <trkpt lat="42.28753" lon="2.51261">
        <ele>838</ele>
        <time>2015-01-17T12:19:17Z</time>
      </trkpt>
      <trkpt lat="42.28758" lon="2.51251">
        <ele>838</ele>
        <time>2015-01-17T12:19:21Z</time>
      </trkpt>
      <trkpt lat="42.28763" lon="2.51242">
        <ele>838</ele>
        <time>2015-01-17T12:19:25Z</time>
      </trkpt>
      <trkpt lat="42.28768" lon="2.51232">
        <ele>838</ele>
        <time>2015-01-17T12:19:31Z</time>
      </trkpt>
      <trkpt lat="42.28773" lon="2.51223">
        <ele>838</ele>
        <time>2015-01-17T12:19:37Z</time>
      </trkpt>
      <trkpt lat="42.28779" lon="2.51213">
        <ele>839</ele>
        <time>2015-01-17T12:19:44Z</time>
      </trkpt>
      <trkpt lat="42.28783" lon="2.51202">
        <ele>841</ele>
        <time>2015-01-17T12:19:51Z</time>
      </trkpt>
      <trkpt lat="42.28788" lon="2.51192">
        <ele>841</ele>
        <time>2015-01-17T12:19:59Z</time>
      </trkpt>
      <trkpt lat="42.28794" lon="2.51184">
        <ele>845</ele>
        <time>2015-01-17T12:20:05Z</time>
      </trkpt>
      <trkpt lat="42.28801" lon="2.51176">
        <ele>845</ele>
        <time>2015-01-17T12:20:11Z</time>
      </trkpt>
      <trkpt lat="42.28807" lon="2.51169">
        <ele>845</ele>
        <time>2015-01-17T12:20:16Z</time>
      </trkpt>
      <trkpt lat="42.28813" lon="2.5116">
        <ele>845</ele>
        <time>2015-01-17T12:20:22Z</time>
      </trkpt>
      <trkpt lat="42.28818" lon="2.51152">
        <ele>845</ele>
        <time>2015-01-17T12:20:27Z</time>
      </trkpt>
      <trkpt lat="42.28824" lon="2.51143">
        <ele>846</ele>
        <time>2015-01-17T12:20:31Z</time>
      </trkpt>
      <trkpt lat="42.28831" lon="2.51133">
        <ele>846</ele>
        <time>2015-01-17T12:20:35Z</time>
      </trkpt>
      <trkpt lat="42.28836" lon="2.51121">
        <ele>846</ele>
        <time>2015-01-17T12:20:39Z</time>
      </trkpt>
      <trkpt lat="42.2884" lon="2.51107">
        <ele>845</ele>
        <time>2015-01-17T12:20:44Z</time>
      </trkpt>
      <trkpt lat="42.28844" lon="2.51092">
        <ele>845</ele>
        <time>2015-01-17T12:20:49Z</time>
      </trkpt>
      <trkpt lat="42.28846" lon="2.51079">
        <ele>844</ele>
        <time>2015-01-17T12:20:53Z</time>
      </trkpt>
      <trkpt lat="42.28847" lon="2.51064">
        <ele>844</ele>
        <time>2015-01-17T12:20:58Z</time>
      </trkpt>
      <trkpt lat="42.28846" lon="2.5105">
        <ele>841</ele>
        <time>2015-01-17T12:21:04Z</time>
      </trkpt>
      <trkpt lat="42.28845" lon="2.51039">
        <ele>844</ele>
        <time>2015-01-17T12:21:11Z</time>
      </trkpt>
      <trkpt lat="42.28842" lon="2.51029">
        <ele>845</ele>
        <time>2015-01-17T12:21:16Z</time>
      </trkpt>
      <trkpt lat="42.28837" lon="2.5102">
        <ele>845</ele>
        <time>2015-01-17T12:21:19Z</time>
      </trkpt>
      <trkpt lat="42.28835" lon="2.51009">
        <ele>845</ele>
        <time>2015-01-17T12:21:23Z</time>
      </trkpt>
      <trkpt lat="42.28832" lon="2.50996">
        <ele>844.6</ele>
        <time>2015-01-17T12:21:30Z</time>
      </trkpt>
      <trkpt lat="42.2883" lon="2.50981">
        <ele>844</ele>
        <time>2015-01-17T12:21:35Z</time>
      </trkpt>
      <trkpt lat="42.28825" lon="2.50967">
        <ele>844</ele>
        <time>2015-01-17T12:21:40Z</time>
      </trkpt>
      <trkpt lat="42.2882" lon="2.50954">
        <ele>844</ele>
        <time>2015-01-17T12:21:45Z</time>
      </trkpt>
      <trkpt lat="42.28815" lon="2.5094">
        <ele>844</ele>
        <time>2015-01-17T12:21:51Z</time>
      </trkpt>
      <trkpt lat="42.28809" lon="2.50928">
        <ele>844</ele>
        <time>2015-01-17T12:21:56Z</time>
      </trkpt>
      <trkpt lat="42.28801" lon="2.50917">
        <ele>845</ele>
        <time>2015-01-17T12:22:01Z</time>
      </trkpt>
      <trkpt lat="42.28794" lon="2.50909">
        <ele>845</ele>
        <time>2015-01-17T12:22:05Z</time>
      </trkpt>
      <trkpt lat="42.28788" lon="2.50897">
        <ele>845</ele>
        <time>2015-01-17T12:22:10Z</time>
      </trkpt>
      <trkpt lat="42.28783" lon="2.50884">
        <ele>845</ele>
        <time>2015-01-17T12:22:15Z</time>
      </trkpt>
      <trkpt lat="42.28778" lon="2.50872">
        <ele>845</ele>
        <time>2015-01-17T12:22:20Z</time>
      </trkpt>
      <trkpt lat="42.28776" lon="2.50858">
        <ele>845</ele>
        <time>2015-01-17T12:22:26Z</time>
      </trkpt>
      <trkpt lat="42.28774" lon="2.50843">
        <ele>845</ele>
        <time>2015-01-17T12:22:32Z</time>
      </trkpt>
      <trkpt lat="42.28774" lon="2.50829">
        <ele>845</ele>
        <time>2015-01-17T12:22:38Z</time>
      </trkpt>
      <trkpt lat="42.28777" lon="2.50815">
        <ele>845</ele>
        <time>2015-01-17T12:22:45Z</time>
      </trkpt>
      <trkpt lat="42.28775" lon="2.50799">
        <ele>845</ele>
        <time>2015-01-17T12:22:51Z</time>
      </trkpt>
      <trkpt lat="42.28772" lon="2.50784">
        <ele>845</ele>
        <time>2015-01-17T12:22:56Z</time>
      </trkpt>
      <trkpt lat="42.28769" lon="2.50769">
        <ele>842</ele>
        <time>2015-01-17T12:23:02Z</time>
      </trkpt>
      <trkpt lat="42.28764" lon="2.50754">
        <ele>842</ele>
        <time>2015-01-17T12:23:07Z</time>
      </trkpt>
      <trkpt lat="42.28761" lon="2.50739">
        <ele>842</ele>
        <time>2015-01-17T12:23:12Z</time>
      </trkpt>
      <trkpt lat="42.28756" lon="2.50727">
        <ele>841.6</ele>
        <time>2015-01-17T12:23:20Z</time>
      </trkpt>
      <trkpt lat="42.28752" lon="2.50715">
        <ele>841</ele>
        <time>2015-01-17T12:23:30Z</time>
      </trkpt>
      <trkpt lat="42.28749" lon="2.50707">
        <ele>841</ele>
        <time>2015-01-17T12:23:37Z</time>
      </trkpt>
      <trkpt lat="42.28746" lon="2.50696">
        <ele>841</ele>
        <time>2015-01-17T12:23:43Z</time>
      </trkpt>
      <trkpt lat="42.28743" lon="2.50685">
        <ele>841</ele>
        <time>2015-01-17T12:23:48Z</time>
      </trkpt>
      <trkpt lat="42.28742" lon="2.50672">
        <ele>841</ele>
        <time>2015-01-17T12:23:52Z</time>
      </trkpt>
      <trkpt lat="42.28738" lon="2.50658">
        <ele>841</ele>
        <time>2015-01-17T12:23:56Z</time>
      </trkpt>
      <trkpt lat="42.28736" lon="2.50643">
        <ele>840.6</ele>
        <time>2015-01-17T12:24:00Z</time>
      </trkpt>
      <trkpt lat="42.28734" lon="2.5063">
        <ele>840</ele>
        <time>2015-01-17T12:24:04Z</time>
      </trkpt>
      <trkpt lat="42.28731" lon="2.50616">
        <ele>840</ele>
        <time>2015-01-17T12:24:08Z</time>
      </trkpt>
      <trkpt lat="42.28729" lon="2.50603">
        <ele>840</ele>
        <time>2015-01-17T12:24:12Z</time>
      </trkpt>
      <trkpt lat="42.28728" lon="2.50591">
        <ele>840</ele>
        <time>2015-01-17T12:24:16Z</time>
      </trkpt>
      <trkpt lat="42.2873" lon="2.50577">
        <ele>839</ele>
        <time>2015-01-17T12:24:21Z</time>
      </trkpt>
      <trkpt lat="42.28732" lon="2.50564">
        <ele>839</ele>
        <time>2015-01-17T12:24:27Z</time>
      </trkpt>
      <trkpt lat="42.28735" lon="2.50551">
        <ele>838</ele>
        <time>2015-01-17T12:24:32Z</time>
      </trkpt>
      <trkpt lat="42.28739" lon="2.50536">
        <ele>838</ele>
        <time>2015-01-17T12:24:37Z</time>
      </trkpt>
      <trkpt lat="42.28742" lon="2.50524">
        <ele>838</ele>
        <time>2015-01-17T12:24:42Z</time>
      </trkpt>
      <trkpt lat="42.28744" lon="2.50511">
        <ele>838</ele>
        <time>2015-01-17T12:24:49Z</time>
      </trkpt>
      <trkpt lat="42.28745" lon="2.50497">
        <ele>837</ele>
        <time>2015-01-17T12:24:54Z</time>
      </trkpt>
      <trkpt lat="42.28745" lon="2.50483">
        <ele>837</ele>
        <time>2015-01-17T12:24:59Z</time>
      </trkpt>
      <trkpt lat="42.28745" lon="2.50467">
        <ele>837</ele>
        <time>2015-01-17T12:25:04Z</time>
      </trkpt>
      <trkpt lat="42.28741" lon="2.50452">
        <ele>837</ele>
        <time>2015-01-17T12:25:09Z</time>
      </trkpt>
      <trkpt lat="42.28739" lon="2.50436">
        <ele>836</ele>
        <time>2015-01-17T12:25:14Z</time>
      </trkpt>
      <trkpt lat="42.28737" lon="2.50423">
        <ele>836</ele>
        <time>2015-01-17T12:25:18Z</time>
      </trkpt>
      <trkpt lat="42.28735" lon="2.50409">
        <ele>834</ele>
        <time>2015-01-17T12:25:22Z</time>
      </trkpt>
      <trkpt lat="42.28733" lon="2.50394">
        <ele>833</ele>
        <time>2015-01-17T12:25:27Z</time>
      </trkpt>
      <trkpt lat="42.28734" lon="2.50379">
        <ele>831</ele>
        <time>2015-01-17T12:25:32Z</time>
      </trkpt>
      <trkpt lat="42.28737" lon="2.50363">
        <ele>829</ele>
        <time>2015-01-17T12:25:37Z</time>
      </trkpt>
      <trkpt lat="42.28736" lon="2.50348">
        <ele>828</ele>
        <time>2015-01-17T12:25:41Z</time>
      </trkpt>
      <trkpt lat="42.28738" lon="2.50333">
        <ele>827.6</ele>
        <time>2015-01-17T12:25:45Z</time>
      </trkpt>
      <trkpt lat="42.28741" lon="2.5032">
        <ele>827</ele>
        <time>2015-01-17T12:25:49Z</time>
      </trkpt>
      <trkpt lat="42.28743" lon="2.50306">
        <ele>827</ele>
        <time>2015-01-17T12:25:54Z</time>
      </trkpt>
      <trkpt lat="42.28744" lon="2.50296">
        <ele>827</ele>
        <time>2015-01-17T12:26:01Z</time>
      </trkpt>
      <trkpt lat="42.28748" lon="2.50283">
        <ele>827</ele>
        <time>2015-01-17T12:26:09Z</time>
      </trkpt>
      <trkpt lat="42.28752" lon="2.50269">
        <ele>827</ele>
        <time>2015-01-17T12:26:16Z</time>
      </trkpt>
      <trkpt lat="42.28756" lon="2.50258">
        <ele>826</ele>
        <time>2015-01-17T12:26:22Z</time>
      </trkpt>
      <trkpt lat="42.28759" lon="2.50249">
        <ele>826</ele>
        <time>2015-01-17T12:26:27Z</time>
      </trkpt>
      <trkpt lat="42.28763" lon="2.50239">
        <ele>827</ele>
        <time>2015-01-17T12:26:33Z</time>
      </trkpt>
      <trkpt lat="42.28767" lon="2.5023">
        <ele>827</ele>
        <time>2015-01-17T12:26:38Z</time>
      </trkpt>
      <trkpt lat="42.28772" lon="2.50223">
        <ele>827</ele>
        <time>2015-01-17T12:26:44Z</time>
      </trkpt>
      <trkpt lat="42.28777" lon="2.50215">
        <ele>827</ele>
        <time>2015-01-17T12:26:49Z</time>
      </trkpt>
      <trkpt lat="42.28783" lon="2.50208">
        <ele>828</ele>
        <time>2015-01-17T12:26:54Z</time>
      </trkpt>
      <trkpt lat="42.28788" lon="2.50201">
        <ele>828</ele>
        <time>2015-01-17T12:26:59Z</time>
      </trkpt>
      <trkpt lat="42.2879" lon="2.50192">
        <ele>829</ele>
        <time>2015-01-17T12:27:05Z</time>
      </trkpt>
      <trkpt lat="42.2879" lon="2.50179">
        <ele>829</ele>
        <time>2015-01-17T12:27:13Z</time>
      </trkpt>
      <trkpt lat="42.28792" lon="2.50168">
        <ele>829</ele>
        <time>2015-01-17T12:27:19Z</time>
      </trkpt>
      <trkpt lat="42.28792" lon="2.50155">
        <ele>830</ele>
        <time>2015-01-17T12:27:26Z</time>
      </trkpt>
      <trkpt lat="42.28797" lon="2.50145">
        <ele>830</ele>
        <time>2015-01-17T12:27:34Z</time>
      </trkpt>
      <trkpt lat="42.28802" lon="2.50134">
        <ele>830</ele>
        <time>2015-01-17T12:27:41Z</time>
      </trkpt>
      <trkpt lat="42.28807" lon="2.50124">
        <ele>830</ele>
        <time>2015-01-17T12:27:48Z</time>
      </trkpt>
      <trkpt lat="42.28811" lon="2.50112">
        <ele>830</ele>
        <time>2015-01-17T12:27:55Z</time>
      </trkpt>
      <trkpt lat="42.28813" lon="2.50097">
        <ele>830</ele>
        <time>2015-01-17T12:28:03Z</time>
      </trkpt>
      <trkpt lat="42.28816" lon="2.50084">
        <ele>832</ele>
        <time>2015-01-17T12:28:11Z</time>
      </trkpt>
      <trkpt lat="42.28819" lon="2.50072">
        <ele>832</ele>
        <time>2015-01-17T12:28:18Z</time>
      </trkpt>
      <trkpt lat="42.28825" lon="2.50059">
        <ele>833</ele>
        <time>2015-01-17T12:28:27Z</time>
      </trkpt>
      <trkpt lat="42.28833" lon="2.50049">
        <ele>833</ele>
        <time>2015-01-17T12:28:36Z</time>
      </trkpt>
      <trkpt lat="42.28839" lon="2.50039">
        <ele>833</ele>
        <time>2015-01-17T12:28:43Z</time>
      </trkpt>
      <trkpt lat="42.28844" lon="2.50027">
        <ele>834</ele>
        <time>2015-01-17T12:28:51Z</time>
      </trkpt>
      <trkpt lat="42.28846" lon="2.50012">
        <ele>834</ele>
        <time>2015-01-17T12:28:59Z</time>
      </trkpt>
      <trkpt lat="42.28849" lon="2.49999">
        <ele>835</ele>
        <time>2015-01-17T12:29:07Z</time>
      </trkpt>
      <trkpt lat="42.28853" lon="2.49986">
        <ele>835</ele>
        <time>2015-01-17T12:29:15Z</time>
      </trkpt>
      <trkpt lat="42.2885" lon="2.49973">
        <ele>836</ele>
        <time>2015-01-17T12:29:28Z</time>
      </trkpt>
      <trkpt lat="42.28854" lon="2.4996">
        <ele>836</ele>
        <time>2015-01-17T12:29:39Z</time>
      </trkpt>
      <trkpt lat="42.28857" lon="2.49946">
        <ele>836</ele>
        <time>2015-01-17T12:29:49Z</time>
      </trkpt>
      <trkpt lat="42.28858" lon="2.49931">
        <ele>835</ele>
        <time>2015-01-17T12:29:57Z</time>
      </trkpt>
      <trkpt lat="42.28857" lon="2.49915">
        <ele>833</ele>
        <time>2015-01-17T12:30:04Z</time>
      </trkpt>
      <trkpt lat="42.28858" lon="2.49903">
        <ele>832.6</ele>
        <time>2015-01-17T12:30:10Z</time>
      </trkpt>
      <trkpt lat="42.28859" lon="2.4989">
        <ele>832</ele>
        <time>2015-01-17T12:30:15Z</time>
      </trkpt>
      <trkpt lat="42.28858" lon="2.49878">
        <ele>832</ele>
        <time>2015-01-17T12:30:19Z</time>
      </trkpt>
      <trkpt lat="42.28857" lon="2.49865">
        <ele>832</ele>
        <time>2015-01-17T12:30:23Z</time>
      </trkpt>
      <trkpt lat="42.28858" lon="2.49852">
        <ele>832</ele>
        <time>2015-01-17T12:30:27Z</time>
      </trkpt>
      <trkpt lat="42.28858" lon="2.49839">
        <ele>830</ele>
        <time>2015-01-17T12:30:31Z</time>
      </trkpt>
      <trkpt lat="42.28857" lon="2.49829">
        <ele>830</ele>
        <time>2015-01-17T12:30:34Z</time>
      </trkpt>
      <trkpt lat="42.28857" lon="2.49815">
        <ele>830</ele>
        <time>2015-01-17T12:30:38Z</time>
      </trkpt>
      <trkpt lat="42.28858" lon="2.49804">
        <ele>829</ele>
        <time>2015-01-17T12:30:41Z</time>
      </trkpt>
      <trkpt lat="42.2886" lon="2.49794">
        <ele>829</ele>
        <time>2015-01-17T12:30:44Z</time>
      </trkpt>
      <trkpt lat="42.28861" lon="2.49785">
        <ele>829</ele>
        <time>2015-01-17T12:30:47Z</time>
      </trkpt>
      <trkpt lat="42.28863" lon="2.49774">
        <ele>828.3</ele>
        <time>2015-01-17T12:30:50Z</time>
      </trkpt>
      <trkpt lat="42.28865" lon="2.49763">
        <ele>827</ele>
        <time>2015-01-17T12:30:53Z</time>
      </trkpt>
      <trkpt lat="42.28867" lon="2.49752">
        <ele>827</ele>
        <time>2015-01-17T12:30:56Z</time>
      </trkpt>
      <trkpt lat="42.28868" lon="2.49744">
        <ele>827</ele>
        <time>2015-01-17T12:30:59Z</time>
      </trkpt>
      <trkpt lat="42.28868" lon="2.49734">
        <ele>826</ele>
        <time>2015-01-17T12:31:02Z</time>
      </trkpt>
      <trkpt lat="42.28868" lon="2.49722">
        <ele>826</ele>
        <time>2015-01-17T12:31:06Z</time>
      </trkpt>
      <trkpt lat="42.28868" lon="2.49712">
        <ele>826</ele>
        <time>2015-01-17T12:31:09Z</time>
      </trkpt>
      <trkpt lat="42.28865" lon="2.49702">
        <ele>826</ele>
        <time>2015-01-17T12:31:13Z</time>
      </trkpt>
      <trkpt lat="42.28862" lon="2.49692">
        <ele>826</ele>
        <time>2015-01-17T12:31:17Z</time>
      </trkpt>
      <trkpt lat="42.28861" lon="2.4968">
        <ele>825</ele>
        <time>2015-01-17T12:31:21Z</time>
      </trkpt>
      <trkpt lat="42.2886" lon="2.4967">
        <ele>825</ele>
        <time>2015-01-17T12:31:24Z</time>
      </trkpt>
      <trkpt lat="42.28859" lon="2.49661">
        <ele>825</ele>
        <time>2015-01-17T12:31:27Z</time>
      </trkpt>
      <trkpt lat="42.28857" lon="2.4965">
        <ele>824</ele>
        <time>2015-01-17T12:31:31Z</time>
      </trkpt>
      <trkpt lat="42.28856" lon="2.49641">
        <ele>824</ele>
        <time>2015-01-17T12:31:34Z</time>
      </trkpt>
      <trkpt lat="42.28855" lon="2.49632">
        <ele>824</ele>
        <time>2015-01-17T12:31:37Z</time>
      </trkpt>
      <trkpt lat="42.28854" lon="2.49621">
        <ele>824</ele>
        <time>2015-01-17T12:31:42Z</time>
      </trkpt>
      <trkpt lat="42.28852" lon="2.49613">
        <ele>824</ele>
        <time>2015-01-17T12:32:20Z</time>
      </trkpt>
      <trkpt lat="42.28852" lon="2.49603">
        <ele>824</ele>
        <time>2015-01-17T12:32:25Z</time>
      </trkpt>
      <trkpt lat="42.28853" lon="2.49593">
        <ele>824.4</ele>
        <time>2015-01-17T12:32:30Z</time>
      </trkpt>
      <trkpt lat="42.28856" lon="2.49586">
        <ele>825</ele>
        <time>2015-01-17T12:32:33Z</time>
      </trkpt>
      <trkpt lat="42.28857" lon="2.49577">
        <ele>825</ele>
        <time>2015-01-17T12:32:37Z</time>
      </trkpt>
      <trkpt lat="42.28857" lon="2.49567">
        <ele>826</ele>
        <time>2015-01-17T12:32:42Z</time>
      </trkpt>
      <trkpt lat="42.28856" lon="2.49559">
        <ele>826</ele>
        <time>2015-01-17T12:32:47Z</time>
      </trkpt>
      <trkpt lat="42.28851" lon="2.49552">
        <ele>827</ele>
        <time>2015-01-17T12:32:53Z</time>
      </trkpt>
      <trkpt lat="42.28845" lon="2.49546">
        <ele>827</ele>
        <time>2015-01-17T12:32:58Z</time>
      </trkpt>
      <trkpt lat="42.2884" lon="2.49545">
        <ele>828</ele>
        <time>2015-01-17T12:33:02Z</time>
      </trkpt>
      <trkpt lat="42.28833" lon="2.49542">
        <ele>829</ele>
        <time>2015-01-17T12:33:52Z</time>
      </trkpt>
      <trkpt lat="42.28828" lon="2.49539">
        <ele>829</ele>
        <time>2015-01-17T12:33:56Z</time>
      </trkpt>
      <trkpt lat="42.28823" lon="2.49533">
        <ele>828.7</ele>
        <time>2015-01-17T12:34:00Z</time>
      </trkpt>
      <trkpt lat="42.28819" lon="2.49526">
        <ele>828</ele>
        <time>2015-01-17T12:34:04Z</time>
      </trkpt>
      <trkpt lat="42.28817" lon="2.49516">
        <ele>828</ele>
        <time>2015-01-17T12:34:09Z</time>
      </trkpt>
      <trkpt lat="42.28815" lon="2.49506">
        <ele>826</ele>
        <time>2015-01-17T12:34:14Z</time>
      </trkpt>
      <trkpt lat="42.28815" lon="2.49496">
        <ele>826</ele>
        <time>2015-01-17T12:34:17Z</time>
      </trkpt>
      <trkpt lat="42.28816" lon="2.49486">
        <ele>824.9</ele>
        <time>2015-01-17T12:34:20Z</time>
      </trkpt>
      <trkpt lat="42.28819" lon="2.49476">
        <ele>820</ele>
        <time>2015-01-17T12:34:29Z</time>
      </trkpt>
      <trkpt lat="42.28821" lon="2.49469">
        <ele>819</ele>
        <time>2015-01-17T12:34:33Z</time>
      </trkpt>
      <trkpt lat="42.28824" lon="2.49459">
        <ele>818</ele>
        <time>2015-01-17T12:34:38Z</time>
      </trkpt>
      <trkpt lat="42.28826" lon="2.4945">
        <ele>818</ele>
        <time>2015-01-17T12:34:43Z</time>
      </trkpt>
      <trkpt lat="42.28829" lon="2.4944">
        <ele>818</ele>
        <time>2015-01-17T12:34:48Z</time>
      </trkpt>
      <trkpt lat="42.28832" lon="2.49432">
        <ele>816</ele>
        <time>2015-01-17T12:34:53Z</time>
      </trkpt>
      <trkpt lat="42.28835" lon="2.49424">
        <ele>816</ele>
        <time>2015-01-17T12:34:57Z</time>
      </trkpt>
      <trkpt lat="42.28838" lon="2.49414">
        <ele>815</ele>
        <time>2015-01-17T12:35:02Z</time>
      </trkpt>
      <trkpt lat="42.28838" lon="2.49404">
        <ele>815</ele>
        <time>2015-01-17T12:35:07Z</time>
      </trkpt>
      <trkpt lat="42.28838" lon="2.49394">
        <ele>815</ele>
        <time>2015-01-17T12:35:12Z</time>
      </trkpt>
      <trkpt lat="42.28838" lon="2.49383">
        <ele>815</ele>
        <time>2015-01-17T12:35:17Z</time>
      </trkpt>
      <trkpt lat="42.28841" lon="2.49373">
        <ele>812</ele>
        <time>2015-01-17T12:35:22Z</time>
      </trkpt>
      <trkpt lat="42.28845" lon="2.49363">
        <ele>811</ele>
        <time>2015-01-17T12:35:27Z</time>
      </trkpt>
      <trkpt lat="42.28847" lon="2.49354">
        <ele>813</ele>
        <time>2015-01-17T12:35:31Z</time>
      </trkpt>
      <trkpt lat="42.28849" lon="2.49345">
        <ele>813</ele>
        <time>2015-01-17T12:35:35Z</time>
      </trkpt>
      <trkpt lat="42.28851" lon="2.49335">
        <ele>813</ele>
        <time>2015-01-17T12:35:39Z</time>
      </trkpt>
      <trkpt lat="42.28857" lon="2.49328">
        <ele>810</ele>
        <time>2015-01-17T12:35:43Z</time>
      </trkpt>
      <trkpt lat="42.28864" lon="2.49321">
        <ele>809</ele>
        <time>2015-01-17T12:35:48Z</time>
      </trkpt>
      <trkpt lat="42.28869" lon="2.49316">
        <ele>809</ele>
        <time>2015-01-17T12:35:52Z</time>
      </trkpt>
      <trkpt lat="42.28876" lon="2.49309">
        <ele>809</ele>
        <time>2015-01-17T12:35:56Z</time>
      </trkpt>
      <trkpt lat="42.28875" lon="2.49299">
        <ele>804</ele>
        <time>2015-01-17T12:36:01Z</time>
      </trkpt>
      <trkpt lat="42.28868" lon="2.49301">
        <ele>804</ele>
        <time>2015-01-17T12:36:06Z</time>
      </trkpt>
      <trkpt lat="42.28861" lon="2.49305">
        <ele>804</ele>
        <time>2015-01-17T12:36:11Z</time>
      </trkpt>
      <trkpt lat="42.28855" lon="2.49311">
        <ele>804</ele>
        <time>2015-01-17T12:36:16Z</time>
      </trkpt>
      <trkpt lat="42.28847" lon="2.49316">
        <ele>803</ele>
        <time>2015-01-17T12:36:21Z</time>
      </trkpt>
      <trkpt lat="42.28846" lon="2.49306">
        <ele>802.7</ele>
        <time>2015-01-17T12:36:30Z</time>
      </trkpt>
      <trkpt lat="42.28851" lon="2.49296">
        <ele>802</ele>
        <time>2015-01-17T12:36:35Z</time>
      </trkpt>
      <trkpt lat="42.28857" lon="2.49288">
        <ele>801</ele>
        <time>2015-01-17T12:36:42Z</time>
      </trkpt>
      <trkpt lat="42.28862" lon="2.49278">
        <ele>801</ele>
        <time>2015-01-17T12:36:46Z</time>
      </trkpt>
      <trkpt lat="42.28868" lon="2.4927">
        <ele>801</ele>
        <time>2015-01-17T12:36:50Z</time>
      </trkpt>
      <trkpt lat="42.28874" lon="2.49259">
        <ele>801</ele>
        <time>2015-01-17T12:36:54Z</time>
      </trkpt>
      <trkpt lat="42.2888" lon="2.49248">
        <ele>801</ele>
        <time>2015-01-17T12:36:58Z</time>
      </trkpt>
      <trkpt lat="42.28884" lon="2.49238">
        <ele>798</ele>
        <time>2015-01-17T12:37:01Z</time>
      </trkpt>
      <trkpt lat="42.28889" lon="2.49227">
        <ele>798.5</ele>
        <time>2015-01-17T12:37:05Z</time>
      </trkpt>
      <trkpt lat="42.28894" lon="2.49215">
        <ele>799</ele>
        <time>2015-01-17T12:37:09Z</time>
      </trkpt>
      <trkpt lat="42.28897" lon="2.49204">
        <ele>799</ele>
        <time>2015-01-17T12:37:12Z</time>
      </trkpt>
      <trkpt lat="42.28901" lon="2.49192">
        <ele>799</ele>
        <time>2015-01-17T12:37:16Z</time>
      </trkpt>
      <trkpt lat="42.28907" lon="2.49182">
        <ele>799</ele>
        <time>2015-01-17T12:37:20Z</time>
      </trkpt>
      <trkpt lat="42.28912" lon="2.4917">
        <ele>798</ele>
        <time>2015-01-17T12:37:24Z</time>
      </trkpt>
      <trkpt lat="42.28918" lon="2.49158">
        <ele>798</ele>
        <time>2015-01-17T12:37:28Z</time>
      </trkpt>
      <trkpt lat="42.28925" lon="2.49148">
        <ele>798</ele>
        <time>2015-01-17T12:37:32Z</time>
      </trkpt>
      <trkpt lat="42.28931" lon="2.4914">
        <ele>798</ele>
        <time>2015-01-17T12:37:35Z</time>
      </trkpt>
      <trkpt lat="42.28939" lon="2.49132">
        <ele>798</ele>
        <time>2015-01-17T12:37:39Z</time>
      </trkpt>
      <trkpt lat="42.28948" lon="2.4912">
        <ele>798</ele>
        <time>2015-01-17T12:37:44Z</time>
      </trkpt>
      <trkpt lat="42.28956" lon="2.49109">
        <ele>798</ele>
        <time>2015-01-17T12:37:49Z</time>
      </trkpt>
      <trkpt lat="42.28964" lon="2.49097">
        <ele>798</ele>
        <time>2015-01-17T12:37:54Z</time>
      </trkpt>
      <trkpt lat="42.28972" lon="2.49086">
        <ele>798</ele>
        <time>2015-01-17T12:37:59Z</time>
      </trkpt>
      <trkpt lat="42.28966" lon="2.49074">
        <ele>797</ele>
        <time>2015-01-17T12:38:04Z</time>
      </trkpt>
      <trkpt lat="42.28956" lon="2.49066">
        <ele>797</ele>
        <time>2015-01-17T12:38:08Z</time>
      </trkpt>
      <trkpt lat="42.28949" lon="2.49056">
        <ele>796</ele>
        <time>2015-01-17T12:38:15Z</time>
      </trkpt>
      <trkpt lat="42.28942" lon="2.49048">
        <ele>795.5</ele>
        <time>2015-01-17T12:38:20Z</time>
      </trkpt>
      <trkpt lat="42.28936" lon="2.4904">
        <ele>795</ele>
        <time>2015-01-17T12:38:25Z</time>
      </trkpt>
      <trkpt lat="42.2893" lon="2.4903">
        <ele>795</ele>
        <time>2015-01-17T12:38:31Z</time>
      </trkpt>
      <trkpt lat="42.28927" lon="2.49016">
        <ele>795</ele>
        <time>2015-01-17T12:38:39Z</time>
      </trkpt>
      <trkpt lat="42.28928" lon="2.49002">
        <ele>796</ele>
        <time>2015-01-17T12:38:48Z</time>
      </trkpt>
      <trkpt lat="42.2893" lon="2.48989">
        <ele>796</ele>
        <time>2015-01-17T12:38:54Z</time>
      </trkpt>
      <trkpt lat="42.28933" lon="2.48978">
        <ele>796</ele>
        <time>2015-01-17T12:38:59Z</time>
      </trkpt>
      <trkpt lat="42.28937" lon="2.48967">
        <ele>797</ele>
        <time>2015-01-17T12:39:05Z</time>
      </trkpt>
      <trkpt lat="42.28937" lon="2.48953">
        <ele>798</ele>
        <time>2015-01-17T12:39:11Z</time>
      </trkpt>
      <trkpt lat="42.28934" lon="2.4894">
        <ele>798</ele>
        <time>2015-01-17T12:39:15Z</time>
      </trkpt>
      <trkpt lat="42.2893" lon="2.48925">
        <ele>798</ele>
        <time>2015-01-17T12:39:19Z</time>
      </trkpt>
      <trkpt lat="42.28928" lon="2.48909">
        <ele>798</ele>
        <time>2015-01-17T12:39:23Z</time>
      </trkpt>
      <trkpt lat="42.28928" lon="2.48894">
        <ele>798</ele>
        <time>2015-01-17T12:39:27Z</time>
      </trkpt>
      <trkpt lat="42.28929" lon="2.48878">
        <ele>795</ele>
        <time>2015-01-17T12:39:31Z</time>
      </trkpt>
      <trkpt lat="42.28926" lon="2.48862">
        <ele>792</ele>
        <time>2015-01-17T12:39:36Z</time>
      </trkpt>
      <trkpt lat="42.28923" lon="2.48846">
        <ele>791.6</ele>
        <time>2015-01-17T12:39:40Z</time>
      </trkpt>
      <trkpt lat="42.28919" lon="2.48832">
        <ele>791</ele>
        <time>2015-01-17T12:39:44Z</time>
      </trkpt>
      <trkpt lat="42.28914" lon="2.4882">
        <ele>790</ele>
        <time>2015-01-17T12:39:48Z</time>
      </trkpt>
      <trkpt lat="42.28906" lon="2.48808">
        <ele>790</ele>
        <time>2015-01-17T12:39:53Z</time>
      </trkpt>
      <trkpt lat="42.28898" lon="2.48798">
        <ele>790</ele>
        <time>2015-01-17T12:39:57Z</time>
      </trkpt>
      <trkpt lat="42.28888" lon="2.48792">
        <ele>787</ele>
        <time>2015-01-17T12:40:01Z</time>
      </trkpt>
      <trkpt lat="42.28878" lon="2.48787">
        <ele>787.7</ele>
        <time>2015-01-17T12:40:05Z</time>
      </trkpt>
      <trkpt lat="42.28866" lon="2.48784">
        <ele>789.6</ele>
        <time>2015-01-17T12:40:10Z</time>
      </trkpt>
      <trkpt lat="42.28856" lon="2.48782">
        <ele>790</ele>
        <time>2015-01-17T12:40:14Z</time>
      </trkpt>
      <trkpt lat="42.28843" lon="2.48781">
        <ele>790</ele>
        <time>2015-01-17T12:40:19Z</time>
      </trkpt>
      <trkpt lat="42.28832" lon="2.48781">
        <ele>789</ele>
        <time>2015-01-17T12:40:24Z</time>
      </trkpt>
      <trkpt lat="42.28824" lon="2.48779">
        <ele>789</ele>
        <time>2015-01-17T12:40:29Z</time>
      </trkpt>
      <trkpt lat="42.28816" lon="2.4877">
        <ele>790</ele>
        <time>2015-01-17T12:40:37Z</time>
      </trkpt>
      <trkpt lat="42.28814" lon="2.48758">
        <ele>792</ele>
        <time>2015-01-17T12:40:44Z</time>
      </trkpt>
      <trkpt lat="42.28813" lon="2.4875">
        <ele>792</ele>
        <time>2015-01-17T12:40:49Z</time>
      </trkpt>
      <trkpt lat="42.28811" lon="2.48736">
        <ele>794</ele>
        <time>2015-01-17T12:40:56Z</time>
      </trkpt>
      <trkpt lat="42.28807" lon="2.48725">
        <ele>795</ele>
        <time>2015-01-17T12:41:01Z</time>
      </trkpt>
      <trkpt lat="42.28798" lon="2.48714">
        <ele>795</ele>
        <time>2015-01-17T12:41:06Z</time>
      </trkpt>
      <trkpt lat="42.28789" lon="2.48706">
        <ele>795</ele>
        <time>2015-01-17T12:41:10Z</time>
      </trkpt>
      <trkpt lat="42.2878" lon="2.48695">
        <ele>795</ele>
        <time>2015-01-17T12:41:14Z</time>
      </trkpt>
      <trkpt lat="42.28776" lon="2.48682">
        <ele>795</ele>
        <time>2015-01-17T12:41:18Z</time>
      </trkpt>
      <trkpt lat="42.28772" lon="2.48668">
        <ele>794</ele>
        <time>2015-01-17T12:41:22Z</time>
      </trkpt>
      <trkpt lat="42.28768" lon="2.48654">
        <ele>794</ele>
        <time>2015-01-17T12:41:26Z</time>
      </trkpt>
      <trkpt lat="42.28764" lon="2.48642">
        <ele>793.6</ele>
        <time>2015-01-17T12:41:30Z</time>
      </trkpt>
      <trkpt lat="42.28756" lon="2.48633">
        <ele>793</ele>
        <time>2015-01-17T12:41:34Z</time>
      </trkpt>
      <trkpt lat="42.28748" lon="2.48624">
        <ele>793</ele>
        <time>2015-01-17T12:41:38Z</time>
      </trkpt>
      <trkpt lat="42.2874" lon="2.48617">
        <ele>793</ele>
        <time>2015-01-17T12:41:42Z</time>
      </trkpt>
      <trkpt lat="42.28731" lon="2.4861">
        <ele>793</ele>
        <time>2015-01-17T12:41:46Z</time>
      </trkpt>
      <trkpt lat="42.28721" lon="2.48605">
        <ele>793.7</ele>
        <time>2015-01-17T12:41:50Z</time>
      </trkpt>
      <trkpt lat="42.28711" lon="2.486">
        <ele>795</ele>
        <time>2015-01-17T12:41:54Z</time>
      </trkpt>
      <trkpt lat="42.28705" lon="2.48589">
        <ele>795</ele>
        <time>2015-01-17T12:41:58Z</time>
      </trkpt>
      <trkpt lat="42.28702" lon="2.48574">
        <ele>795</ele>
        <time>2015-01-17T12:42:02Z</time>
      </trkpt>
      <trkpt lat="42.28697" lon="2.4856">
        <ele>795</ele>
        <time>2015-01-17T12:42:06Z</time>
      </trkpt>
      <trkpt lat="42.2869" lon="2.48547">
        <ele>794.3</ele>
        <time>2015-01-17T12:42:10Z</time>
      </trkpt>
      <trkpt lat="42.28683" lon="2.48537">
        <ele>793</ele>
        <time>2015-01-17T12:42:14Z</time>
      </trkpt>
      <trkpt lat="42.28674" lon="2.48528">
        <ele>793</ele>
        <time>2015-01-17T12:42:18Z</time>
      </trkpt>
      <trkpt lat="42.28665" lon="2.48518">
        <ele>792</ele>
        <time>2015-01-17T12:42:22Z</time>
      </trkpt>
      <trkpt lat="42.28658" lon="2.48508">
        <ele>792</ele>
        <time>2015-01-17T12:42:26Z</time>
      </trkpt>
      <trkpt lat="42.2865" lon="2.48494">
        <ele>790.9</ele>
        <time>2015-01-17T12:42:30Z</time>
      </trkpt>
      <trkpt lat="42.28641" lon="2.48486">
        <ele>790</ele>
        <time>2015-01-17T12:42:34Z</time>
      </trkpt>
      <trkpt lat="42.2863" lon="2.4848">
        <ele>790</ele>
        <time>2015-01-17T12:42:38Z</time>
      </trkpt>
      <trkpt lat="42.28621" lon="2.48472">
        <ele>789</ele>
        <time>2015-01-17T12:42:42Z</time>
      </trkpt>
      <trkpt lat="42.28611" lon="2.48464">
        <ele>789</ele>
        <time>2015-01-17T12:42:46Z</time>
      </trkpt>
      <trkpt lat="42.286" lon="2.48461">
        <ele>789</ele>
        <time>2015-01-17T12:42:50Z</time>
      </trkpt>
      <trkpt lat="42.2859" lon="2.48461">
        <ele>789</ele>
        <time>2015-01-17T12:42:54Z</time>
      </trkpt>
      <trkpt lat="42.28579" lon="2.48459">
        <ele>789</ele>
        <time>2015-01-17T12:42:58Z</time>
      </trkpt>
      <trkpt lat="42.2857" lon="2.48451">
        <ele>788</ele>
        <time>2015-01-17T12:43:02Z</time>
      </trkpt>
      <trkpt lat="42.28564" lon="2.48441">
        <ele>789</ele>
        <time>2015-01-17T12:43:12Z</time>
      </trkpt>
      <trkpt lat="42.2856" lon="2.48432">
        <ele>789</ele>
        <time>2015-01-17T12:43:18Z</time>
      </trkpt>
      <trkpt lat="42.28556" lon="2.48423">
        <ele>788</ele>
        <time>2015-01-17T12:43:23Z</time>
      </trkpt>
      <trkpt lat="42.28552" lon="2.48415">
        <ele>788</ele>
        <time>2015-01-17T12:43:28Z</time>
      </trkpt>
      <trkpt lat="42.28548" lon="2.48408">
        <ele>787</ele>
        <time>2015-01-17T12:43:32Z</time>
      </trkpt>
      <trkpt lat="42.28544" lon="2.48401">
        <ele>787</ele>
        <time>2015-01-17T12:43:37Z</time>
      </trkpt>
      <trkpt lat="42.2854" lon="2.48392">
        <ele>787</ele>
        <time>2015-01-17T12:43:42Z</time>
      </trkpt>
      <trkpt lat="42.28538" lon="2.48382">
        <ele>787</ele>
        <time>2015-01-17T12:43:47Z</time>
      </trkpt>
      <trkpt lat="42.28538" lon="2.48372">
        <ele>787</ele>
        <time>2015-01-17T12:43:52Z</time>
      </trkpt>
      <trkpt lat="42.2854" lon="2.48363">
        <ele>786</ele>
        <time>2015-01-17T12:44:05Z</time>
      </trkpt>
      <trkpt lat="42.28538" lon="2.48352">
        <ele>785.6</ele>
        <time>2015-01-17T12:44:10Z</time>
      </trkpt>
      <trkpt lat="42.28536" lon="2.48345">
        <ele>785</ele>
        <time>2015-01-17T12:44:14Z</time>
      </trkpt>
      <trkpt lat="42.28532" lon="2.48336">
        <ele>785</ele>
        <time>2015-01-17T12:44:18Z</time>
      </trkpt>
      <trkpt lat="42.28527" lon="2.48324">
        <ele>783</ele>
        <time>2015-01-17T12:44:22Z</time>
      </trkpt>
      <trkpt lat="42.28523" lon="2.48316">
        <ele>783</ele>
        <time>2015-01-17T12:44:25Z</time>
      </trkpt>
      <trkpt lat="42.28515" lon="2.48307">
        <ele>783</ele>
        <time>2015-01-17T12:44:29Z</time>
      </trkpt>
      <trkpt lat="42.28507" lon="2.48299">
        <ele>781</ele>
        <time>2015-01-17T12:44:33Z</time>
      </trkpt>
      <trkpt lat="42.28499" lon="2.48294">
        <ele>781</ele>
        <time>2015-01-17T12:44:36Z</time>
      </trkpt>
      <trkpt lat="42.28488" lon="2.48291">
        <ele>780.3</ele>
        <time>2015-01-17T12:44:40Z</time>
      </trkpt>
      <trkpt lat="42.28479" lon="2.4829">
        <ele>779</ele>
        <time>2015-01-17T12:44:43Z</time>
      </trkpt>
      <trkpt lat="42.2847" lon="2.4829">
        <ele>779</ele>
        <time>2015-01-17T12:44:46Z</time>
      </trkpt>
      <trkpt lat="42.28459" lon="2.48292">
        <ele>778.6</ele>
        <time>2015-01-17T12:44:50Z</time>
      </trkpt>
      <trkpt lat="42.28448" lon="2.48292">
        <ele>778</ele>
        <time>2015-01-17T12:44:54Z</time>
      </trkpt>
      <trkpt lat="42.2844" lon="2.48291">
        <ele>778</ele>
        <time>2015-01-17T12:44:57Z</time>
      </trkpt>
      <trkpt lat="42.28432" lon="2.48285">
        <ele>775.7</ele>
        <time>2015-01-17T12:45:00Z</time>
      </trkpt>
      <trkpt lat="42.28426" lon="2.48279">
        <ele>774</ele>
        <time>2015-01-17T12:45:03Z</time>
      </trkpt>
      <trkpt lat="42.28417" lon="2.48271">
        <ele>773</ele>
        <time>2015-01-17T12:45:07Z</time>
      </trkpt>
      <trkpt lat="42.28411" lon="2.48264">
        <ele>772.4</ele>
        <time>2015-01-17T12:45:10Z</time>
      </trkpt>
      <trkpt lat="42.28405" lon="2.48258">
        <ele>772</ele>
        <time>2015-01-17T12:45:13Z</time>
      </trkpt>
      <trkpt lat="42.28398" lon="2.48252">
        <ele>772</ele>
        <time>2015-01-17T12:45:16Z</time>
      </trkpt>
      <trkpt lat="42.28392" lon="2.48245">
        <ele>772</ele>
        <time>2015-01-17T12:45:19Z</time>
      </trkpt>
      <trkpt lat="42.28387" lon="2.48235">
        <ele>770</ele>
        <time>2015-01-17T12:45:22Z</time>
      </trkpt>
      <trkpt lat="42.28381" lon="2.48224">
        <ele>770</ele>
        <time>2015-01-17T12:45:25Z</time>
      </trkpt>
      <trkpt lat="42.28376" lon="2.48212">
        <ele>770</ele>
        <time>2015-01-17T12:45:28Z</time>
      </trkpt>
      <trkpt lat="42.2837" lon="2.48199">
        <ele>768</ele>
        <time>2015-01-17T12:45:31Z</time>
      </trkpt>
      <trkpt lat="42.28367" lon="2.48185">
        <ele>768.6</ele>
        <time>2015-01-17T12:45:35Z</time>
      </trkpt>
      <trkpt lat="42.28364" lon="2.48171">
        <ele>769</ele>
        <time>2015-01-17T12:45:39Z</time>
      </trkpt>
      <trkpt lat="42.28361" lon="2.48156">
        <ele>770</ele>
        <time>2015-01-17T12:45:44Z</time>
      </trkpt>
      <trkpt lat="42.28358" lon="2.48142">
        <ele>772</ele>
        <time>2015-01-17T12:45:49Z</time>
      </trkpt>
      <trkpt lat="42.28357" lon="2.48127">
        <ele>774</ele>
        <time>2015-01-17T12:45:54Z</time>
      </trkpt>
      <trkpt lat="42.28355" lon="2.48112">
        <ele>777</ele>
        <time>2015-01-17T12:45:59Z</time>
      </trkpt>
      <trkpt lat="42.28355" lon="2.48096">
        <ele>778</ele>
        <time>2015-01-17T12:46:04Z</time>
      </trkpt>
      <trkpt lat="42.28358" lon="2.48083">
        <ele>780</ele>
        <time>2015-01-17T12:46:08Z</time>
      </trkpt>
      <trkpt lat="42.28362" lon="2.48073">
        <ele>782</ele>
        <time>2015-01-17T12:46:16Z</time>
      </trkpt>
      <trkpt lat="42.28364" lon="2.48059">
        <ele>782</ele>
        <time>2015-01-17T12:46:23Z</time>
      </trkpt>
      <trkpt lat="42.28367" lon="2.48045">
        <ele>782</ele>
        <time>2015-01-17T12:46:29Z</time>
      </trkpt>
      <trkpt lat="42.28373" lon="2.48033">
        <ele>783</ele>
        <time>2015-01-17T12:46:36Z</time>
      </trkpt>
      <trkpt lat="42.28379" lon="2.48023">
        <ele>784</ele>
        <time>2015-01-17T12:46:43Z</time>
      </trkpt>
      <trkpt lat="42.28385" lon="2.48017">
        <ele>784</ele>
        <time>2015-01-17T12:46:49Z</time>
      </trkpt>
      <trkpt lat="42.28389" lon="2.48004">
        <ele>787</ele>
        <time>2015-01-17T12:47:03Z</time>
      </trkpt>
      <trkpt lat="42.28393" lon="2.47992">
        <ele>787</ele>
        <time>2015-01-17T12:47:10Z</time>
      </trkpt>
      <trkpt lat="42.28396" lon="2.47979">
        <ele>787</ele>
        <time>2015-01-17T12:47:18Z</time>
      </trkpt>
      <trkpt lat="42.28397" lon="2.47966">
        <ele>788</ele>
        <time>2015-01-17T12:47:25Z</time>
      </trkpt>
      <trkpt lat="42.28395" lon="2.47952">
        <ele>788</ele>
        <time>2015-01-17T12:47:31Z</time>
      </trkpt>
      <trkpt lat="42.28394" lon="2.47938">
        <ele>788.6</ele>
        <time>2015-01-17T12:47:40Z</time>
      </trkpt>
      <trkpt lat="42.28392" lon="2.47925">
        <ele>789</ele>
        <time>2015-01-17T12:47:47Z</time>
      </trkpt>
      <trkpt lat="42.28392" lon="2.47914">
        <ele>790</ele>
        <time>2015-01-17T12:47:53Z</time>
      </trkpt>
      <trkpt lat="42.28391" lon="2.479">
        <ele>789.4</ele>
        <time>2015-01-17T12:48:00Z</time>
      </trkpt>
      <trkpt lat="42.28389" lon="2.47888">
        <ele>789</ele>
        <time>2015-01-17T12:48:08Z</time>
      </trkpt>
      <trkpt lat="42.2839" lon="2.47875">
        <ele>790</ele>
        <time>2015-01-17T12:48:13Z</time>
      </trkpt>
      <trkpt lat="42.28392" lon="2.4786">
        <ele>790</ele>
        <time>2015-01-17T12:48:19Z</time>
      </trkpt>
      <trkpt lat="42.28389" lon="2.47847">
        <ele>790</ele>
        <time>2015-01-17T12:48:25Z</time>
      </trkpt>
      <trkpt lat="42.28382" lon="2.47837">
        <ele>790</ele>
        <time>2015-01-17T12:48:32Z</time>
      </trkpt>
      <trkpt lat="42.28373" lon="2.47829">
        <ele>790</ele>
        <time>2015-01-17T12:48:39Z</time>
      </trkpt>
      <trkpt lat="42.2837" lon="2.47817">
        <ele>790</ele>
        <time>2015-01-17T12:48:45Z</time>
      </trkpt>
      <trkpt lat="42.28367" lon="2.47804">
        <ele>792</ele>
        <time>2015-01-17T12:48:51Z</time>
      </trkpt>
      <trkpt lat="42.28368" lon="2.4779">
        <ele>792</ele>
        <time>2015-01-17T12:48:59Z</time>
      </trkpt>
      <trkpt lat="42.28372" lon="2.4778">
        <ele>794.6</ele>
        <time>2015-01-17T12:49:05Z</time>
      </trkpt>
      <trkpt lat="42.28378" lon="2.47768">
        <ele>795</ele>
        <time>2015-01-17T12:49:12Z</time>
      </trkpt>
      <trkpt lat="42.28385" lon="2.47756">
        <ele>795</ele>
        <time>2015-01-17T12:49:19Z</time>
      </trkpt>
      <trkpt lat="42.28391" lon="2.47747">
        <ele>796</ele>
        <time>2015-01-17T12:49:26Z</time>
      </trkpt>
      <trkpt lat="42.28399" lon="2.47736">
        <ele>797</ele>
        <time>2015-01-17T12:49:33Z</time>
      </trkpt>
      <trkpt lat="42.28405" lon="2.47723">
        <ele>797</ele>
        <time>2015-01-17T12:49:39Z</time>
      </trkpt>
      <trkpt lat="42.2841" lon="2.47712">
        <ele>797</ele>
        <time>2015-01-17T12:49:45Z</time>
      </trkpt>
      <trkpt lat="42.28415" lon="2.47699">
        <ele>796</ele>
        <time>2015-01-17T12:49:52Z</time>
      </trkpt>
      <trkpt lat="42.28421" lon="2.47687">
        <ele>796</ele>
        <time>2015-01-17T12:49:59Z</time>
      </trkpt>
      <trkpt lat="42.28428" lon="2.47677">
        <ele>794</ele>
        <time>2015-01-17T12:50:05Z</time>
      </trkpt>
      <trkpt lat="42.28437" lon="2.47672">
        <ele>794</ele>
        <time>2015-01-17T12:50:12Z</time>
      </trkpt>
      <trkpt lat="42.28446" lon="2.47664">
        <ele>794</ele>
        <time>2015-01-17T12:50:18Z</time>
      </trkpt>
      <trkpt lat="42.28454" lon="2.47654">
        <ele>794</ele>
        <time>2015-01-17T12:50:24Z</time>
      </trkpt>
      <trkpt lat="42.28463" lon="2.47646">
        <ele>794</ele>
        <time>2015-01-17T12:50:32Z</time>
      </trkpt>
      <trkpt lat="42.28469" lon="2.47634">
        <ele>794</ele>
        <time>2015-01-17T12:50:39Z</time>
      </trkpt>
      <trkpt lat="42.28472" lon="2.47621">
        <ele>794</ele>
        <time>2015-01-17T12:50:47Z</time>
      </trkpt>
      <trkpt lat="42.28473" lon="2.47607">
        <ele>794</ele>
        <time>2015-01-17T12:50:55Z</time>
      </trkpt>
      <trkpt lat="42.28472" lon="2.47593">
        <ele>793</ele>
        <time>2015-01-17T12:51:03Z</time>
      </trkpt>
      <trkpt lat="42.28469" lon="2.47578">
        <ele>794</ele>
        <time>2015-01-17T12:51:11Z</time>
      </trkpt>
      <trkpt lat="42.28465" lon="2.47566">
        <ele>794</ele>
        <time>2015-01-17T12:51:17Z</time>
      </trkpt>
      <trkpt lat="42.28462" lon="2.47551">
        <ele>793</ele>
        <time>2015-01-17T12:51:23Z</time>
      </trkpt>
      <trkpt lat="42.28461" lon="2.47539">
        <ele>793</ele>
        <time>2015-01-17T12:51:29Z</time>
      </trkpt>
      <trkpt lat="42.28463" lon="2.47524">
        <ele>792</ele>
        <time>2015-01-17T12:51:36Z</time>
      </trkpt>
      <trkpt lat="42.28467" lon="2.47511">
        <ele>792</ele>
        <time>2015-01-17T12:51:43Z</time>
      </trkpt>
      <trkpt lat="42.28471" lon="2.47498">
        <ele>792</ele>
        <time>2015-01-17T12:51:49Z</time>
      </trkpt>
      <trkpt lat="42.28473" lon="2.47485">
        <ele>793</ele>
        <time>2015-01-17T12:51:55Z</time>
      </trkpt>
      <trkpt lat="42.28475" lon="2.4747">
        <ele>792</ele>
        <time>2015-01-17T12:52:02Z</time>
      </trkpt>
      <trkpt lat="42.28479" lon="2.47459">
        <ele>791.4</ele>
        <time>2015-01-17T12:52:20Z</time>
      </trkpt>
      <trkpt lat="42.28479" lon="2.47449">
        <ele>791</ele>
        <time>2015-01-17T12:52:25Z</time>
      </trkpt>
      <trkpt lat="42.28483" lon="2.47443">
        <ele>793</ele>
        <time>2015-01-17T12:52:34Z</time>
      </trkpt>
      <trkpt lat="42.28478" lon="2.47439">
        <ele>793</ele>
        <time>2015-01-17T13:15:35Z</time>
      </trkpt>
      <trkpt lat="42.28474" lon="2.47432">
        <ele>793</ele>
        <time>2015-01-17T13:15:42Z</time>
      </trkpt>
      <trkpt lat="42.28469" lon="2.47429">
        <ele>793</ele>
        <time>2015-01-17T13:15:46Z</time>
      </trkpt>
      <trkpt lat="42.28465" lon="2.47423">
        <ele>793</ele>
        <time>2015-01-17T13:15:51Z</time>
      </trkpt>
      <trkpt lat="42.28461" lon="2.4742">
        <ele>793</ele>
        <time>2015-01-17T13:15:54Z</time>
      </trkpt>
      <trkpt lat="42.28455" lon="2.47416">
        <ele>793</ele>
        <time>2015-01-17T13:15:58Z</time>
      </trkpt>
      <trkpt lat="42.28449" lon="2.47412">
        <ele>791</ele>
        <time>2015-01-17T13:16:02Z</time>
      </trkpt>
      <trkpt lat="42.28444" lon="2.47407">
        <ele>791</ele>
        <time>2015-01-17T13:16:06Z</time>
      </trkpt>
      <trkpt lat="42.28438" lon="2.47399">
        <ele>790.5</ele>
        <time>2015-01-17T13:16:10Z</time>
      </trkpt>
      <trkpt lat="42.28431" lon="2.47392">
        <ele>790</ele>
        <time>2015-01-17T13:16:14Z</time>
      </trkpt>
      <trkpt lat="42.28427" lon="2.47385">
        <ele>790</ele>
        <time>2015-01-17T13:16:17Z</time>
      </trkpt>
      <trkpt lat="42.28424" lon="2.47378">
        <ele>789.1</ele>
        <time>2015-01-17T13:16:20Z</time>
      </trkpt>
      <trkpt lat="42.28423" lon="2.47368">
        <ele>788</ele>
        <time>2015-01-17T13:16:23Z</time>
      </trkpt>
      <trkpt lat="42.2842" lon="2.47359">
        <ele>786</ele>
        <time>2015-01-17T13:16:27Z</time>
      </trkpt>
      <trkpt lat="42.28411" lon="2.47356">
        <ele>785</ele>
        <time>2015-01-17T13:16:31Z</time>
      </trkpt>
      <trkpt lat="42.28404" lon="2.47352">
        <ele>785</ele>
        <time>2015-01-17T13:16:34Z</time>
      </trkpt>
      <trkpt lat="42.28398" lon="2.47347">
        <ele>783</ele>
        <time>2015-01-17T13:16:37Z</time>
      </trkpt>
      <trkpt lat="42.28393" lon="2.47341">
        <ele>782.1</ele>
        <time>2015-01-17T13:16:40Z</time>
      </trkpt>
      <trkpt lat="42.28384" lon="2.47337">
        <ele>781</ele>
        <time>2015-01-17T13:16:44Z</time>
      </trkpt>
      <trkpt lat="42.28377" lon="2.47334">
        <ele>779</ele>
        <time>2015-01-17T13:16:47Z</time>
      </trkpt>
      <trkpt lat="42.2837" lon="2.47328">
        <ele>775.5</ele>
        <time>2015-01-17T13:16:51Z</time>
      </trkpt>
      <trkpt lat="42.28368" lon="2.47319">
        <ele>775</ele>
        <time>2015-01-17T13:16:55Z</time>
      </trkpt>
      <trkpt lat="42.28369" lon="2.47313">
        <ele>776</ele>
        <time>2015-01-17T13:18:39Z</time>
      </trkpt>
      <trkpt lat="42.28367" lon="2.47305">
        <ele>776</ele>
        <time>2015-01-17T13:18:43Z</time>
      </trkpt>
      <trkpt lat="42.28366" lon="2.47298">
        <ele>776</ele>
        <time>2015-01-17T13:18:49Z</time>
      </trkpt>
      <trkpt lat="42.28365" lon="2.47289">
        <ele>775</ele>
        <time>2015-01-17T13:18:53Z</time>
      </trkpt>
      <trkpt lat="42.28362" lon="2.47279">
        <ele>775</ele>
        <time>2015-01-17T13:18:57Z</time>
      </trkpt>
      <trkpt lat="42.28357" lon="2.47268">
        <ele>772</ele>
        <time>2015-01-17T13:19:01Z</time>
      </trkpt>
      <trkpt lat="42.28352" lon="2.47259">
        <ele>772</ele>
        <time>2015-01-17T13:19:04Z</time>
      </trkpt>
      <trkpt lat="42.28346" lon="2.4725">
        <ele>772</ele>
        <time>2015-01-17T13:19:08Z</time>
      </trkpt>
      <trkpt lat="42.28337" lon="2.47244">
        <ele>772</ele>
        <time>2015-01-17T13:19:12Z</time>
      </trkpt>
      <trkpt lat="42.2833" lon="2.47237">
        <ele>772</ele>
        <time>2015-01-17T13:19:16Z</time>
      </trkpt>
      <trkpt lat="42.28321" lon="2.47231">
        <ele>771.5</ele>
        <time>2015-01-17T13:19:20Z</time>
      </trkpt>
      <trkpt lat="42.28313" lon="2.47225">
        <ele>771</ele>
        <time>2015-01-17T13:19:24Z</time>
      </trkpt>
      <trkpt lat="42.28303" lon="2.47223">
        <ele>771</ele>
        <time>2015-01-17T13:19:28Z</time>
      </trkpt>
      <trkpt lat="42.28294" lon="2.47223">
        <ele>770</ele>
        <time>2015-01-17T13:19:32Z</time>
      </trkpt>
      <trkpt lat="42.28286" lon="2.47224">
        <ele>770</ele>
        <time>2015-01-17T13:19:35Z</time>
      </trkpt>
      <trkpt lat="42.28279" lon="2.4722">
        <ele>770</ele>
        <time>2015-01-17T13:19:38Z</time>
      </trkpt>
      <trkpt lat="42.2827" lon="2.47214">
        <ele>767</ele>
        <time>2015-01-17T13:19:42Z</time>
      </trkpt>
      <trkpt lat="42.28262" lon="2.47205">
        <ele>767</ele>
        <time>2015-01-17T13:19:46Z</time>
      </trkpt>
      <trkpt lat="42.28257" lon="2.47199">
        <ele>767</ele>
        <time>2015-01-17T13:19:50Z</time>
      </trkpt>
      <trkpt lat="42.2825" lon="2.47192">
        <ele>767</ele>
        <time>2015-01-17T13:19:55Z</time>
      </trkpt>
      <trkpt lat="42.28239" lon="2.47192">
        <ele>765.1</ele>
        <time>2015-01-17T13:20:00Z</time>
      </trkpt>
      <trkpt lat="42.2823" lon="2.47189">
        <ele>763</ele>
        <time>2015-01-17T13:20:04Z</time>
      </trkpt>
      <trkpt lat="42.2822" lon="2.47186">
        <ele>762</ele>
        <time>2015-01-17T13:20:09Z</time>
      </trkpt>
      <trkpt lat="42.28209" lon="2.47187">
        <ele>759.5</ele>
        <time>2015-01-17T13:20:15Z</time>
      </trkpt>
      <trkpt lat="42.28197" lon="2.47186">
        <ele>758.5</ele>
        <time>2015-01-17T13:20:20Z</time>
      </trkpt>
      <trkpt lat="42.28187" lon="2.47185">
        <ele>758</ele>
        <time>2015-01-17T13:20:24Z</time>
      </trkpt>
      <trkpt lat="42.28178" lon="2.47186">
        <ele>755</ele>
        <time>2015-01-17T13:20:28Z</time>
      </trkpt>
      <trkpt lat="42.28168" lon="2.47187">
        <ele>753</ele>
        <time>2015-01-17T13:20:32Z</time>
      </trkpt>
      <trkpt lat="42.28157" lon="2.47187">
        <ele>750</ele>
        <time>2015-01-17T13:20:36Z</time>
      </trkpt>
      <trkpt lat="42.28146" lon="2.47186">
        <ele>749.5</ele>
        <time>2015-01-17T13:20:40Z</time>
      </trkpt>
      <trkpt lat="42.28136" lon="2.47186">
        <ele>749</ele>
        <time>2015-01-17T13:20:44Z</time>
      </trkpt>
      <trkpt lat="42.28125" lon="2.47185">
        <ele>747</ele>
        <time>2015-01-17T13:20:48Z</time>
      </trkpt>
      <trkpt lat="42.28115" lon="2.47186">
        <ele>746</ele>
        <time>2015-01-17T13:20:52Z</time>
      </trkpt>
      <trkpt lat="42.28104" lon="2.4719">
        <ele>745</ele>
        <time>2015-01-17T13:20:57Z</time>
      </trkpt>
      <trkpt lat="42.28094" lon="2.47192">
        <ele>742</ele>
        <time>2015-01-17T13:21:01Z</time>
      </trkpt>
      <trkpt lat="42.28084" lon="2.47195">
        <ele>742</ele>
        <time>2015-01-17T13:21:05Z</time>
      </trkpt>
      <trkpt lat="42.28074" lon="2.47197">
        <ele>742</ele>
        <time>2015-01-17T13:21:09Z</time>
      </trkpt>
      <trkpt lat="42.28064" lon="2.47205">
        <ele>741</ele>
        <time>2015-01-17T13:21:18Z</time>
      </trkpt>
      <trkpt lat="42.28054" lon="2.4721">
        <ele>735.1</ele>
        <time>2015-01-17T13:21:25Z</time>
      </trkpt>
      <trkpt lat="42.28046" lon="2.47218">
        <ele>733.1</ele>
        <time>2015-01-17T13:21:30Z</time>
      </trkpt>
      <trkpt lat="42.28036" lon="2.4722">
        <ele>732</ele>
        <time>2015-01-17T13:21:34Z</time>
      </trkpt>
      <trkpt lat="42.28025" lon="2.47223">
        <ele>731</ele>
        <time>2015-01-17T13:21:39Z</time>
      </trkpt>
      <trkpt lat="42.28014" lon="2.47226">
        <ele>730</ele>
        <time>2015-01-17T13:21:44Z</time>
      </trkpt>
      <trkpt lat="42.28002" lon="2.4723">
        <ele>730</ele>
        <time>2015-01-17T13:21:49Z</time>
      </trkpt>
      <trkpt lat="42.27992" lon="2.47232">
        <ele>727</ele>
        <time>2015-01-17T13:21:53Z</time>
      </trkpt>
      <trkpt lat="42.2798" lon="2.47232">
        <ele>726</ele>
        <time>2015-01-17T13:21:58Z</time>
      </trkpt>
      <trkpt lat="42.27968" lon="2.47232">
        <ele>725</ele>
        <time>2015-01-17T13:22:02Z</time>
      </trkpt>
      <trkpt lat="42.27957" lon="2.47233">
        <ele>724</ele>
        <time>2015-01-17T13:22:06Z</time>
      </trkpt>
      <trkpt lat="42.27946" lon="2.47232">
        <ele>723.4</ele>
        <time>2015-01-17T13:22:10Z</time>
      </trkpt>
      <trkpt lat="42.27935" lon="2.47231">
        <ele>723</ele>
        <time>2015-01-17T13:22:14Z</time>
      </trkpt>
      <trkpt lat="42.27927" lon="2.47236">
        <ele>723</ele>
        <time>2015-01-17T13:22:17Z</time>
      </trkpt>
      <trkpt lat="42.27923" lon="2.47248">
        <ele>721</ele>
        <time>2015-01-17T13:22:21Z</time>
      </trkpt>
      <trkpt lat="42.27931" lon="2.47257">
        <ele>721</ele>
        <time>2015-01-17T13:22:25Z</time>
      </trkpt>
      <trkpt lat="42.27938" lon="2.47262">
        <ele>721</ele>
        <time>2015-01-17T13:22:28Z</time>
      </trkpt>
      <trkpt lat="42.27946" lon="2.47267">
        <ele>718</ele>
        <time>2015-01-17T13:22:31Z</time>
      </trkpt>
      <trkpt lat="42.2795" lon="2.47278">
        <ele>717.4</ele>
        <time>2015-01-17T13:22:35Z</time>
      </trkpt>
      <trkpt lat="42.27942" lon="2.47285">
        <ele>717</ele>
        <time>2015-01-17T13:22:38Z</time>
      </trkpt>
      <trkpt lat="42.27934" lon="2.47288">
        <ele>714</ele>
        <time>2015-01-17T13:22:41Z</time>
      </trkpt>
      <trkpt lat="42.27926" lon="2.47292">
        <ele>714</ele>
        <time>2015-01-17T13:22:44Z</time>
      </trkpt>
      <trkpt lat="42.27916" lon="2.47296">
        <ele>712</ele>
        <time>2015-01-17T13:22:48Z</time>
      </trkpt>
      <trkpt lat="42.27906" lon="2.47298">
        <ele>710</ele>
        <time>2015-01-17T13:22:52Z</time>
      </trkpt>
      <trkpt lat="42.27894" lon="2.47297">
        <ele>709</ele>
        <time>2015-01-17T13:22:56Z</time>
      </trkpt>
      <trkpt lat="42.27886" lon="2.47303">
        <ele>707</ele>
        <time>2015-01-17T13:23:01Z</time>
      </trkpt>
      <trkpt lat="42.27893" lon="2.47314">
        <ele>706.4</ele>
        <time>2015-01-17T13:23:05Z</time>
      </trkpt>
      <trkpt lat="42.27901" lon="2.47321">
        <ele>706</ele>
        <time>2015-01-17T13:23:09Z</time>
      </trkpt>
      <trkpt lat="42.27912" lon="2.47326">
        <ele>704</ele>
        <time>2015-01-17T13:23:14Z</time>
      </trkpt>
      <trkpt lat="42.27922" lon="2.47334">
        <ele>702</ele>
        <time>2015-01-17T13:23:19Z</time>
      </trkpt>
      <trkpt lat="42.27934" lon="2.47338">
        <ele>702</ele>
        <time>2015-01-17T13:23:24Z</time>
      </trkpt>
      <trkpt lat="42.27945" lon="2.47339">
        <ele>701</ele>
        <time>2015-01-17T13:23:28Z</time>
      </trkpt>
      <trkpt lat="42.27957" lon="2.47339">
        <ele>701</ele>
        <time>2015-01-17T13:23:33Z</time>
      </trkpt>
      <trkpt lat="42.27968" lon="2.47337">
        <ele>701</ele>
        <time>2015-01-17T13:23:38Z</time>
      </trkpt>
      <trkpt lat="42.27979" lon="2.47336">
        <ele>698</ele>
        <time>2015-01-17T13:23:42Z</time>
      </trkpt>
      <trkpt lat="42.27989" lon="2.47333">
        <ele>696</ele>
        <time>2015-01-17T13:23:46Z</time>
      </trkpt>
      <trkpt lat="42.28" lon="2.47332">
        <ele>694.9</ele>
        <time>2015-01-17T13:23:50Z</time>
      </trkpt>
      <trkpt lat="42.2801" lon="2.47331">
        <ele>694</ele>
        <time>2015-01-17T13:23:54Z</time>
      </trkpt>
      <trkpt lat="42.28021" lon="2.47331">
        <ele>694</ele>
        <time>2015-01-17T13:23:59Z</time>
      </trkpt>
      <trkpt lat="42.28034" lon="2.47328">
        <ele>691</ele>
        <time>2015-01-17T13:24:03Z</time>
      </trkpt>
      <trkpt lat="42.28046" lon="2.47329">
        <ele>690</ele>
        <time>2015-01-17T13:24:07Z</time>
      </trkpt>
      <trkpt lat="42.28058" lon="2.4733">
        <ele>688</ele>
        <time>2015-01-17T13:24:11Z</time>
      </trkpt>
      <trkpt lat="42.28069" lon="2.4733">
        <ele>687.4</ele>
        <time>2015-01-17T13:24:15Z</time>
      </trkpt>
      <trkpt lat="42.28079" lon="2.47333">
        <ele>687</ele>
        <time>2015-01-17T13:24:19Z</time>
      </trkpt>
      <trkpt lat="42.28088" lon="2.47337">
        <ele>685</ele>
        <time>2015-01-17T13:24:26Z</time>
      </trkpt>
      <trkpt lat="42.28081" lon="2.47347">
        <ele>683</ele>
        <time>2015-01-17T13:24:41Z</time>
      </trkpt>
      <trkpt lat="42.28074" lon="2.47354">
        <ele>681</ele>
        <time>2015-01-17T13:25:01Z</time>
      </trkpt>
      <trkpt lat="42.28066" lon="2.4736">
        <ele>681</ele>
        <time>2015-01-17T13:25:09Z</time>
      </trkpt>
      <trkpt lat="42.28057" lon="2.47365">
        <ele>679</ele>
        <time>2015-01-17T13:25:17Z</time>
      </trkpt>
      <trkpt lat="42.28049" lon="2.47371">
        <ele>677</ele>
        <time>2015-01-17T13:25:23Z</time>
      </trkpt>
      <trkpt lat="42.2804" lon="2.47376">
        <ele>675.4</ele>
        <time>2015-01-17T13:25:30Z</time>
      </trkpt>
      <trkpt lat="42.28029" lon="2.4738">
        <ele>675</ele>
        <time>2015-01-17T13:25:36Z</time>
      </trkpt>
      <trkpt lat="42.28021" lon="2.47387">
        <ele>673</ele>
        <time>2015-01-17T13:25:43Z</time>
      </trkpt>
      <trkpt lat="42.28031" lon="2.47387">
        <ele>672</ele>
        <time>2015-01-17T13:25:52Z</time>
      </trkpt>
      <trkpt lat="42.28041" lon="2.47385">
        <ele>671.3</ele>
        <time>2015-01-17T13:26:00Z</time>
      </trkpt>
      <trkpt lat="42.28053" lon="2.47386">
        <ele>670</ele>
        <time>2015-01-17T13:26:07Z</time>
      </trkpt>
      <trkpt lat="42.28064" lon="2.47386">
        <ele>670</ele>
        <time>2015-01-17T13:26:15Z</time>
      </trkpt>
      <trkpt lat="42.28076" lon="2.47386">
        <ele>668</ele>
        <time>2015-01-17T13:26:23Z</time>
      </trkpt>
      <trkpt lat="42.28079" lon="2.474">
        <ele>667</ele>
        <time>2015-01-17T13:26:31Z</time>
      </trkpt>
      <trkpt lat="42.28071" lon="2.47408">
        <ele>667</ele>
        <time>2015-01-17T13:26:37Z</time>
      </trkpt>
      <trkpt lat="42.28062" lon="2.47412">
        <ele>664</ele>
        <time>2015-01-17T13:26:44Z</time>
      </trkpt>
      <trkpt lat="42.28052" lon="2.47415">
        <ele>662.4</ele>
        <time>2015-01-17T13:26:50Z</time>
      </trkpt>
      <trkpt lat="42.28044" lon="2.47419">
        <ele>662</ele>
        <time>2015-01-17T13:26:56Z</time>
      </trkpt>
      <trkpt lat="42.28035" lon="2.47423">
        <ele>660</ele>
        <time>2015-01-17T13:27:02Z</time>
      </trkpt>
      <trkpt lat="42.28027" lon="2.4743">
        <ele>659</ele>
        <time>2015-01-17T13:27:08Z</time>
      </trkpt>
      <trkpt lat="42.28019" lon="2.47439">
        <ele>657</ele>
        <time>2015-01-17T13:27:13Z</time>
      </trkpt>
      <trkpt lat="42.28008" lon="2.47444">
        <ele>656</ele>
        <time>2015-01-17T13:27:18Z</time>
      </trkpt>
      <trkpt lat="42.27999" lon="2.47449">
        <ele>655</ele>
        <time>2015-01-17T13:27:22Z</time>
      </trkpt>
      <trkpt lat="42.27989" lon="2.47455">
        <ele>655</ele>
        <time>2015-01-17T13:27:27Z</time>
      </trkpt>
      <trkpt lat="42.27979" lon="2.47462">
        <ele>654</ele>
        <time>2015-01-17T13:27:32Z</time>
      </trkpt>
      <trkpt lat="42.2797" lon="2.47467">
        <ele>654</ele>
        <time>2015-01-17T13:27:36Z</time>
      </trkpt>
      <trkpt lat="42.27961" lon="2.47473">
        <ele>652.3</ele>
        <time>2015-01-17T13:27:40Z</time>
      </trkpt>
      <trkpt lat="42.2795" lon="2.47479">
        <ele>649.9</ele>
        <time>2015-01-17T13:27:45Z</time>
      </trkpt>
      <trkpt lat="42.27942" lon="2.47487">
        <ele>649</ele>
        <time>2015-01-17T13:27:49Z</time>
      </trkpt>
      <trkpt lat="42.27933" lon="2.47495">
        <ele>648</ele>
        <time>2015-01-17T13:27:53Z</time>
      </trkpt>
      <trkpt lat="42.27923" lon="2.47502">
        <ele>647</ele>
        <time>2015-01-17T13:27:58Z</time>
      </trkpt>
      <trkpt lat="42.27914" lon="2.47509">
        <ele>646</ele>
        <time>2015-01-17T13:28:03Z</time>
      </trkpt>
      <trkpt lat="42.27905" lon="2.47515">
        <ele>645</ele>
        <time>2015-01-17T13:28:08Z</time>
      </trkpt>
      <trkpt lat="42.27894" lon="2.4752">
        <ele>644</ele>
        <time>2015-01-17T13:28:13Z</time>
      </trkpt>
      <trkpt lat="42.27884" lon="2.47524">
        <ele>644</ele>
        <time>2015-01-17T13:28:17Z</time>
      </trkpt>
      <trkpt lat="42.27872" lon="2.47528">
        <ele>641</ele>
        <time>2015-01-17T13:28:22Z</time>
      </trkpt>
      <trkpt lat="42.27862" lon="2.4753">
        <ele>640</ele>
        <time>2015-01-17T13:28:26Z</time>
      </trkpt>
      <trkpt lat="42.27854" lon="2.47528">
        <ele>639</ele>
        <time>2015-01-17T13:28:31Z</time>
      </trkpt>
      <trkpt lat="42.27845" lon="2.47527">
        <ele>639</ele>
        <time>2015-01-17T13:28:37Z</time>
      </trkpt>
      <trkpt lat="42.27837" lon="2.47524">
        <ele>638</ele>
        <time>2015-01-17T13:28:43Z</time>
      </trkpt>
      <trkpt lat="42.2783" lon="2.4752">
        <ele>638</ele>
        <time>2015-01-17T13:28:49Z</time>
      </trkpt>
      <trkpt lat="42.27824" lon="2.47511">
        <ele>636</ele>
        <time>2015-01-17T13:28:55Z</time>
      </trkpt>
      <trkpt lat="42.27819" lon="2.47501">
        <ele>634</ele>
        <time>2015-01-17T13:29:01Z</time>
      </trkpt>
      <trkpt lat="42.27816" lon="2.4749">
        <ele>634</ele>
        <time>2015-01-17T13:29:07Z</time>
      </trkpt>
      <trkpt lat="42.27807" lon="2.47487">
        <ele>633</ele>
        <time>2015-01-17T13:29:14Z</time>
      </trkpt>
      <trkpt lat="42.27809" lon="2.47499">
        <ele>631</ele>
        <time>2015-01-17T13:29:21Z</time>
      </trkpt>
      <trkpt lat="42.27811" lon="2.47512">
        <ele>631</ele>
        <time>2015-01-17T13:29:29Z</time>
      </trkpt>
      <trkpt lat="42.27816" lon="2.47523">
        <ele>629</ele>
        <time>2015-01-17T13:29:37Z</time>
      </trkpt>
      <trkpt lat="42.27818" lon="2.47531">
        <ele>627</ele>
        <time>2015-01-17T13:30:09Z</time>
      </trkpt>
      <trkpt lat="42.27815" lon="2.47526">
        <ele>628</ele>
        <time>2015-01-17T13:31:01Z</time>
      </trkpt>
      <trkpt lat="42.27811" lon="2.47523">
        <ele>627.4</ele>
        <time>2015-01-17T13:33:40Z</time>
      </trkpt>
      <trkpt lat="42.27806" lon="2.47517">
        <ele>627</ele>
        <time>2015-01-17T13:33:46Z</time>
      </trkpt>
      <trkpt lat="42.27802" lon="2.47506">
        <ele>626</ele>
        <time>2015-01-17T13:33:51Z</time>
      </trkpt>
      <trkpt lat="42.27796" lon="2.47493">
        <ele>626</ele>
        <time>2015-01-17T13:33:57Z</time>
      </trkpt>
      <trkpt lat="42.27792" lon="2.47478">
        <ele>625</ele>
        <time>2015-01-17T13:34:03Z</time>
      </trkpt>
      <trkpt lat="42.27789" lon="2.47465">
        <ele>625</ele>
        <time>2015-01-17T13:34:08Z</time>
      </trkpt>
      <trkpt lat="42.27782" lon="2.47453">
        <ele>625</ele>
        <time>2015-01-17T13:34:14Z</time>
      </trkpt>
      <trkpt lat="42.27775" lon="2.47441">
        <ele>625</ele>
        <time>2015-01-17T13:34:19Z</time>
      </trkpt>
      <trkpt lat="42.2777" lon="2.47429">
        <ele>625</ele>
        <time>2015-01-17T13:34:24Z</time>
      </trkpt>
      <trkpt lat="42.27763" lon="2.47417">
        <ele>625</ele>
        <time>2015-01-17T13:34:29Z</time>
      </trkpt>
      <trkpt lat="42.2776" lon="2.47404">
        <ele>624</ele>
        <time>2015-01-17T13:34:34Z</time>
      </trkpt>
      <trkpt lat="42.27753" lon="2.47392">
        <ele>624.6</ele>
        <time>2015-01-17T13:34:40Z</time>
      </trkpt>
      <trkpt lat="42.27747" lon="2.47378">
        <ele>625</ele>
        <time>2015-01-17T13:34:45Z</time>
      </trkpt>
      <trkpt lat="42.27741" lon="2.47365">
        <ele>623.9</ele>
        <time>2015-01-17T13:34:50Z</time>
      </trkpt>
      <trkpt lat="42.27734" lon="2.47353">
        <ele>623</ele>
        <time>2015-01-17T13:34:56Z</time>
      </trkpt>
      <trkpt lat="42.27733" lon="2.47338">
        <ele>621</ele>
        <time>2015-01-17T13:35:01Z</time>
      </trkpt>
      <trkpt lat="42.27738" lon="2.47326">
        <ele>621</ele>
        <time>2015-01-17T13:35:06Z</time>
      </trkpt>
      <trkpt lat="42.27737" lon="2.47312">
        <ele>621</ele>
        <time>2015-01-17T13:35:14Z</time>
      </trkpt>
      <trkpt lat="42.27726" lon="2.47307">
        <ele>623</ele>
        <time>2015-01-17T13:35:25Z</time>
      </trkpt>
      <trkpt lat="42.27717" lon="2.47298">
        <ele>622</ele>
        <time>2015-01-17T13:35:31Z</time>
      </trkpt>
      <trkpt lat="42.27711" lon="2.47287">
        <ele>622</ele>
        <time>2015-01-17T13:35:37Z</time>
      </trkpt>
      <trkpt lat="42.27706" lon="2.47274">
        <ele>620</ele>
        <time>2015-01-17T13:35:43Z</time>
      </trkpt>
      <trkpt lat="42.27701" lon="2.47262">
        <ele>619.4</ele>
        <time>2015-01-17T13:35:50Z</time>
      </trkpt>
      <trkpt lat="42.27694" lon="2.47253">
        <ele>619</ele>
        <time>2015-01-17T13:35:57Z</time>
      </trkpt>
      <trkpt lat="42.27687" lon="2.47241">
        <ele>615</ele>
        <time>2015-01-17T13:36:04Z</time>
      </trkpt>
      <trkpt lat="42.27683" lon="2.47227">
        <ele>615</ele>
        <time>2015-01-17T13:36:11Z</time>
      </trkpt>
      <trkpt lat="42.27675" lon="2.47221">
        <ele>615</ele>
        <time>2015-01-17T13:36:17Z</time>
      </trkpt>
      <trkpt lat="42.27667" lon="2.4721">
        <ele>614</ele>
        <time>2015-01-17T13:36:24Z</time>
      </trkpt>
      <trkpt lat="42.2766" lon="2.47202">
        <ele>612.9</ele>
        <time>2015-01-17T13:36:30Z</time>
      </trkpt>
      <trkpt lat="42.27651" lon="2.47193">
        <ele>612</ele>
        <time>2015-01-17T13:36:37Z</time>
      </trkpt>
      <trkpt lat="42.27643" lon="2.47184">
        <ele>613</ele>
        <time>2015-01-17T13:36:45Z</time>
      </trkpt>
      <trkpt lat="42.27635" lon="2.47175">
        <ele>614</ele>
        <time>2015-01-17T13:36:53Z</time>
      </trkpt>
      <trkpt lat="42.27628" lon="2.47165">
        <ele>616</ele>
        <time>2015-01-17T13:37:03Z</time>
      </trkpt>
      <trkpt lat="42.27619" lon="2.47161">
        <ele>619</ele>
        <time>2015-01-17T13:37:12Z</time>
      </trkpt>
      <trkpt lat="42.27613" lon="2.47153">
        <ele>620</ele>
        <time>2015-01-17T13:37:19Z</time>
      </trkpt>
      <trkpt lat="42.27612" lon="2.47143">
        <ele>620</ele>
        <time>2015-01-17T13:37:25Z</time>
      </trkpt>
      <trkpt lat="42.27611" lon="2.47129">
        <ele>622</ele>
        <time>2015-01-17T13:37:36Z</time>
      </trkpt>
      <trkpt lat="42.27609" lon="2.47117">
        <ele>625.1</ele>
        <time>2015-01-17T13:37:45Z</time>
      </trkpt>
      <trkpt lat="42.27601" lon="2.47113">
        <ele>626</ele>
        <time>2015-01-17T13:38:04Z</time>
      </trkpt>
      <trkpt lat="42.27593" lon="2.47111">
        <ele>626</ele>
        <time>2015-01-17T13:38:13Z</time>
      </trkpt>
      <trkpt lat="42.27583" lon="2.47109">
        <ele>627</ele>
        <time>2015-01-17T13:38:28Z</time>
      </trkpt>
      <trkpt lat="42.27575" lon="2.47115">
        <ele>632</ele>
        <time>2015-01-17T13:38:44Z</time>
      </trkpt>
      <trkpt lat="42.27571" lon="2.47127">
        <ele>633.4</ele>
        <time>2015-01-17T13:38:50Z</time>
      </trkpt>
      <trkpt lat="42.27565" lon="2.47138">
        <ele>633</ele>
        <time>2015-01-17T13:38:55Z</time>
      </trkpt>
      <trkpt lat="42.2756" lon="2.4715">
        <ele>628</ele>
        <time>2015-01-17T13:39:01Z</time>
      </trkpt>
      <trkpt lat="42.27555" lon="2.47161">
        <ele>624</ele>
        <time>2015-01-17T13:39:12Z</time>
      </trkpt>
      <trkpt lat="42.27549" lon="2.47172">
        <ele>623</ele>
        <time>2015-01-17T13:39:19Z</time>
      </trkpt>
      <trkpt lat="42.2754" lon="2.47179">
        <ele>615</ele>
        <time>2015-01-17T13:39:24Z</time>
      </trkpt>
      <trkpt lat="42.27534" lon="2.4719">
        <ele>610</ele>
        <time>2015-01-17T13:39:34Z</time>
      </trkpt>
      <trkpt lat="42.27524" lon="2.47192">
        <ele>606</ele>
        <time>2015-01-17T13:39:47Z</time>
      </trkpt>
      <trkpt lat="42.27515" lon="2.47185">
        <ele>601</ele>
        <time>2015-01-17T13:39:55Z</time>
      </trkpt>
      <trkpt lat="42.27509" lon="2.47178">
        <ele>602</ele>
        <time>2015-01-17T13:40:02Z</time>
      </trkpt>
      <trkpt lat="42.27505" lon="2.47164">
        <ele>602</ele>
        <time>2015-01-17T13:40:08Z</time>
      </trkpt>
      <trkpt lat="42.27498" lon="2.47155">
        <ele>602</ele>
        <time>2015-01-17T13:40:14Z</time>
      </trkpt>
      <trkpt lat="42.27492" lon="2.4715">
        <ele>602</ele>
        <time>2015-01-17T13:40:20Z</time>
      </trkpt>
      <trkpt lat="42.27483" lon="2.4715">
        <ele>602</ele>
        <time>2015-01-17T13:40:26Z</time>
      </trkpt>
      <trkpt lat="42.27472" lon="2.47151">
        <ele>602</ele>
        <time>2015-01-17T13:40:31Z</time>
      </trkpt>
      <trkpt lat="42.27463" lon="2.47143">
        <ele>602</ele>
        <time>2015-01-17T13:40:36Z</time>
      </trkpt>
      <trkpt lat="42.27455" lon="2.47138">
        <ele>600.3</ele>
        <time>2015-01-17T13:40:40Z</time>
      </trkpt>
      <trkpt lat="42.27447" lon="2.47133">
        <ele>598.4</ele>
        <time>2015-01-17T13:40:45Z</time>
      </trkpt>
      <trkpt lat="42.27442" lon="2.47123">
        <ele>597.4</ele>
        <time>2015-01-17T13:40:50Z</time>
      </trkpt>
      <trkpt lat="42.27432" lon="2.47116">
        <ele>595.9</ele>
        <time>2015-01-17T13:40:55Z</time>
      </trkpt>
      <trkpt lat="42.27423" lon="2.47107">
        <ele>594.4</ele>
        <time>2015-01-17T13:41:00Z</time>
      </trkpt>
      <trkpt lat="42.27417" lon="2.47097">
        <ele>595</ele>
        <time>2015-01-17T13:41:06Z</time>
      </trkpt>
      <trkpt lat="42.27408" lon="2.47102">
        <ele>594</ele>
        <time>2015-01-17T13:41:13Z</time>
      </trkpt>
      <trkpt lat="42.27398" lon="2.47106">
        <ele>594</ele>
        <time>2015-01-17T13:41:17Z</time>
      </trkpt>
      <trkpt lat="42.27388" lon="2.47104">
        <ele>593</ele>
        <time>2015-01-17T13:41:22Z</time>
      </trkpt>
      <trkpt lat="42.2738" lon="2.47095">
        <ele>593</ele>
        <time>2015-01-17T13:41:27Z</time>
      </trkpt>
      <trkpt lat="42.27371" lon="2.47089">
        <ele>593</ele>
        <time>2015-01-17T13:41:32Z</time>
      </trkpt>
      <trkpt lat="42.27363" lon="2.47078">
        <ele>593</ele>
        <time>2015-01-17T13:41:39Z</time>
      </trkpt>
      <trkpt lat="42.27353" lon="2.47072">
        <ele>594</ele>
        <time>2015-01-17T13:41:47Z</time>
      </trkpt>
      <trkpt lat="42.27343" lon="2.47074">
        <ele>596</ele>
        <time>2015-01-17T13:41:54Z</time>
      </trkpt>
      <trkpt lat="42.27334" lon="2.47082">
        <ele>596</ele>
        <time>2015-01-17T13:42:01Z</time>
      </trkpt>
      <trkpt lat="42.27324" lon="2.47087">
        <ele>596</ele>
        <time>2015-01-17T13:42:08Z</time>
      </trkpt>
      <trkpt lat="42.27314" lon="2.47083">
        <ele>597</ele>
        <time>2015-01-17T13:42:16Z</time>
      </trkpt>
      <trkpt lat="42.2731" lon="2.47072">
        <ele>598</ele>
        <time>2015-01-17T13:42:23Z</time>
      </trkpt>
      <trkpt lat="42.27303" lon="2.47061">
        <ele>599</ele>
        <time>2015-01-17T13:42:31Z</time>
      </trkpt>
      <trkpt lat="42.27296" lon="2.4705">
        <ele>599</ele>
        <time>2015-01-17T13:42:39Z</time>
      </trkpt>
      <trkpt lat="42.27285" lon="2.47046">
        <ele>600</ele>
        <time>2015-01-17T13:42:47Z</time>
      </trkpt>
      <trkpt lat="42.27276" lon="2.47045">
        <ele>601</ele>
        <time>2015-01-17T13:43:02Z</time>
      </trkpt>
      <trkpt lat="42.27267" lon="2.47041">
        <ele>601</ele>
        <time>2015-01-17T13:43:09Z</time>
      </trkpt>
      <trkpt lat="42.27258" lon="2.47039">
        <ele>602</ele>
        <time>2015-01-17T13:43:15Z</time>
      </trkpt>
      <trkpt lat="42.27248" lon="2.47034">
        <ele>600</ele>
        <time>2015-01-17T13:43:21Z</time>
      </trkpt>
      <trkpt lat="42.27239" lon="2.47026">
        <ele>600</ele>
        <time>2015-01-17T13:43:26Z</time>
      </trkpt>
      <trkpt lat="42.27234" lon="2.47015">
        <ele>598.3</ele>
        <time>2015-01-17T13:43:30Z</time>
      </trkpt>
      <trkpt lat="42.27232" lon="2.47003">
        <ele>597</ele>
        <time>2015-01-17T13:43:34Z</time>
      </trkpt>
      <trkpt lat="42.27229" lon="2.4699">
        <ele>596</ele>
        <time>2015-01-17T13:43:41Z</time>
      </trkpt>
      <trkpt lat="42.27224" lon="2.46982">
        <ele>596</ele>
        <time>2015-01-17T13:43:49Z</time>
      </trkpt>
      <trkpt lat="42.27218" lon="2.46972">
        <ele>599.3</ele>
        <time>2015-01-17T13:44:00Z</time>
      </trkpt>
      <trkpt lat="42.27215" lon="2.46961">
        <ele>604</ele>
        <time>2015-01-17T13:44:11Z</time>
      </trkpt>
      <trkpt lat="42.27208" lon="2.46958">
        <ele>604.6</ele>
        <time>2015-01-17T13:44:20Z</time>
      </trkpt>
      <trkpt lat="42.27199" lon="2.46961">
        <ele>605</ele>
        <time>2015-01-17T13:44:29Z</time>
      </trkpt>
      <trkpt lat="42.2719" lon="2.46964">
        <ele>607</ele>
        <time>2015-01-17T13:44:35Z</time>
      </trkpt>
      <trkpt lat="42.27182" lon="2.46967">
        <ele>608</ele>
        <time>2015-01-17T13:44:41Z</time>
      </trkpt>
      <trkpt lat="42.27174" lon="2.46966">
        <ele>608</ele>
        <time>2015-01-17T13:44:47Z</time>
      </trkpt>
      <trkpt lat="42.27171" lon="2.46958">
        <ele>607</ele>
        <time>2015-01-17T13:44:51Z</time>
      </trkpt>
      <trkpt lat="42.2717" lon="2.46949">
        <ele>607</ele>
        <time>2015-01-17T13:44:55Z</time>
      </trkpt>
      <trkpt lat="42.27165" lon="2.46942">
        <ele>607</ele>
        <time>2015-01-17T13:44:59Z</time>
      </trkpt>
      <trkpt lat="42.27157" lon="2.46937">
        <ele>601</ele>
        <time>2015-01-17T13:45:03Z</time>
      </trkpt>
      <trkpt lat="42.27153" lon="2.46926">
        <ele>601</ele>
        <time>2015-01-17T13:45:09Z</time>
      </trkpt>
      <trkpt lat="42.27149" lon="2.46913">
        <ele>601</ele>
        <time>2015-01-17T13:45:17Z</time>
      </trkpt>
      <trkpt lat="42.27143" lon="2.46903">
        <ele>603</ele>
        <time>2015-01-17T13:45:24Z</time>
      </trkpt>
      <trkpt lat="42.27135" lon="2.46899">
        <ele>603</ele>
        <time>2015-01-17T13:45:28Z</time>
      </trkpt>
      <trkpt lat="42.27126" lon="2.46897">
        <ele>602</ele>
        <time>2015-01-17T13:45:32Z</time>
      </trkpt>
      <trkpt lat="42.27115" lon="2.46896">
        <ele>602</ele>
        <time>2015-01-17T13:45:39Z</time>
      </trkpt>
      <trkpt lat="42.27108" lon="2.46886">
        <ele>603</ele>
        <time>2015-01-17T13:45:48Z</time>
      </trkpt>
      <trkpt lat="42.271" lon="2.46878">
        <ele>603</ele>
        <time>2015-01-17T13:45:55Z</time>
      </trkpt>
      <trkpt lat="42.27092" lon="2.46874">
        <ele>605</ele>
        <time>2015-01-17T13:46:02Z</time>
      </trkpt>
      <trkpt lat="42.27089" lon="2.46861">
        <ele>605</ele>
        <time>2015-01-17T13:46:10Z</time>
      </trkpt>
      <trkpt lat="42.2708" lon="2.46856">
        <ele>605</ele>
        <time>2015-01-17T13:46:14Z</time>
      </trkpt>
      <trkpt lat="42.27071" lon="2.46851">
        <ele>605</ele>
        <time>2015-01-17T13:46:19Z</time>
      </trkpt>
      <trkpt lat="42.27062" lon="2.46846">
        <ele>604</ele>
        <time>2015-01-17T13:46:24Z</time>
      </trkpt>
      <trkpt lat="42.27056" lon="2.46836">
        <ele>604.6</ele>
        <time>2015-01-17T13:46:30Z</time>
      </trkpt>
      <trkpt lat="42.27051" lon="2.46827">
        <ele>605</ele>
        <time>2015-01-17T13:46:36Z</time>
      </trkpt>
      <trkpt lat="42.27048" lon="2.46816">
        <ele>606.1</ele>
        <time>2015-01-17T13:46:40Z</time>
      </trkpt>
      <trkpt lat="42.27048" lon="2.46804">
        <ele>606.4</ele>
        <time>2015-01-17T13:46:44Z</time>
      </trkpt>
      <trkpt lat="42.27049" lon="2.46792">
        <ele>606</ele>
        <time>2015-01-17T13:46:48Z</time>
      </trkpt>
      <trkpt lat="42.27046" lon="2.4678">
        <ele>606</ele>
        <time>2015-01-17T13:46:53Z</time>
      </trkpt>
      <trkpt lat="42.27044" lon="2.46765">
        <ele>606</ele>
        <time>2015-01-17T13:46:58Z</time>
      </trkpt>
      <trkpt lat="42.27049" lon="2.46754">
        <ele>605</ele>
        <time>2015-01-17T13:47:02Z</time>
      </trkpt>
      <trkpt lat="42.27056" lon="2.46743">
        <ele>605</ele>
        <time>2015-01-17T13:47:07Z</time>
      </trkpt>
      <trkpt lat="42.27057" lon="2.46727">
        <ele>604</ele>
        <time>2015-01-17T13:47:13Z</time>
      </trkpt>
      <trkpt lat="42.27055" lon="2.46713">
        <ele>604</ele>
        <time>2015-01-17T13:47:18Z</time>
      </trkpt>
      <trkpt lat="42.27052" lon="2.46699">
        <ele>603</ele>
        <time>2015-01-17T13:47:23Z</time>
      </trkpt>
      <trkpt lat="42.27047" lon="2.46684">
        <ele>603</ele>
        <time>2015-01-17T13:47:28Z</time>
      </trkpt>
      <trkpt lat="42.27048" lon="2.46669">
        <ele>603</ele>
        <time>2015-01-17T13:47:33Z</time>
      </trkpt>
      <trkpt lat="42.2705" lon="2.46654">
        <ele>603</ele>
        <time>2015-01-17T13:47:38Z</time>
      </trkpt>
      <trkpt lat="42.27048" lon="2.4664">
        <ele>603</ele>
        <time>2015-01-17T13:47:43Z</time>
      </trkpt>
      <trkpt lat="42.27041" lon="2.46628">
        <ele>603</ele>
        <time>2015-01-17T13:47:48Z</time>
      </trkpt>
      <trkpt lat="42.27034" lon="2.46616">
        <ele>602</ele>
        <time>2015-01-17T13:47:53Z</time>
      </trkpt>
      <trkpt lat="42.27024" lon="2.46609">
        <ele>602</ele>
        <time>2015-01-17T13:47:58Z</time>
      </trkpt>
      <trkpt lat="42.27015" lon="2.46601">
        <ele>600</ele>
        <time>2015-01-17T13:48:03Z</time>
      </trkpt>
      <trkpt lat="42.27004" lon="2.46593">
        <ele>600</ele>
        <time>2015-01-17T13:48:09Z</time>
      </trkpt>
      <trkpt lat="42.26996" lon="2.46584">
        <ele>598</ele>
        <time>2015-01-17T13:48:14Z</time>
      </trkpt>
      <trkpt lat="42.26987" lon="2.46576">
        <ele>598</ele>
        <time>2015-01-17T13:48:19Z</time>
      </trkpt>
      <trkpt lat="42.26978" lon="2.46568">
        <ele>596</ele>
        <time>2015-01-17T13:48:24Z</time>
      </trkpt>
      <trkpt lat="42.26969" lon="2.46561">
        <ele>596</ele>
        <time>2015-01-17T13:48:29Z</time>
      </trkpt>
      <trkpt lat="42.26964" lon="2.46551">
        <ele>594</ele>
        <time>2015-01-17T13:48:33Z</time>
      </trkpt>
      <trkpt lat="42.2696" lon="2.4654">
        <ele>592</ele>
        <time>2015-01-17T13:48:38Z</time>
      </trkpt>
      <trkpt lat="42.26959" lon="2.46528">
        <ele>589</ele>
        <time>2015-01-17T13:48:42Z</time>
      </trkpt>
      <trkpt lat="42.26958" lon="2.46515">
        <ele>588</ele>
        <time>2015-01-17T13:48:47Z</time>
      </trkpt>
      <trkpt lat="42.26959" lon="2.46502">
        <ele>585</ele>
        <time>2015-01-17T13:48:51Z</time>
      </trkpt>
      <trkpt lat="42.26959" lon="2.46489">
        <ele>583.3</ele>
        <time>2015-01-17T13:48:55Z</time>
      </trkpt>
      <trkpt lat="42.26961" lon="2.46476">
        <ele>579.7</ele>
        <time>2015-01-17T13:49:00Z</time>
      </trkpt>
      <trkpt lat="42.26959" lon="2.46464">
        <ele>577</ele>
        <time>2015-01-17T13:49:04Z</time>
      </trkpt>
      <trkpt lat="42.26958" lon="2.46451">
        <ele>574</ele>
        <time>2015-01-17T13:49:08Z</time>
      </trkpt>
      <trkpt lat="42.26956" lon="2.46436">
        <ele>573</ele>
        <time>2015-01-17T13:49:13Z</time>
      </trkpt>
      <trkpt lat="42.26954" lon="2.46423">
        <ele>571</ele>
        <time>2015-01-17T13:49:18Z</time>
      </trkpt>
      <trkpt lat="42.26948" lon="2.46412">
        <ele>569</ele>
        <time>2015-01-17T13:49:23Z</time>
      </trkpt>
      <trkpt lat="42.26941" lon="2.464">
        <ele>566</ele>
        <time>2015-01-17T13:49:28Z</time>
      </trkpt>
      <trkpt lat="42.26935" lon="2.46388">
        <ele>564</ele>
        <time>2015-01-17T13:49:33Z</time>
      </trkpt>
      <trkpt lat="42.26929" lon="2.46379">
        <ele>563</ele>
        <time>2015-01-17T13:49:38Z</time>
      </trkpt>
      <trkpt lat="42.2692" lon="2.46372">
        <ele>563</ele>
        <time>2015-01-17T13:49:43Z</time>
      </trkpt>
      <trkpt lat="42.26911" lon="2.46364">
        <ele>563</ele>
        <time>2015-01-17T13:49:48Z</time>
      </trkpt>
      <trkpt lat="42.26904" lon="2.46352">
        <ele>563</ele>
        <time>2015-01-17T13:49:54Z</time>
      </trkpt>
      <trkpt lat="42.26897" lon="2.46346">
        <ele>563</ele>
        <time>2015-01-17T13:50:00Z</time>
      </trkpt>
      <trkpt lat="42.26889" lon="2.46345">
        <ele>563</ele>
        <time>2015-01-17T13:50:06Z</time>
      </trkpt>
      <trkpt lat="42.26881" lon="2.46344">
        <ele>564</ele>
        <time>2015-01-17T13:50:12Z</time>
      </trkpt>
      <trkpt lat="42.26873" lon="2.46343">
        <ele>564</ele>
        <time>2015-01-17T13:50:17Z</time>
      </trkpt>
      <trkpt lat="42.26865" lon="2.46345">
        <ele>565</ele>
        <time>2015-01-17T13:50:23Z</time>
      </trkpt>
      <trkpt lat="42.26857" lon="2.4635">
        <ele>565</ele>
        <time>2015-01-17T13:50:29Z</time>
      </trkpt>
      <trkpt lat="42.26847" lon="2.46352">
        <ele>563</ele>
        <time>2015-01-17T13:50:34Z</time>
      </trkpt>
      <trkpt lat="42.26836" lon="2.46351">
        <ele>563</ele>
        <time>2015-01-17T13:50:39Z</time>
      </trkpt>
      <trkpt lat="42.26826" lon="2.46351">
        <ele>561</ele>
        <time>2015-01-17T13:50:46Z</time>
      </trkpt>
      <trkpt lat="42.26815" lon="2.46353">
        <ele>557.9</ele>
        <time>2015-01-17T13:50:55Z</time>
      </trkpt>
      <trkpt lat="42.26805" lon="2.4635">
        <ele>555</ele>
        <time>2015-01-17T13:51:02Z</time>
      </trkpt>
      <trkpt lat="42.268" lon="2.46342">
        <ele>554</ele>
        <time>2015-01-17T13:51:07Z</time>
      </trkpt>
      <trkpt lat="42.26796" lon="2.46332">
        <ele>554</ele>
        <time>2015-01-17T13:51:14Z</time>
      </trkpt>
      <trkpt lat="42.26788" lon="2.46327">
        <ele>554</ele>
        <time>2015-01-17T13:51:30Z</time>
      </trkpt>
      <trkpt lat="42.26778" lon="2.46329">
        <ele>554</ele>
        <time>2015-01-17T13:51:39Z</time>
      </trkpt>
      <trkpt lat="42.26779" lon="2.4632">
        <ele>555</ele>
        <time>2015-01-17T13:51:49Z</time>
      </trkpt>
      <trkpt lat="42.26774" lon="2.46311">
        <ele>559</ele>
        <time>2015-01-17T13:52:01Z</time>
      </trkpt>
      <trkpt lat="42.26779" lon="2.46302">
        <ele>563</ele>
        <time>2015-01-17T13:52:20Z</time>
      </trkpt>
      <trkpt lat="42.26774" lon="2.46293">
        <ele>563</ele>
        <time>2015-01-17T13:52:29Z</time>
      </trkpt>
      <trkpt lat="42.26769" lon="2.46285">
        <ele>565</ele>
        <time>2015-01-17T13:52:37Z</time>
      </trkpt>
      <trkpt lat="42.26765" lon="2.46279">
        <ele>567</ele>
        <time>2015-01-17T13:52:44Z</time>
      </trkpt>
      <trkpt lat="42.26761" lon="2.46274">
        <ele>569.6</ele>
        <time>2015-01-17T13:52:50Z</time>
      </trkpt>
      <trkpt lat="42.26757" lon="2.46268">
        <ele>570</ele>
        <time>2015-01-17T13:52:55Z</time>
      </trkpt>
      <trkpt lat="42.26752" lon="2.46262">
        <ele>570.6</ele>
        <time>2015-01-17T13:53:00Z</time>
      </trkpt>
      <trkpt lat="42.26747" lon="2.46257">
        <ele>571</ele>
        <time>2015-01-17T13:53:07Z</time>
      </trkpt>
      <trkpt lat="42.26743" lon="2.4625">
        <ele>571</ele>
        <time>2015-01-17T13:53:12Z</time>
      </trkpt>
      <trkpt lat="42.26738" lon="2.46243">
        <ele>571</ele>
        <time>2015-01-17T13:53:17Z</time>
      </trkpt>
      <trkpt lat="42.26732" lon="2.46236">
        <ele>572</ele>
        <time>2015-01-17T13:53:23Z</time>
      </trkpt>
      <trkpt lat="42.26726" lon="2.46231">
        <ele>572</ele>
        <time>2015-01-17T13:53:28Z</time>
      </trkpt>
      <trkpt lat="42.2672" lon="2.46223">
        <ele>572</ele>
        <time>2015-01-17T13:53:33Z</time>
      </trkpt>
      <trkpt lat="42.26716" lon="2.46215">
        <ele>572</ele>
        <time>2015-01-17T13:53:37Z</time>
      </trkpt>
      <trkpt lat="42.26712" lon="2.46208">
        <ele>570</ele>
        <time>2015-01-17T13:53:44Z</time>
      </trkpt>
      <trkpt lat="42.26707" lon="2.46203">
        <ele>570</ele>
        <time>2015-01-17T13:53:49Z</time>
      </trkpt>
      <trkpt lat="42.26703" lon="2.46195">
        <ele>569</ele>
        <time>2015-01-17T13:53:54Z</time>
      </trkpt>
      <trkpt lat="42.26697" lon="2.46189">
        <ele>569</ele>
        <time>2015-01-17T13:53:59Z</time>
      </trkpt>
      <trkpt lat="42.26692" lon="2.46183">
        <ele>569</ele>
        <time>2015-01-17T13:54:06Z</time>
      </trkpt>
      <trkpt lat="42.26687" lon="2.46178">
        <ele>569</ele>
        <time>2015-01-17T13:54:11Z</time>
      </trkpt>
      <trkpt lat="42.26679" lon="2.46172">
        <ele>569</ele>
        <time>2015-01-17T13:54:18Z</time>
      </trkpt>
      <trkpt lat="42.26672" lon="2.46167">
        <ele>568</ele>
        <time>2015-01-17T13:54:23Z</time>
      </trkpt>
      <trkpt lat="42.26664" lon="2.46162">
        <ele>568</ele>
        <time>2015-01-17T13:54:29Z</time>
      </trkpt>
      <trkpt lat="42.26657" lon="2.46155">
        <ele>568</ele>
        <time>2015-01-17T13:54:34Z</time>
      </trkpt>
      <trkpt lat="42.2665" lon="2.46151">
        <ele>568</ele>
        <time>2015-01-17T13:54:39Z</time>
      </trkpt>
      <trkpt lat="42.26643" lon="2.46146">
        <ele>567</ele>
        <time>2015-01-17T13:54:46Z</time>
      </trkpt>
      <trkpt lat="42.26636" lon="2.46141">
        <ele>566</ele>
        <time>2015-01-17T13:54:51Z</time>
      </trkpt>
      <trkpt lat="42.26629" lon="2.46136">
        <ele>566</ele>
        <time>2015-01-17T13:54:55Z</time>
      </trkpt>
      <trkpt lat="42.26622" lon="2.46132">
        <ele>564.9</ele>
        <time>2015-01-17T13:55:00Z</time>
      </trkpt>
      <trkpt lat="42.26614" lon="2.46129">
        <ele>564</ele>
        <time>2015-01-17T13:55:05Z</time>
      </trkpt>
      <trkpt lat="42.26607" lon="2.46133">
        <ele>562</ele>
        <time>2015-01-17T13:55:11Z</time>
      </trkpt>
      <trkpt lat="42.266" lon="2.46144">
        <ele>561</ele>
        <time>2015-01-17T13:58:25Z</time>
      </trkpt>
      <trkpt lat="42.26593" lon="2.46148">
        <ele>561</ele>
        <time>2015-01-17T13:58:39Z</time>
      </trkpt>
      <trkpt lat="42.26595" lon="2.46143">
        <ele>562</ele>
        <time>2015-01-17T14:00:18Z</time>
      </trkpt>
      <trkpt lat="42.26591" lon="2.46141">
        <ele>562</ele>
        <time>2015-01-17T14:00:33Z</time>
      </trkpt>
      <trkpt lat="42.26587" lon="2.46148">
        <ele>562</ele>
        <time>2015-01-17T14:01:48Z</time>
      </trkpt>
      <trkpt lat="42.26581" lon="2.46155">
        <ele>561</ele>
        <time>2015-01-17T14:01:57Z</time>
      </trkpt>
      <trkpt lat="42.26572" lon="2.46161">
        <ele>563</ele>
        <time>2015-01-17T14:02:06Z</time>
      </trkpt>
      <trkpt lat="42.26564" lon="2.46167">
        <ele>564</ele>
        <time>2015-01-17T14:02:15Z</time>
      </trkpt>
      <trkpt lat="42.26557" lon="2.46178">
        <ele>564</ele>
        <time>2015-01-17T14:02:23Z</time>
      </trkpt>
      <trkpt lat="42.2655" lon="2.46187">
        <ele>565</ele>
        <time>2015-01-17T14:02:33Z</time>
      </trkpt>
      <trkpt lat="42.26542" lon="2.46195">
        <ele>565</ele>
        <time>2015-01-17T14:02:41Z</time>
      </trkpt>
      <trkpt lat="42.26534" lon="2.46206">
        <ele>565</ele>
        <time>2015-01-17T14:02:49Z</time>
      </trkpt>
      <trkpt lat="42.26527" lon="2.46216">
        <ele>567</ele>
        <time>2015-01-17T14:02:57Z</time>
      </trkpt>
      <trkpt lat="42.26519" lon="2.46225">
        <ele>569</ele>
        <time>2015-01-17T14:03:05Z</time>
      </trkpt>
      <trkpt lat="42.26511" lon="2.46232">
        <ele>569</ele>
        <time>2015-01-17T14:03:13Z</time>
      </trkpt>
      <trkpt lat="42.26502" lon="2.4624">
        <ele>571</ele>
        <time>2015-01-17T14:03:21Z</time>
      </trkpt>
      <trkpt lat="42.26493" lon="2.46246">
        <ele>571</ele>
        <time>2015-01-17T14:03:29Z</time>
      </trkpt>
      <trkpt lat="42.26484" lon="2.46251">
        <ele>573</ele>
        <time>2015-01-17T14:03:36Z</time>
      </trkpt>
      <trkpt lat="42.26473" lon="2.46254">
        <ele>574</ele>
        <time>2015-01-17T14:03:43Z</time>
      </trkpt>
      <trkpt lat="42.26464" lon="2.46255">
        <ele>574</ele>
        <time>2015-01-17T14:03:48Z</time>
      </trkpt>
      <trkpt lat="42.26455" lon="2.46257">
        <ele>574</ele>
        <time>2015-01-17T14:03:54Z</time>
      </trkpt>
      <trkpt lat="42.26446" lon="2.4626">
        <ele>574</ele>
        <time>2015-01-17T14:04:00Z</time>
      </trkpt>
      <trkpt lat="42.26438" lon="2.46261">
        <ele>574</ele>
        <time>2015-01-17T14:04:05Z</time>
      </trkpt>
      <trkpt lat="42.26429" lon="2.46262">
        <ele>574.6</ele>
        <time>2015-01-17T14:04:10Z</time>
      </trkpt>
      <trkpt lat="42.2642" lon="2.46261">
        <ele>575</ele>
        <time>2015-01-17T14:04:15Z</time>
      </trkpt>
      <trkpt lat="42.26411" lon="2.4626">
        <ele>575</ele>
        <time>2015-01-17T14:04:21Z</time>
      </trkpt>
      <trkpt lat="42.26401" lon="2.46259">
        <ele>575</ele>
        <time>2015-01-17T14:04:27Z</time>
      </trkpt>
      <trkpt lat="42.26394" lon="2.46257">
        <ele>574</ele>
        <time>2015-01-17T14:04:32Z</time>
      </trkpt>
      <trkpt lat="42.26386" lon="2.46256">
        <ele>574</ele>
        <time>2015-01-17T14:04:37Z</time>
      </trkpt>
      <trkpt lat="42.26379" lon="2.46259">
        <ele>575</ele>
        <time>2015-01-17T14:04:42Z</time>
      </trkpt>
      <trkpt lat="42.26373" lon="2.46263">
        <ele>575</ele>
        <time>2015-01-17T14:04:47Z</time>
      </trkpt>
      <trkpt lat="42.2638" lon="2.46266">
        <ele>575</ele>
        <time>2015-01-17T14:04:56Z</time>
      </trkpt>
      <trkpt lat="42.26388" lon="2.46269">
        <ele>577</ele>
        <time>2015-01-17T14:05:01Z</time>
      </trkpt>
      <trkpt lat="42.26396" lon="2.46273">
        <ele>577</ele>
        <time>2015-01-17T14:05:07Z</time>
      </trkpt>
      <trkpt lat="42.26403" lon="2.46276">
        <ele>577</ele>
        <time>2015-01-17T14:05:12Z</time>
      </trkpt>
      <trkpt lat="42.26409" lon="2.4628">
        <ele>577</ele>
        <time>2015-01-17T14:05:17Z</time>
      </trkpt>
      <trkpt lat="42.26416" lon="2.46283">
        <ele>579</ele>
        <time>2015-01-17T14:05:22Z</time>
      </trkpt>
      <trkpt lat="42.26422" lon="2.46285">
        <ele>579</ele>
        <time>2015-01-17T14:05:27Z</time>
      </trkpt>
      <trkpt lat="42.26429" lon="2.46289">
        <ele>580</ele>
        <time>2015-01-17T14:05:33Z</time>
      </trkpt>
      <trkpt lat="42.26436" lon="2.46292">
        <ele>580</ele>
        <time>2015-01-17T14:05:39Z</time>
      </trkpt>
      <trkpt lat="42.26445" lon="2.46293">
        <ele>582</ele>
        <time>2015-01-17T14:05:46Z</time>
      </trkpt>
      <trkpt lat="42.26452" lon="2.46293">
        <ele>583</ele>
        <time>2015-01-17T14:05:51Z</time>
      </trkpt>
      <trkpt lat="42.26459" lon="2.46293">
        <ele>583</ele>
        <time>2015-01-17T14:05:57Z</time>
      </trkpt>
      <trkpt lat="42.26468" lon="2.46292">
        <ele>584</ele>
        <time>2015-01-17T14:06:04Z</time>
      </trkpt>
      <trkpt lat="42.26476" lon="2.46292">
        <ele>585.1</ele>
        <time>2015-01-17T14:06:10Z</time>
      </trkpt>
      <trkpt lat="42.26483" lon="2.46291">
        <ele>586</ele>
        <time>2015-01-17T14:06:15Z</time>
      </trkpt>
      <trkpt lat="42.26492" lon="2.46292">
        <ele>587</ele>
        <time>2015-01-17T14:06:22Z</time>
      </trkpt>
      <trkpt lat="42.26502" lon="2.46291">
        <ele>588.1</ele>
        <time>2015-01-17T14:06:30Z</time>
      </trkpt>
      <trkpt lat="42.26512" lon="2.46288">
        <ele>589</ele>
        <time>2015-01-17T14:06:38Z</time>
      </trkpt>
      <trkpt lat="42.26519" lon="2.46284">
        <ele>590</ele>
        <time>2015-01-17T14:06:45Z</time>
      </trkpt>
      <trkpt lat="42.26526" lon="2.4628">
        <ele>592</ele>
        <time>2015-01-17T14:06:52Z</time>
      </trkpt>
      <trkpt lat="42.26533" lon="2.46279">
        <ele>592</ele>
        <time>2015-01-17T14:06:57Z</time>
      </trkpt>
      <trkpt lat="42.26537" lon="2.46273">
        <ele>595</ele>
        <time>2015-01-17T14:07:27Z</time>
      </trkpt>
      <trkpt lat="42.26541" lon="2.46265">
        <ele>593</ele>
        <time>2015-01-17T14:07:41Z</time>
      </trkpt>
      <trkpt lat="42.26544" lon="2.46255">
        <ele>589.3</ele>
        <time>2015-01-17T14:07:50Z</time>
      </trkpt>
      <trkpt lat="42.26551" lon="2.46249">
        <ele>588</ele>
        <time>2015-01-17T14:07:56Z</time>
      </trkpt>
      <trkpt lat="42.26557" lon="2.46241">
        <ele>585</ele>
        <time>2015-01-17T14:08:07Z</time>
      </trkpt>
      <trkpt lat="42.26562" lon="2.46234">
        <ele>585</ele>
        <time>2015-01-17T14:08:12Z</time>
      </trkpt>
      <trkpt lat="42.26569" lon="2.46228">
        <ele>585</ele>
        <time>2015-01-17T14:08:19Z</time>
      </trkpt>
      <trkpt lat="42.26576" lon="2.46222">
        <ele>587</ele>
        <time>2015-01-17T14:08:26Z</time>
      </trkpt>
      <trkpt lat="42.26583" lon="2.46217">
        <ele>589</ele>
        <time>2015-01-17T14:08:33Z</time>
      </trkpt>
      <trkpt lat="42.26591" lon="2.46213">
        <ele>589</ele>
        <time>2015-01-17T14:08:40Z</time>
      </trkpt>
      <trkpt lat="42.26599" lon="2.46213">
        <ele>589</ele>
        <time>2015-01-17T14:08:46Z</time>
      </trkpt>
      <trkpt lat="42.26608" lon="2.46216">
        <ele>591</ele>
        <time>2015-01-17T14:08:52Z</time>
      </trkpt>
      <trkpt lat="42.26615" lon="2.46222">
        <ele>591</ele>
        <time>2015-01-17T14:08:58Z</time>
      </trkpt>
      <trkpt lat="42.2662" lon="2.46229">
        <ele>590</ele>
        <time>2015-01-17T14:09:04Z</time>
      </trkpt>
      <trkpt lat="42.26625" lon="2.46237">
        <ele>589</ele>
        <time>2015-01-17T14:09:11Z</time>
      </trkpt>
      <trkpt lat="42.26629" lon="2.46248">
        <ele>589</ele>
        <time>2015-01-17T14:09:18Z</time>
      </trkpt>
      <trkpt lat="42.26637" lon="2.46259">
        <ele>588</ele>
        <time>2015-01-17T14:09:24Z</time>
      </trkpt>
      <trkpt lat="42.2664" lon="2.46269">
        <ele>590</ele>
        <time>2015-01-17T14:09:31Z</time>
      </trkpt>
      <trkpt lat="42.26644" lon="2.46281">
        <ele>590</ele>
        <time>2015-01-17T14:09:38Z</time>
      </trkpt>
      <trkpt lat="42.26649" lon="2.46292">
        <ele>591</ele>
        <time>2015-01-17T14:09:48Z</time>
      </trkpt>
      <trkpt lat="42.26657" lon="2.46301">
        <ele>590</ele>
        <time>2015-01-17T14:09:57Z</time>
      </trkpt>
      <trkpt lat="42.26667" lon="2.46305">
        <ele>591</ele>
        <time>2015-01-17T14:10:07Z</time>
      </trkpt>
      <trkpt lat="42.26674" lon="2.46316">
        <ele>593</ele>
        <time>2015-01-17T14:10:16Z</time>
      </trkpt>
      <trkpt lat="42.26681" lon="2.46325">
        <ele>594</ele>
        <time>2015-01-17T14:10:25Z</time>
      </trkpt>
      <trkpt lat="42.26689" lon="2.46334">
        <ele>596</ele>
        <time>2015-01-17T14:10:36Z</time>
      </trkpt>
      <trkpt lat="42.26696" lon="2.46344">
        <ele>596</ele>
        <time>2015-01-17T14:10:44Z</time>
      </trkpt>
      <trkpt lat="42.26703" lon="2.46355">
        <ele>595</ele>
        <time>2015-01-17T14:10:52Z</time>
      </trkpt>
      <trkpt lat="42.26708" lon="2.46368">
        <ele>595</ele>
        <time>2015-01-17T14:11:00Z</time>
      </trkpt>
      <trkpt lat="42.26716" lon="2.46382">
        <ele>595</ele>
        <time>2015-01-17T14:11:12Z</time>
      </trkpt>
      <trkpt lat="42.26724" lon="2.46391">
        <ele>595</ele>
        <time>2015-01-17T14:11:18Z</time>
      </trkpt>
      <trkpt lat="42.26734" lon="2.46399">
        <ele>594</ele>
        <time>2015-01-17T14:11:25Z</time>
      </trkpt>
      <trkpt lat="42.26743" lon="2.46406">
        <ele>594</ele>
        <time>2015-01-17T14:11:32Z</time>
      </trkpt>
      <trkpt lat="42.26753" lon="2.46413">
        <ele>593.4</ele>
        <time>2015-01-17T14:11:40Z</time>
      </trkpt>
      <trkpt lat="42.26755" lon="2.46426">
        <ele>593</ele>
        <time>2015-01-17T14:11:47Z</time>
      </trkpt>
      <trkpt lat="42.26763" lon="2.46439">
        <ele>593</ele>
        <time>2015-01-17T14:11:55Z</time>
      </trkpt>
      <trkpt lat="42.26773" lon="2.46443">
        <ele>592</ele>
        <time>2015-01-17T14:12:02Z</time>
      </trkpt>
      <trkpt lat="42.26784" lon="2.46446">
        <ele>592</ele>
        <time>2015-01-17T14:12:09Z</time>
      </trkpt>
      <trkpt lat="42.26792" lon="2.46456">
        <ele>592</ele>
        <time>2015-01-17T14:12:18Z</time>
      </trkpt>
      <trkpt lat="42.26798" lon="2.46468">
        <ele>593</ele>
        <time>2015-01-17T14:12:26Z</time>
      </trkpt>
      <trkpt lat="42.26807" lon="2.46478">
        <ele>594</ele>
        <time>2015-01-17T14:12:34Z</time>
      </trkpt>
      <trkpt lat="42.26815" lon="2.46487">
        <ele>594</ele>
        <time>2015-01-17T14:12:41Z</time>
      </trkpt>
      <trkpt lat="42.26818" lon="2.46499">
        <ele>594</ele>
        <time>2015-01-17T14:12:47Z</time>
      </trkpt>
      <trkpt lat="42.26819" lon="2.46513">
        <ele>594</ele>
        <time>2015-01-17T14:12:54Z</time>
      </trkpt>
      <trkpt lat="42.26819" lon="2.46526">
        <ele>594</ele>
        <time>2015-01-17T14:13:01Z</time>
      </trkpt>
      <trkpt lat="42.26819" lon="2.46539">
        <ele>594</ele>
        <time>2015-01-17T14:13:08Z</time>
      </trkpt>
      <trkpt lat="42.26818" lon="2.46554">
        <ele>594</ele>
        <time>2015-01-17T14:13:15Z</time>
      </trkpt>
      <trkpt lat="42.26814" lon="2.46567">
        <ele>594</ele>
        <time>2015-01-17T14:13:21Z</time>
      </trkpt>
      <trkpt lat="42.26809" lon="2.46579">
        <ele>594</ele>
        <time>2015-01-17T14:13:29Z</time>
      </trkpt>
      <trkpt lat="42.26802" lon="2.46593">
        <ele>595</ele>
        <time>2015-01-17T14:13:42Z</time>
      </trkpt>
      <trkpt lat="42.26796" lon="2.46604">
        <ele>597</ele>
        <time>2015-01-17T14:13:52Z</time>
      </trkpt>
      <trkpt lat="42.26793" lon="2.46619">
        <ele>599</ele>
        <time>2015-01-17T14:14:03Z</time>
      </trkpt>
      <trkpt lat="42.26792" lon="2.46633">
        <ele>601</ele>
        <time>2015-01-17T14:14:11Z</time>
      </trkpt>
      <trkpt lat="42.26792" lon="2.46646">
        <ele>601</ele>
        <time>2015-01-17T14:14:20Z</time>
      </trkpt>
      <trkpt lat="42.26791" lon="2.4666">
        <ele>601</ele>
        <time>2015-01-17T14:14:28Z</time>
      </trkpt>
      <trkpt lat="42.26792" lon="2.46674">
        <ele>603</ele>
        <time>2015-01-17T14:14:38Z</time>
      </trkpt>
      <trkpt lat="42.2679" lon="2.46687">
        <ele>604</ele>
        <time>2015-01-17T14:14:49Z</time>
      </trkpt>
      <trkpt lat="42.26791" lon="2.46701">
        <ele>606</ele>
        <time>2015-01-17T14:14:59Z</time>
      </trkpt>
      <trkpt lat="42.26793" lon="2.46715">
        <ele>611.2</ele>
        <time>2015-01-17T14:15:10Z</time>
      </trkpt>
      <trkpt lat="42.26798" lon="2.46728">
        <ele>612</ele>
        <time>2015-01-17T14:15:19Z</time>
      </trkpt>
      <trkpt lat="42.26802" lon="2.46741">
        <ele>612</ele>
        <time>2015-01-17T14:15:29Z</time>
      </trkpt>
      <trkpt lat="42.26805" lon="2.46754">
        <ele>613</ele>
        <time>2015-01-17T14:15:39Z</time>
      </trkpt>
      <trkpt lat="42.26808" lon="2.46767">
        <ele>618</ele>
        <time>2015-01-17T14:15:51Z</time>
      </trkpt>
      <trkpt lat="42.26808" lon="2.46781">
        <ele>620</ele>
        <time>2015-01-17T14:16:02Z</time>
      </trkpt>
      <trkpt lat="42.26806" lon="2.46797">
        <ele>623.6</ele>
        <time>2015-01-17T14:16:15Z</time>
      </trkpt>
      <trkpt lat="42.26801" lon="2.46811">
        <ele>624</ele>
        <time>2015-01-17T14:16:23Z</time>
      </trkpt>
      <trkpt lat="42.26798" lon="2.46823">
        <ele>626</ele>
        <time>2015-01-17T14:16:32Z</time>
      </trkpt>
      <trkpt lat="42.26796" lon="2.46837">
        <ele>626</ele>
        <time>2015-01-17T14:16:42Z</time>
      </trkpt>
      <trkpt lat="42.26795" lon="2.4685">
        <ele>628</ele>
        <time>2015-01-17T14:16:56Z</time>
      </trkpt>
      <trkpt lat="42.26797" lon="2.46864">
        <ele>630</ele>
        <time>2015-01-17T14:17:05Z</time>
      </trkpt>
      <trkpt lat="42.26795" lon="2.46879">
        <ele>631</ele>
        <time>2015-01-17T14:17:16Z</time>
      </trkpt>
      <trkpt lat="42.26795" lon="2.46893">
        <ele>633</ele>
        <time>2015-01-17T14:17:26Z</time>
      </trkpt>
      <trkpt lat="42.26796" lon="2.46907">
        <ele>635</ele>
        <time>2015-01-17T14:17:36Z</time>
      </trkpt>
      <trkpt lat="42.26797" lon="2.46921">
        <ele>637</ele>
        <time>2015-01-17T14:17:46Z</time>
      </trkpt>
      <trkpt lat="42.268" lon="2.46935">
        <ele>638</ele>
        <time>2015-01-17T14:17:56Z</time>
      </trkpt>
      <trkpt lat="42.26802" lon="2.46948">
        <ele>640</ele>
        <time>2015-01-17T14:18:09Z</time>
      </trkpt>
      <trkpt lat="42.26802" lon="2.46963">
        <ele>642</ele>
        <time>2015-01-17T14:18:19Z</time>
      </trkpt>
      <trkpt lat="42.26801" lon="2.46977">
        <ele>644.4</ele>
        <time>2015-01-17T14:18:27Z</time>
      </trkpt>
      <trkpt lat="42.268" lon="2.46991">
        <ele>644</ele>
        <time>2015-01-17T14:18:39Z</time>
      </trkpt>
      <trkpt lat="42.26804" lon="2.47004">
        <ele>648</ele>
        <time>2015-01-17T14:18:51Z</time>
      </trkpt>
      <trkpt lat="42.26805" lon="2.47018">
        <ele>650</ele>
        <time>2015-01-17T14:19:01Z</time>
      </trkpt>
      <trkpt lat="42.2681" lon="2.47032">
        <ele>651.1</ele>
        <time>2015-01-17T14:19:10Z</time>
      </trkpt>
      <trkpt lat="42.26813" lon="2.47044">
        <ele>651</ele>
        <time>2015-01-17T14:19:18Z</time>
      </trkpt>
      <trkpt lat="42.26812" lon="2.47061">
        <ele>655</ele>
        <time>2015-01-17T14:19:31Z</time>
      </trkpt>
      <trkpt lat="42.26804" lon="2.47065">
        <ele>660.7</ele>
        <time>2015-01-17T14:19:55Z</time>
      </trkpt>
      <trkpt lat="42.26798" lon="2.47075">
        <ele>662</ele>
        <time>2015-01-17T14:20:04Z</time>
      </trkpt>
      <trkpt lat="42.26795" lon="2.47089">
        <ele>663</ele>
        <time>2015-01-17T14:20:13Z</time>
      </trkpt>
      <trkpt lat="42.2679" lon="2.47102">
        <ele>662.4</ele>
        <time>2015-01-17T14:20:22Z</time>
      </trkpt>
      <trkpt lat="42.26788" lon="2.47118">
        <ele>664</ele>
        <time>2015-01-17T14:20:34Z</time>
      </trkpt>
      <trkpt lat="42.2678" lon="2.47126">
        <ele>665</ele>
        <time>2015-01-17T14:20:46Z</time>
      </trkpt>
      <trkpt lat="42.26785" lon="2.4714">
        <ele>668</ele>
        <time>2015-01-17T14:21:08Z</time>
      </trkpt>
      <trkpt lat="42.26784" lon="2.47154">
        <ele>668</ele>
        <time>2015-01-17T14:21:17Z</time>
      </trkpt>
      <trkpt lat="42.26786" lon="2.47168">
        <ele>670</ele>
        <time>2015-01-17T14:21:31Z</time>
      </trkpt>
      <trkpt lat="42.26792" lon="2.47179">
        <ele>673</ele>
        <time>2015-01-17T14:21:43Z</time>
      </trkpt>
      <trkpt lat="42.26797" lon="2.4719">
        <ele>675</ele>
        <time>2015-01-17T14:21:59Z</time>
      </trkpt>
      <trkpt lat="42.268" lon="2.47205">
        <ele>678</ele>
        <time>2015-01-17T14:22:15Z</time>
      </trkpt>
      <trkpt lat="42.26806" lon="2.47216">
        <ele>680.1</ele>
        <time>2015-01-17T14:22:30Z</time>
      </trkpt>
      <trkpt lat="42.26811" lon="2.47228">
        <ele>684</ele>
        <time>2015-01-17T14:22:44Z</time>
      </trkpt>
      <trkpt lat="42.2682" lon="2.47235">
        <ele>686.6</ele>
        <time>2015-01-17T14:22:55Z</time>
      </trkpt>
      <trkpt lat="42.26829" lon="2.47243">
        <ele>690</ele>
        <time>2015-01-17T14:23:07Z</time>
      </trkpt>
      <trkpt lat="42.26838" lon="2.47244">
        <ele>691</ele>
        <time>2015-01-17T14:23:17Z</time>
      </trkpt>
      <trkpt lat="42.26847" lon="2.47244">
        <ele>693</ele>
        <time>2015-01-17T14:23:24Z</time>
      </trkpt>
      <trkpt lat="42.26857" lon="2.47249">
        <ele>697</ele>
        <time>2015-01-17T14:23:36Z</time>
      </trkpt>
      <trkpt lat="42.26863" lon="2.47261">
        <ele>700</ele>
        <time>2015-01-17T14:23:51Z</time>
      </trkpt>
      <trkpt lat="42.26856" lon="2.47271">
        <ele>703</ele>
        <time>2015-01-17T14:24:04Z</time>
      </trkpt>
      <trkpt lat="42.26854" lon="2.47285">
        <ele>707</ele>
        <time>2015-01-17T14:24:23Z</time>
      </trkpt>
      <trkpt lat="42.26857" lon="2.47298">
        <ele>710</ele>
        <time>2015-01-17T14:24:37Z</time>
      </trkpt>
      <trkpt lat="42.2686" lon="2.47316">
        <ele>716</ele>
        <time>2015-01-17T14:24:56Z</time>
      </trkpt>
      <trkpt lat="42.26866" lon="2.47326">
        <ele>717</ele>
        <time>2015-01-17T14:25:06Z</time>
      </trkpt>
      <trkpt lat="42.26856" lon="2.47331">
        <ele>721</ele>
        <time>2015-01-17T14:25:24Z</time>
      </trkpt>
      <trkpt lat="42.2686" lon="2.47345">
        <ele>727.1</ele>
        <time>2015-01-17T14:25:45Z</time>
      </trkpt>
      <trkpt lat="42.26863" lon="2.47358">
        <ele>730</ele>
        <time>2015-01-17T14:25:57Z</time>
      </trkpt>
      <trkpt lat="42.26866" lon="2.47371">
        <ele>732.7</ele>
        <time>2015-01-17T14:26:10Z</time>
      </trkpt>
      <trkpt lat="42.26856" lon="2.47368">
        <ele>737</ele>
        <time>2015-01-17T14:26:27Z</time>
      </trkpt>
      <trkpt lat="42.26847" lon="2.47362">
        <ele>737</ele>
        <time>2015-01-17T14:26:36Z</time>
      </trkpt>
      <trkpt lat="42.26846" lon="2.47376">
        <ele>743.6</ele>
        <time>2015-01-17T14:27:00Z</time>
      </trkpt>
      <trkpt lat="42.26847" lon="2.4739">
        <ele>748</ele>
        <time>2015-01-17T14:27:13Z</time>
      </trkpt>
      <trkpt lat="42.26838" lon="2.47397">
        <ele>753</ele>
        <time>2015-01-17T14:27:32Z</time>
      </trkpt>
      <trkpt lat="42.26828" lon="2.47399">
        <ele>758</ele>
        <time>2015-01-17T14:27:46Z</time>
      </trkpt>
      <trkpt lat="42.26827" lon="2.47413">
        <ele>765</ele>
        <time>2015-01-17T14:28:12Z</time>
      </trkpt>
      <trkpt lat="42.26828" lon="2.47427">
        <ele>767</ele>
        <time>2015-01-17T14:28:24Z</time>
      </trkpt>
      <trkpt lat="42.26831" lon="2.4744">
        <ele>771</ele>
        <time>2015-01-17T14:28:39Z</time>
      </trkpt>
      <trkpt lat="42.26836" lon="2.47452">
        <ele>774</ele>
        <time>2015-01-17T14:28:50Z</time>
      </trkpt>
      <trkpt lat="42.26838" lon="2.47466">
        <ele>777</ele>
        <time>2015-01-17T14:29:02Z</time>
      </trkpt>
      <trkpt lat="42.26837" lon="2.4748">
        <ele>780</ele>
        <time>2015-01-17T14:29:14Z</time>
      </trkpt>
      <trkpt lat="42.26846" lon="2.47486">
        <ele>782</ele>
        <time>2015-01-17T14:29:22Z</time>
      </trkpt>
      <trkpt lat="42.26856" lon="2.47492">
        <ele>783</ele>
        <time>2015-01-17T14:29:34Z</time>
      </trkpt>
      <trkpt lat="42.26864" lon="2.47497">
        <ele>786</ele>
        <time>2015-01-17T14:29:43Z</time>
      </trkpt>
      <trkpt lat="42.26874" lon="2.47502">
        <ele>789.6</ele>
        <time>2015-01-17T14:29:55Z</time>
      </trkpt>
      <trkpt lat="42.26884" lon="2.47503">
        <ele>792</ele>
        <time>2015-01-17T14:30:04Z</time>
      </trkpt>
      <trkpt lat="42.26894" lon="2.47503">
        <ele>793</ele>
        <time>2015-01-17T14:30:15Z</time>
      </trkpt>
      <trkpt lat="42.26904" lon="2.47503">
        <ele>796.1</ele>
        <time>2015-01-17T14:30:25Z</time>
      </trkpt>
      <trkpt lat="42.26915" lon="2.47502">
        <ele>798.6</ele>
        <time>2015-01-17T14:30:35Z</time>
      </trkpt>
      <trkpt lat="42.26924" lon="2.47508">
        <ele>800</ele>
        <time>2015-01-17T14:30:44Z</time>
      </trkpt>
      <trkpt lat="42.2693" lon="2.47513">
        <ele>801</ele>
        <time>2015-01-17T14:34:18Z</time>
      </trkpt>
      <trkpt lat="42.26934" lon="2.47521">
        <ele>798</ele>
        <time>2015-01-17T14:34:34Z</time>
      </trkpt>
      <trkpt lat="42.26941" lon="2.47531">
        <ele>788.4</ele>
        <time>2015-01-17T14:35:05Z</time>
      </trkpt>
      <trkpt lat="42.2695" lon="2.47539">
        <ele>786</ele>
        <time>2015-01-17T14:35:14Z</time>
      </trkpt>
      <trkpt lat="42.2696" lon="2.47546">
        <ele>783</ele>
        <time>2015-01-17T14:35:24Z</time>
      </trkpt>
      <trkpt lat="42.26968" lon="2.4755">
        <ele>783</ele>
        <time>2015-01-17T14:35:34Z</time>
      </trkpt>
      <trkpt lat="42.26973" lon="2.47562">
        <ele>782</ele>
        <time>2015-01-17T14:35:43Z</time>
      </trkpt>
      <trkpt lat="42.26982" lon="2.47569">
        <ele>781</ele>
        <time>2015-01-17T14:35:51Z</time>
      </trkpt>
      <trkpt lat="42.26992" lon="2.47568">
        <ele>778</ele>
        <time>2015-01-17T14:36:01Z</time>
      </trkpt>
      <trkpt lat="42.27003" lon="2.47569">
        <ele>778</ele>
        <time>2015-01-17T14:36:08Z</time>
      </trkpt>
      <trkpt lat="42.27014" lon="2.47568">
        <ele>774</ele>
        <time>2015-01-17T14:36:16Z</time>
      </trkpt>
      <trkpt lat="42.27024" lon="2.47568">
        <ele>774</ele>
        <time>2015-01-17T14:36:23Z</time>
      </trkpt>
      <trkpt lat="42.27035" lon="2.47568">
        <ele>774</ele>
        <time>2015-01-17T14:36:29Z</time>
      </trkpt>
      <trkpt lat="42.27045" lon="2.47569">
        <ele>773</ele>
        <time>2015-01-17T14:36:36Z</time>
      </trkpt>
      <trkpt lat="42.27055" lon="2.47575">
        <ele>773</ele>
        <time>2015-01-17T14:36:47Z</time>
      </trkpt>
      <trkpt lat="42.27065" lon="2.47582">
        <ele>774</ele>
        <time>2015-01-17T14:36:58Z</time>
      </trkpt>
      <trkpt lat="42.27073" lon="2.47591">
        <ele>780</ele>
        <time>2015-01-17T14:37:11Z</time>
      </trkpt>
      <trkpt lat="42.27079" lon="2.47602">
        <ele>782</ele>
        <time>2015-01-17T14:37:21Z</time>
      </trkpt>
      <trkpt lat="42.27087" lon="2.47613">
        <ele>784</ele>
        <time>2015-01-17T14:37:34Z</time>
      </trkpt>
      <trkpt lat="42.27093" lon="2.47624">
        <ele>789</ele>
        <time>2015-01-17T14:37:48Z</time>
      </trkpt>
      <trkpt lat="42.27099" lon="2.47635">
        <ele>791.6</ele>
        <time>2015-01-17T14:38:00Z</time>
      </trkpt>
      <trkpt lat="42.27108" lon="2.47641">
        <ele>793.6</ele>
        <time>2015-01-17T14:38:10Z</time>
      </trkpt>
      <trkpt lat="42.27115" lon="2.47646">
        <ele>794</ele>
        <time>2015-01-17T14:38:18Z</time>
      </trkpt>
      <trkpt lat="42.27119" lon="2.47655">
        <ele>796</ele>
        <time>2015-01-17T14:38:28Z</time>
      </trkpt>
      <trkpt lat="42.27125" lon="2.47663">
        <ele>798</ele>
        <time>2015-01-17T14:38:38Z</time>
      </trkpt>
      <trkpt lat="42.27129" lon="2.47674">
        <ele>804.6</ele>
        <time>2015-01-17T14:38:55Z</time>
      </trkpt>
      <trkpt lat="42.27137" lon="2.47683">
        <ele>808</ele>
        <time>2015-01-17T14:39:09Z</time>
      </trkpt>
      <trkpt lat="42.27143" lon="2.47693">
        <ele>810</ele>
        <time>2015-01-17T14:39:21Z</time>
      </trkpt>
      <trkpt lat="42.2715" lon="2.47703">
        <ele>814</ele>
        <time>2015-01-17T14:39:39Z</time>
      </trkpt>
      <trkpt lat="42.27156" lon="2.47714">
        <ele>818</ele>
        <time>2015-01-17T14:39:54Z</time>
      </trkpt>
      <trkpt lat="42.27146" lon="2.47718">
        <ele>822</ele>
        <time>2015-01-17T14:40:11Z</time>
      </trkpt>
      <trkpt lat="42.27135" lon="2.47716">
        <ele>824</ele>
        <time>2015-01-17T14:40:29Z</time>
      </trkpt>
      <trkpt lat="42.27124" lon="2.47714">
        <ele>827.6</ele>
        <time>2015-01-17T14:40:40Z</time>
      </trkpt>
      <trkpt lat="42.27114" lon="2.47712">
        <ele>829.1</ele>
        <time>2015-01-17T14:40:50Z</time>
      </trkpt>
      <trkpt lat="42.27106" lon="2.47721">
        <ele>835.1</ele>
        <time>2015-01-17T14:41:10Z</time>
      </trkpt>
      <trkpt lat="42.27108" lon="2.47736">
        <ele>838</ele>
        <time>2015-01-17T14:41:23Z</time>
      </trkpt>
      <trkpt lat="42.27099" lon="2.47742">
        <ele>841</ele>
        <time>2015-01-17T14:41:41Z</time>
      </trkpt>
      <trkpt lat="42.27095" lon="2.47755">
        <ele>843</ele>
        <time>2015-01-17T14:41:56Z</time>
      </trkpt>
      <trkpt lat="42.271" lon="2.47767">
        <ele>847</ele>
        <time>2015-01-17T14:42:09Z</time>
      </trkpt>
      <trkpt lat="42.27106" lon="2.47777">
        <ele>848.6</ele>
        <time>2015-01-17T14:42:20Z</time>
      </trkpt>
      <trkpt lat="42.27115" lon="2.47784">
        <ele>850.1</ele>
        <time>2015-01-17T14:42:30Z</time>
      </trkpt>
      <trkpt lat="42.27125" lon="2.4779">
        <ele>852.8</ele>
        <time>2015-01-17T14:42:40Z</time>
      </trkpt>
      <trkpt lat="42.27128" lon="2.47803">
        <ele>855</ele>
        <time>2015-01-17T14:42:53Z</time>
      </trkpt>
      <trkpt lat="42.27134" lon="2.47814">
        <ele>858</ele>
        <time>2015-01-17T14:43:02Z</time>
      </trkpt>
      <trkpt lat="42.27142" lon="2.47823">
        <ele>860</ele>
        <time>2015-01-17T14:43:14Z</time>
      </trkpt>
      <trkpt lat="42.2715" lon="2.47832">
        <ele>862</ele>
        <time>2015-01-17T14:43:25Z</time>
      </trkpt>
      <trkpt lat="42.27157" lon="2.47842">
        <ele>865</ele>
        <time>2015-01-17T14:43:36Z</time>
      </trkpt>
      <trkpt lat="42.27165" lon="2.47851">
        <ele>866</ele>
        <time>2015-01-17T14:43:48Z</time>
      </trkpt>
      <trkpt lat="42.27174" lon="2.47855">
        <ele>868</ele>
        <time>2015-01-17T14:43:59Z</time>
      </trkpt>
      <trkpt lat="42.27184" lon="2.47858">
        <ele>869</ele>
        <time>2015-01-17T14:44:09Z</time>
      </trkpt>
      <trkpt lat="42.27191" lon="2.47866">
        <ele>869</ele>
        <time>2015-01-17T14:44:19Z</time>
      </trkpt>
      <trkpt lat="42.27194" lon="2.47878">
        <ele>873</ele>
        <time>2015-01-17T14:44:32Z</time>
      </trkpt>
      <trkpt lat="42.27198" lon="2.47893">
        <ele>877</ele>
        <time>2015-01-17T14:44:47Z</time>
      </trkpt>
      <trkpt lat="42.27198" lon="2.47908">
        <ele>881</ele>
        <time>2015-01-17T14:45:03Z</time>
      </trkpt>
      <trkpt lat="42.27196" lon="2.47924">
        <ele>884</ele>
        <time>2015-01-17T14:45:23Z</time>
      </trkpt>
      <trkpt lat="42.27195" lon="2.47937">
        <ele>888.1</ele>
        <time>2015-01-17T14:45:35Z</time>
      </trkpt>
      <trkpt lat="42.27194" lon="2.47951">
        <ele>889</ele>
        <time>2015-01-17T14:45:47Z</time>
      </trkpt>
      <trkpt lat="42.27191" lon="2.47964">
        <ele>890</ele>
        <time>2015-01-17T14:45:58Z</time>
      </trkpt>
      <trkpt lat="42.2719" lon="2.47977">
        <ele>894</ele>
        <time>2015-01-17T14:46:08Z</time>
      </trkpt>
      <trkpt lat="42.27189" lon="2.47992">
        <ele>894</ele>
        <time>2015-01-17T14:46:18Z</time>
      </trkpt>
      <trkpt lat="42.27189" lon="2.48005">
        <ele>895</ele>
        <time>2015-01-17T14:46:29Z</time>
      </trkpt>
      <trkpt lat="42.27186" lon="2.48018">
        <ele>900.6</ele>
        <time>2015-01-17T14:46:40Z</time>
      </trkpt>
      <trkpt lat="42.27179" lon="2.48028">
        <ele>902</ele>
        <time>2015-01-17T14:46:52Z</time>
      </trkpt>
      <trkpt lat="42.27172" lon="2.48039">
        <ele>906</ele>
        <time>2015-01-17T14:47:01Z</time>
      </trkpt>
      <trkpt lat="42.27164" lon="2.48049">
        <ele>907</ele>
        <time>2015-01-17T14:47:13Z</time>
      </trkpt>
      <trkpt lat="42.27159" lon="2.48061">
        <ele>909</ele>
        <time>2015-01-17T14:47:22Z</time>
      </trkpt>
      <trkpt lat="42.27153" lon="2.48074">
        <ele>909</ele>
        <time>2015-01-17T14:47:31Z</time>
      </trkpt>
      <trkpt lat="42.2715" lon="2.48087">
        <ele>909.6</ele>
        <time>2015-01-17T14:47:40Z</time>
      </trkpt>
      <trkpt lat="42.27149" lon="2.48101">
        <ele>910</ele>
        <time>2015-01-17T14:47:49Z</time>
      </trkpt>
      <trkpt lat="42.27147" lon="2.48114">
        <ele>911</ele>
        <time>2015-01-17T14:47:59Z</time>
      </trkpt>
      <trkpt lat="42.27142" lon="2.48126">
        <ele>912</ele>
        <time>2015-01-17T14:48:09Z</time>
      </trkpt>
      <trkpt lat="42.27138" lon="2.4814">
        <ele>914.2</ele>
        <time>2015-01-17T14:48:20Z</time>
      </trkpt>
      <trkpt lat="42.27131" lon="2.48151">
        <ele>915</ele>
        <time>2015-01-17T14:48:29Z</time>
      </trkpt>
      <trkpt lat="42.27124" lon="2.48161">
        <ele>917</ele>
        <time>2015-01-17T14:48:39Z</time>
      </trkpt>
      <trkpt lat="42.27117" lon="2.48175">
        <ele>920</ele>
        <time>2015-01-17T14:48:53Z</time>
      </trkpt>
      <trkpt lat="42.27119" lon="2.48189">
        <ele>922</ele>
        <time>2015-01-17T14:49:04Z</time>
      </trkpt>
      <trkpt lat="42.2712" lon="2.48203">
        <ele>924</ele>
        <time>2015-01-17T14:49:16Z</time>
      </trkpt>
      <trkpt lat="42.27115" lon="2.48218">
        <ele>926</ele>
        <time>2015-01-17T14:49:29Z</time>
      </trkpt>
      <trkpt lat="42.27114" lon="2.48232">
        <ele>927</ele>
        <time>2015-01-17T14:49:38Z</time>
      </trkpt>
      <trkpt lat="42.2711" lon="2.48245">
        <ele>931</ele>
        <time>2015-01-17T14:49:51Z</time>
      </trkpt>
      <trkpt lat="42.27103" lon="2.48257">
        <ele>934</ele>
        <time>2015-01-17T14:50:01Z</time>
      </trkpt>
      <trkpt lat="42.27096" lon="2.48267">
        <ele>934</ele>
        <time>2015-01-17T14:50:09Z</time>
      </trkpt>
      <trkpt lat="42.27091" lon="2.4828">
        <ele>936</ele>
        <time>2015-01-17T14:50:20Z</time>
      </trkpt>
      <trkpt lat="42.27087" lon="2.48293">
        <ele>936</ele>
        <time>2015-01-17T14:50:28Z</time>
      </trkpt>
      <trkpt lat="42.27085" lon="2.48307">
        <ele>938</ele>
        <time>2015-01-17T14:50:38Z</time>
      </trkpt>
      <trkpt lat="42.27081" lon="2.48319">
        <ele>940</ele>
        <time>2015-01-17T14:50:47Z</time>
      </trkpt>
      <trkpt lat="42.27078" lon="2.48333">
        <ele>943</ele>
        <time>2015-01-17T14:50:57Z</time>
      </trkpt>
      <trkpt lat="42.27076" lon="2.48348">
        <ele>944</ele>
        <time>2015-01-17T14:51:06Z</time>
      </trkpt>
      <trkpt lat="42.27069" lon="2.4836">
        <ele>945</ele>
        <time>2015-01-17T14:51:15Z</time>
      </trkpt>
      <trkpt lat="42.27063" lon="2.48372">
        <ele>947</ele>
        <time>2015-01-17T14:51:24Z</time>
      </trkpt>
      <trkpt lat="42.2706" lon="2.48386">
        <ele>949</ele>
        <time>2015-01-17T14:51:35Z</time>
      </trkpt>
      <trkpt lat="42.27059" lon="2.48399">
        <ele>951</ele>
        <time>2015-01-17T14:51:46Z</time>
      </trkpt>
      <trkpt lat="42.27057" lon="2.48412">
        <ele>953</ele>
        <time>2015-01-17T14:51:57Z</time>
      </trkpt>
      <trkpt lat="42.27052" lon="2.48423">
        <ele>956</ele>
        <time>2015-01-17T14:55:19Z</time>
      </trkpt>
      <trkpt lat="42.27046" lon="2.48435">
        <ele>956</ele>
        <time>2015-01-17T14:55:28Z</time>
      </trkpt>
      <trkpt lat="42.2704" lon="2.48446">
        <ele>958</ele>
        <time>2015-01-17T14:55:36Z</time>
      </trkpt>
      <trkpt lat="42.27036" lon="2.4846">
        <ele>959</ele>
        <time>2015-01-17T14:55:46Z</time>
      </trkpt>
      <trkpt lat="42.2703" lon="2.48472">
        <ele>961</ele>
        <time>2015-01-17T14:55:53Z</time>
      </trkpt>
      <trkpt lat="42.27025" lon="2.48485">
        <ele>962</ele>
        <time>2015-01-17T14:56:04Z</time>
      </trkpt>
      <trkpt lat="42.27018" lon="2.48496">
        <ele>964</ele>
        <time>2015-01-17T14:56:15Z</time>
      </trkpt>
      <trkpt lat="42.27013" lon="2.48508">
        <ele>966</ele>
        <time>2015-01-17T14:56:27Z</time>
      </trkpt>
      <trkpt lat="42.27007" lon="2.48519">
        <ele>968</ele>
        <time>2015-01-17T14:56:34Z</time>
      </trkpt>
      <trkpt lat="42.27" lon="2.48528">
        <ele>970</ele>
        <time>2015-01-17T14:56:42Z</time>
      </trkpt>
      <trkpt lat="42.26993" lon="2.48536">
        <ele>971</ele>
        <time>2015-01-17T14:56:51Z</time>
      </trkpt>
      <trkpt lat="42.26988" lon="2.48549">
        <ele>972.1</ele>
        <time>2015-01-17T14:57:00Z</time>
      </trkpt>
      <trkpt lat="42.26981" lon="2.48559">
        <ele>975</ele>
        <time>2015-01-17T14:57:11Z</time>
      </trkpt>
      <trkpt lat="42.26973" lon="2.48564">
        <ele>975</ele>
        <time>2015-01-17T14:57:17Z</time>
      </trkpt>
      <trkpt lat="42.26967" lon="2.48573">
        <ele>977</ele>
        <time>2015-01-17T14:57:23Z</time>
      </trkpt>
      <trkpt lat="42.2696" lon="2.4858">
        <ele>977</ele>
        <time>2015-01-17T14:57:31Z</time>
      </trkpt>
      <trkpt lat="42.26952" lon="2.48578">
        <ele>977</ele>
        <time>2015-01-17T14:57:39Z</time>
      </trkpt>
      <trkpt lat="42.26945" lon="2.48569">
        <ele>979</ele>
        <time>2015-01-17T14:57:49Z</time>
      </trkpt>
      <trkpt lat="42.26941" lon="2.48557">
        <ele>979</ele>
        <time>2015-01-17T14:57:58Z</time>
      </trkpt>
      <trkpt lat="42.26936" lon="2.48552">
        <ele>981</ele>
        <time>2015-01-17T14:58:04Z</time>
      </trkpt>
      <trkpt lat="42.26932" lon="2.48541">
        <ele>984</ele>
        <time>2015-01-17T14:58:13Z</time>
      </trkpt>
      <trkpt lat="42.26927" lon="2.4853">
        <ele>986</ele>
        <time>2015-01-17T14:58:23Z</time>
      </trkpt>
      <trkpt lat="42.26921" lon="2.48517">
        <ele>987</ele>
        <time>2015-01-17T14:58:38Z</time>
      </trkpt>
      <trkpt lat="42.26916" lon="2.48506">
        <ele>992.8</ele>
        <time>2015-01-17T14:58:50Z</time>
      </trkpt>
      <trkpt lat="42.26911" lon="2.48496">
        <ele>994</ele>
        <time>2015-01-17T14:58:58Z</time>
      </trkpt>
      <trkpt lat="42.26906" lon="2.48483">
        <ele>993</ele>
        <time>2015-01-17T14:59:08Z</time>
      </trkpt>
      <trkpt lat="42.269" lon="2.48471">
        <ele>994</ele>
        <time>2015-01-17T14:59:15Z</time>
      </trkpt>
      <trkpt lat="42.26895" lon="2.48459">
        <ele>995</ele>
        <time>2015-01-17T14:59:26Z</time>
      </trkpt>
      <trkpt lat="42.26888" lon="2.48448">
        <ele>997</ele>
        <time>2015-01-17T14:59:37Z</time>
      </trkpt>
      <trkpt lat="42.26881" lon="2.48438">
        <ele>999</ele>
        <time>2015-01-17T14:59:47Z</time>
      </trkpt>
      <trkpt lat="42.2687" lon="2.48427">
        <ele>1003</ele>
        <time>2015-01-17T15:00:01Z</time>
      </trkpt>
      <trkpt lat="42.26862" lon="2.48419">
        <ele>1005</ele>
        <time>2015-01-17T15:00:11Z</time>
      </trkpt>
      <trkpt lat="42.26852" lon="2.48417">
        <ele>1007</ele>
        <time>2015-01-17T15:00:22Z</time>
      </trkpt>
      <trkpt lat="42.26844" lon="2.48416">
        <ele>1009</ele>
        <time>2015-01-17T15:00:34Z</time>
      </trkpt>
      <trkpt lat="42.26834" lon="2.48411">
        <ele>1011</ele>
        <time>2015-01-17T15:00:44Z</time>
      </trkpt>
      <trkpt lat="42.26825" lon="2.48408">
        <ele>1017</ele>
        <time>2015-01-17T15:00:56Z</time>
      </trkpt>
      <trkpt lat="42.26815" lon="2.48407">
        <ele>1018.5</ele>
        <time>2015-01-17T15:01:05Z</time>
      </trkpt>
      <trkpt lat="42.2682" lon="2.48394">
        <ele>1021</ele>
        <time>2015-01-17T15:01:21Z</time>
      </trkpt>
      <trkpt lat="42.26829" lon="2.48388">
        <ele>1023</ele>
        <time>2015-01-17T15:01:33Z</time>
      </trkpt>
      <trkpt lat="42.26839" lon="2.48384">
        <ele>1024</ele>
        <time>2015-01-17T15:01:44Z</time>
      </trkpt>
      <trkpt lat="42.26849" lon="2.48379">
        <ele>1026</ele>
        <time>2015-01-17T15:01:55Z</time>
      </trkpt>
      <trkpt lat="42.26861" lon="2.48375">
        <ele>1026</ele>
        <time>2015-01-17T15:02:09Z</time>
      </trkpt>
      <trkpt lat="42.26871" lon="2.48372">
        <ele>1031</ele>
        <time>2015-01-17T15:02:21Z</time>
      </trkpt>
      <trkpt lat="42.26881" lon="2.48368">
        <ele>1033</ele>
        <time>2015-01-17T15:02:35Z</time>
      </trkpt>
      <trkpt lat="42.2689" lon="2.48362">
        <ele>1035</ele>
        <time>2015-01-17T15:02:49Z</time>
      </trkpt>
      <trkpt lat="42.26901" lon="2.48349">
        <ele>1041</ele>
        <time>2015-01-17T15:03:11Z</time>
      </trkpt>
      <trkpt lat="42.26905" lon="2.48334">
        <ele>1047.7</ele>
        <time>2015-01-17T15:03:35Z</time>
      </trkpt>
      <trkpt lat="42.269" lon="2.48321">
        <ele>1053</ele>
        <time>2015-01-17T15:03:53Z</time>
      </trkpt>
      <trkpt lat="42.26895" lon="2.48314">
        <ele>1056</ele>
        <time>2015-01-17T15:04:08Z</time>
      </trkpt>
      <trkpt lat="42.26894" lon="2.48302">
        <ele>1063.7</ele>
        <time>2015-01-17T15:04:40Z</time>
      </trkpt>
      <trkpt lat="42.26896" lon="2.4829">
        <ele>1065</ele>
        <time>2015-01-17T15:04:57Z</time>
      </trkpt>
      <trkpt lat="42.26889" lon="2.48288">
        <ele>1071</ele>
        <time>2015-01-17T15:05:24Z</time>
      </trkpt>
      <trkpt lat="42.26888" lon="2.48298">
        <ele>1072.1</ele>
        <time>2015-01-17T15:05:40Z</time>
      </trkpt>
      <trkpt lat="42.26885" lon="2.48306">
        <ele>1073</ele>
        <time>2015-01-17T15:06:23Z</time>
      </trkpt>
      <trkpt lat="42.26886" lon="2.48298">
        <ele>1071</ele>
        <time>2015-01-17T15:13:07Z</time>
      </trkpt>
      <trkpt lat="42.26887" lon="2.48287">
        <ele>1070</ele>
        <time>2015-01-17T15:13:24Z</time>
      </trkpt>
      <trkpt lat="42.26894" lon="2.4829">
        <ele>1068.9</ele>
        <time>2015-01-17T15:13:40Z</time>
      </trkpt>
      <trkpt lat="42.26894" lon="2.48299">
        <ele>1066</ele>
        <time>2015-01-17T15:13:52Z</time>
      </trkpt>
      <trkpt lat="42.26897" lon="2.4831">
        <ele>1062</ele>
        <time>2015-01-17T15:14:16Z</time>
      </trkpt>
      <trkpt lat="42.26901" lon="2.48321">
        <ele>1056</ele>
        <time>2015-01-17T15:14:34Z</time>
      </trkpt>
      <trkpt lat="42.26906" lon="2.48333">
        <ele>1049.9</ele>
        <time>2015-01-17T15:14:50Z</time>
      </trkpt>
      <trkpt lat="42.26903" lon="2.48347">
        <ele>1043</ele>
        <time>2015-01-17T15:15:01Z</time>
      </trkpt>
      <trkpt lat="42.26897" lon="2.48357">
        <ele>1039.2</ele>
        <time>2015-01-17T15:15:15Z</time>
      </trkpt>
      <trkpt lat="42.26889" lon="2.48365">
        <ele>1038</ele>
        <time>2015-01-17T15:15:21Z</time>
      </trkpt>
      <trkpt lat="42.26882" lon="2.48374">
        <ele>1036</ele>
        <time>2015-01-17T15:15:26Z</time>
      </trkpt>
      <trkpt lat="42.26874" lon="2.48381">
        <ele>1033</ele>
        <time>2015-01-17T15:15:32Z</time>
      </trkpt>
      <trkpt lat="42.26866" lon="2.48384">
        <ele>1031</ele>
        <time>2015-01-17T15:15:38Z</time>
      </trkpt>
      <trkpt lat="42.26859" lon="2.48387">
        <ele>1030</ele>
        <time>2015-01-17T15:15:43Z</time>
      </trkpt>
      <trkpt lat="42.2685" lon="2.48389">
        <ele>1029</ele>
        <time>2015-01-17T15:15:48Z</time>
      </trkpt>
      <trkpt lat="42.26843" lon="2.48394">
        <ele>1027</ele>
        <time>2015-01-17T15:15:54Z</time>
      </trkpt>
      <trkpt lat="42.26834" lon="2.48395">
        <ele>1023.3</ele>
        <time>2015-01-17T15:16:00Z</time>
      </trkpt>
      <trkpt lat="42.26824" lon="2.48394">
        <ele>1022</ele>
        <time>2015-01-17T15:16:06Z</time>
      </trkpt>
      <trkpt lat="42.26816" lon="2.48402">
        <ele>1022</ele>
        <time>2015-01-17T15:16:14Z</time>
      </trkpt>
      <trkpt lat="42.26823" lon="2.48412">
        <ele>1014.3</ele>
        <time>2015-01-17T15:16:30Z</time>
      </trkpt>
      <trkpt lat="42.26832" lon="2.48417">
        <ele>1010</ele>
        <time>2015-01-17T15:16:36Z</time>
      </trkpt>
      <trkpt lat="42.26843" lon="2.48421">
        <ele>1007</ele>
        <time>2015-01-17T15:16:42Z</time>
      </trkpt>
      <trkpt lat="42.26854" lon="2.48421">
        <ele>1004</ele>
        <time>2015-01-17T15:16:48Z</time>
      </trkpt>
      <trkpt lat="42.26864" lon="2.48427">
        <ele>1003</ele>
        <time>2015-01-17T15:16:54Z</time>
      </trkpt>
      <trkpt lat="42.2687" lon="2.48438">
        <ele>1001</ele>
        <time>2015-01-17T15:16:59Z</time>
      </trkpt>
      <trkpt lat="42.26878" lon="2.48449">
        <ele>998</ele>
        <time>2015-01-17T15:17:06Z</time>
      </trkpt>
      <trkpt lat="42.26885" lon="2.4846">
        <ele>997</ele>
        <time>2015-01-17T15:17:13Z</time>
      </trkpt>
      <trkpt lat="42.26892" lon="2.48472">
        <ele>993</ele>
        <time>2015-01-17T15:17:21Z</time>
      </trkpt>
      <trkpt lat="42.26898" lon="2.48483">
        <ele>992</ele>
        <time>2015-01-17T15:17:27Z</time>
      </trkpt>
      <trkpt lat="42.26904" lon="2.48496">
        <ele>992</ele>
        <time>2015-01-17T15:17:32Z</time>
      </trkpt>
      <trkpt lat="42.2691" lon="2.48509">
        <ele>992</ele>
        <time>2015-01-17T15:17:39Z</time>
      </trkpt>
      <trkpt lat="42.26916" lon="2.48519">
        <ele>992</ele>
        <time>2015-01-17T15:17:47Z</time>
      </trkpt>
      <trkpt lat="42.26922" lon="2.48534">
        <ele>987</ele>
        <time>2015-01-17T15:17:53Z</time>
      </trkpt>
      <trkpt lat="42.26928" lon="2.48547">
        <ele>984</ele>
        <time>2015-01-17T15:17:59Z</time>
      </trkpt>
      <trkpt lat="42.26936" lon="2.48557">
        <ele>978.4</ele>
        <time>2015-01-17T15:18:05Z</time>
      </trkpt>
      <trkpt lat="42.26942" lon="2.48569">
        <ele>977</ele>
        <time>2015-01-17T15:18:12Z</time>
      </trkpt>
      <trkpt lat="42.26949" lon="2.48579">
        <ele>976</ele>
        <time>2015-01-17T15:18:19Z</time>
      </trkpt>
      <trkpt lat="42.26945" lon="2.48587">
        <ele>975</ele>
        <time>2015-01-17T15:18:26Z</time>
      </trkpt>
      <trkpt lat="42.2694" lon="2.48582">
        <ele>975</ele>
        <time>2015-01-17T15:19:57Z</time>
      </trkpt>
      <trkpt lat="42.26934" lon="2.48583">
        <ele>973</ele>
        <time>2015-01-17T15:20:01Z</time>
      </trkpt>
      <trkpt lat="42.26925" lon="2.48581">
        <ele>973</ele>
        <time>2015-01-17T15:20:06Z</time>
      </trkpt>
      <trkpt lat="42.26915" lon="2.4858">
        <ele>970</ele>
        <time>2015-01-17T15:20:12Z</time>
      </trkpt>
      <trkpt lat="42.26907" lon="2.48574">
        <ele>967</ele>
        <time>2015-01-17T15:20:17Z</time>
      </trkpt>
      <trkpt lat="42.26899" lon="2.48568">
        <ele>966</ele>
        <time>2015-01-17T15:20:22Z</time>
      </trkpt>
      <trkpt lat="42.26895" lon="2.48559">
        <ele>964</ele>
        <time>2015-01-17T15:20:27Z</time>
      </trkpt>
      <trkpt lat="42.26885" lon="2.48555">
        <ele>961.9</ele>
        <time>2015-01-17T15:20:35Z</time>
      </trkpt>
      <trkpt lat="42.26874" lon="2.4855">
        <ele>958</ele>
        <time>2015-01-17T15:20:42Z</time>
      </trkpt>
      <trkpt lat="42.26868" lon="2.48543">
        <ele>957</ele>
        <time>2015-01-17T15:20:49Z</time>
      </trkpt>
      <trkpt lat="42.26859" lon="2.48538">
        <ele>952</ele>
        <time>2015-01-17T15:20:59Z</time>
      </trkpt>
      <trkpt lat="42.26854" lon="2.48533">
        <ele>949.4</ele>
        <time>2015-01-17T15:21:05Z</time>
      </trkpt>
      <trkpt lat="42.26847" lon="2.48537">
        <ele>947</ele>
        <time>2015-01-17T15:21:14Z</time>
      </trkpt>
      <trkpt lat="42.26846" lon="2.48547">
        <ele>944</ele>
        <time>2015-01-17T15:21:23Z</time>
      </trkpt>
      <trkpt lat="42.26837" lon="2.48545">
        <ele>940</ele>
        <time>2015-01-17T15:21:32Z</time>
      </trkpt>
      <trkpt lat="42.2683" lon="2.48537">
        <ele>939</ele>
        <time>2015-01-17T15:21:39Z</time>
      </trkpt>
      <trkpt lat="42.26821" lon="2.4854">
        <ele>932</ele>
        <time>2015-01-17T15:21:53Z</time>
      </trkpt>
      <trkpt lat="42.26812" lon="2.48535">
        <ele>929</ele>
        <time>2015-01-17T15:21:59Z</time>
      </trkpt>
      <trkpt lat="42.26802" lon="2.48531">
        <ele>924</ele>
        <time>2015-01-17T15:22:11Z</time>
      </trkpt>
      <trkpt lat="42.26792" lon="2.48536">
        <ele>920</ele>
        <time>2015-01-17T15:22:24Z</time>
      </trkpt>
      <trkpt lat="42.26782" lon="2.48534">
        <ele>916</ele>
        <time>2015-01-17T15:22:32Z</time>
      </trkpt>
      <trkpt lat="42.26772" lon="2.48535">
        <ele>914</ele>
        <time>2015-01-17T15:22:39Z</time>
      </trkpt>
      <trkpt lat="42.26762" lon="2.48537">
        <ele>909</ele>
        <time>2015-01-17T15:22:46Z</time>
      </trkpt>
      <trkpt lat="42.26753" lon="2.48543">
        <ele>908</ele>
        <time>2015-01-17T15:22:53Z</time>
      </trkpt>
      <trkpt lat="42.26742" lon="2.48545">
        <ele>903</ele>
        <time>2015-01-17T15:23:04Z</time>
      </trkpt>
      <trkpt lat="42.26731" lon="2.48543">
        <ele>898</ele>
        <time>2015-01-17T15:23:16Z</time>
      </trkpt>
      <trkpt lat="42.26721" lon="2.48547">
        <ele>895</ele>
        <time>2015-01-17T15:23:28Z</time>
      </trkpt>
      <trkpt lat="42.26711" lon="2.48551">
        <ele>891</ele>
        <time>2015-01-17T15:23:37Z</time>
      </trkpt>
      <trkpt lat="42.26704" lon="2.48561">
        <ele>885</ele>
        <time>2015-01-17T15:23:49Z</time>
      </trkpt>
      <trkpt lat="42.26696" lon="2.48569">
        <ele>882</ele>
        <time>2015-01-17T15:23:58Z</time>
      </trkpt>
      <trkpt lat="42.26685" lon="2.48575">
        <ele>878.9</ele>
        <time>2015-01-17T15:24:05Z</time>
      </trkpt>
      <trkpt lat="42.26676" lon="2.48582">
        <ele>877</ele>
        <time>2015-01-17T15:24:12Z</time>
      </trkpt>
      <trkpt lat="42.26666" lon="2.48587">
        <ele>876</ele>
        <time>2015-01-17T15:24:18Z</time>
      </trkpt>
      <trkpt lat="42.26656" lon="2.48594">
        <ele>875</ele>
        <time>2015-01-17T15:24:25Z</time>
      </trkpt>
      <trkpt lat="42.26649" lon="2.48606">
        <ele>873</ele>
        <time>2015-01-17T15:24:33Z</time>
      </trkpt>
      <trkpt lat="42.26643" lon="2.48616">
        <ele>868.9</ele>
        <time>2015-01-17T15:24:40Z</time>
      </trkpt>
      <trkpt lat="42.26635" lon="2.48625">
        <ele>866</ele>
        <time>2015-01-17T15:24:48Z</time>
      </trkpt>
      <trkpt lat="42.26627" lon="2.48634">
        <ele>866</ele>
        <time>2015-01-17T15:24:53Z</time>
      </trkpt>
      <trkpt lat="42.26619" lon="2.48642">
        <ele>864</ele>
        <time>2015-01-17T15:24:58Z</time>
      </trkpt>
      <trkpt lat="42.26612" lon="2.48653">
        <ele>862</ele>
        <time>2015-01-17T15:25:04Z</time>
      </trkpt>
      <trkpt lat="42.26606" lon="2.48664">
        <ele>861</ele>
        <time>2015-01-17T15:25:11Z</time>
      </trkpt>
      <trkpt lat="42.26599" lon="2.48675">
        <ele>859.3</ele>
        <time>2015-01-17T15:25:20Z</time>
      </trkpt>
      <trkpt lat="42.26594" lon="2.48679">
        <ele>855</ele>
        <time>2015-01-17T15:25:44Z</time>
      </trkpt>
      <trkpt lat="42.26587" lon="2.48681">
        <ele>854</ele>
        <time>2015-01-17T15:26:07Z</time>
      </trkpt>
      <trkpt lat="42.26579" lon="2.48685">
        <ele>853</ele>
        <time>2015-01-17T15:26:14Z</time>
      </trkpt>
      <trkpt lat="42.2657" lon="2.48686">
        <ele>851.3</ele>
        <time>2015-01-17T15:26:20Z</time>
      </trkpt>
      <trkpt lat="42.26562" lon="2.48692">
        <ele>847.2</ele>
        <time>2015-01-17T15:26:30Z</time>
      </trkpt>
      <trkpt lat="42.26553" lon="2.48699">
        <ele>844</ele>
        <time>2015-01-17T15:26:42Z</time>
      </trkpt>
      <trkpt lat="42.26546" lon="2.48709">
        <ele>840</ele>
        <time>2015-01-17T15:26:51Z</time>
      </trkpt>
      <trkpt lat="42.26537" lon="2.48715">
        <ele>839</ele>
        <time>2015-01-17T15:26:58Z</time>
      </trkpt>
      <trkpt lat="42.26529" lon="2.4872">
        <ele>837</ele>
        <time>2015-01-17T15:27:04Z</time>
      </trkpt>
      <trkpt lat="42.26521" lon="2.48728">
        <ele>836</ele>
        <time>2015-01-17T15:27:09Z</time>
      </trkpt>
      <trkpt lat="42.26513" lon="2.48735">
        <ele>835</ele>
        <time>2015-01-17T15:27:16Z</time>
      </trkpt>
      <trkpt lat="42.26503" lon="2.48744">
        <ele>832</ele>
        <time>2015-01-17T15:27:23Z</time>
      </trkpt>
      <trkpt lat="42.26498" lon="2.48757">
        <ele>831</ele>
        <time>2015-01-17T15:27:31Z</time>
      </trkpt>
      <trkpt lat="42.26495" lon="2.48772">
        <ele>831</ele>
        <time>2015-01-17T15:27:39Z</time>
      </trkpt>
      <trkpt lat="42.26488" lon="2.48777">
        <ele>830</ele>
        <time>2015-01-17T15:27:46Z</time>
      </trkpt>
      <trkpt lat="42.2648" lon="2.48779">
        <ele>828</ele>
        <time>2015-01-17T15:27:52Z</time>
      </trkpt>
      <trkpt lat="42.26472" lon="2.48781">
        <ele>826</ele>
        <time>2015-01-17T15:27:59Z</time>
      </trkpt>
      <trkpt lat="42.26464" lon="2.48778">
        <ele>821</ele>
        <time>2015-01-17T15:28:06Z</time>
      </trkpt>
      <trkpt lat="42.26458" lon="2.4877">
        <ele>820</ele>
        <time>2015-01-17T15:28:13Z</time>
      </trkpt>
      <trkpt lat="42.26452" lon="2.48762">
        <ele>816</ele>
        <time>2015-01-17T15:28:21Z</time>
      </trkpt>
      <trkpt lat="42.26445" lon="2.48755">
        <ele>813</ele>
        <time>2015-01-17T15:28:28Z</time>
      </trkpt>
      <trkpt lat="42.26439" lon="2.48745">
        <ele>811</ele>
        <time>2015-01-17T15:28:38Z</time>
      </trkpt>
      <trkpt lat="42.26431" lon="2.48737">
        <ele>805</ele>
        <time>2015-01-17T15:28:51Z</time>
      </trkpt>
      <trkpt lat="42.26428" lon="2.48726">
        <ele>804</ele>
        <time>2015-01-17T15:28:57Z</time>
      </trkpt>
      <trkpt lat="42.26421" lon="2.48718">
        <ele>801</ele>
        <time>2015-01-17T15:29:06Z</time>
      </trkpt>
      <trkpt lat="42.26419" lon="2.48705">
        <ele>799</ele>
        <time>2015-01-17T15:29:12Z</time>
      </trkpt>
      <trkpt lat="42.26416" lon="2.48691">
        <ele>799</ele>
        <time>2015-01-17T15:29:19Z</time>
      </trkpt>
      <trkpt lat="42.26415" lon="2.48679">
        <ele>795.4</ele>
        <time>2015-01-17T15:29:25Z</time>
      </trkpt>
      <trkpt lat="42.26412" lon="2.48668">
        <ele>795</ele>
        <time>2015-01-17T15:29:33Z</time>
      </trkpt>
      <trkpt lat="42.26411" lon="2.48657">
        <ele>793.3</ele>
        <time>2015-01-17T15:29:40Z</time>
      </trkpt>
      <trkpt lat="42.26409" lon="2.48645">
        <ele>789</ele>
        <time>2015-01-17T15:29:51Z</time>
      </trkpt>
      <trkpt lat="42.26404" lon="2.48635">
        <ele>787</ele>
        <time>2015-01-17T15:29:57Z</time>
      </trkpt>
      <trkpt lat="42.26406" lon="2.48624">
        <ele>785</ele>
        <time>2015-01-17T15:30:02Z</time>
      </trkpt>
      <trkpt lat="42.26407" lon="2.48612">
        <ele>784</ele>
        <time>2015-01-17T15:30:09Z</time>
      </trkpt>
      <trkpt lat="42.26407" lon="2.48601">
        <ele>782</ele>
        <time>2015-01-17T15:30:16Z</time>
      </trkpt>
      <trkpt lat="42.26408" lon="2.4859">
        <ele>779</ele>
        <time>2015-01-17T15:30:24Z</time>
      </trkpt>
      <trkpt lat="42.26408" lon="2.48578">
        <ele>778</ele>
        <time>2015-01-17T15:30:33Z</time>
      </trkpt>
      <trkpt lat="42.26409" lon="2.48566">
        <ele>776.3</ele>
        <time>2015-01-17T15:30:40Z</time>
      </trkpt>
      <trkpt lat="42.26408" lon="2.48556">
        <ele>773</ele>
        <time>2015-01-17T15:30:47Z</time>
      </trkpt>
      <trkpt lat="42.26409" lon="2.48545">
        <ele>773</ele>
        <time>2015-01-17T15:30:53Z</time>
      </trkpt>
      <trkpt lat="42.26408" lon="2.48534">
        <ele>769</ele>
        <time>2015-01-17T15:31:01Z</time>
      </trkpt>
      <trkpt lat="42.26407" lon="2.48525">
        <ele>769</ele>
        <time>2015-01-17T15:31:08Z</time>
      </trkpt>
      <trkpt lat="42.26409" lon="2.48515">
        <ele>766</ele>
        <time>2015-01-17T15:31:16Z</time>
      </trkpt>
      <trkpt lat="42.26409" lon="2.48505">
        <ele>764</ele>
        <time>2015-01-17T15:31:23Z</time>
      </trkpt>
      <trkpt lat="42.26411" lon="2.48494">
        <ele>762</ele>
        <time>2015-01-17T15:31:29Z</time>
      </trkpt>
      <trkpt lat="42.26408" lon="2.48485">
        <ele>759</ele>
        <time>2015-01-17T15:31:36Z</time>
      </trkpt>
      <trkpt lat="42.26398" lon="2.48488">
        <ele>756</ele>
        <time>2015-01-17T15:31:53Z</time>
      </trkpt>
      <trkpt lat="42.2639" lon="2.48495">
        <ele>751.7</ele>
        <time>2015-01-17T15:32:00Z</time>
      </trkpt>
      <trkpt lat="42.26382" lon="2.48503">
        <ele>748</ele>
        <time>2015-01-17T15:32:08Z</time>
      </trkpt>
      <trkpt lat="42.26375" lon="2.48508">
        <ele>748</ele>
        <time>2015-01-17T15:32:15Z</time>
      </trkpt>
      <trkpt lat="42.26368" lon="2.48516">
        <ele>745</ele>
        <time>2015-01-17T15:32:23Z</time>
      </trkpt>
      <trkpt lat="42.26363" lon="2.48524">
        <ele>742</ele>
        <time>2015-01-17T15:32:33Z</time>
      </trkpt>
      <trkpt lat="42.26355" lon="2.48527">
        <ele>740</ele>
        <time>2015-01-17T15:32:39Z</time>
      </trkpt>
      <trkpt lat="42.26348" lon="2.48534">
        <ele>738.2</ele>
        <time>2015-01-17T15:32:45Z</time>
      </trkpt>
      <trkpt lat="42.26341" lon="2.48539">
        <ele>737</ele>
        <time>2015-01-17T15:32:51Z</time>
      </trkpt>
      <trkpt lat="42.26335" lon="2.48551">
        <ele>734.2</ele>
        <time>2015-01-17T15:33:00Z</time>
      </trkpt>
      <trkpt lat="42.26328" lon="2.48559">
        <ele>732</ele>
        <time>2015-01-17T15:33:06Z</time>
      </trkpt>
      <trkpt lat="42.26325" lon="2.48569">
        <ele>730</ele>
        <time>2015-01-17T15:33:12Z</time>
      </trkpt>
      <trkpt lat="42.26318" lon="2.48575">
        <ele>730</ele>
        <time>2015-01-17T15:33:18Z</time>
      </trkpt>
      <trkpt lat="42.26309" lon="2.48578">
        <ele>725.7</ele>
        <time>2015-01-17T15:33:25Z</time>
      </trkpt>
      <trkpt lat="42.26301" lon="2.48582">
        <ele>721</ele>
        <time>2015-01-17T15:33:32Z</time>
      </trkpt>
      <trkpt lat="42.26293" lon="2.48591">
        <ele>718.4</ele>
        <time>2015-01-17T15:33:38Z</time>
      </trkpt>
      <trkpt lat="42.26291" lon="2.48602">
        <ele>717</ele>
        <time>2015-01-17T15:33:43Z</time>
      </trkpt>
      <trkpt lat="42.26289" lon="2.48613">
        <ele>716</ele>
        <time>2015-01-17T15:33:49Z</time>
      </trkpt>
      <trkpt lat="42.26286" lon="2.48624">
        <ele>716</ele>
        <time>2015-01-17T15:33:54Z</time>
      </trkpt>
      <trkpt lat="42.26284" lon="2.48634">
        <ele>716</ele>
        <time>2015-01-17T15:33:59Z</time>
      </trkpt>
      <trkpt lat="42.26283" lon="2.48647">
        <ele>715</ele>
        <time>2015-01-17T15:34:06Z</time>
      </trkpt>
      <trkpt lat="42.26283" lon="2.48658">
        <ele>714</ele>
        <time>2015-01-17T15:34:13Z</time>
      </trkpt>
      <trkpt lat="42.26282" lon="2.48669">
        <ele>714</ele>
        <time>2015-01-17T15:34:19Z</time>
      </trkpt>
      <trkpt lat="42.26277" lon="2.48679">
        <ele>713</ele>
        <time>2015-01-17T15:34:24Z</time>
      </trkpt>
      <trkpt lat="42.26276" lon="2.48692">
        <ele>712</ele>
        <time>2015-01-17T15:34:31Z</time>
      </trkpt>
      <trkpt lat="42.26272" lon="2.48703">
        <ele>712</ele>
        <time>2015-01-17T15:34:39Z</time>
      </trkpt>
      <trkpt lat="42.26265" lon="2.48712">
        <ele>711</ele>
        <time>2015-01-17T15:34:47Z</time>
      </trkpt>
      <trkpt lat="42.26259" lon="2.48722">
        <ele>705.7</ele>
        <time>2015-01-17T15:34:55Z</time>
      </trkpt>
      <trkpt lat="42.26256" lon="2.48733">
        <ele>703</ele>
        <time>2015-01-17T15:35:06Z</time>
      </trkpt>
      <trkpt lat="42.26253" lon="2.48745">
        <ele>703</ele>
        <time>2015-01-17T15:35:15Z</time>
      </trkpt>
      <trkpt lat="42.26244" lon="2.48752">
        <ele>697</ele>
        <time>2015-01-17T15:35:31Z</time>
      </trkpt>
      <trkpt lat="42.26234" lon="2.48753">
        <ele>693</ele>
        <time>2015-01-17T15:35:43Z</time>
      </trkpt>
      <trkpt lat="42.26226" lon="2.48761">
        <ele>689</ele>
        <time>2015-01-17T15:35:54Z</time>
      </trkpt>
      <trkpt lat="42.26226" lon="2.48768">
        <ele>684</ele>
        <time>2015-01-17T15:36:52Z</time>
      </trkpt>
      <trkpt lat="42.26221" lon="2.48778">
        <ele>686</ele>
        <time>2015-01-17T15:40:33Z</time>
      </trkpt>
      <trkpt lat="42.26218" lon="2.48783">
        <ele>684</ele>
        <time>2015-01-17T15:40:45Z</time>
      </trkpt>
      <trkpt lat="42.26214" lon="2.48792">
        <ele>684</ele>
        <time>2015-01-17T15:41:55Z</time>
      </trkpt>
      <trkpt lat="42.26212" lon="2.48804">
        <ele>681</ele>
        <time>2015-01-17T15:42:03Z</time>
      </trkpt>
      <trkpt lat="42.26211" lon="2.48818">
        <ele>680.4</ele>
        <time>2015-01-17T15:42:10Z</time>
      </trkpt>
      <trkpt lat="42.2621" lon="2.48832">
        <ele>680</ele>
        <time>2015-01-17T15:42:17Z</time>
      </trkpt>
      <trkpt lat="42.26206" lon="2.48845">
        <ele>678</ele>
        <time>2015-01-17T15:42:23Z</time>
      </trkpt>
      <trkpt lat="42.26204" lon="2.48858">
        <ele>676</ele>
        <time>2015-01-17T15:42:31Z</time>
      </trkpt>
      <trkpt lat="42.26202" lon="2.48872">
        <ele>676</ele>
        <time>2015-01-17T15:42:38Z</time>
      </trkpt>
      <trkpt lat="42.26199" lon="2.48886">
        <ele>673</ele>
        <time>2015-01-17T15:42:47Z</time>
      </trkpt>
      <trkpt lat="42.26196" lon="2.48899">
        <ele>672</ele>
        <time>2015-01-17T15:42:56Z</time>
      </trkpt>
      <trkpt lat="42.26192" lon="2.48913">
        <ele>668</ele>
        <time>2015-01-17T15:43:03Z</time>
      </trkpt>
      <trkpt lat="42.26189" lon="2.48927">
        <ele>668</ele>
        <time>2015-01-17T15:43:11Z</time>
      </trkpt>
      <trkpt lat="42.26187" lon="2.48942">
        <ele>668</ele>
        <time>2015-01-17T15:43:19Z</time>
      </trkpt>
      <trkpt lat="42.26184" lon="2.48955">
        <ele>664</ele>
        <time>2015-01-17T15:43:26Z</time>
      </trkpt>
      <trkpt lat="42.26182" lon="2.48968">
        <ele>664</ele>
        <time>2015-01-17T15:43:33Z</time>
      </trkpt>
      <trkpt lat="42.2618" lon="2.48982">
        <ele>663.2</ele>
        <time>2015-01-17T15:43:40Z</time>
      </trkpt>
      <trkpt lat="42.26182" lon="2.48995">
        <ele>663</ele>
        <time>2015-01-17T15:43:47Z</time>
      </trkpt>
      <trkpt lat="42.2619" lon="2.49004">
        <ele>660</ele>
        <time>2015-01-17T15:43:54Z</time>
      </trkpt>
      <trkpt lat="42.26199" lon="2.49011">
        <ele>659</ele>
        <time>2015-01-17T15:44:03Z</time>
      </trkpt>
      <trkpt lat="42.26205" lon="2.49022">
        <ele>658</ele>
        <time>2015-01-17T15:44:12Z</time>
      </trkpt>
      <trkpt lat="42.26212" lon="2.49033">
        <ele>656.3</ele>
        <time>2015-01-17T15:44:20Z</time>
      </trkpt>
      <trkpt lat="42.26219" lon="2.49043">
        <ele>653</ele>
        <time>2015-01-17T15:44:28Z</time>
      </trkpt>
      <trkpt lat="42.26225" lon="2.49055">
        <ele>650</ele>
        <time>2015-01-17T15:44:36Z</time>
      </trkpt>
      <trkpt lat="42.26231" lon="2.49067">
        <ele>647</ele>
        <time>2015-01-17T15:44:46Z</time>
      </trkpt>
      <trkpt lat="42.26239" lon="2.49078">
        <ele>645</ele>
        <time>2015-01-17T15:44:54Z</time>
      </trkpt>
      <trkpt lat="42.26247" lon="2.49087">
        <ele>640</ele>
        <time>2015-01-17T15:45:02Z</time>
      </trkpt>
      <trkpt lat="42.26255" lon="2.49096">
        <ele>639</ele>
        <time>2015-01-17T15:45:11Z</time>
      </trkpt>
      <trkpt lat="42.26265" lon="2.49103">
        <ele>638.4</ele>
        <time>2015-01-17T15:45:20Z</time>
      </trkpt>
      <trkpt lat="42.26273" lon="2.49112">
        <ele>638</ele>
        <time>2015-01-17T15:45:28Z</time>
      </trkpt>
      <trkpt lat="42.26283" lon="2.49118">
        <ele>637</ele>
        <time>2015-01-17T15:45:34Z</time>
      </trkpt>
      <trkpt lat="42.26291" lon="2.49126">
        <ele>634.7</ele>
        <time>2015-01-17T15:45:40Z</time>
      </trkpt>
      <trkpt lat="42.26301" lon="2.49132">
        <ele>631</ele>
        <time>2015-01-17T15:45:47Z</time>
      </trkpt>
      <trkpt lat="42.26309" lon="2.4914">
        <ele>630</ele>
        <time>2015-01-17T15:45:54Z</time>
      </trkpt>
      <trkpt lat="42.26318" lon="2.49148">
        <ele>626</ele>
        <time>2015-01-17T15:46:02Z</time>
      </trkpt>
      <trkpt lat="42.26327" lon="2.49157">
        <ele>624</ele>
        <time>2015-01-17T15:46:12Z</time>
      </trkpt>
      <trkpt lat="42.26333" lon="2.49167">
        <ele>622</ele>
        <time>2015-01-17T15:46:22Z</time>
      </trkpt>
      <trkpt lat="42.26342" lon="2.49177">
        <ele>619</ele>
        <time>2015-01-17T15:46:31Z</time>
      </trkpt>
      <trkpt lat="42.26352" lon="2.49184">
        <ele>617</ele>
        <time>2015-01-17T15:46:38Z</time>
      </trkpt>
      <trkpt lat="42.26361" lon="2.4919">
        <ele>616</ele>
        <time>2015-01-17T15:46:43Z</time>
      </trkpt>
      <trkpt lat="42.26366" lon="2.49202">
        <ele>612</ele>
        <time>2015-01-17T15:46:51Z</time>
      </trkpt>
      <trkpt lat="42.26363" lon="2.49216">
        <ele>609</ele>
        <time>2015-01-17T15:46:59Z</time>
      </trkpt>
      <trkpt lat="42.2637" lon="2.49227">
        <ele>604.2</ele>
        <time>2015-01-17T15:47:08Z</time>
      </trkpt>
      <trkpt lat="42.26379" lon="2.49233">
        <ele>604</ele>
        <time>2015-01-17T15:47:14Z</time>
      </trkpt>
      <trkpt lat="42.26387" lon="2.49236">
        <ele>604</ele>
        <time>2015-01-17T15:47:19Z</time>
      </trkpt>
      <trkpt lat="42.26392" lon="2.49243">
        <ele>603</ele>
        <time>2015-01-17T15:47:40Z</time>
      </trkpt>
      <trkpt lat="42.26398" lon="2.49248">
        <ele>603</ele>
        <time>2015-01-17T15:47:44Z</time>
      </trkpt>
      <trkpt lat="42.26403" lon="2.49254">
        <ele>603</ele>
        <time>2015-01-17T15:47:48Z</time>
      </trkpt>
      <trkpt lat="42.26406" lon="2.49264">
        <ele>602</ele>
        <time>2015-01-17T15:47:53Z</time>
      </trkpt>
      <trkpt lat="42.26408" lon="2.49275">
        <ele>600.4</ele>
        <time>2015-01-17T15:48:00Z</time>
      </trkpt>
      <trkpt lat="42.26406" lon="2.49287">
        <ele>600</ele>
        <time>2015-01-17T15:48:06Z</time>
      </trkpt>
      <trkpt lat="42.26401" lon="2.49295">
        <ele>602</ele>
        <time>2015-01-17T15:48:11Z</time>
      </trkpt>
      <trkpt lat="42.26394" lon="2.49299">
        <ele>602</ele>
        <time>2015-01-17T15:48:16Z</time>
      </trkpt>
      <trkpt lat="42.26388" lon="2.49303">
        <ele>603</ele>
        <time>2015-01-17T15:48:21Z</time>
      </trkpt>
      <trkpt lat="42.26382" lon="2.49308">
        <ele>603</ele>
        <time>2015-01-17T15:48:27Z</time>
      </trkpt>
      <trkpt lat="42.26375" lon="2.49315">
        <ele>605</ele>
        <time>2015-01-17T15:48:33Z</time>
      </trkpt>
      <trkpt lat="42.26368" lon="2.49321">
        <ele>605</ele>
        <time>2015-01-17T15:48:39Z</time>
      </trkpt>
      <trkpt lat="42.2636" lon="2.49324">
        <ele>607.8</ele>
        <time>2015-01-17T15:48:45Z</time>
      </trkpt>
      <trkpt lat="42.26352" lon="2.49325">
        <ele>608.8</ele>
        <time>2015-01-17T15:48:50Z</time>
      </trkpt>
      <trkpt lat="42.26344" lon="2.49325">
        <ele>609</ele>
        <time>2015-01-17T15:48:55Z</time>
      </trkpt>
      <trkpt lat="42.26335" lon="2.49327">
        <ele>609</ele>
        <time>2015-01-17T15:49:01Z</time>
      </trkpt>
      <trkpt lat="42.26326" lon="2.49325">
        <ele>609</ele>
        <time>2015-01-17T15:49:06Z</time>
      </trkpt>
      <trkpt lat="42.26317" lon="2.49324">
        <ele>609</ele>
        <time>2015-01-17T15:49:12Z</time>
      </trkpt>
      <trkpt lat="42.2631" lon="2.49319">
        <ele>609</ele>
        <time>2015-01-17T15:49:16Z</time>
      </trkpt>
      <trkpt lat="42.26303" lon="2.49314">
        <ele>609</ele>
        <time>2015-01-17T15:49:21Z</time>
      </trkpt>
      <trkpt lat="42.26294" lon="2.49309">
        <ele>609</ele>
        <time>2015-01-17T15:49:27Z</time>
      </trkpt>
      <trkpt lat="42.26285" lon="2.49305">
        <ele>610</ele>
        <time>2015-01-17T15:49:33Z</time>
      </trkpt>
      <trkpt lat="42.26277" lon="2.49302">
        <ele>610</ele>
        <time>2015-01-17T15:49:38Z</time>
      </trkpt>
      <trkpt lat="42.26268" lon="2.49297">
        <ele>610</ele>
        <time>2015-01-17T15:49:43Z</time>
      </trkpt>
      <trkpt lat="42.26259" lon="2.49291">
        <ele>610</ele>
        <time>2015-01-17T15:49:49Z</time>
      </trkpt>
      <trkpt lat="42.26253" lon="2.49282">
        <ele>609</ele>
        <time>2015-01-17T15:49:58Z</time>
      </trkpt>
      <trkpt lat="42.26245" lon="2.49275">
        <ele>609</ele>
        <time>2015-01-17T15:50:05Z</time>
      </trkpt>
      <trkpt lat="42.26238" lon="2.49269">
        <ele>609</ele>
        <time>2015-01-17T15:50:11Z</time>
      </trkpt>
      <trkpt lat="42.26229" lon="2.4926">
        <ele>609</ele>
        <time>2015-01-17T15:50:46Z</time>
      </trkpt>
      <trkpt lat="42.26222" lon="2.49254">
        <ele>609</ele>
        <time>2015-01-17T15:50:54Z</time>
      </trkpt>
      <trkpt lat="42.26215" lon="2.4925">
        <ele>609</ele>
        <time>2015-01-17T15:51:00Z</time>
      </trkpt>
      <trkpt lat="42.26206" lon="2.49245">
        <ele>609</ele>
        <time>2015-01-17T15:51:08Z</time>
      </trkpt>
      <trkpt lat="42.26197" lon="2.49239">
        <ele>609</ele>
        <time>2015-01-17T15:51:16Z</time>
      </trkpt>
      <trkpt lat="42.26189" lon="2.49235">
        <ele>610</ele>
        <time>2015-01-17T15:51:25Z</time>
      </trkpt>
      <trkpt lat="42.26182" lon="2.4923">
        <ele>612</ele>
        <time>2015-01-17T15:51:32Z</time>
      </trkpt>
      <trkpt lat="42.26171" lon="2.49226">
        <ele>612</ele>
        <time>2015-01-17T15:51:45Z</time>
      </trkpt>
      <trkpt lat="42.26162" lon="2.49222">
        <ele>612</ele>
        <time>2015-01-17T15:51:52Z</time>
      </trkpt>
      <trkpt lat="42.26152" lon="2.4922">
        <ele>613.6</ele>
        <time>2015-01-17T15:52:00Z</time>
      </trkpt>
      <trkpt lat="42.26142" lon="2.49221">
        <ele>614</ele>
        <time>2015-01-17T15:52:09Z</time>
      </trkpt>
      <trkpt lat="42.26133" lon="2.49223">
        <ele>614</ele>
        <time>2015-01-17T15:52:16Z</time>
      </trkpt>
      <trkpt lat="42.26125" lon="2.49226">
        <ele>616</ele>
        <time>2015-01-17T15:52:23Z</time>
      </trkpt>
      <trkpt lat="42.26115" lon="2.49229">
        <ele>616</ele>
        <time>2015-01-17T15:52:31Z</time>
      </trkpt>
      <trkpt lat="42.26107" lon="2.49232">
        <ele>616</ele>
        <time>2015-01-17T15:52:37Z</time>
      </trkpt>
      <trkpt lat="42.26098" lon="2.49236">
        <ele>617</ele>
        <time>2015-01-17T15:52:43Z</time>
      </trkpt>
      <trkpt lat="42.26092" lon="2.4924">
        <ele>617</ele>
        <time>2015-01-17T15:52:49Z</time>
      </trkpt>
      <trkpt lat="42.26084" lon="2.49242">
        <ele>618</ele>
        <time>2015-01-17T15:53:05Z</time>
      </trkpt>
      <trkpt lat="42.26076" lon="2.49245">
        <ele>619</ele>
        <time>2015-01-17T15:53:11Z</time>
      </trkpt>
      <trkpt lat="42.26068" lon="2.49248">
        <ele>619</ele>
        <time>2015-01-17T15:53:17Z</time>
      </trkpt>
      <trkpt lat="42.26061" lon="2.49253">
        <ele>621</ele>
        <time>2015-01-17T15:53:23Z</time>
      </trkpt>
      <trkpt lat="42.26056" lon="2.4926">
        <ele>622</ele>
        <time>2015-01-17T15:53:45Z</time>
      </trkpt>
      <trkpt lat="42.26049" lon="2.4927">
        <ele>623</ele>
        <time>2015-01-17T15:53:54Z</time>
      </trkpt>
      <trkpt lat="42.26044" lon="2.49275">
        <ele>623</ele>
        <time>2015-01-17T15:53:59Z</time>
      </trkpt>
      <trkpt lat="42.26049" lon="2.49282">
        <ele>625.5</ele>
        <time>2015-01-17T15:54:10Z</time>
      </trkpt>
      <trkpt lat="42.26058" lon="2.49284">
        <ele>627.2</ele>
        <time>2015-01-17T15:54:20Z</time>
      </trkpt>
      <trkpt lat="42.26066" lon="2.49285">
        <ele>629.8</ele>
        <time>2015-01-17T15:54:30Z</time>
      </trkpt>
      <trkpt lat="42.26074" lon="2.49286">
        <ele>631</ele>
        <time>2015-01-17T15:54:45Z</time>
      </trkpt>
      <trkpt lat="42.26085" lon="2.49284">
        <ele>632</ele>
        <time>2015-01-17T15:54:53Z</time>
      </trkpt>
      <trkpt lat="42.26094" lon="2.49282">
        <ele>631</ele>
        <time>2015-01-17T15:55:02Z</time>
      </trkpt>
      <trkpt lat="42.26104" lon="2.49286">
        <ele>633</ele>
        <time>2015-01-17T15:55:11Z</time>
      </trkpt>
      <trkpt lat="42.26113" lon="2.49292">
        <ele>636</ele>
        <time>2015-01-17T15:55:22Z</time>
      </trkpt>
      <trkpt lat="42.26121" lon="2.49299">
        <ele>637</ele>
        <time>2015-01-17T15:55:29Z</time>
      </trkpt>
      <trkpt lat="42.26131" lon="2.49301">
        <ele>637</ele>
        <time>2015-01-17T15:55:39Z</time>
      </trkpt>
      <trkpt lat="42.26139" lon="2.4931">
        <ele>642.5</ele>
        <time>2015-01-17T15:55:55Z</time>
      </trkpt>
      <trkpt lat="42.26145" lon="2.49322">
        <ele>646</ele>
        <time>2015-01-17T15:56:11Z</time>
      </trkpt>
      <trkpt lat="42.26155" lon="2.49329">
        <ele>650</ele>
        <time>2015-01-17T15:56:29Z</time>
      </trkpt>
      <trkpt lat="42.26164" lon="2.49336">
        <ele>654</ele>
        <time>2015-01-17T15:56:41Z</time>
      </trkpt>
      <trkpt lat="42.26172" lon="2.49345">
        <ele>655</ele>
        <time>2015-01-17T15:56:56Z</time>
      </trkpt>
      <trkpt lat="42.2618" lon="2.49356">
        <ele>663</ele>
        <time>2015-01-17T15:57:14Z</time>
      </trkpt>
      <trkpt lat="42.26189" lon="2.49363">
        <ele>664</ele>
        <time>2015-01-17T15:57:26Z</time>
      </trkpt>
      <trkpt lat="42.26195" lon="2.49374">
        <ele>666</ele>
        <time>2015-01-17T15:57:38Z</time>
      </trkpt>
      <trkpt lat="42.26204" lon="2.49383">
        <ele>668</ele>
        <time>2015-01-17T15:57:47Z</time>
      </trkpt>
      <trkpt lat="42.2621" lon="2.49394">
        <ele>668</ele>
        <time>2015-01-17T15:57:56Z</time>
      </trkpt>
      <trkpt lat="42.26216" lon="2.49406">
        <ele>670</ele>
        <time>2015-01-17T15:58:07Z</time>
      </trkpt>
      <trkpt lat="42.2622" lon="2.49419">
        <ele>673.5</ele>
        <time>2015-01-17T15:58:20Z</time>
      </trkpt>
      <trkpt lat="42.26225" lon="2.4943">
        <ele>677</ele>
        <time>2015-01-17T15:58:31Z</time>
      </trkpt>
      <trkpt lat="42.26232" lon="2.49441">
        <ele>679</ele>
        <time>2015-01-17T15:58:43Z</time>
      </trkpt>
      <trkpt lat="42.26238" lon="2.49453">
        <ele>681</ele>
        <time>2015-01-17T15:58:53Z</time>
      </trkpt>
      <trkpt lat="42.26244" lon="2.49465">
        <ele>683</ele>
        <time>2015-01-17T15:59:04Z</time>
      </trkpt>
      <trkpt lat="42.26251" lon="2.49475">
        <ele>685</ele>
        <time>2015-01-17T15:59:14Z</time>
      </trkpt>
      <trkpt lat="42.26256" lon="2.49487">
        <ele>687</ele>
        <time>2015-01-17T15:59:26Z</time>
      </trkpt>
      <trkpt lat="42.26261" lon="2.49499">
        <ele>691</ele>
        <time>2015-01-17T15:59:36Z</time>
      </trkpt>
      <trkpt lat="42.26266" lon="2.49511">
        <ele>693</ele>
        <time>2015-01-17T15:59:46Z</time>
      </trkpt>
      <trkpt lat="42.26273" lon="2.49521">
        <ele>696</ele>
        <time>2015-01-17T15:59:56Z</time>
      </trkpt>
      <trkpt lat="42.26279" lon="2.49533">
        <ele>697</ele>
        <time>2015-01-17T16:00:08Z</time>
      </trkpt>
      <trkpt lat="42.26286" lon="2.49547">
        <ele>701</ele>
        <time>2015-01-17T16:00:24Z</time>
      </trkpt>
      <trkpt lat="42.2628" lon="2.49558">
        <ele>709</ele>
        <time>2015-01-17T16:00:47Z</time>
      </trkpt>
      <trkpt lat="42.26281" lon="2.49571">
        <ele>714</ele>
        <time>2015-01-17T16:01:02Z</time>
      </trkpt>
      <trkpt lat="42.26287" lon="2.49581">
        <ele>718</ele>
        <time>2015-01-17T16:01:16Z</time>
      </trkpt>
      <trkpt lat="42.26286" lon="2.49595">
        <ele>723</ele>
        <time>2015-01-17T16:01:43Z</time>
      </trkpt>
      <trkpt lat="42.26287" lon="2.49609">
        <ele>728.7</ele>
        <time>2015-01-17T16:02:00Z</time>
      </trkpt>
      <trkpt lat="42.26292" lon="2.4962">
        <ele>731.3</ele>
        <time>2015-01-17T16:02:10Z</time>
      </trkpt>
      <trkpt lat="42.26291" lon="2.49634">
        <ele>737</ele>
        <time>2015-01-17T16:02:34Z</time>
      </trkpt>
      <trkpt lat="42.26291" lon="2.49649">
        <ele>742</ele>
        <time>2015-01-17T16:02:57Z</time>
      </trkpt>
      <trkpt lat="42.26284" lon="2.49659">
        <ele>748</ele>
        <time>2015-01-17T16:03:13Z</time>
      </trkpt>
      <trkpt lat="42.2629" lon="2.4967">
        <ele>754</ele>
        <time>2015-01-17T16:03:33Z</time>
      </trkpt>
      <trkpt lat="42.26289" lon="2.49685">
        <ele>758</ele>
        <time>2015-01-17T16:03:55Z</time>
      </trkpt>
      <trkpt lat="42.26297" lon="2.49694">
        <ele>763</ele>
        <time>2015-01-17T16:04:09Z</time>
      </trkpt>
      <trkpt lat="42.26303" lon="2.49706">
        <ele>765</ele>
        <time>2015-01-17T16:04:24Z</time>
      </trkpt>
      <trkpt lat="42.26292" lon="2.49716">
        <ele>773.3</ele>
        <time>2015-01-17T16:04:50Z</time>
      </trkpt>
      <trkpt lat="42.26294" lon="2.49729">
        <ele>776</ele>
        <time>2015-01-17T16:05:04Z</time>
      </trkpt>
      <trkpt lat="42.26294" lon="2.49743">
        <ele>782</ele>
        <time>2015-01-17T16:05:21Z</time>
      </trkpt>
      <trkpt lat="42.26302" lon="2.49754">
        <ele>785</ele>
        <time>2015-01-17T16:05:32Z</time>
      </trkpt>
      <trkpt lat="42.26309" lon="2.49763">
        <ele>788</ele>
        <time>2015-01-17T16:05:44Z</time>
      </trkpt>
      <trkpt lat="42.26314" lon="2.49776">
        <ele>793</ele>
        <time>2015-01-17T16:06:02Z</time>
      </trkpt>
      <trkpt lat="42.26323" lon="2.49782">
        <ele>796</ele>
        <time>2015-01-17T16:06:12Z</time>
      </trkpt>
      <trkpt lat="42.26331" lon="2.49794">
        <ele>801</ele>
        <time>2015-01-17T16:06:29Z</time>
      </trkpt>
      <trkpt lat="42.26332" lon="2.49807">
        <ele>807</ele>
        <time>2015-01-17T16:06:49Z</time>
      </trkpt>
      <trkpt lat="42.2634" lon="2.49817">
        <ele>811</ele>
        <time>2015-01-17T16:07:13Z</time>
      </trkpt>
      <trkpt lat="42.2635" lon="2.49821">
        <ele>813</ele>
        <time>2015-01-17T16:07:24Z</time>
      </trkpt>
      <trkpt lat="42.2636" lon="2.49829">
        <ele>817</ele>
        <time>2015-01-17T16:07:37Z</time>
      </trkpt>
      <trkpt lat="42.26369" lon="2.49838">
        <ele>820</ele>
        <time>2015-01-17T16:07:52Z</time>
      </trkpt>
      <trkpt lat="42.26377" lon="2.49846">
        <ele>824</ele>
        <time>2015-01-17T16:08:07Z</time>
      </trkpt>
      <trkpt lat="42.26386" lon="2.49852">
        <ele>826</ele>
        <time>2015-01-17T16:08:19Z</time>
      </trkpt>
      <trkpt lat="42.26396" lon="2.49859">
        <ele>831.3</ele>
        <time>2015-01-17T16:08:30Z</time>
      </trkpt>
      <trkpt lat="42.26404" lon="2.49862">
        <ele>834</ele>
        <time>2015-01-17T16:08:41Z</time>
      </trkpt>
      <trkpt lat="42.26418" lon="2.49865">
        <ele>837</ele>
        <time>2015-01-17T16:09:00Z</time>
      </trkpt>
      <trkpt lat="42.26427" lon="2.49864">
        <ele>840</ele>
        <time>2015-01-17T16:09:09Z</time>
      </trkpt>
      <trkpt lat="42.26437" lon="2.49866">
        <ele>843</ele>
        <time>2015-01-17T16:09:19Z</time>
      </trkpt>
      <trkpt lat="42.26446" lon="2.49871">
        <ele>843</ele>
        <time>2015-01-17T16:09:28Z</time>
      </trkpt>
      <trkpt lat="42.26451" lon="2.49884">
        <ele>844</ele>
        <time>2015-01-17T16:09:38Z</time>
      </trkpt>
      <trkpt lat="42.26446" lon="2.49896">
        <ele>847</ele>
        <time>2015-01-17T16:14:34Z</time>
      </trkpt>
      <trkpt lat="42.26443" lon="2.4991">
        <ele>848</ele>
        <time>2015-01-17T16:14:48Z</time>
      </trkpt>
      <trkpt lat="42.26438" lon="2.49922">
        <ele>852.8</ele>
        <time>2015-01-17T16:15:00Z</time>
      </trkpt>
      <trkpt lat="42.26432" lon="2.49933">
        <ele>857</ele>
        <time>2015-01-17T16:15:19Z</time>
      </trkpt>
      <trkpt lat="42.26425" lon="2.49942">
        <ele>863</ele>
        <time>2015-01-17T16:15:39Z</time>
      </trkpt>
      <trkpt lat="42.26417" lon="2.49948">
        <ele>868</ele>
        <time>2015-01-17T16:15:56Z</time>
      </trkpt>
      <trkpt lat="42.26408" lon="2.49949">
        <ele>869.8</ele>
        <time>2015-01-17T16:16:05Z</time>
      </trkpt>
      <trkpt lat="42.26398" lon="2.49944">
        <ele>870</ele>
        <time>2015-01-17T16:16:16Z</time>
      </trkpt>
      <trkpt lat="42.26388" lon="2.49942">
        <ele>869</ele>
        <time>2015-01-17T16:16:25Z</time>
      </trkpt>
      <trkpt lat="42.26382" lon="2.49953">
        <ele>873.8</ele>
        <time>2015-01-17T16:16:50Z</time>
      </trkpt>
      <trkpt lat="42.26374" lon="2.49963">
        <ele>882</ele>
        <time>2015-01-17T16:17:12Z</time>
      </trkpt>
      <trkpt lat="42.26371" lon="2.49976">
        <ele>885</ele>
        <time>2015-01-17T16:17:34Z</time>
      </trkpt>
      <trkpt lat="42.26362" lon="2.49975">
        <ele>893</ele>
        <time>2015-01-17T16:18:02Z</time>
      </trkpt>
      <trkpt lat="42.26355" lon="2.49975">
        <ele>900</ele>
        <time>2015-01-17T16:18:27Z</time>
      </trkpt>
      <trkpt lat="42.26356" lon="2.49988">
        <ele>898</ele>
        <time>2015-01-17T16:21:49Z</time>
      </trkpt>
      <trkpt lat="42.26359" lon="2.5">
        <ele>897</ele>
        <time>2015-01-17T16:21:57Z</time>
      </trkpt>
      <trkpt lat="42.26356" lon="2.50011">
        <ele>892</ele>
        <time>2015-01-17T16:22:08Z</time>
      </trkpt>
      <trkpt lat="42.26356" lon="2.50024">
        <ele>892</ele>
        <time>2015-01-17T16:22:19Z</time>
      </trkpt>
      <trkpt lat="42.26353" lon="2.50035">
        <ele>887</ele>
        <time>2015-01-17T16:22:27Z</time>
      </trkpt>
      <trkpt lat="42.26345" lon="2.50043">
        <ele>884</ele>
        <time>2015-01-17T16:22:38Z</time>
      </trkpt>
      <trkpt lat="42.26337" lon="2.50047">
        <ele>883</ele>
        <time>2015-01-17T16:22:49Z</time>
      </trkpt>
      <trkpt lat="42.26338" lon="2.50059">
        <ele>877</ele>
        <time>2015-01-17T16:23:03Z</time>
      </trkpt>
      <trkpt lat="42.26329" lon="2.50066">
        <ele>876</ele>
        <time>2015-01-17T16:23:15Z</time>
      </trkpt>
      <trkpt lat="42.26326" lon="2.50077">
        <ele>871.8</ele>
        <time>2015-01-17T16:23:25Z</time>
      </trkpt>
      <trkpt lat="42.26321" lon="2.50085">
        <ele>869</ele>
        <time>2015-01-17T16:23:36Z</time>
      </trkpt>
      <trkpt lat="42.26315" lon="2.50088">
        <ele>867</ele>
        <time>2015-01-17T16:23:55Z</time>
      </trkpt>
      <trkpt lat="42.26312" lon="2.50098">
        <ele>864</ele>
        <time>2015-01-17T16:24:15Z</time>
      </trkpt>
      <trkpt lat="42.26314" lon="2.5011">
        <ele>860</ele>
        <time>2015-01-17T16:24:31Z</time>
      </trkpt>
      <trkpt lat="42.26323" lon="2.50113">
        <ele>858</ele>
        <time>2015-01-17T16:24:55Z</time>
      </trkpt>
      <trkpt lat="42.26333" lon="2.5011">
        <ele>858</ele>
        <time>2015-01-17T16:25:07Z</time>
      </trkpt>
      <trkpt lat="42.26342" lon="2.50114">
        <ele>858</ele>
        <time>2015-01-17T16:25:17Z</time>
      </trkpt>
      <trkpt lat="42.26352" lon="2.50119">
        <ele>858</ele>
        <time>2015-01-17T16:25:28Z</time>
      </trkpt>
      <trkpt lat="42.26363" lon="2.50121">
        <ele>851</ele>
        <time>2015-01-17T16:25:36Z</time>
      </trkpt>
      <trkpt lat="42.26372" lon="2.50125">
        <ele>849</ele>
        <time>2015-01-17T16:25:42Z</time>
      </trkpt>
      <trkpt lat="42.2638" lon="2.50135">
        <ele>845</ele>
        <time>2015-01-17T16:25:52Z</time>
      </trkpt>
      <trkpt lat="42.26376" lon="2.50149">
        <ele>840</ele>
        <time>2015-01-17T16:26:00Z</time>
      </trkpt>
      <trkpt lat="42.26371" lon="2.5016">
        <ele>835</ele>
        <time>2015-01-17T16:26:11Z</time>
      </trkpt>
      <trkpt lat="42.2638" lon="2.50168">
        <ele>832</ele>
        <time>2015-01-17T16:26:19Z</time>
      </trkpt>
      <trkpt lat="42.26389" lon="2.50163">
        <ele>828.2</ele>
        <time>2015-01-17T16:26:24Z</time>
      </trkpt>
      <trkpt lat="42.26399" lon="2.50165">
        <ele>825</ele>
        <time>2015-01-17T16:26:30Z</time>
      </trkpt>
      <trkpt lat="42.2641" lon="2.50166">
        <ele>823</ele>
        <time>2015-01-17T16:26:37Z</time>
      </trkpt>
      <trkpt lat="42.26417" lon="2.50176">
        <ele>819.2</ele>
        <time>2015-01-17T16:26:43Z</time>
      </trkpt>
      <trkpt lat="42.26409" lon="2.50186">
        <ele>818</ele>
        <time>2015-01-17T16:26:52Z</time>
      </trkpt>
      <trkpt lat="42.26414" lon="2.50198">
        <ele>811</ele>
        <time>2015-01-17T16:27:04Z</time>
      </trkpt>
      <trkpt lat="42.26424" lon="2.50197">
        <ele>808</ele>
        <time>2015-01-17T16:27:13Z</time>
      </trkpt>
      <trkpt lat="42.26434" lon="2.50194">
        <ele>806</ele>
        <time>2015-01-17T16:27:18Z</time>
      </trkpt>
      <trkpt lat="42.26436" lon="2.50207">
        <ele>803</ele>
        <time>2015-01-17T16:27:27Z</time>
      </trkpt>
      <trkpt lat="42.26433" lon="2.50222">
        <ele>798</ele>
        <time>2015-01-17T16:27:33Z</time>
      </trkpt>
      <trkpt lat="42.26435" lon="2.50236">
        <ele>794.2</ele>
        <time>2015-01-17T16:27:39Z</time>
      </trkpt>
      <trkpt lat="42.26438" lon="2.50249">
        <ele>789.2</ele>
        <time>2015-01-17T16:27:46Z</time>
      </trkpt>
      <trkpt lat="42.26436" lon="2.50263">
        <ele>786</ele>
        <time>2015-01-17T16:27:53Z</time>
      </trkpt>
      <trkpt lat="42.26431" lon="2.50276">
        <ele>783</ele>
        <time>2015-01-17T16:27:59Z</time>
      </trkpt>
      <trkpt lat="42.26427" lon="2.5029">
        <ele>780</ele>
        <time>2015-01-17T16:28:07Z</time>
      </trkpt>
      <trkpt lat="42.26418" lon="2.50303">
        <ele>777</ele>
        <time>2015-01-17T16:28:13Z</time>
      </trkpt>
      <trkpt lat="42.26408" lon="2.50305">
        <ele>774</ele>
        <time>2015-01-17T16:28:18Z</time>
      </trkpt>
      <trkpt lat="42.264" lon="2.50312">
        <ele>768</ele>
        <time>2015-01-17T16:28:24Z</time>
      </trkpt>
      <trkpt lat="42.26392" lon="2.50309">
        <ele>766</ele>
        <time>2015-01-17T16:28:44Z</time>
      </trkpt>
      <trkpt lat="42.26381" lon="2.50304">
        <ele>765</ele>
        <time>2015-01-17T16:28:52Z</time>
      </trkpt>
      <trkpt lat="42.26372" lon="2.50299">
        <ele>763</ele>
        <time>2015-01-17T16:29:01Z</time>
      </trkpt>
      <trkpt lat="42.26361" lon="2.50296">
        <ele>763</ele>
        <time>2015-01-17T16:29:09Z</time>
      </trkpt>
      <trkpt lat="42.26351" lon="2.50301">
        <ele>763</ele>
        <time>2015-01-17T16:29:16Z</time>
      </trkpt>
      <trkpt lat="42.2634" lon="2.50306">
        <ele>763</ele>
        <time>2015-01-17T16:29:23Z</time>
      </trkpt>
      <trkpt lat="42.2633" lon="2.50311">
        <ele>763</ele>
        <time>2015-01-17T16:29:29Z</time>
      </trkpt>
      <trkpt lat="42.2632" lon="2.50316">
        <ele>759</ele>
        <time>2015-01-17T16:29:36Z</time>
      </trkpt>
      <trkpt lat="42.2631" lon="2.5032">
        <ele>758</ele>
        <time>2015-01-17T16:29:43Z</time>
      </trkpt>
      <trkpt lat="42.26299" lon="2.5032">
        <ele>758</ele>
        <time>2015-01-17T16:29:49Z</time>
      </trkpt>
      <trkpt lat="42.26288" lon="2.50321">
        <ele>757</ele>
        <time>2015-01-17T16:29:56Z</time>
      </trkpt>
      <trkpt lat="42.26277" lon="2.50324">
        <ele>756</ele>
        <time>2015-01-17T16:30:04Z</time>
      </trkpt>
      <trkpt lat="42.26268" lon="2.5033">
        <ele>756</ele>
        <time>2015-01-17T16:30:11Z</time>
      </trkpt>
      <trkpt lat="42.26258" lon="2.50333">
        <ele>756</ele>
        <time>2015-01-17T16:30:17Z</time>
      </trkpt>
      <trkpt lat="42.26248" lon="2.50338">
        <ele>754</ele>
        <time>2015-01-17T16:30:24Z</time>
      </trkpt>
      <trkpt lat="42.26238" lon="2.50342">
        <ele>752.5</ele>
        <time>2015-01-17T16:30:30Z</time>
      </trkpt>
      <trkpt lat="42.26227" lon="2.50346">
        <ele>752</ele>
        <time>2015-01-17T16:30:37Z</time>
      </trkpt>
      <trkpt lat="42.26216" lon="2.50348">
        <ele>749.2</ele>
        <time>2015-01-17T16:30:45Z</time>
      </trkpt>
      <trkpt lat="42.26205" lon="2.50346">
        <ele>748</ele>
        <time>2015-01-17T16:30:53Z</time>
      </trkpt>
      <trkpt lat="42.26195" lon="2.50344">
        <ele>747.2</ele>
        <time>2015-01-17T16:31:00Z</time>
      </trkpt>
      <trkpt lat="42.26185" lon="2.50346">
        <ele>747</ele>
        <time>2015-01-17T16:31:06Z</time>
      </trkpt>
      <trkpt lat="42.26174" lon="2.50346">
        <ele>745</ele>
        <time>2015-01-17T16:31:12Z</time>
      </trkpt>
      <trkpt lat="42.26163" lon="2.50348">
        <ele>745</ele>
        <time>2015-01-17T16:31:17Z</time>
      </trkpt>
      <trkpt lat="42.26151" lon="2.50349">
        <ele>741</ele>
        <time>2015-01-17T16:31:23Z</time>
      </trkpt>
      <trkpt lat="42.26143" lon="2.50359">
        <ele>734.7</ele>
        <time>2015-01-17T16:31:30Z</time>
      </trkpt>
      <trkpt lat="42.26136" lon="2.50371">
        <ele>730</ele>
        <time>2015-01-17T16:31:36Z</time>
      </trkpt>
      <trkpt lat="42.26127" lon="2.50377">
        <ele>725.2</ele>
        <time>2015-01-17T16:31:41Z</time>
      </trkpt>
      <trkpt lat="42.26119" lon="2.5037">
        <ele>723</ele>
        <time>2015-01-17T16:31:45Z</time>
      </trkpt>
      <trkpt lat="42.26112" lon="2.50381">
        <ele>717.5</ele>
        <time>2015-01-17T16:31:53Z</time>
      </trkpt>
      <trkpt lat="42.2611" lon="2.50396">
        <ele>714</ele>
        <time>2015-01-17T16:31:58Z</time>
      </trkpt>
      <trkpt lat="42.26103" lon="2.50408">
        <ele>711.2</ele>
        <time>2015-01-17T16:32:03Z</time>
      </trkpt>
      <trkpt lat="42.26097" lon="2.5042">
        <ele>708.2</ele>
        <time>2015-01-17T16:32:08Z</time>
      </trkpt>
      <trkpt lat="42.26088" lon="2.50429">
        <ele>705.2</ele>
        <time>2015-01-17T16:32:12Z</time>
      </trkpt>
      <trkpt lat="42.2608" lon="2.50439">
        <ele>702.2</ele>
        <time>2015-01-17T16:32:17Z</time>
      </trkpt>
      <trkpt lat="42.26078" lon="2.50454">
        <ele>700</ele>
        <time>2015-01-17T16:32:24Z</time>
      </trkpt>
      <trkpt lat="42.26069" lon="2.50462">
        <ele>698</ele>
        <time>2015-01-17T16:32:29Z</time>
      </trkpt>
      <trkpt lat="42.26061" lon="2.50469">
        <ele>697</ele>
        <time>2015-01-17T16:32:33Z</time>
      </trkpt>
      <trkpt lat="42.26051" lon="2.50473">
        <ele>695</ele>
        <time>2015-01-17T16:32:37Z</time>
      </trkpt>
      <trkpt lat="42.2604" lon="2.50471">
        <ele>689.2</ele>
        <time>2015-01-17T16:32:42Z</time>
      </trkpt>
      <trkpt lat="42.2603" lon="2.50471">
        <ele>688</ele>
        <time>2015-01-17T16:32:46Z</time>
      </trkpt>
      <trkpt lat="42.2602" lon="2.50468">
        <ele>685.2</ele>
        <time>2015-01-17T16:32:50Z</time>
      </trkpt>
      <trkpt lat="42.26012" lon="2.50462">
        <ele>682.2</ele>
        <time>2015-01-17T16:32:54Z</time>
      </trkpt>
      <trkpt lat="42.26002" lon="2.5047">
        <ele>679.2</ele>
        <time>2015-01-17T16:32:59Z</time>
      </trkpt>
      <trkpt lat="42.25994" lon="2.50478">
        <ele>676.2</ele>
        <time>2015-01-17T16:33:03Z</time>
      </trkpt>
      <trkpt lat="42.25983" lon="2.50478">
        <ele>674</ele>
        <time>2015-01-17T16:33:07Z</time>
      </trkpt>
      <trkpt lat="42.25972" lon="2.50476">
        <ele>670.2</ele>
        <time>2015-01-17T16:33:11Z</time>
      </trkpt>
      <trkpt lat="42.25963" lon="2.50481">
        <ele>669</ele>
        <time>2015-01-17T16:33:16Z</time>
      </trkpt>
      <trkpt lat="42.25957" lon="2.50495">
        <ele>665.2</ele>
        <time>2015-01-17T16:33:21Z</time>
      </trkpt>
      <trkpt lat="42.25948" lon="2.50505">
        <ele>662.2</ele>
        <time>2015-01-17T16:33:25Z</time>
      </trkpt>
      <trkpt lat="42.25938" lon="2.50513">
        <ele>660.7</ele>
        <time>2015-01-17T16:33:29Z</time>
      </trkpt>
      <trkpt lat="42.25932" lon="2.50523">
        <ele>659.1</ele>
        <time>2015-01-17T16:33:32Z</time>
      </trkpt>
      <trkpt lat="42.25926" lon="2.50535">
        <ele>658.1</ele>
        <time>2015-01-17T16:33:36Z</time>
      </trkpt>
      <trkpt lat="42.25926" lon="2.50545">
        <ele>657</ele>
        <time>2015-01-17T16:33:45Z</time>
      </trkpt>
      <trkpt lat="42.2592" lon="2.50539">
        <ele>657</ele>
        <time>2015-01-17T16:34:17Z</time>
      </trkpt>
      <trkpt lat="42.25916" lon="2.50533">
        <ele>657</ele>
        <time>2015-01-17T16:34:24Z</time>
      </trkpt>
      <trkpt lat="42.25923" lon="2.50531">
        <ele>661</ele>
        <time>2015-01-17T16:40:40Z</time>
      </trkpt>
      <trkpt lat="42.25928" lon="2.50537">
        <ele>661</ele>
        <time>2015-01-17T16:40:56Z</time>
      </trkpt>
      <trkpt lat="42.25932" lon="2.50545">
        <ele>659</ele>
        <time>2015-01-17T16:41:01Z</time>
      </trkpt>
      <trkpt lat="42.25939" lon="2.50549">
        <ele>660</ele>
        <time>2015-01-17T16:41:08Z</time>
      </trkpt>
      <trkpt lat="42.25947" lon="2.50553">
        <ele>660</ele>
        <time>2015-01-17T16:41:15Z</time>
      </trkpt>
      <trkpt lat="42.25955" lon="2.50561">
        <ele>658</ele>
        <time>2015-01-17T16:41:22Z</time>
      </trkpt>
      <trkpt lat="42.25965" lon="2.50568">
        <ele>658</ele>
        <time>2015-01-17T16:41:29Z</time>
      </trkpt>
      <trkpt lat="42.25973" lon="2.50577">
        <ele>656</ele>
        <time>2015-01-17T16:41:35Z</time>
      </trkpt>
      <trkpt lat="42.2598" lon="2.50586">
        <ele>654</ele>
        <time>2015-01-17T16:41:41Z</time>
      </trkpt>
      <trkpt lat="42.25987" lon="2.50596">
        <ele>652</ele>
        <time>2015-01-17T16:41:47Z</time>
      </trkpt>
      <trkpt lat="42.25994" lon="2.50606">
        <ele>651</ele>
        <time>2015-01-17T16:41:53Z</time>
      </trkpt>
      <trkpt lat="42.26001" lon="2.50617">
        <ele>647.5</ele>
        <time>2015-01-17T16:42:00Z</time>
      </trkpt>
      <trkpt lat="42.26008" lon="2.50624">
        <ele>647</ele>
        <time>2015-01-17T16:42:07Z</time>
      </trkpt>
      <trkpt lat="42.26017" lon="2.50634">
        <ele>647</ele>
        <time>2015-01-17T16:42:15Z</time>
      </trkpt>
      <trkpt lat="42.26025" lon="2.50642">
        <ele>644</ele>
        <time>2015-01-17T16:42:22Z</time>
      </trkpt>
      <trkpt lat="42.26034" lon="2.50651">
        <ele>642</ele>
        <time>2015-01-17T16:42:29Z</time>
      </trkpt>
      <trkpt lat="42.26043" lon="2.50655">
        <ele>639</ele>
        <time>2015-01-17T16:42:39Z</time>
      </trkpt>
      <trkpt lat="42.26052" lon="2.50662">
        <ele>638</ele>
        <time>2015-01-17T16:42:47Z</time>
      </trkpt>
      <trkpt lat="42.26061" lon="2.5067">
        <ele>637</ele>
        <time>2015-01-17T16:42:56Z</time>
      </trkpt>
      <trkpt lat="42.26071" lon="2.50676">
        <ele>632</ele>
        <time>2015-01-17T16:43:07Z</time>
      </trkpt>
      <trkpt lat="42.26082" lon="2.50678">
        <ele>631</ele>
        <time>2015-01-17T16:43:14Z</time>
      </trkpt>
      <trkpt lat="42.26091" lon="2.50684">
        <ele>629</ele>
        <time>2015-01-17T16:43:26Z</time>
      </trkpt>
      <trkpt lat="42.26101" lon="2.50689">
        <ele>629</ele>
        <time>2015-01-17T16:43:33Z</time>
      </trkpt>
      <trkpt lat="42.26108" lon="2.50699">
        <ele>629</ele>
        <time>2015-01-17T16:43:39Z</time>
      </trkpt>
      <trkpt lat="42.26118" lon="2.50702">
        <ele>629</ele>
        <time>2015-01-17T16:43:48Z</time>
      </trkpt>
      <trkpt lat="42.26128" lon="2.50696">
        <ele>629</ele>
        <time>2015-01-17T16:43:57Z</time>
      </trkpt>
      <trkpt lat="42.26139" lon="2.50695">
        <ele>629</ele>
        <time>2015-01-17T16:44:05Z</time>
      </trkpt>
      <trkpt lat="42.26151" lon="2.50697">
        <ele>629</ele>
        <time>2015-01-17T16:44:13Z</time>
      </trkpt>
      <trkpt lat="42.26161" lon="2.507">
        <ele>630.5</ele>
        <time>2015-01-17T16:44:20Z</time>
      </trkpt>
      <trkpt lat="42.26172" lon="2.50705">
        <ele>632.5</ele>
        <time>2015-01-17T16:44:30Z</time>
      </trkpt>
      <trkpt lat="42.26183" lon="2.5071">
        <ele>633</ele>
        <time>2015-01-17T16:44:37Z</time>
      </trkpt>
      <trkpt lat="42.26193" lon="2.50716">
        <ele>633</ele>
        <time>2015-01-17T16:44:45Z</time>
      </trkpt>
      <trkpt lat="42.26202" lon="2.50722">
        <ele>632</ele>
        <time>2015-01-17T16:44:53Z</time>
      </trkpt>
      <trkpt lat="42.2621" lon="2.50731">
        <ele>630.5</ele>
        <time>2015-01-17T16:45:00Z</time>
      </trkpt>
      <trkpt lat="42.26218" lon="2.50741">
        <ele>630</ele>
        <time>2015-01-17T16:45:07Z</time>
      </trkpt>
      <trkpt lat="42.26223" lon="2.50753">
        <ele>629</ele>
        <time>2015-01-17T16:45:14Z</time>
      </trkpt>
      <trkpt lat="42.26229" lon="2.50764">
        <ele>628</ele>
        <time>2015-01-17T16:45:21Z</time>
      </trkpt>
      <trkpt lat="42.26235" lon="2.50776">
        <ele>625.7</ele>
        <time>2015-01-17T16:45:30Z</time>
      </trkpt>
      <trkpt lat="42.26241" lon="2.50787">
        <ele>623</ele>
        <time>2015-01-17T16:45:37Z</time>
      </trkpt>
      <trkpt lat="42.26247" lon="2.508">
        <ele>622</ele>
        <time>2015-01-17T16:45:44Z</time>
      </trkpt>
      <trkpt lat="42.26253" lon="2.50812">
        <ele>620</ele>
        <time>2015-01-17T16:45:52Z</time>
      </trkpt>
      <trkpt lat="42.2626" lon="2.50824">
        <ele>619</ele>
        <time>2015-01-17T16:45:59Z</time>
      </trkpt>
      <trkpt lat="42.26265" lon="2.50836">
        <ele>616</ele>
        <time>2015-01-17T16:46:06Z</time>
      </trkpt>
      <trkpt lat="42.26271" lon="2.50848">
        <ele>615</ele>
        <time>2015-01-17T16:46:12Z</time>
      </trkpt>
      <trkpt lat="42.26278" lon="2.50858">
        <ele>615</ele>
        <time>2015-01-17T16:46:19Z</time>
      </trkpt>
      <trkpt lat="42.26285" lon="2.50866">
        <ele>614</ele>
        <time>2015-01-17T16:46:25Z</time>
      </trkpt>
      <trkpt lat="42.26291" lon="2.50877">
        <ele>613</ele>
        <time>2015-01-17T16:46:33Z</time>
      </trkpt>
      <trkpt lat="42.26299" lon="2.50888">
        <ele>611</ele>
        <time>2015-01-17T16:46:42Z</time>
      </trkpt>
      <trkpt lat="42.26306" lon="2.50897">
        <ele>611</ele>
        <time>2015-01-17T16:46:49Z</time>
      </trkpt>
      <trkpt lat="42.2631" lon="2.5091">
        <ele>610</ele>
        <time>2015-01-17T16:46:56Z</time>
      </trkpt>
      <trkpt lat="42.26319" lon="2.50919">
        <ele>608</ele>
        <time>2015-01-17T16:47:03Z</time>
      </trkpt>
      <trkpt lat="42.26325" lon="2.5093">
        <ele>608</ele>
        <time>2015-01-17T16:47:09Z</time>
      </trkpt>
      <trkpt lat="42.26329" lon="2.50943">
        <ele>607</ele>
        <time>2015-01-17T16:47:15Z</time>
      </trkpt>
      <trkpt lat="42.26336" lon="2.50953">
        <ele>606</ele>
        <time>2015-01-17T16:47:21Z</time>
      </trkpt>
      <trkpt lat="42.2634" lon="2.50966">
        <ele>606</ele>
        <time>2015-01-17T16:47:27Z</time>
      </trkpt>
      <trkpt lat="42.26342" lon="2.50981">
        <ele>604</ele>
        <time>2015-01-17T16:47:35Z</time>
      </trkpt>
      <trkpt lat="42.26344" lon="2.50995">
        <ele>602</ele>
        <time>2015-01-17T16:47:42Z</time>
      </trkpt>
      <trkpt lat="42.26337" lon="2.51006">
        <ele>601</ele>
        <time>2015-01-17T16:47:49Z</time>
      </trkpt>
      <trkpt lat="42.26334" lon="2.51018">
        <ele>599</ele>
        <time>2015-01-17T16:47:56Z</time>
      </trkpt>
      <trkpt lat="42.2633" lon="2.51031">
        <ele>597</ele>
        <time>2015-01-17T16:48:04Z</time>
      </trkpt>
      <trkpt lat="42.26328" lon="2.51044">
        <ele>595</ele>
        <time>2015-01-17T16:48:12Z</time>
      </trkpt>
      <trkpt lat="42.26326" lon="2.51058">
        <ele>595</ele>
        <time>2015-01-17T16:48:19Z</time>
      </trkpt>
      <trkpt lat="42.26321" lon="2.5107">
        <ele>591</ele>
        <time>2015-01-17T16:48:26Z</time>
      </trkpt>
      <trkpt lat="42.26314" lon="2.51082">
        <ele>590</ele>
        <time>2015-01-17T16:48:33Z</time>
      </trkpt>
      <trkpt lat="42.26311" lon="2.51095">
        <ele>590</ele>
        <time>2015-01-17T16:48:39Z</time>
      </trkpt>
      <trkpt lat="42.26304" lon="2.51104">
        <ele>589</ele>
        <time>2015-01-17T16:48:45Z</time>
      </trkpt>
      <trkpt lat="42.263" lon="2.51118">
        <ele>587</ele>
        <time>2015-01-17T16:48:53Z</time>
      </trkpt>
      <trkpt lat="42.26297" lon="2.51132">
        <ele>584</ele>
        <time>2015-01-17T16:49:02Z</time>
      </trkpt>
      <trkpt lat="42.26296" lon="2.51146">
        <ele>582.2</ele>
        <time>2015-01-17T16:49:10Z</time>
      </trkpt>
      <trkpt lat="42.26292" lon="2.51159">
        <ele>582</ele>
        <time>2015-01-17T16:49:19Z</time>
      </trkpt>
      <trkpt lat="42.26287" lon="2.51171">
        <ele>580</ele>
        <time>2015-01-17T16:49:28Z</time>
      </trkpt>
      <trkpt lat="42.26286" lon="2.51185">
        <ele>576</ele>
        <time>2015-01-17T16:49:37Z</time>
      </trkpt>
      <trkpt lat="42.26282" lon="2.51198">
        <ele>575</ele>
        <time>2015-01-17T16:49:46Z</time>
      </trkpt>
      <trkpt lat="42.26283" lon="2.51213">
        <ele>572</ele>
        <time>2015-01-17T16:49:56Z</time>
      </trkpt>
      <trkpt lat="42.26286" lon="2.51227">
        <ele>570</ele>
        <time>2015-01-17T16:50:04Z</time>
      </trkpt>
      <trkpt lat="42.26285" lon="2.51241">
        <ele>568</ele>
        <time>2015-01-17T16:50:12Z</time>
      </trkpt>
      <trkpt lat="42.26295" lon="2.51242">
        <ele>568</ele>
        <time>2015-01-17T16:50:21Z</time>
      </trkpt>
      <trkpt lat="42.26306" lon="2.5124">
        <ele>568</ele>
        <time>2015-01-17T16:50:29Z</time>
      </trkpt>
      <trkpt lat="42.26316" lon="2.51237">
        <ele>569</ele>
        <time>2015-01-17T16:50:36Z</time>
      </trkpt>
      <trkpt lat="42.26328" lon="2.51236">
        <ele>570</ele>
        <time>2015-01-17T16:50:43Z</time>
      </trkpt>
      <trkpt lat="42.26338" lon="2.51238">
        <ele>571.5</ele>
        <time>2015-01-17T16:50:50Z</time>
      </trkpt>
      <trkpt lat="42.26349" lon="2.5124">
        <ele>572</ele>
        <time>2015-01-17T16:50:58Z</time>
      </trkpt>
      <trkpt lat="42.26358" lon="2.5124">
        <ele>575</ele>
        <time>2015-01-17T16:51:05Z</time>
      </trkpt>
      <trkpt lat="42.26368" lon="2.5124">
        <ele>575</ele>
        <time>2015-01-17T16:51:12Z</time>
      </trkpt>
      <trkpt lat="42.26377" lon="2.51245">
        <ele>575</ele>
        <time>2015-01-17T16:51:18Z</time>
      </trkpt>
      <trkpt lat="42.26385" lon="2.51252">
        <ele>575</ele>
        <time>2015-01-17T16:51:24Z</time>
      </trkpt>
      <trkpt lat="42.26393" lon="2.51261">
        <ele>576.5</ele>
        <time>2015-01-17T16:51:30Z</time>
      </trkpt>
      <trkpt lat="42.26399" lon="2.51274">
        <ele>577</ele>
        <time>2015-01-17T16:51:37Z</time>
      </trkpt>
      <trkpt lat="42.26404" lon="2.51287">
        <ele>578</ele>
        <time>2015-01-17T16:51:43Z</time>
      </trkpt>
      <trkpt lat="42.26405" lon="2.51302">
        <ele>578</ele>
        <time>2015-01-17T16:51:50Z</time>
      </trkpt>
      <trkpt lat="42.26409" lon="2.51314">
        <ele>578</ele>
        <time>2015-01-17T16:51:55Z</time>
      </trkpt>
      <trkpt lat="42.26413" lon="2.51329">
        <ele>576</ele>
        <time>2015-01-17T16:52:01Z</time>
      </trkpt>
      <trkpt lat="42.26415" lon="2.51343">
        <ele>576</ele>
        <time>2015-01-17T16:52:07Z</time>
      </trkpt>
      <trkpt lat="42.26423" lon="2.51354">
        <ele>576</ele>
        <time>2015-01-17T16:52:12Z</time>
      </trkpt>
      <trkpt lat="42.26433" lon="2.51363">
        <ele>576</ele>
        <time>2015-01-17T16:52:17Z</time>
      </trkpt>
      <trkpt lat="42.26443" lon="2.51368">
        <ele>575</ele>
        <time>2015-01-17T16:52:22Z</time>
      </trkpt>
      <trkpt lat="42.26451" lon="2.51369">
        <ele>575</ele>
        <time>2015-01-17T16:52:25Z</time>
      </trkpt>
      <trkpt lat="42.2646" lon="2.51366">
        <ele>575</ele>
        <time>2015-01-17T16:52:29Z</time>
      </trkpt>
      <trkpt lat="42.26467" lon="2.51363">
        <ele>573</ele>
        <time>2015-01-17T16:52:32Z</time>
      </trkpt>
      <trkpt lat="42.26475" lon="2.5136">
        <ele>570.7</ele>
        <time>2015-01-17T16:52:35Z</time>
      </trkpt>
      <trkpt lat="42.26482" lon="2.51358">
        <ele>570</ele>
        <time>2015-01-17T16:52:38Z</time>
      </trkpt>
      <trkpt lat="42.2649" lon="2.51356">
        <ele>568</ele>
        <time>2015-01-17T16:52:41Z</time>
      </trkpt>
      <trkpt lat="42.26498" lon="2.51356">
        <ele>568</ele>
        <time>2015-01-17T16:52:44Z</time>
      </trkpt>
      <trkpt lat="42.26506" lon="2.51358">
        <ele>567</ele>
        <time>2015-01-17T16:52:47Z</time>
      </trkpt>
      <trkpt lat="42.26514" lon="2.51363">
        <ele>566.1</ele>
        <time>2015-01-17T16:52:50Z</time>
      </trkpt>
      <trkpt lat="42.26523" lon="2.51372">
        <ele>566</ele>
        <time>2015-01-17T16:52:54Z</time>
      </trkpt>
      <trkpt lat="42.26532" lon="2.51382">
        <ele>565</ele>
        <time>2015-01-17T16:52:58Z</time>
      </trkpt>
      <trkpt lat="42.2654" lon="2.5139">
        <ele>562</ele>
        <time>2015-01-17T16:53:02Z</time>
      </trkpt>
      <trkpt lat="42.2655" lon="2.51397">
        <ele>562</ele>
        <time>2015-01-17T16:53:06Z</time>
      </trkpt>
      <trkpt lat="42.26559" lon="2.51403">
        <ele>560.3</ele>
        <time>2015-01-17T16:53:10Z</time>
      </trkpt>
      <trkpt lat="42.26569" lon="2.51407">
        <ele>560</ele>
        <time>2015-01-17T16:53:14Z</time>
      </trkpt>
      <trkpt lat="42.26579" lon="2.51408">
        <ele>559</ele>
        <time>2015-01-17T16:53:18Z</time>
      </trkpt>
      <trkpt lat="42.2659" lon="2.51412">
        <ele>556</ele>
        <time>2015-01-17T16:53:23Z</time>
      </trkpt>
      <trkpt lat="42.26599" lon="2.51415">
        <ele>555</ele>
        <time>2015-01-17T16:53:27Z</time>
      </trkpt>
      <trkpt lat="42.26611" lon="2.51417">
        <ele>555</ele>
        <time>2015-01-17T16:53:32Z</time>
      </trkpt>
      <trkpt lat="42.2662" lon="2.5142">
        <ele>555</ele>
        <time>2015-01-17T16:53:36Z</time>
      </trkpt>
      <trkpt lat="42.2663" lon="2.51424">
        <ele>553.3</ele>
        <time>2015-01-17T16:53:40Z</time>
      </trkpt>
      <trkpt lat="42.26639" lon="2.51434">
        <ele>553</ele>
        <time>2015-01-17T16:53:44Z</time>
      </trkpt>
      <trkpt lat="42.26645" lon="2.51445">
        <ele>553</ele>
        <time>2015-01-17T16:53:48Z</time>
      </trkpt>
      <trkpt lat="42.26652" lon="2.51451">
        <ele>550</ele>
        <time>2015-01-17T16:53:53Z</time>
      </trkpt>
      <trkpt lat="42.26657" lon="2.51439">
        <ele>548</ele>
        <time>2015-01-17T16:53:58Z</time>
      </trkpt>
      <trkpt lat="42.26663" lon="2.51429">
        <ele>545</ele>
        <time>2015-01-17T16:54:03Z</time>
      </trkpt>
      <trkpt lat="42.26673" lon="2.51433">
        <ele>544</ele>
        <time>2015-01-17T16:54:08Z</time>
      </trkpt>
      <trkpt lat="42.26679" lon="2.51446">
        <ele>544</ele>
        <time>2015-01-17T16:54:13Z</time>
      </trkpt>
      <trkpt lat="42.26683" lon="2.5146">
        <ele>544</ele>
        <time>2015-01-17T16:54:18Z</time>
      </trkpt>
      <trkpt lat="42.26694" lon="2.51459">
        <ele>540</ele>
        <time>2015-01-17T16:54:24Z</time>
      </trkpt>
      <trkpt lat="42.26703" lon="2.51451">
        <ele>538</ele>
        <time>2015-01-17T16:54:29Z</time>
      </trkpt>
      <trkpt lat="42.26711" lon="2.51443">
        <ele>537</ele>
        <time>2015-01-17T16:54:34Z</time>
      </trkpt>
      <trkpt lat="42.26722" lon="2.51434">
        <ele>534</ele>
        <time>2015-01-17T16:54:38Z</time>
      </trkpt>
      <trkpt lat="42.26731" lon="2.51424">
        <ele>532</ele>
        <time>2015-01-17T16:54:42Z</time>
      </trkpt>
      <trkpt lat="42.26739" lon="2.51412">
        <ele>527.1</ele>
        <time>2015-01-17T16:54:47Z</time>
      </trkpt>
      <trkpt lat="42.26744" lon="2.51398">
        <ele>526</ele>
        <time>2015-01-17T16:54:52Z</time>
      </trkpt>
      <trkpt lat="42.26748" lon="2.51384">
        <ele>523</ele>
        <time>2015-01-17T16:54:57Z</time>
      </trkpt>
      <trkpt lat="42.26755" lon="2.51375">
        <ele>520</ele>
        <time>2015-01-17T16:55:02Z</time>
      </trkpt>
      <trkpt lat="42.26763" lon="2.51387">
        <ele>518.1</ele>
        <time>2015-01-17T16:55:06Z</time>
      </trkpt>
      <trkpt lat="42.26771" lon="2.51397">
        <ele>517</ele>
        <time>2015-01-17T16:55:09Z</time>
      </trkpt>
      <trkpt lat="42.26775" lon="2.51412">
        <ele>517</ele>
        <time>2015-01-17T16:55:13Z</time>
      </trkpt>
      <trkpt lat="42.26777" lon="2.51427">
        <ele>515</ele>
        <time>2015-01-17T16:55:17Z</time>
      </trkpt>
      <trkpt lat="42.26776" lon="2.51441">
        <ele>513</ele>
        <time>2015-01-17T16:55:21Z</time>
      </trkpt>
      <trkpt lat="42.26775" lon="2.51457">
        <ele>512</ele>
        <time>2015-01-17T16:55:26Z</time>
      </trkpt>
      <trkpt lat="42.26772" lon="2.51473">
        <ele>511</ele>
        <time>2015-01-17T16:55:31Z</time>
      </trkpt>
      <trkpt lat="42.26767" lon="2.51487">
        <ele>511</ele>
        <time>2015-01-17T16:55:36Z</time>
      </trkpt>
      <trkpt lat="42.26763" lon="2.51501">
        <ele>509</ele>
        <time>2015-01-17T16:55:41Z</time>
      </trkpt>
      <trkpt lat="42.2676" lon="2.51516">
        <ele>509</ele>
        <time>2015-01-17T16:55:46Z</time>
      </trkpt>
      <trkpt lat="42.26756" lon="2.51531">
        <ele>506</ele>
        <time>2015-01-17T16:55:51Z</time>
      </trkpt>
      <trkpt lat="42.26751" lon="2.51543">
        <ele>504.3</ele>
        <time>2015-01-17T16:55:55Z</time>
      </trkpt>
      <trkpt lat="42.26747" lon="2.51556">
        <ele>504</ele>
        <time>2015-01-17T16:55:59Z</time>
      </trkpt>
      <trkpt lat="42.26741" lon="2.5157">
        <ele>500</ele>
        <time>2015-01-17T16:56:04Z</time>
      </trkpt>
      <trkpt lat="42.26735" lon="2.51581">
        <ele>499</ele>
        <time>2015-01-17T16:56:08Z</time>
      </trkpt>
      <trkpt lat="42.26729" lon="2.51593">
        <ele>498</ele>
        <time>2015-01-17T16:56:12Z</time>
      </trkpt>
      <trkpt lat="42.26734" lon="2.51606">
        <ele>496</ele>
        <time>2015-01-17T16:56:19Z</time>
      </trkpt>
      <trkpt lat="42.26744" lon="2.51601">
        <ele>494</ele>
        <time>2015-01-17T16:56:24Z</time>
      </trkpt>
      <trkpt lat="42.26755" lon="2.51597">
        <ele>492</ele>
        <time>2015-01-17T16:56:29Z</time>
      </trkpt>
      <trkpt lat="42.26765" lon="2.51592">
        <ele>491</ele>
        <time>2015-01-17T16:56:33Z</time>
      </trkpt>
      <trkpt lat="42.26775" lon="2.51587">
        <ele>489</ele>
        <time>2015-01-17T16:56:37Z</time>
      </trkpt>
      <trkpt lat="42.26786" lon="2.51585">
        <ele>487</ele>
        <time>2015-01-17T16:56:41Z</time>
      </trkpt>
      <trkpt lat="42.26797" lon="2.51583">
        <ele>484.4</ele>
        <time>2015-01-17T16:56:45Z</time>
      </trkpt>
      <trkpt lat="42.26808" lon="2.51579">
        <ele>484</ele>
        <time>2015-01-17T16:56:49Z</time>
      </trkpt>
      <trkpt lat="42.26819" lon="2.51574">
        <ele>483</ele>
        <time>2015-01-17T16:56:54Z</time>
      </trkpt>
      <trkpt lat="42.26829" lon="2.51571">
        <ele>480</ele>
        <time>2015-01-17T16:56:58Z</time>
      </trkpt>
      <trkpt lat="42.2684" lon="2.51563">
        <ele>477</ele>
        <time>2015-01-17T16:57:02Z</time>
      </trkpt>
      <trkpt lat="42.2685" lon="2.51555">
        <ele>475</ele>
        <time>2015-01-17T16:57:06Z</time>
      </trkpt>
      <trkpt lat="42.26861" lon="2.51552">
        <ele>473.1</ele>
        <time>2015-01-17T16:57:10Z</time>
      </trkpt>
      <trkpt lat="42.26872" lon="2.51548">
        <ele>473</ele>
        <time>2015-01-17T16:57:14Z</time>
      </trkpt>
      <trkpt lat="42.26883" lon="2.51549">
        <ele>471</ele>
        <time>2015-01-17T16:57:18Z</time>
      </trkpt>
      <trkpt lat="42.26891" lon="2.51559">
        <ele>470</ele>
        <time>2015-01-17T16:57:21Z</time>
      </trkpt>
      <trkpt lat="42.26897" lon="2.51571">
        <ele>470</ele>
        <time>2015-01-17T16:57:24Z</time>
      </trkpt>
      <trkpt lat="42.26899" lon="2.51585">
        <ele>468</ele>
        <time>2015-01-17T16:57:27Z</time>
      </trkpt>
      <trkpt lat="42.26901" lon="2.51599">
        <ele>467</ele>
        <time>2015-01-17T16:57:31Z</time>
      </trkpt>
      <trkpt lat="42.26904" lon="2.51612">
        <ele>466.1</ele>
        <time>2015-01-17T16:57:35Z</time>
      </trkpt>
      <trkpt lat="42.26904" lon="2.51629">
        <ele>466</ele>
        <time>2015-01-17T16:57:39Z</time>
      </trkpt>
      <trkpt lat="42.26904" lon="2.51644">
        <ele>465</ele>
        <time>2015-01-17T16:57:43Z</time>
      </trkpt>
      <trkpt lat="42.26902" lon="2.51657">
        <ele>463</ele>
        <time>2015-01-17T16:57:47Z</time>
      </trkpt>
      <trkpt lat="42.26901" lon="2.51674">
        <ele>461</ele>
        <time>2015-01-17T16:57:51Z</time>
      </trkpt>
      <trkpt lat="42.26899" lon="2.51689">
        <ele>460.1</ele>
        <time>2015-01-17T16:57:55Z</time>
      </trkpt>
      <trkpt lat="42.26897" lon="2.51705">
        <ele>460</ele>
        <time>2015-01-17T16:57:59Z</time>
      </trkpt>
      <trkpt lat="42.2689" lon="2.51717">
        <ele>458</ele>
        <time>2015-01-17T16:58:03Z</time>
      </trkpt>
      <trkpt lat="42.26881" lon="2.51725">
        <ele>457</ele>
        <time>2015-01-17T16:58:07Z</time>
      </trkpt>
      <trkpt lat="42.26869" lon="2.5173">
        <ele>456</ele>
        <time>2015-01-17T16:58:11Z</time>
      </trkpt>
      <trkpt lat="42.26859" lon="2.51733">
        <ele>456</ele>
        <time>2015-01-17T16:58:15Z</time>
      </trkpt>
      <trkpt lat="42.26848" lon="2.51735">
        <ele>456</ele>
        <time>2015-01-17T16:58:19Z</time>
      </trkpt>
      <trkpt lat="42.26837" lon="2.51735">
        <ele>455</ele>
        <time>2015-01-17T16:58:23Z</time>
      </trkpt>
      <trkpt lat="42.26826" lon="2.51736">
        <ele>455</ele>
        <time>2015-01-17T16:58:27Z</time>
      </trkpt>
      <trkpt lat="42.26814" lon="2.51737">
        <ele>453</ele>
        <time>2015-01-17T16:58:32Z</time>
      </trkpt>
      <trkpt lat="42.26803" lon="2.51737">
        <ele>452</ele>
        <time>2015-01-17T16:58:36Z</time>
      </trkpt>
      <trkpt lat="42.26792" lon="2.51741">
        <ele>452</ele>
        <time>2015-01-17T16:58:40Z</time>
      </trkpt>
      <trkpt lat="42.26782" lon="2.51747">
        <ele>452</ele>
        <time>2015-01-17T16:58:44Z</time>
      </trkpt>
      <trkpt lat="42.26773" lon="2.51752">
        <ele>452</ele>
        <time>2015-01-17T16:58:48Z</time>
      </trkpt>
      <trkpt lat="42.26761" lon="2.51753">
        <ele>449</ele>
        <time>2015-01-17T16:58:52Z</time>
      </trkpt>
      <trkpt lat="42.26749" lon="2.51755">
        <ele>447</ele>
        <time>2015-01-17T16:58:56Z</time>
      </trkpt>
      <trkpt lat="42.26739" lon="2.51762">
        <ele>445</ele>
        <time>2015-01-17T16:59:01Z</time>
      </trkpt>
      <trkpt lat="42.26744" lon="2.51776">
        <ele>444</ele>
        <time>2015-01-17T16:59:06Z</time>
      </trkpt>
      <trkpt lat="42.26756" lon="2.51775">
        <ele>442</ele>
        <time>2015-01-17T16:59:11Z</time>
      </trkpt>
      <trkpt lat="42.26766" lon="2.51775">
        <ele>440.3</ele>
        <time>2015-01-17T16:59:15Z</time>
      </trkpt>
      <trkpt lat="42.26778" lon="2.51776">
        <ele>440</ele>
        <time>2015-01-17T16:59:20Z</time>
      </trkpt>
      <trkpt lat="42.26787" lon="2.51783">
        <ele>440</ele>
        <time>2015-01-17T16:59:23Z</time>
      </trkpt>
      <trkpt lat="42.26795" lon="2.51794">
        <ele>437</ele>
        <time>2015-01-17T16:59:27Z</time>
      </trkpt>
      <trkpt lat="42.26801" lon="2.51805">
        <ele>434</ele>
        <time>2015-01-17T16:59:38Z</time>
      </trkpt>
      <trkpt lat="42.26806" lon="2.51819">
        <ele>434</ele>
        <time>2015-01-17T16:59:44Z</time>
      </trkpt>
      <trkpt lat="42.26817" lon="2.51825">
        <ele>434</ele>
        <time>2015-01-17T16:59:50Z</time>
      </trkpt>
      <trkpt lat="42.26828" lon="2.51831">
        <ele>434</ele>
        <time>2015-01-17T16:59:55Z</time>
      </trkpt>
      <trkpt lat="42.26836" lon="2.5184">
        <ele>434</ele>
        <time>2015-01-17T16:59:58Z</time>
      </trkpt>
      <trkpt lat="42.26843" lon="2.51853">
        <ele>430</ele>
        <time>2015-01-17T17:00:02Z</time>
      </trkpt>
      <trkpt lat="42.26849" lon="2.51866">
        <ele>430</ele>
        <time>2015-01-17T17:00:06Z</time>
      </trkpt>
      <trkpt lat="42.26855" lon="2.51877">
        <ele>430</ele>
        <time>2015-01-17T17:00:09Z</time>
      </trkpt>
      <trkpt lat="42.26863" lon="2.5189">
        <ele>428</ele>
        <time>2015-01-17T17:00:13Z</time>
      </trkpt>
      <trkpt lat="42.26869" lon="2.51901">
        <ele>425</ele>
        <time>2015-01-17T17:00:17Z</time>
      </trkpt>
      <trkpt lat="42.26873" lon="2.51915">
        <ele>426</ele>
        <time>2015-01-17T17:00:22Z</time>
      </trkpt>
      <trkpt lat="42.26875" lon="2.51931">
        <ele>426</ele>
        <time>2015-01-17T17:00:26Z</time>
      </trkpt>
      <trkpt lat="42.26875" lon="2.51947">
        <ele>424.3</ele>
        <time>2015-01-17T17:00:30Z</time>
      </trkpt>
      <trkpt lat="42.26876" lon="2.51962">
        <ele>424</ele>
        <time>2015-01-17T17:00:34Z</time>
      </trkpt>
      <trkpt lat="42.26877" lon="2.51976">
        <ele>424</ele>
        <time>2015-01-17T17:00:38Z</time>
      </trkpt>
      <trkpt lat="42.2688" lon="2.51989">
        <ele>421</ele>
        <time>2015-01-17T17:00:42Z</time>
      </trkpt>
      <trkpt lat="42.26886" lon="2.52001">
        <ele>419</ele>
        <time>2015-01-17T17:00:46Z</time>
      </trkpt>
      <trkpt lat="42.2689" lon="2.52014">
        <ele>417.3</ele>
        <time>2015-01-17T17:00:50Z</time>
      </trkpt>
      <trkpt lat="42.26899" lon="2.52026">
        <ele>417</ele>
        <time>2015-01-17T17:00:54Z</time>
      </trkpt>
      <trkpt lat="42.26904" lon="2.52039">
        <ele>416</ele>
        <time>2015-01-17T17:00:58Z</time>
      </trkpt>
      <trkpt lat="42.2691" lon="2.52053">
        <ele>414</ele>
        <time>2015-01-17T17:01:03Z</time>
      </trkpt>
      <trkpt lat="42.26915" lon="2.52069">
        <ele>414</ele>
        <time>2015-01-17T17:01:08Z</time>
      </trkpt>
      <trkpt lat="42.2692" lon="2.5208">
        <ele>413</ele>
        <time>2015-01-17T17:01:12Z</time>
      </trkpt>
      <trkpt lat="42.26924" lon="2.52093">
        <ele>413</ele>
        <time>2015-01-17T17:01:16Z</time>
      </trkpt>
      <trkpt lat="42.26929" lon="2.52105">
        <ele>410.4</ele>
        <time>2015-01-17T17:01:20Z</time>
      </trkpt>
      <trkpt lat="42.26932" lon="2.52121">
        <ele>410</ele>
        <time>2015-01-17T17:01:25Z</time>
      </trkpt>
      <trkpt lat="42.26936" lon="2.52135">
        <ele>410</ele>
        <time>2015-01-17T17:01:29Z</time>
      </trkpt>
      <trkpt lat="42.26935" lon="2.52148">
        <ele>408</ele>
        <time>2015-01-17T17:01:33Z</time>
      </trkpt>
      <trkpt lat="42.26936" lon="2.52163">
        <ele>407</ele>
        <time>2015-01-17T17:01:37Z</time>
      </trkpt>
      <trkpt lat="42.26934" lon="2.52179">
        <ele>407</ele>
        <time>2015-01-17T17:01:42Z</time>
      </trkpt>
      <trkpt lat="42.26932" lon="2.52195">
        <ele>407</ele>
        <time>2015-01-17T17:01:47Z</time>
      </trkpt>
      <trkpt lat="42.26931" lon="2.52211">
        <ele>407</ele>
        <time>2015-01-17T17:01:52Z</time>
      </trkpt>
      <trkpt lat="42.26927" lon="2.52226">
        <ele>407</ele>
        <time>2015-01-17T17:01:57Z</time>
      </trkpt>
      <trkpt lat="42.26922" lon="2.52237">
        <ele>404</ele>
        <time>2015-01-17T17:02:01Z</time>
      </trkpt>
      <trkpt lat="42.26918" lon="2.5225">
        <ele>404.9</ele>
        <time>2015-01-17T17:02:05Z</time>
      </trkpt>
      <trkpt lat="42.26915" lon="2.52265">
        <ele>405</ele>
        <time>2015-01-17T17:02:10Z</time>
      </trkpt>
      <trkpt lat="42.26913" lon="2.52279">
        <ele>405</ele>
        <time>2015-01-17T17:02:14Z</time>
      </trkpt>
      <trkpt lat="42.26913" lon="2.52294">
        <ele>405</ele>
        <time>2015-01-17T17:02:18Z</time>
      </trkpt>
      <trkpt lat="42.26913" lon="2.52309">
        <ele>403</ele>
        <time>2015-01-17T17:02:22Z</time>
      </trkpt>
      <trkpt lat="42.26912" lon="2.52326">
        <ele>403</ele>
        <time>2015-01-17T17:02:27Z</time>
      </trkpt>
      <trkpt lat="42.26913" lon="2.52342">
        <ele>400</ele>
        <time>2015-01-17T17:02:32Z</time>
      </trkpt>
      <trkpt lat="42.2691" lon="2.52358">
        <ele>398</ele>
        <time>2015-01-17T17:02:37Z</time>
      </trkpt>
      <trkpt lat="42.2691" lon="2.52372">
        <ele>397</ele>
        <time>2015-01-17T17:02:42Z</time>
      </trkpt>
      <trkpt lat="42.26908" lon="2.52387">
        <ele>397.9</ele>
        <time>2015-01-17T17:02:50Z</time>
      </trkpt>
      <trkpt lat="42.2691" lon="2.524">
        <ele>398</ele>
        <time>2015-01-17T17:02:59Z</time>
      </trkpt>
      <trkpt lat="42.26913" lon="2.52413">
        <ele>400</ele>
        <time>2015-01-17T17:03:08Z</time>
      </trkpt>
      <trkpt lat="42.26913" lon="2.52427">
        <ele>402</ele>
        <time>2015-01-17T17:03:15Z</time>
      </trkpt>
      <trkpt lat="42.26917" lon="2.52441">
        <ele>403</ele>
        <time>2015-01-17T17:03:24Z</time>
      </trkpt>
      <trkpt lat="42.26921" lon="2.52455">
        <ele>404</ele>
        <time>2015-01-17T17:03:32Z</time>
      </trkpt>
      <trkpt lat="42.26927" lon="2.52469">
        <ele>404</ele>
        <time>2015-01-17T17:03:39Z</time>
      </trkpt>
      <trkpt lat="42.26933" lon="2.52482">
        <ele>405</ele>
        <time>2015-01-17T17:03:46Z</time>
      </trkpt>
      <trkpt lat="42.26938" lon="2.52495">
        <ele>405</ele>
        <time>2015-01-17T17:03:53Z</time>
      </trkpt>
      <trkpt lat="42.26942" lon="2.52508">
        <ele>405</ele>
        <time>2015-01-17T17:03:59Z</time>
      </trkpt>
      <trkpt lat="42.26946" lon="2.52522">
        <ele>406</ele>
        <time>2015-01-17T17:04:07Z</time>
      </trkpt>
      <trkpt lat="42.2695" lon="2.52536">
        <ele>406</ele>
        <time>2015-01-17T17:04:14Z</time>
      </trkpt>
      <trkpt lat="42.26956" lon="2.52548">
        <ele>406</ele>
        <time>2015-01-17T17:04:21Z</time>
      </trkpt>
      <trkpt lat="42.26961" lon="2.52561">
        <ele>406</ele>
        <time>2015-01-17T17:04:28Z</time>
      </trkpt>
      <trkpt lat="42.26967" lon="2.52574">
        <ele>408</ele>
        <time>2015-01-17T17:04:34Z</time>
      </trkpt>
      <trkpt lat="42.26972" lon="2.52585">
        <ele>408</ele>
        <time>2015-01-17T17:04:40Z</time>
      </trkpt>
      <trkpt lat="42.26976" lon="2.52598">
        <ele>408</ele>
        <time>2015-01-17T17:04:47Z</time>
      </trkpt>
      <trkpt lat="42.26979" lon="2.5261">
        <ele>407</ele>
        <time>2015-01-17T17:04:53Z</time>
      </trkpt>
      <trkpt lat="42.26984" lon="2.5262">
        <ele>407</ele>
        <time>2015-01-17T17:04:58Z</time>
      </trkpt>
      <trkpt lat="42.26988" lon="2.52631">
        <ele>406</ele>
        <time>2015-01-17T17:05:04Z</time>
      </trkpt>
      <trkpt lat="42.26992" lon="2.52644">
        <ele>407</ele>
        <time>2015-01-17T17:05:11Z</time>
      </trkpt>
      <trkpt lat="42.26996" lon="2.52657">
        <ele>407</ele>
        <time>2015-01-17T17:05:18Z</time>
      </trkpt>
      <trkpt lat="42.27002" lon="2.5267">
        <ele>405</ele>
        <time>2015-01-17T17:05:24Z</time>
      </trkpt>
      <trkpt lat="42.27007" lon="2.52684">
        <ele>405</ele>
        <time>2015-01-17T17:05:31Z</time>
      </trkpt>
      <trkpt lat="42.27011" lon="2.52698">
        <ele>405</ele>
        <time>2015-01-17T17:05:38Z</time>
      </trkpt>
      <trkpt lat="42.27013" lon="2.52712">
        <ele>405</ele>
        <time>2015-01-17T17:05:45Z</time>
      </trkpt>
      <trkpt lat="42.27016" lon="2.52727">
        <ele>404</ele>
        <time>2015-01-17T17:05:52Z</time>
      </trkpt>
      <trkpt lat="42.27022" lon="2.52738">
        <ele>404</ele>
        <time>2015-01-17T17:05:58Z</time>
      </trkpt>
      <trkpt lat="42.27029" lon="2.52747">
        <ele>403</ele>
        <time>2015-01-17T17:06:05Z</time>
      </trkpt>
      <trkpt lat="42.27038" lon="2.52754">
        <ele>403</ele>
        <time>2015-01-17T17:06:12Z</time>
      </trkpt>
      <trkpt lat="42.27045" lon="2.52761">
        <ele>403</ele>
        <time>2015-01-17T17:06:17Z</time>
      </trkpt>
      <trkpt lat="42.27052" lon="2.52768">
        <ele>403</ele>
        <time>2015-01-17T17:06:23Z</time>
      </trkpt>
      <trkpt lat="42.27059" lon="2.52776">
        <ele>403</ele>
        <time>2015-01-17T17:06:30Z</time>
      </trkpt>
      <trkpt lat="42.27064" lon="2.52787">
        <ele>403</ele>
        <time>2015-01-17T17:06:42Z</time>
      </trkpt>
      <trkpt lat="42.2707" lon="2.52794">
        <ele>403</ele>
        <time>2015-01-17T17:06:47Z</time>
      </trkpt>
      <trkpt lat="42.27077" lon="2.52804">
        <ele>403</ele>
        <time>2015-01-17T17:06:55Z</time>
      </trkpt>
      <trkpt lat="42.27086" lon="2.52809">
        <ele>403</ele>
        <time>2015-01-17T17:07:01Z</time>
      </trkpt>
      <trkpt lat="42.27094" lon="2.52814">
        <ele>403</ele>
        <time>2015-01-17T17:07:07Z</time>
      </trkpt>
      <trkpt lat="42.27102" lon="2.52823">
        <ele>403</ele>
        <time>2015-01-17T17:07:14Z</time>
      </trkpt>
      <trkpt lat="42.27109" lon="2.52833">
        <ele>403</ele>
        <time>2015-01-17T17:07:22Z</time>
      </trkpt>
      <trkpt lat="42.27109" lon="2.52833">
        <ele>403</ele>
        <time>2015-01-17T17:07:27Z</time>
      </trkpt>
    </trkseg>
  </trk>
</gpx>